<?xml version='1.0' encoding='UTF-8'?><gpx version="1.1" creator="JPX - https://github.com/jenetics/jpx" xmlns="http://www.topografix.com/GPX/1/1"><trk><trkseg><trkpt lat="43.08162643055341" lon="12.149008852397051"><ele>265.2</ele><time>2026-05-03T06:01:56Z</time></trkpt><trkpt lat="43.08155768255309" lon="12.149053341210715"><ele>265.4</ele><time>2026-05-03T06:01:57Z</time></trkpt><trkpt lat="43.08147797846001" lon="12.149084849520086"><ele>265.6</ele><time>2026-05-03T06:01:58Z</time></trkpt><trkpt lat="43.08138961891407" lon="12.14910653108137"><ele>265.8</ele><time>2026-05-03T06:01:59Z</time></trkpt><trkpt lat="43.08128977757352" lon="12.149055030116157"><ele>266.0</ele><time>2026-05-03T06:02:00Z</time></trkpt><trkpt lat="43.08119072072118" lon="12.149059177844808"><ele>266.2</ele><time>2026-05-03T06:02:01Z</time></trkpt><trkpt lat="43.08110342126545" lon="12.149021471362403"><ele>266.40000000000003</ele><time>2026-05-03T06:02:02Z</time></trkpt><trkpt lat="43.08102002353775" lon="12.148951884238345"><ele>266.6</ele><time>2026-05-03T06:02:03Z</time></trkpt><trkpt lat="43.080921605465164" lon="12.148903182408059"><ele>266.8</ele><time>2026-05-03T06:02:04Z</time></trkpt><trkpt lat="43.08084011311135" lon="12.148820386076993"><ele>267.0</ele><time>2026-05-03T06:02:05Z</time></trkpt><trkpt lat="43.0807591636459" lon="12.148753569602968"><ele>267.6666666666667</ele><time>2026-05-03T06:02:06Z</time></trkpt><trkpt lat="43.08068665612848" lon="12.14869620786438"><ele>268.3333333333333</ele><time>2026-05-03T06:02:07Z</time></trkpt><trkpt lat="43.08063100685495" lon="12.148637148732586"><ele>269.0</ele><time>2026-05-03T06:02:08Z</time></trkpt><trkpt lat="43.08056345249004" lon="12.148608609392987"><ele>269.66666666666663</ele><time>2026-05-03T06:02:09Z</time></trkpt><trkpt lat="43.08049174598098" lon="12.14861898269299"><ele>270.3333333333333</ele><time>2026-05-03T06:02:10Z</time></trkpt><trkpt lat="43.080409873881294" lon="12.14865079507539"><ele>271.0</ele><time>2026-05-03T06:02:11Z</time></trkpt><trkpt lat="43.080315607292" lon="12.148640803938687"><ele>271.0</ele><time>2026-05-03T06:02:13Z</time></trkpt><trkpt lat="43.08030388486889" lon="12.14853179957943"><ele>271.0</ele><time>2026-05-03T06:02:15Z</time></trkpt><trkpt lat="43.08026322347306" lon="12.148407657207914"><ele>271.0</ele><time>2026-05-03T06:02:17Z</time></trkpt><trkpt lat="43.080186549172424" lon="12.148394763017581"><ele>271.0</ele><time>2026-05-03T06:02:18Z</time></trkpt><trkpt lat="43.08007930182996" lon="12.148424482701945"><ele>271.0</ele><time>2026-05-03T06:02:19Z</time></trkpt><trkpt lat="43.079974769174825" lon="12.148424482700978"><ele>271.40000000000003</ele><time>2026-05-03T06:02:20Z</time></trkpt><trkpt lat="43.07987021101197" lon="12.148424482700245"><ele>271.8</ele><time>2026-05-03T06:02:21Z</time></trkpt><trkpt lat="43.07976793364854" lon="12.148428898249504"><ele>272.20000000000005</ele><time>2026-05-03T06:02:22Z</time></trkpt><trkpt lat="43.07965418732355" lon="12.148439472017941"><ele>272.6</ele><time>2026-05-03T06:02:23Z</time></trkpt><trkpt lat="43.079579853301794" lon="12.148448795066724"><ele>273.0</ele><time>2026-05-03T06:02:24Z</time></trkpt><trkpt lat="43.07947256089697" lon="12.148470160010815"><ele>273.0</ele><time>2026-05-03T06:02:25Z</time></trkpt><trkpt lat="43.07938046655631" lon="12.148490438005092"><ele>273.0</ele><time>2026-05-03T06:02:26Z</time></trkpt><trkpt lat="43.07929574058622" lon="12.148511420546729"><ele>273.0</ele><time>2026-05-03T06:02:27Z</time></trkpt><trkpt lat="43.07919923786163" lon="12.14853531962794"><ele>273.0</ele><time>2026-05-03T06:02:28Z</time></trkpt><trkpt lat="43.079112923194856" lon="12.148556695615206"><ele>273.0</ele><time>2026-05-03T06:02:29Z</time></trkpt><trkpt lat="43.07901831730797" lon="12.148578530433925"><ele>273.4</ele><time>2026-05-03T06:02:30Z</time></trkpt><trkpt lat="43.078922240841315" lon="12.14859946396193"><ele>273.8</ele><time>2026-05-03T06:02:31Z</time></trkpt><trkpt lat="43.0788263656229" lon="12.148620207925921"><ele>274.2</ele><time>2026-05-03T06:02:32Z</time></trkpt><trkpt lat="43.07872449536417" lon="12.148642343004585"><ele>274.6</ele><time>2026-05-03T06:02:33Z</time></trkpt><trkpt lat="43.07861246036424" lon="12.148670603918239"><ele>275.0</ele><time>2026-05-03T06:02:34Z</time></trkpt><trkpt lat="43.07849679793157" lon="12.148709854363087"><ele>275.0</ele><time>2026-05-03T06:02:35Z</time></trkpt><trkpt lat="43.07839166298597" lon="12.148749884211592"><ele>275.0</ele><time>2026-05-03T06:02:36Z</time></trkpt><trkpt lat="43.07829156198982" lon="12.148806069122145"><ele>275.0</ele><time>2026-05-03T06:02:37Z</time></trkpt><trkpt lat="43.07818269837398" lon="12.148846556765188"><ele>275.0</ele><time>2026-05-03T06:02:38Z</time></trkpt><trkpt lat="43.07807308301706" lon="12.148888027155788"><ele>275.0</ele><time>2026-05-03T06:02:39Z</time></trkpt><trkpt lat="43.07795793184511" lon="12.148932366567694"><ele>275.0</ele><time>2026-05-03T06:02:40Z</time></trkpt><trkpt lat="43.0778474055802" lon="12.148952367670038"><ele>275.0</ele><time>2026-05-03T06:02:41Z</time></trkpt><trkpt lat="43.077728819284864" lon="12.148983864975616"><ele>275.0</ele><time>2026-05-03T06:02:42Z</time></trkpt><trkpt lat="43.07761690992313" lon="12.149057621831934"><ele>275.0</ele><time>2026-05-03T06:02:43Z</time></trkpt><trkpt lat="43.07749436574465" lon="12.149082079949785"><ele>275.5</ele><time>2026-05-03T06:02:44Z</time></trkpt><trkpt lat="43.077370785374804" lon="12.14908697306248"><ele>276.0</ele><time>2026-05-03T06:02:45Z</time></trkpt><trkpt lat="43.07724730020927" lon="12.149117002889682"><ele>276.5</ele><time>2026-05-03T06:02:46Z</time></trkpt><trkpt lat="43.077106698998314" lon="12.149104321895217"><ele>277.0</ele><time>2026-05-03T06:02:47Z</time></trkpt><trkpt lat="43.07697481025911" lon="12.149127390919237"><ele>277.0</ele><time>2026-05-03T06:02:48Z</time></trkpt><trkpt lat="43.07683305398243" lon="12.149158174186653"><ele>277.0</ele><time>2026-05-03T06:02:49Z</time></trkpt><trkpt lat="43.076704157353035" lon="12.14921236629939"><ele>277.0</ele><time>2026-05-03T06:02:50Z</time></trkpt><trkpt lat="43.07655714662792" lon="12.149256269334238"><ele>277.0</ele><time>2026-05-03T06:02:51Z</time></trkpt><trkpt lat="43.07641325687496" lon="12.149326952279662"><ele>277.66666666666663</ele><time>2026-05-03T06:02:52Z</time></trkpt><trkpt lat="43.07626222023625" lon="12.149412111138124"><ele>278.3333333333333</ele><time>2026-05-03T06:02:53Z</time></trkpt><trkpt lat="43.07611557996495" lon="12.149490087506885"><ele>279.0</ele><time>2026-05-03T06:02:54Z</time></trkpt><trkpt lat="43.07597337318723" lon="12.149562217571717"><ele>279.0</ele><time>2026-05-03T06:02:55Z</time></trkpt><trkpt lat="43.07583548001957" lon="12.149631234209407"><ele>279.0</ele><time>2026-05-03T06:02:56Z</time></trkpt><trkpt lat="43.0756823859166" lon="12.149682906237251"><ele>279.0</ele><time>2026-05-03T06:02:57Z</time></trkpt><trkpt lat="43.07553168884435" lon="12.149756187873079"><ele>279.3333333333333</ele><time>2026-05-03T06:02:58Z</time></trkpt><trkpt lat="43.07538277500579" lon="12.149829990649382"><ele>279.66666666666663</ele><time>2026-05-03T06:02:59Z</time></trkpt><trkpt lat="43.075237765957446" lon="12.149924249182504"><ele>280.0</ele><time>2026-05-03T06:03:00Z</time></trkpt><trkpt lat="43.075081035915474" lon="12.149997943593181"><ele>280.0</ele><time>2026-05-03T06:03:01Z</time></trkpt><trkpt lat="43.074939972532086" lon="12.150037480622437"><ele>280.0</ele><time>2026-05-03T06:03:02Z</time></trkpt><trkpt lat="43.07480231150596" lon="12.150097351160502"><ele>280.0</ele><time>2026-05-03T06:03:03Z</time></trkpt><trkpt lat="43.07466358086072" lon="12.150174078557066"><ele>280.0</ele><time>2026-05-03T06:03:04Z</time></trkpt><trkpt lat="43.07454163858485" lon="12.150279544730632"><ele>281.75</ele><time>2026-05-03T06:03:05Z</time></trkpt><trkpt lat="43.07445265144536" lon="12.150406318643652"><ele>283.5</ele><time>2026-05-03T06:03:06Z</time></trkpt><trkpt lat="43.07435486136967" lon="12.150526554461036"><ele>285.25</ele><time>2026-05-03T06:03:07Z</time></trkpt><trkpt lat="43.07425029382574" lon="12.150638194650128"><ele>287.0</ele><time>2026-05-03T06:03:08Z</time></trkpt><trkpt lat="43.07414086626729" lon="12.150709222946482"><ele>289.0</ele><time>2026-05-03T06:03:09Z</time></trkpt><trkpt lat="43.0740243085347" lon="12.150785851006852"><ele>291.0</ele><time>2026-05-03T06:03:10Z</time></trkpt><trkpt lat="43.07391103068067" lon="12.150844060130705"><ele>293.0</ele><time>2026-05-03T06:03:11Z</time></trkpt><trkpt lat="43.073797921550785" lon="12.150920580017164"><ele>295.0</ele><time>2026-05-03T06:03:12Z</time></trkpt><trkpt lat="43.07366906886137" lon="12.15095587241705"><ele>295.0</ele><time>2026-05-03T06:03:13Z</time></trkpt><trkpt lat="43.07353494816088" lon="12.150970375093495"><ele>295.0</ele><time>2026-05-03T06:03:14Z</time></trkpt><trkpt lat="43.073418701374955" lon="12.151023866344579"><ele>295.0</ele><time>2026-05-03T06:03:15Z</time></trkpt><trkpt lat="43.07333227546073" lon="12.151111314230757"><ele>295.0</ele><time>2026-05-03T06:03:16Z</time></trkpt><trkpt lat="43.07329278073223" lon="12.151237058792793"><ele>296.4</ele><time>2026-05-03T06:03:17Z</time></trkpt><trkpt lat="43.07325034792747" lon="12.151351907024052"><ele>297.8</ele><time>2026-05-03T06:03:18Z</time></trkpt><trkpt lat="43.07319976674787" lon="12.15147052413981"><ele>299.2</ele><time>2026-05-03T06:03:19Z</time></trkpt><trkpt lat="43.07316012185583" lon="12.151597249943011"><ele>300.6</ele><time>2026-05-03T06:03:20Z</time></trkpt><trkpt lat="43.0731252920232" lon="12.151718919525859"><ele>302.0</ele><time>2026-05-03T06:03:21Z</time></trkpt><trkpt lat="43.07306106394681" lon="12.15181272244547"><ele>302.0</ele><time>2026-05-03T06:03:22Z</time></trkpt><trkpt lat="43.072988299346086" lon="12.151863833708749"><ele>302.0</ele><time>2026-05-03T06:03:23Z</time></trkpt><trkpt lat="43.07291703526059" lon="12.151904326375545"><ele>302.0</ele><time>2026-05-03T06:03:24Z</time></trkpt><trkpt lat="43.07284962008421" lon="12.151920090623864"><ele>302.0</ele><time>2026-05-03T06:03:25Z</time></trkpt><trkpt lat="43.072765057370866" lon="12.15189428462233"><ele>302.0</ele><time>2026-05-03T06:03:27Z</time></trkpt><trkpt lat="43.072863719844825" lon="12.152065064458096"><ele>302.0</ele><time>2026-05-03T06:03:31Z</time></trkpt><trkpt lat="43.07287704907226" lon="12.15220461582169"><ele>302.0</ele><time>2026-05-03T06:03:33Z</time></trkpt><trkpt lat="43.07284077482517" lon="12.15229095369285"><ele>302.0</ele><time>2026-05-03T06:03:34Z</time></trkpt><trkpt lat="43.07278538493444" lon="12.15233357376262"><ele>302.0</ele><time>2026-05-03T06:03:35Z</time></trkpt><trkpt lat="43.0727177382317" lon="12.15239072552343"><ele>302.0</ele><time>2026-05-03T06:03:37Z</time></trkpt><trkpt lat="43.07280214577862" lon="12.152469153326374"><ele>302.0</ele><time>2026-05-03T06:03:39Z</time></trkpt><trkpt lat="43.07287832130549" lon="12.15248086880392"><ele>302.2</ele><time>2026-05-03T06:03:40Z</time></trkpt><trkpt lat="43.07294969197969" lon="12.152499540438018"><ele>302.4</ele><time>2026-05-03T06:03:41Z</time></trkpt><trkpt lat="43.073036656306186" lon="12.152557149731702"><ele>302.6</ele><time>2026-05-03T06:03:42Z</time></trkpt><trkpt lat="43.07311269113251" lon="12.152626643076966"><ele>302.8</ele><time>2026-05-03T06:03:43Z</time></trkpt><trkpt lat="43.07315983468349" lon="12.152734439867185"><ele>303.0</ele><time>2026-05-03T06:03:44Z</time></trkpt><trkpt lat="43.0732216987108" lon="12.15286706189429"><ele>303.0</ele><time>2026-05-03T06:03:45Z</time></trkpt><trkpt lat="43.07327180811696" lon="12.152989747596976"><ele>303.0</ele><time>2026-05-03T06:03:46Z</time></trkpt><trkpt lat="43.07334745087109" lon="12.153126958813663"><ele>303.0</ele><time>2026-05-03T06:03:47Z</time></trkpt><trkpt lat="43.07343240490266" lon="12.153277058493078"><ele>303.0</ele><time>2026-05-03T06:03:48Z</time></trkpt><trkpt lat="43.07350212757582" lon="12.153394180751214"><ele>303.0</ele><time>2026-05-03T06:03:49Z</time></trkpt><trkpt lat="43.07356848849524" lon="12.153494498591614"><ele>303.0</ele><time>2026-05-03T06:03:50Z</time></trkpt><trkpt lat="43.073643452896896" lon="12.153555636205322"><ele>303.0</ele><time>2026-05-03T06:03:51Z</time></trkpt><trkpt lat="43.0737161200757" lon="12.153578293958711"><ele>303.0</ele><time>2026-05-03T06:03:52Z</time></trkpt><trkpt lat="43.073799966337326" lon="12.153611408489326"><ele>303.0</ele><time>2026-05-03T06:03:53Z</time></trkpt><trkpt lat="43.07387649160845" lon="12.153687343773719"><ele>303.0</ele><time>2026-05-03T06:03:54Z</time></trkpt><trkpt lat="43.073935949596496" lon="12.15377626316004"><ele>303.0</ele><time>2026-05-03T06:03:55Z</time></trkpt><trkpt lat="43.073980494410826" lon="12.153853293698827"><ele>303.0</ele><time>2026-05-03T06:03:56Z</time></trkpt><trkpt lat="43.074006372675726" lon="12.153951624100877"><ele>303.0</ele><time>2026-05-03T06:03:57Z</time></trkpt><trkpt lat="43.07400753492577" lon="12.154039421872426"><ele>303.0</ele><time>2026-05-03T06:03:58Z</time></trkpt><trkpt lat="43.073980137548936" lon="12.154213615298136"><ele>303.0</ele><time>2026-05-03T06:04:00Z</time></trkpt><trkpt lat="43.074038112914415" lon="12.154318815568299"><ele>303.0</ele><time>2026-05-03T06:04:02Z</time></trkpt><trkpt lat="43.074127594190244" lon="12.15423049294717"><ele>304.0</ele><time>2026-05-03T06:04:04Z</time></trkpt><trkpt lat="43.074204103458634" lon="12.15419432558073"><ele>305.0</ele><time>2026-05-03T06:04:05Z</time></trkpt><trkpt lat="43.07433936245263" lon="12.154112680934803"><ele>306.0</ele><time>2026-05-03T06:04:06Z</time></trkpt><trkpt lat="43.07444016889049" lon="12.15410234961782"><ele>307.0</ele><time>2026-05-03T06:04:07Z</time></trkpt><trkpt lat="43.074548235685185" lon="12.15411412136396"><ele>308.0</ele><time>2026-05-03T06:04:08Z</time></trkpt><trkpt lat="43.07465314449964" lon="12.154149137014219"><ele>308.0</ele><time>2026-05-03T06:04:09Z</time></trkpt><trkpt lat="43.07475269932786" lon="12.154205400490234"><ele>308.0</ele><time>2026-05-03T06:04:10Z</time></trkpt><trkpt lat="43.07485183487378" lon="12.154285515443542"><ele>308.0</ele><time>2026-05-03T06:04:11Z</time></trkpt><trkpt lat="43.07490639464514" lon="12.154397064726444"><ele>308.0</ele><time>2026-05-03T06:04:12Z</time></trkpt><trkpt lat="43.07495609976926" lon="12.154564710416162"><ele>308.6</ele><time>2026-05-03T06:04:13Z</time></trkpt><trkpt lat="43.07501404877104" lon="12.154688363750935"><ele>309.20000000000005</ele><time>2026-05-03T06:04:14Z</time></trkpt><trkpt lat="43.075090786363596" lon="12.154771612103572"><ele>309.8</ele><time>2026-05-03T06:04:15Z</time></trkpt><trkpt lat="43.07517494171852" lon="12.154857891430582"><ele>310.40000000000003</ele><time>2026-05-03T06:04:16Z</time></trkpt><trkpt lat="43.075262285538635" lon="12.154967220552926"><ele>311.0</ele><time>2026-05-03T06:04:17Z</time></trkpt><trkpt lat="43.075321858981155" lon="12.155075625049545"><ele>311.0</ele><time>2026-05-03T06:04:18Z</time></trkpt><trkpt lat="43.075388461565225" lon="12.155183537557418"><ele>311.0</ele><time>2026-05-03T06:04:19Z</time></trkpt><trkpt lat="43.07543655251004" lon="12.155269862807831"><ele>311.0</ele><time>2026-05-03T06:04:20Z</time></trkpt><trkpt lat="43.07548141120778" lon="12.155338811574875"><ele>311.0</ele><time>2026-05-03T06:04:21Z</time></trkpt><trkpt lat="43.07554065269307" lon="12.155394722829078"><ele>311.0</ele><time>2026-05-03T06:04:22Z</time></trkpt><trkpt lat="43.075629859629785" lon="12.15542191838807"><ele>311.0</ele><time>2026-05-03T06:04:23Z</time></trkpt><trkpt lat="43.07571890790102" lon="12.155431792449413"><ele>310.33333333333337</ele><time>2026-05-03T06:04:24Z</time></trkpt><trkpt lat="43.07580342338123" lon="12.155473059321535"><ele>309.6666666666667</ele><time>2026-05-03T06:04:25Z</time></trkpt><trkpt lat="43.0758610520965" lon="12.155528442511411"><ele>309.0</ele><time>2026-05-03T06:04:26Z</time></trkpt><trkpt lat="43.07595163708887" lon="12.155577537940697"><ele>308.3333333333333</ele><time>2026-05-03T06:04:28Z</time></trkpt><trkpt lat="43.0760165252084" lon="12.155563587340213"><ele>307.66666666666663</ele><time>2026-05-03T06:04:33Z</time></trkpt><trkpt lat="43.076108112984265" lon="12.1555556925156"><ele>307.0</ele><time>2026-05-03T06:04:39Z</time></trkpt><trkpt lat="43.07601033813111" lon="12.155567914898466"><ele>307.0</ele><time>2026-05-03T06:04:45Z</time></trkpt><trkpt lat="43.07593531391232" lon="12.15555197791719"><ele>307.0</ele><time>2026-05-03T06:04:47Z</time></trkpt><trkpt lat="43.07586397657052" lon="12.155534760061247"><ele>307.0</ele><time>2026-05-03T06:04:49Z</time></trkpt><trkpt lat="43.07576484936274" lon="12.155582763780412"><ele>307.0</ele><time>2026-05-03T06:05:02Z</time></trkpt><trkpt lat="43.07566749807703" lon="12.155663802901424"><ele>307.0</ele><time>2026-05-03T06:05:04Z</time></trkpt><trkpt lat="43.07560943276748" lon="12.155723993428987"><ele>307.0</ele><time>2026-05-03T06:05:05Z</time></trkpt><trkpt lat="43.07550220367393" lon="12.155826595347037"><ele>309.4</ele><time>2026-05-03T06:05:07Z</time></trkpt><trkpt lat="43.07541570689099" lon="12.1559444867464"><ele>311.79999999999995</ele><time>2026-05-03T06:05:09Z</time></trkpt><trkpt lat="43.07536301636734" lon="12.15600221070833"><ele>314.2</ele><time>2026-05-03T06:05:10Z</time></trkpt><trkpt lat="43.07529233550391" lon="12.156112091087188"><ele>316.59999999999997</ele><time>2026-05-03T06:05:12Z</time></trkpt><trkpt lat="43.07519182101244" lon="12.156186918342277"><ele>319.0</ele><time>2026-05-03T06:05:14Z</time></trkpt><trkpt lat="43.07506779347493" lon="12.156249216579472"><ele>319.0</ele><time>2026-05-03T06:05:16Z</time></trkpt><trkpt lat="43.07499319375578" lon="12.156218586397118"><ele>319.0</ele><time>2026-05-03T06:05:17Z</time></trkpt><trkpt lat="43.07489907255752" lon="12.156143396738328"><ele>319.0</ele><time>2026-05-03T06:05:19Z</time></trkpt><trkpt lat="43.07478164981931" lon="12.156164826502621"><ele>319.0</ele><time>2026-05-03T06:05:21Z</time></trkpt><trkpt lat="43.07472894828644" lon="12.156113808508314"><ele>319.0</ele><time>2026-05-03T06:05:22Z</time></trkpt><trkpt lat="43.074665913631044" lon="12.156072234246153"><ele>319.0</ele><time>2026-05-03T06:05:23Z</time></trkpt><trkpt lat="43.07458348351822" lon="12.15603631748623"><ele>320.4</ele><time>2026-05-03T06:05:24Z</time></trkpt><trkpt lat="43.07449601490399" lon="12.156021272115316"><ele>321.79999999999995</ele><time>2026-05-03T06:05:25Z</time></trkpt><trkpt lat="43.07440635254209" lon="12.156021546915474"><ele>323.20000000000005</ele><time>2026-05-03T06:05:26Z</time></trkpt><trkpt lat="43.074304548564214" lon="12.156048768097515"><ele>324.6</ele><time>2026-05-03T06:05:27Z</time></trkpt><trkpt lat="43.07420451738538" lon="12.156068841386034"><ele>326.0</ele><time>2026-05-03T06:05:28Z</time></trkpt><trkpt lat="43.07412835997086" lon="12.156079889356347"><ele>326.8571428571429</ele><time>2026-05-03T06:05:29Z</time></trkpt><trkpt lat="43.07405610128839" lon="12.1560752247944"><ele>327.71428571428567</ele><time>2026-05-03T06:05:30Z</time></trkpt><trkpt lat="43.073976676246986" lon="12.156055884640317"><ele>328.57142857142856</ele><time>2026-05-03T06:05:31Z</time></trkpt><trkpt lat="43.07391169019064" lon="12.15605526769446"><ele>329.42857142857144</ele><time>2026-05-03T06:05:32Z</time></trkpt><trkpt lat="43.07384590076449" lon="12.156097182210305"><ele>330.28571428571433</ele><time>2026-05-03T06:05:33Z</time></trkpt><trkpt lat="43.07380758927203" lon="12.156173936315245"><ele>331.1428571428571</ele><time>2026-05-03T06:05:34Z</time></trkpt><trkpt lat="43.073779165880346" lon="12.156259123715287"><ele>332.0</ele><time>2026-05-03T06:05:35Z</time></trkpt><trkpt lat="43.073729415138075" lon="12.156319248965593"><ele>332.0</ele><time>2026-05-03T06:05:36Z</time></trkpt><trkpt lat="43.073639836421044" lon="12.156398691254916"><ele>332.0</ele><time>2026-05-03T06:05:38Z</time></trkpt><trkpt lat="43.07353531185016" lon="12.156383694517881"><ele>332.0</ele><time>2026-05-03T06:05:40Z</time></trkpt><trkpt lat="43.073472825533905" lon="12.156329456409477"><ele>332.0</ele><time>2026-05-03T06:05:41Z</time></trkpt><trkpt lat="43.073424205430214" lon="12.15627323868598"><ele>332.0</ele><time>2026-05-03T06:05:42Z</time></trkpt><trkpt lat="43.073339231340235" lon="12.156247276717082"><ele>332.0</ele><time>2026-05-03T06:05:43Z</time></trkpt><trkpt lat="43.073254937683686" lon="12.156245231688876"><ele>333.0</ele><time>2026-05-03T06:05:44Z</time></trkpt><trkpt lat="43.07316812883862" lon="12.156255242964631"><ele>334.0</ele><time>2026-05-03T06:05:45Z</time></trkpt><trkpt lat="43.07307665627103" lon="12.156250218421576"><ele>335.0</ele><time>2026-05-03T06:05:46Z</time></trkpt><trkpt lat="43.07300049149764" lon="12.156246766605928"><ele>336.0</ele><time>2026-05-03T06:05:47Z</time></trkpt><trkpt lat="43.07292323063255" lon="12.156232203831197"><ele>337.0</ele><time>2026-05-03T06:05:48Z</time></trkpt><trkpt lat="43.072849046056156" lon="12.15620583289873"><ele>338.0</ele><time>2026-05-03T06:05:49Z</time></trkpt><trkpt lat="43.07275232893394" lon="12.15619522468218"><ele>338.0</ele><time>2026-05-03T06:05:51Z</time></trkpt><trkpt lat="43.072644733189186" lon="12.156208885567308"><ele>338.0</ele><time>2026-05-03T06:05:53Z</time></trkpt><trkpt lat="43.072513610852354" lon="12.156223226593157"><ele>338.0</ele><time>2026-05-03T06:05:55Z</time></trkpt><trkpt lat="43.07244642286863" lon="12.156234308648603"><ele>338.0</ele><time>2026-05-03T06:05:56Z</time></trkpt><trkpt lat="43.072371319432115" lon="12.15626785438363"><ele>338.0</ele><time>2026-05-03T06:05:57Z</time></trkpt><trkpt lat="43.072304401938226" lon="12.156341183914128"><ele>337.5</ele><time>2026-05-03T06:05:58Z</time></trkpt><trkpt lat="43.07220297033673" lon="12.156415520909464"><ele>337.0</ele><time>2026-05-03T06:05:59Z</time></trkpt><trkpt lat="43.07212549867111" lon="12.156445890219562"><ele>336.5</ele><time>2026-05-03T06:06:00Z</time></trkpt><trkpt lat="43.07205507029031" lon="12.156448106105076"><ele>336.0</ele><time>2026-05-03T06:06:01Z</time></trkpt><trkpt lat="43.07198206034554" lon="12.156445980820518"><ele>335.5</ele><time>2026-05-03T06:06:02Z</time></trkpt><trkpt lat="43.07191574018054" lon="12.156490944380387"><ele>335.0</ele><time>2026-05-03T06:06:03Z</time></trkpt><trkpt lat="43.0718281249382" lon="12.15654146099229"><ele>337.8</ele><time>2026-05-03T06:06:04Z</time></trkpt><trkpt lat="43.07173582050288" lon="12.15655797867264"><ele>340.6</ele><time>2026-05-03T06:06:05Z</time></trkpt><trkpt lat="43.071633190941064" lon="12.156594898081712"><ele>343.4</ele><time>2026-05-03T06:06:06Z</time></trkpt><trkpt lat="43.07155196936022" lon="12.156647496656733"><ele>346.2</ele><time>2026-05-03T06:06:07Z</time></trkpt><trkpt lat="43.07142616043972" lon="12.156749996318164"><ele>349.0</ele><time>2026-05-03T06:06:09Z</time></trkpt><trkpt lat="43.07134110793273" lon="12.15683757646775"><ele>350.0</ele><time>2026-05-03T06:06:10Z</time></trkpt><trkpt lat="43.07128164342003" lon="12.15690067532483"><ele>351.0</ele><time>2026-05-03T06:06:11Z</time></trkpt><trkpt lat="43.07119093716744" lon="12.15691785539807"><ele>352.0</ele><time>2026-05-03T06:06:13Z</time></trkpt><trkpt lat="43.071122316077975" lon="12.156903374140716"><ele>353.0</ele><time>2026-05-03T06:06:14Z</time></trkpt><trkpt lat="43.07104277187132" lon="12.156926674342154"><ele>354.0</ele><time>2026-05-03T06:06:16Z</time></trkpt><trkpt lat="43.07096109971272" lon="12.156990017380723"><ele>355.0</ele><time>2026-05-03T06:06:18Z</time></trkpt><trkpt lat="43.07087793676763" lon="12.15699709334522"><ele>355.0</ele><time>2026-05-03T06:06:20Z</time></trkpt><trkpt lat="43.07079811989617" lon="12.156909154639212"><ele>355.0</ele><time>2026-05-03T06:06:22Z</time></trkpt><trkpt lat="43.070726239316606" lon="12.156828028825563"><ele>355.0</ele><time>2026-05-03T06:06:24Z</time></trkpt><trkpt lat="43.070715343408956" lon="12.156710073311471"><ele>355.0</ele><time>2026-05-03T06:06:26Z</time></trkpt><trkpt lat="43.07071296490105" lon="12.15660963231636"><ele>355.0</ele><time>2026-05-03T06:06:27Z</time></trkpt><trkpt lat="43.07074627981605" lon="12.156527238994276"><ele>355.0</ele><time>2026-05-03T06:06:28Z</time></trkpt><trkpt lat="43.070726946323056" lon="12.156411465157928"><ele>360.4</ele><time>2026-05-03T06:06:30Z</time></trkpt><trkpt lat="43.07061128731756" lon="12.156393823969772"><ele>365.8</ele><time>2026-05-03T06:06:32Z</time></trkpt><trkpt lat="43.070545246392406" lon="12.156372930634637"><ele>371.20000000000005</ele><time>2026-05-03T06:06:33Z</time></trkpt><trkpt lat="43.070469128956965" lon="12.156348334558338"><ele>376.6</ele><time>2026-05-03T06:06:34Z</time></trkpt><trkpt lat="43.07038711163845" lon="12.156255353924646"><ele>382.0</ele><time>2026-05-03T06:06:36Z</time></trkpt><trkpt lat="43.07030792565034" lon="12.156156124648863"><ele>382.0</ele><time>2026-05-03T06:06:38Z</time></trkpt><trkpt lat="43.070244718609324" lon="12.15612845142508"><ele>382.0</ele><time>2026-05-03T06:07:21Z</time></trkpt><trkpt lat="43.07017567861238" lon="12.156064968572194"><ele>382.0</ele><time>2026-05-03T06:07:23Z</time></trkpt><trkpt lat="43.07016212966884" lon="12.155963932064134"><ele>382.0</ele><time>2026-05-03T06:07:24Z</time></trkpt><trkpt lat="43.070152461147" lon="12.15585594782131"><ele>382.0</ele><time>2026-05-03T06:07:25Z</time></trkpt><trkpt lat="43.070145232373605" lon="12.155733503348245"><ele>382.0</ele><time>2026-05-03T06:07:26Z</time></trkpt><trkpt lat="43.07014847392143" lon="12.155616009537288"><ele>382.3333333333333</ele><time>2026-05-03T06:07:27Z</time></trkpt><trkpt lat="43.07015195366667" lon="12.155496905295283"><ele>382.66666666666663</ele><time>2026-05-03T06:07:28Z</time></trkpt><trkpt lat="43.07017386114194" lon="12.155382604496536"><ele>383.0</ele><time>2026-05-03T06:07:29Z</time></trkpt><trkpt lat="43.07019437138236" lon="12.155266237366625"><ele>383.3333333333333</ele><time>2026-05-03T06:07:30Z</time></trkpt><trkpt lat="43.07019607068118" lon="12.155168216498062"><ele>383.6666666666667</ele><time>2026-05-03T06:07:31Z</time></trkpt><trkpt lat="43.070185229289166" lon="12.155074218172606"><ele>384.0</ele><time>2026-05-03T06:07:32Z</time></trkpt><trkpt lat="43.070152729328484" lon="12.154994702788835"><ele>384.0</ele><time>2026-05-03T06:07:33Z</time></trkpt><trkpt lat="43.07011173987715" lon="12.154912030127614"><ele>384.0</ele><time>2026-05-03T06:07:34Z</time></trkpt><trkpt lat="43.07006690298977" lon="12.154836672351697"><ele>384.0</ele><time>2026-05-03T06:07:35Z</time></trkpt><trkpt lat="43.0700089214877" lon="12.154789938238373"><ele>384.0</ele><time>2026-05-03T06:07:36Z</time></trkpt><trkpt lat="43.069910842085456" lon="12.154796680974421"><ele>384.0</ele><time>2026-05-03T06:07:38Z</time></trkpt><trkpt lat="43.06988496026406" lon="12.154916181124833"><ele>384.0</ele><time>2026-05-03T06:07:41Z</time></trkpt><trkpt lat="43.06995376707846" lon="12.155049997745754"><ele>384.0</ele><time>2026-05-03T06:07:53Z</time></trkpt><trkpt lat="43.06998623785117" lon="12.155126303450894"><ele>384.0</ele><time>2026-05-03T06:07:54Z</time></trkpt><trkpt lat="43.0699581158255" lon="12.155247325662195"><ele>384.0</ele><time>2026-05-03T06:07:56Z</time></trkpt><trkpt lat="43.06988014068847" lon="12.155376566514486"><ele>384.0</ele><time>2026-05-03T06:07:58Z</time></trkpt><trkpt lat="43.0698354587061" lon="12.155458177880572"><ele>384.0</ele><time>2026-05-03T06:07:59Z</time></trkpt><trkpt lat="43.0697495641132" lon="12.155571634632155"><ele>385.2</ele><time>2026-05-03T06:08:01Z</time></trkpt><trkpt lat="43.069700626438376" lon="12.15563610187467"><ele>386.4</ele><time>2026-05-03T06:08:02Z</time></trkpt><trkpt lat="43.069526488643" lon="12.155597407881741"><ele>387.6</ele><time>2026-05-03T06:08:03Z</time></trkpt><trkpt lat="43.06951006615474" lon="12.155694489978076"><ele>388.8</ele><time>2026-05-03T06:08:05Z</time></trkpt><trkpt lat="43.06945025480886" lon="12.155788217822447"><ele>390.0</ele><time>2026-05-03T06:08:07Z</time></trkpt><trkpt lat="43.06932644109043" lon="12.155790459978142"><ele>390.0</ele><time>2026-05-03T06:08:09Z</time></trkpt><trkpt lat="43.0692385955425" lon="12.155753091247362"><ele>390.0</ele><time>2026-05-03T06:08:11Z</time></trkpt><trkpt lat="43.06917774447502" lon="12.155726830117041"><ele>390.0</ele><time>2026-05-03T06:08:12Z</time></trkpt><trkpt lat="43.06910975730958" lon="12.155677746830614"><ele>390.0</ele><time>2026-05-03T06:08:13Z</time></trkpt><trkpt lat="43.069035144303555" lon="12.155637033413036"><ele>390.0</ele><time>2026-05-03T06:08:14Z</time></trkpt><trkpt lat="43.06891588666361" lon="12.155559791955765"><ele>390.0</ele><time>2026-05-03T06:08:16Z</time></trkpt><trkpt lat="43.06885400108914" lon="12.15551993484131"><ele>392.3333333333333</ele><time>2026-05-03T06:08:17Z</time></trkpt><trkpt lat="43.0687972167878" lon="12.155481928450529"><ele>394.66666666666663</ele><time>2026-05-03T06:08:18Z</time></trkpt><trkpt lat="43.068708230766" lon="12.15541119097928"><ele>397.0</ele><time>2026-05-03T06:08:20Z</time></trkpt><trkpt lat="43.068657219403576" lon="12.155298881704494"><ele>399.3333333333333</ele><time>2026-05-03T06:08:22Z</time></trkpt><trkpt lat="43.068606138294356" lon="12.155235832516214"><ele>401.66666666666663</ele><time>2026-05-03T06:08:25Z</time></trkpt><trkpt lat="43.06855143100917" lon="12.155293711185598"><ele>404.0</ele><time>2026-05-03T06:08:35Z</time></trkpt><trkpt lat="43.068592803296895" lon="12.155482209083049"><ele>404.0</ele><time>2026-05-03T06:08:37Z</time></trkpt><trkpt lat="43.06859275481118" lon="12.15563183519155"><ele>404.0</ele><time>2026-05-03T06:08:39Z</time></trkpt><trkpt lat="43.0686636895526" lon="12.155758736516983"><ele>404.0</ele><time>2026-05-03T06:08:41Z</time></trkpt><trkpt lat="43.06868008999063" lon="12.155857690685087"><ele>404.0</ele><time>2026-05-03T06:08:42Z</time></trkpt><trkpt lat="43.068689814766685" lon="12.155968248826078"><ele>404.0</ele><time>2026-05-03T06:08:43Z</time></trkpt><trkpt lat="43.06872136093091" lon="12.156101967449363"><ele>404.4</ele><time>2026-05-03T06:08:45Z</time></trkpt><trkpt lat="43.06871951994119" lon="12.156209207905249"><ele>404.79999999999995</ele><time>2026-05-03T06:08:47Z</time></trkpt><trkpt lat="43.0687299263263" lon="12.156303152671565"><ele>405.20000000000005</ele><time>2026-05-03T06:08:49Z</time></trkpt><trkpt lat="43.06879215788569" lon="12.15650295214331"><ele>405.6</ele><time>2026-05-03T06:08:52Z</time></trkpt><trkpt lat="43.06882293490461" lon="12.156613151565754"><ele>406.0</ele><time>2026-05-03T06:08:53Z</time></trkpt><trkpt lat="43.06887711404562" lon="12.15673776694465"><ele>406.00000000000006</ele><time>2026-05-03T06:08:54Z</time></trkpt><trkpt lat="43.068938919412844" lon="12.156832950718076"><ele>406.0</ele><time>2026-05-03T06:08:55Z</time></trkpt><trkpt lat="43.068968960802586" lon="12.156919858414835"><ele>406.0</ele><time>2026-05-03T06:08:56Z</time></trkpt><trkpt lat="43.06896679323371" lon="12.157011136817898"><ele>406.0</ele><time>2026-05-03T06:08:57Z</time></trkpt><trkpt lat="43.068954259128176" lon="12.157140623918272"><ele>406.00000000000006</ele><time>2026-05-03T06:08:58Z</time></trkpt><trkpt lat="43.06897480105459" lon="12.157280586936963"><ele>406.0</ele><time>2026-05-03T06:08:59Z</time></trkpt><trkpt lat="43.06900207568788" lon="12.157437575117001"><ele>404.83333333333337</ele><time>2026-05-03T06:09:00Z</time></trkpt><trkpt lat="43.06901037503247" lon="12.157553867681093"><ele>403.6666666666667</ele><time>2026-05-03T06:09:01Z</time></trkpt><trkpt lat="43.06902525291099" lon="12.157650944521203"><ele>402.5</ele><time>2026-05-03T06:09:03Z</time></trkpt><trkpt lat="43.06910752040602" lon="12.157735597270584"><ele>401.33333333333337</ele><time>2026-05-03T06:09:05Z</time></trkpt><trkpt lat="43.06917373269526" lon="12.157790248136624"><ele>400.1666666666667</ele><time>2026-05-03T06:09:06Z</time></trkpt><trkpt lat="43.06924030662777" lon="12.157848489701772"><ele>399.0</ele><time>2026-05-03T06:09:07Z</time></trkpt><trkpt lat="43.069309226116154" lon="12.157909332741971"><ele>401.3333333333333</ele><time>2026-05-03T06:09:08Z</time></trkpt><trkpt lat="43.06936963618322" lon="12.15797548616872"><ele>403.66666666666663</ele><time>2026-05-03T06:09:09Z</time></trkpt><trkpt lat="43.06939775975447" lon="12.158060704176105"><ele>406.0</ele><time>2026-05-03T06:09:10Z</time></trkpt><trkpt lat="43.06940938103367" lon="12.158149721572341"><ele>408.3333333333333</ele><time>2026-05-03T06:09:11Z</time></trkpt><trkpt lat="43.06945850282462" lon="12.158314491360606"><ele>410.66666666666663</ele><time>2026-05-03T06:09:13Z</time></trkpt><trkpt lat="43.06948504990499" lon="12.15841230267077"><ele>413.0</ele><time>2026-05-03T06:09:14Z</time></trkpt><trkpt lat="43.06953310869319" lon="12.158526195154069"><ele>413.16666666666663</ele><time>2026-05-03T06:09:15Z</time></trkpt><trkpt lat="43.06956256513493" lon="12.158623892922686"><ele>413.3333333333333</ele><time>2026-05-03T06:09:16Z</time></trkpt><trkpt lat="43.06959478946729" lon="12.158706279435805"><ele>413.5</ele><time>2026-05-03T06:09:17Z</time></trkpt><trkpt lat="43.06964180887485" lon="12.15878742896995"><ele>413.66666666666663</ele><time>2026-05-03T06:09:18Z</time></trkpt><trkpt lat="43.06970084786724" lon="12.158835164147636"><ele>413.8333333333333</ele><time>2026-05-03T06:09:19Z</time></trkpt><trkpt lat="43.06977231705081" lon="12.1589535551816"><ele>414.0</ele><time>2026-05-03T06:09:21Z</time></trkpt><trkpt lat="43.069780609805804" lon="12.159060586538871"><ele>414.8333333333333</ele><time>2026-05-03T06:09:23Z</time></trkpt><trkpt lat="43.06971021299197" lon="12.159132040668043"><ele>415.66666666666663</ele><time>2026-05-03T06:09:25Z</time></trkpt><trkpt lat="43.069629799067016" lon="12.159184079826018"><ele>416.5</ele><time>2026-05-03T06:09:27Z</time></trkpt><trkpt lat="43.06957791791457" lon="12.159260093404443"><ele>417.3333333333333</ele><time>2026-05-03T06:09:30Z</time></trkpt><trkpt lat="43.069541566858554" lon="12.159370789403395"><ele>418.16666666666663</ele><time>2026-05-03T06:09:32Z</time></trkpt><trkpt lat="43.069524194966206" lon="12.159464659775558"><ele>419.0</ele><time>2026-05-03T06:09:33Z</time></trkpt><trkpt lat="43.069510100425454" lon="12.159563314449583"><ele>418.99999999999994</ele><time>2026-05-03T06:09:34Z</time></trkpt><trkpt lat="43.069514522334615" lon="12.159657968982676"><ele>419.0</ele><time>2026-05-03T06:09:35Z</time></trkpt><trkpt lat="43.0695924477252" lon="12.15976417975195"><ele>419.0</ele><time>2026-05-03T06:09:37Z</time></trkpt><trkpt lat="43.06967867821557" lon="12.159791782411421"><ele>419.0</ele><time>2026-05-03T06:09:38Z</time></trkpt><trkpt lat="43.06976389442538" lon="12.159823713974067"><ele>418.99999999999994</ele><time>2026-05-03T06:09:39Z</time></trkpt><trkpt lat="43.06983490922611" lon="12.159868511022587"><ele>419.0</ele><time>2026-05-03T06:09:40Z</time></trkpt><trkpt lat="43.06989990807462" lon="12.159947376440092"><ele>424.0</ele><time>2026-05-03T06:09:41Z</time></trkpt><trkpt lat="43.0699756762155" lon="12.159995373267403"><ele>429.0</ele><time>2026-05-03T06:09:42Z</time></trkpt><trkpt lat="43.07005590899963" lon="12.160000204039116"><ele>434.0</ele><time>2026-05-03T06:09:43Z</time></trkpt><trkpt lat="43.07015841511147" lon="12.160096210527891"><ele>439.0</ele><time>2026-05-03T06:09:45Z</time></trkpt><trkpt lat="43.070238143504625" lon="12.160196667987265"><ele>444.0</ele><time>2026-05-03T06:09:47Z</time></trkpt><trkpt lat="43.070325734932204" lon="12.16032684783942"><ele>444.0</ele><time>2026-05-03T06:09:49Z</time></trkpt><trkpt lat="43.07035491143073" lon="12.160423710016723"><ele>444.0</ele><time>2026-05-03T06:09:50Z</time></trkpt><trkpt lat="43.07039291488957" lon="12.160536583177288"><ele>444.0</ele><time>2026-05-03T06:09:51Z</time></trkpt><trkpt lat="43.07043257606141" lon="12.160657606382001"><ele>444.0</ele><time>2026-05-03T06:09:52Z</time></trkpt><trkpt lat="43.07047576643127" lon="12.160766147875355"><ele>444.0</ele><time>2026-05-03T06:09:53Z</time></trkpt><trkpt lat="43.07051693989311" lon="12.16085429624271"><ele>444.0</ele><time>2026-05-03T06:09:54Z</time></trkpt><trkpt lat="43.07057243045914" lon="12.160904399679652"><ele>445.4</ele><time>2026-05-03T06:09:55Z</time></trkpt><trkpt lat="43.07063725508288" lon="12.161051405422109"><ele>446.79999999999995</ele><time>2026-05-03T06:09:57Z</time></trkpt><trkpt lat="43.07069261049188" lon="12.16121659196912"><ele>448.20000000000005</ele><time>2026-05-03T06:09:59Z</time></trkpt><trkpt lat="43.07076769838333" lon="12.161271511304054"><ele>449.6</ele><time>2026-05-03T06:10:00Z</time></trkpt><trkpt lat="43.07084438632743" lon="12.161322008589392"><ele>451.0</ele><time>2026-05-03T06:10:01Z</time></trkpt><trkpt lat="43.07090211682085" lon="12.161381971849803"><ele>453.4</ele><time>2026-05-03T06:10:02Z</time></trkpt><trkpt lat="43.07096030457652" lon="12.161447581793837"><ele>455.8</ele><time>2026-05-03T06:10:03Z</time></trkpt><trkpt lat="43.0709887832067" lon="12.161648273241893"><ele>458.19999999999993</ele><time>2026-05-03T06:10:05Z</time></trkpt><trkpt lat="43.07100979427597" lon="12.161769034391089"><ele>460.59999999999997</ele><time>2026-05-03T06:10:06Z</time></trkpt><trkpt lat="43.071042320201414" lon="12.161856596080183"><ele>463.0</ele><time>2026-05-03T06:10:07Z</time></trkpt><trkpt lat="43.07110274842382" lon="12.161928639388611"><ele>465.6666666666667</ele><time>2026-05-03T06:10:08Z</time></trkpt><trkpt lat="43.071176764645514" lon="12.162012007045417"><ele>468.33333333333337</ele><time>2026-05-03T06:10:09Z</time></trkpt><trkpt lat="43.07123400903969" lon="12.162113882413783"><ele>471.0</ele><time>2026-05-03T06:10:10Z</time></trkpt><trkpt lat="43.07127403037976" lon="12.162219004369588"><ele>473.66666666666663</ele><time>2026-05-03T06:10:11Z</time></trkpt><trkpt lat="43.07129544283305" lon="12.162325961088825"><ele>476.3333333333333</ele><time>2026-05-03T06:10:12Z</time></trkpt><trkpt lat="43.071292643862606" lon="12.162451619566681"><ele>479.0</ele><time>2026-05-03T06:10:13Z</time></trkpt><trkpt lat="43.07128107938189" lon="12.16257106393742"><ele>483.5</ele><time>2026-05-03T06:10:14Z</time></trkpt><trkpt lat="43.0712594861363" lon="12.162715036378282"><ele>488.0</ele><time>2026-05-03T06:10:15Z</time></trkpt><trkpt lat="43.07125131314729" lon="12.162890471943014"><ele>492.5</ele><time>2026-05-03T06:10:16Z</time></trkpt><trkpt lat="43.07127009166382" lon="12.1630495848302"><ele>497.0</ele><time>2026-05-03T06:10:17Z</time></trkpt><trkpt lat="43.07129338073495" lon="12.163183580141022"><ele>501.20000000000005</ele><time>2026-05-03T06:10:18Z</time></trkpt><trkpt lat="43.07131738441927" lon="12.163316899678906"><ele>505.40000000000003</ele><time>2026-05-03T06:10:19Z</time></trkpt><trkpt lat="43.071323583560506" lon="12.163451412622976"><ele>509.59999999999997</ele><time>2026-05-03T06:10:20Z</time></trkpt><trkpt lat="43.07133475416912" lon="12.163581667709298"><ele>513.8</ele><time>2026-05-03T06:10:21Z</time></trkpt><trkpt lat="43.071370974809206" lon="12.163730592780166"><ele>518.0</ele><time>2026-05-03T06:10:22Z</time></trkpt><trkpt lat="43.07143234459337" lon="12.16384128651342"><ele>518.0</ele><time>2026-05-03T06:10:23Z</time></trkpt><trkpt lat="43.071490719210814" lon="12.163955319554812"><ele>518.0</ele><time>2026-05-03T06:10:24Z</time></trkpt><trkpt lat="43.07154792205505" lon="12.16409732503243"><ele>518.0</ele><time>2026-05-03T06:10:25Z</time></trkpt><trkpt lat="43.07164357644872" lon="12.16420261033025"><ele>518.0</ele><time>2026-05-03T06:10:26Z</time></trkpt><trkpt lat="43.071732969982214" lon="12.164298276142082"><ele>518.4</ele><time>2026-05-03T06:10:27Z</time></trkpt><trkpt lat="43.07179598404153" lon="12.164358084905253"><ele>518.8</ele><time>2026-05-03T06:10:28Z</time></trkpt><trkpt lat="43.07186671104645" lon="12.164476767184967"><ele>519.2</ele><time>2026-05-03T06:10:30Z</time></trkpt><trkpt lat="43.07187761026901" lon="12.164621316432681"><ele>519.6</ele><time>2026-05-03T06:10:32Z</time></trkpt><trkpt lat="43.071855062271666" lon="12.164760126368426"><ele>520.0</ele><time>2026-05-03T06:10:34Z</time></trkpt><trkpt lat="43.071839644472234" lon="12.164877103509777"><ele>522.8</ele><time>2026-05-03T06:10:36Z</time></trkpt><trkpt lat="43.07179679867807" lon="12.164952524366003"><ele>525.6</ele><time>2026-05-03T06:10:38Z</time></trkpt><trkpt lat="43.07173135955338" lon="12.165073980070435"><ele>528.4</ele><time>2026-05-03T06:10:40Z</time></trkpt><trkpt lat="43.0716209607001" lon="12.165158714242754"><ele>531.2</ele><time>2026-05-03T06:10:42Z</time></trkpt><trkpt lat="43.07151357129044" lon="12.165250347007683"><ele>534.0</ele><time>2026-05-03T06:10:44Z</time></trkpt><trkpt lat="43.07143661100664" lon="12.165289168483339"><ele>536.8</ele><time>2026-05-03T06:10:45Z</time></trkpt><trkpt lat="43.071350685795224" lon="12.165328435356397"><ele>539.5999999999999</ele><time>2026-05-03T06:10:46Z</time></trkpt><trkpt lat="43.07125738210682" lon="12.165374831844494"><ele>542.4</ele><time>2026-05-03T06:10:47Z</time></trkpt><trkpt lat="43.071163549929324" lon="12.165418921228166"><ele>545.1999999999999</ele><time>2026-05-03T06:10:48Z</time></trkpt><trkpt lat="43.07107388035739" lon="12.16545410204261"><ele>548.0</ele><time>2026-05-03T06:10:49Z</time></trkpt><trkpt lat="43.07100973145463" lon="12.16548788242403"><ele>548.0</ele><time>2026-05-03T06:10:50Z</time></trkpt><trkpt lat="43.07090809287288" lon="12.16551190928474"><ele>548.0</ele><time>2026-05-03T06:10:51Z</time></trkpt><trkpt lat="43.070817642241046" lon="12.165559325704695"><ele>548.0</ele><time>2026-05-03T06:10:52Z</time></trkpt><trkpt lat="43.07074081343735" lon="12.16561297748992"><ele>548.0</ele><time>2026-05-03T06:10:53Z</time></trkpt><trkpt lat="43.07066330588968" lon="12.16566468209627"><ele>548.0</ele><time>2026-05-03T06:10:54Z</time></trkpt><trkpt lat="43.07059848285421" lon="12.165735888446072"><ele>550.4</ele><time>2026-05-03T06:10:55Z</time></trkpt><trkpt lat="43.07053165549454" lon="12.165826919869431"><ele>552.8</ele><time>2026-05-03T06:10:56Z</time></trkpt><trkpt lat="43.0704509877636" lon="12.1659312514449"><ele>555.2</ele><time>2026-05-03T06:10:57Z</time></trkpt><trkpt lat="43.07035278237091" lon="12.166034343373504"><ele>557.6</ele><time>2026-05-03T06:10:58Z</time></trkpt><trkpt lat="43.07025673428222" lon="12.166124601656692"><ele>560.0</ele><time>2026-05-03T06:10:59Z</time></trkpt><trkpt lat="43.07015697470104" lon="12.166171813086235"><ele>560.0</ele><time>2026-05-03T06:11:00Z</time></trkpt><trkpt lat="43.070064068233606" lon="12.166205616432899"><ele>560.0</ele><time>2026-05-03T06:11:01Z</time></trkpt><trkpt lat="43.06999470586779" lon="12.166227680464273"><ele>560.0</ele><time>2026-05-03T06:11:02Z</time></trkpt><trkpt lat="43.06990066529282" lon="12.166276903840444"><ele>560.0</ele><time>2026-05-03T06:11:04Z</time></trkpt><trkpt lat="43.069816288312346" lon="12.16633777080716"><ele>560.0</ele><time>2026-05-03T06:11:17Z</time></trkpt><trkpt lat="43.06969155309369" lon="12.166416577623885"><ele>560.4</ele><time>2026-05-03T06:11:19Z</time></trkpt><trkpt lat="43.06961329132005" lon="12.166469070375085"><ele>560.8</ele><time>2026-05-03T06:11:20Z</time></trkpt><trkpt lat="43.069512441588024" lon="12.166554149317818"><ele>561.2</ele><time>2026-05-03T06:11:21Z</time></trkpt><trkpt lat="43.069423023191504" lon="12.166644196717245"><ele>561.6</ele><time>2026-05-03T06:11:22Z</time></trkpt><trkpt lat="43.06935195422487" lon="12.166736160128892"><ele>562.0</ele><time>2026-05-03T06:11:23Z</time></trkpt><trkpt lat="43.06929214956426" lon="12.166822379648515"><ele>562.0</ele><time>2026-05-03T06:11:24Z</time></trkpt><trkpt lat="43.0692535615143" lon="12.166920184534506"><ele>562.0</ele><time>2026-05-03T06:11:25Z</time></trkpt><trkpt lat="43.06923787184483" lon="12.167024015645676"><ele>562.0</ele><time>2026-05-03T06:11:26Z</time></trkpt><trkpt lat="43.069224222120916" lon="12.167116809260925"><ele>562.0</ele><time>2026-05-03T06:11:27Z</time></trkpt><trkpt lat="43.069137093973474" lon="12.167230899974662"><ele>562.0</ele><time>2026-05-03T06:11:29Z</time></trkpt><trkpt lat="43.069068566325846" lon="12.167275690903159"><ele>562.0</ele><time>2026-05-03T06:11:30Z</time></trkpt><trkpt lat="43.06898972119403" lon="12.167334200462559"><ele>562.0</ele><time>2026-05-03T06:11:31Z</time></trkpt><trkpt lat="43.06893187583229" lon="12.167398639554001"><ele>562.0</ele><time>2026-05-03T06:11:32Z</time></trkpt><trkpt lat="43.06881769317598" lon="12.167456729653614"><ele>562.0</ele><time>2026-05-03T06:11:34Z</time></trkpt><trkpt lat="43.06875442325611" lon="12.167464120007013"><ele>562.0</ele><time>2026-05-03T06:11:35Z</time></trkpt><trkpt lat="43.06865281006767" lon="12.16751869675221"><ele>562.0</ele><time>2026-05-03T06:11:37Z</time></trkpt><trkpt lat="43.06854101189669" lon="12.167469023187033"><ele>562.0</ele><time>2026-05-03T06:11:39Z</time></trkpt><trkpt lat="43.06843892512982" lon="12.167411605253045"><ele>562.0</ele><time>2026-05-03T06:11:41Z</time></trkpt><trkpt lat="43.06836795100061" lon="12.167319222546807"><ele>562.0</ele><time>2026-05-03T06:11:43Z</time></trkpt><trkpt lat="43.06829906866237" lon="12.167277948731055"><ele>562.0</ele><time>2026-05-03T06:11:44Z</time></trkpt><trkpt lat="43.06821773075379" lon="12.167252608033897"><ele>562.0</ele><time>2026-05-03T06:11:45Z</time></trkpt><trkpt lat="43.06814478869393" lon="12.167240011731874"><ele>562.0</ele><time>2026-05-03T06:11:46Z</time></trkpt><trkpt lat="43.06807906568096" lon="12.167240645860419"><ele>559.2</ele><time>2026-05-03T06:11:47Z</time></trkpt><trkpt lat="43.067956277015334" lon="12.167260242071642"><ele>556.4000000000001</ele><time>2026-05-03T06:11:49Z</time></trkpt><trkpt lat="43.06783144834516" lon="12.167247786264916"><ele>553.5999999999999</ele><time>2026-05-03T06:11:51Z</time></trkpt><trkpt lat="43.06775987973192" lon="12.167250033236353"><ele>550.8</ele><time>2026-05-03T06:11:52Z</time></trkpt><trkpt lat="43.06769742645742" lon="12.167275506926595"><ele>548.0</ele><time>2026-05-03T06:11:53Z</time></trkpt><trkpt lat="43.067590896407935" lon="12.16723808145193"><ele>548.0</ele><time>2026-05-03T06:11:55Z</time></trkpt><trkpt lat="43.06749409038754" lon="12.16713526792422"><ele>548.0</ele><time>2026-05-03T06:11:57Z</time></trkpt><trkpt lat="43.067363332302726" lon="12.16713303105905"><ele>548.0</ele><time>2026-05-03T06:11:59Z</time></trkpt><trkpt lat="43.06729958899099" lon="12.167160358869387"><ele>548.0</ele><time>2026-05-03T06:12:00Z</time></trkpt><trkpt lat="43.06720803589738" lon="12.16720229463739"><ele>548.0</ele><time>2026-05-03T06:12:02Z</time></trkpt><trkpt lat="43.067126520661844" lon="12.167169031184592"><ele>546.8</ele><time>2026-05-03T06:12:04Z</time></trkpt><trkpt lat="43.067050212190395" lon="12.167109401113825"><ele>545.5999999999999</ele><time>2026-05-03T06:12:06Z</time></trkpt><trkpt lat="43.06700817825998" lon="12.167001965736963"><ele>544.4000000000001</ele><time>2026-05-03T06:12:08Z</time></trkpt><trkpt lat="43.06698751535317" lon="12.16688067680209"><ele>543.2</ele><time>2026-05-03T06:12:10Z</time></trkpt><trkpt lat="43.066913572524584" lon="12.166797437514715"><ele>542.0</ele><time>2026-05-03T06:12:12Z</time></trkpt><trkpt lat="43.066812519424566" lon="12.16669890682269"><ele>542.0</ele><time>2026-05-03T06:12:14Z</time></trkpt><trkpt lat="43.066764045491546" lon="12.16662969951935"><ele>542.0</ele><time>2026-05-03T06:12:15Z</time></trkpt><trkpt lat="43.06671331951926" lon="12.166574370097578"><ele>542.0</ele><time>2026-05-03T06:12:16Z</time></trkpt><trkpt lat="43.0666133704188" lon="12.16651559364172"><ele>542.0</ele><time>2026-05-03T06:12:18Z</time></trkpt><trkpt lat="43.066536305068496" lon="12.166401600306184"><ele>542.0</ele><time>2026-05-03T06:12:20Z</time></trkpt><trkpt lat="43.066438141293524" lon="12.166319139895919"><ele>538.0</ele><time>2026-05-03T06:12:22Z</time></trkpt><trkpt lat="43.0663774684486" lon="12.166289698000273"><ele>534.0</ele><time>2026-05-03T06:12:23Z</time></trkpt><trkpt lat="43.06632427266877" lon="12.166235188439854"><ele>530.0</ele><time>2026-05-03T06:12:24Z</time></trkpt><trkpt lat="43.066277436103604" lon="12.166174701874063"><ele>526.0</ele><time>2026-05-03T06:12:25Z</time></trkpt><trkpt lat="43.06620196201134" lon="12.166034150760941"><ele>522.0</ele><time>2026-05-03T06:12:27Z</time></trkpt><trkpt lat="43.066122814839964" lon="12.165969653086238"><ele>518.0</ele><time>2026-05-03T06:12:29Z</time></trkpt><trkpt lat="43.06604299840662" lon="12.166047986307165"><ele>518.0</ele><time>2026-05-03T06:12:31Z</time></trkpt><trkpt lat="43.06600764524914" lon="12.16611952936633"><ele>518.0</ele><time>2026-05-03T06:12:32Z</time></trkpt><trkpt lat="43.06596755338282" lon="12.166264053315903"><ele>518.0</ele><time>2026-05-03T06:12:34Z</time></trkpt><trkpt lat="43.06597253387552" lon="12.16642659506827"><ele>518.0</ele><time>2026-05-03T06:12:36Z</time></trkpt><trkpt lat="43.06597470183137" lon="12.166590972045213"><ele>518.0</ele><time>2026-05-03T06:12:38Z</time></trkpt><trkpt lat="43.066012081385075" lon="12.166744122243228"><ele>517.7142857142857</ele><time>2026-05-03T06:12:40Z</time></trkpt><trkpt lat="43.06602796820711" lon="12.166835830375527"><ele>517.4285714285714</ele><time>2026-05-03T06:12:41Z</time></trkpt><trkpt lat="43.06604576933003" lon="12.166925924870283"><ele>517.1428571428571</ele><time>2026-05-03T06:12:42Z</time></trkpt><trkpt lat="43.06606108789304" lon="12.167031545224333"><ele>516.8571428571429</ele><time>2026-05-03T06:12:43Z</time></trkpt><trkpt lat="43.066068395819464" lon="12.167136469305888"><ele>516.5714285714286</ele><time>2026-05-03T06:12:44Z</time></trkpt><trkpt lat="43.06607703813678" lon="12.167241013750479"><ele>516.2857142857142</ele><time>2026-05-03T06:12:45Z</time></trkpt><trkpt lat="43.06608692071908" lon="12.167338756973187"><ele>516.0</ele><time>2026-05-03T06:12:46Z</time></trkpt><trkpt lat="43.066094195664455" lon="12.16743508364834"><ele>514.8571428571428</ele><time>2026-05-03T06:12:47Z</time></trkpt><trkpt lat="43.066093677320765" lon="12.167535380759839"><ele>513.7142857142857</ele><time>2026-05-03T06:12:48Z</time></trkpt><trkpt lat="43.06608518099191" lon="12.167631644523809"><ele>512.5714285714286</ele><time>2026-05-03T06:12:49Z</time></trkpt><trkpt lat="43.06607646203573" lon="12.167726422780374"><ele>511.4285714285714</ele><time>2026-05-03T06:12:50Z</time></trkpt><trkpt lat="43.06606803612856" lon="12.167819718698812"><ele>510.2857142857142</ele><time>2026-05-03T06:12:51Z</time></trkpt><trkpt lat="43.066063251987146" lon="12.167913676380278"><ele>509.14285714285717</ele><time>2026-05-03T06:12:52Z</time></trkpt><trkpt lat="43.06606089541395" lon="12.168008030141106"><ele>508.0</ele><time>2026-05-03T06:12:53Z</time></trkpt><trkpt lat="43.06606968880197" lon="12.168105185703636"><ele>507.0</ele><time>2026-05-03T06:12:54Z</time></trkpt><trkpt lat="43.06607283112596" lon="12.168207185536133"><ele>505.99999999999994</ele><time>2026-05-03T06:12:55Z</time></trkpt><trkpt lat="43.066076025692524" lon="12.168372410569225"><ele>504.99999999999994</ele><time>2026-05-03T06:12:57Z</time></trkpt><trkpt lat="43.0660681519018" lon="12.168489299747568"><ele>504.0</ele><time>2026-05-03T06:12:59Z</time></trkpt><trkpt lat="43.0661580592817" lon="12.16854727165344"><ele>503.0</ele><time>2026-05-03T06:13:02Z</time></trkpt><trkpt lat="43.06623072464015" lon="12.168580285244607"><ele>502.99999999999994</ele><time>2026-05-03T06:13:04Z</time></trkpt><trkpt lat="43.06629475997033" lon="12.168676935601301"><ele>503.0</ele><time>2026-05-03T06:13:30Z</time></trkpt><trkpt lat="43.06631809907242" lon="12.168760907129162"><ele>503.0</ele><time>2026-05-03T06:13:31Z</time></trkpt><trkpt lat="43.06633969123173" lon="12.168876771504102"><ele>503.0</ele><time>2026-05-03T06:13:32Z</time></trkpt><trkpt lat="43.06636147388605" lon="12.168976520834969"><ele>502.99999999999994</ele><time>2026-05-03T06:13:33Z</time></trkpt><trkpt lat="43.066381171957055" lon="12.169063358921095"><ele>503.0</ele><time>2026-05-03T06:13:34Z</time></trkpt><trkpt lat="43.06638482616615" lon="12.169222329019934"><ele>502.59999999999997</ele><time>2026-05-03T06:13:36Z</time></trkpt><trkpt lat="43.06634660188547" lon="12.169366927948191"><ele>502.19999999999993</ele><time>2026-05-03T06:13:38Z</time></trkpt><trkpt lat="43.06631246334481" lon="12.169452037916804"><ele>501.8</ele><time>2026-05-03T06:13:40Z</time></trkpt><trkpt lat="43.06631261361707" lon="12.169552475402218"><ele>501.4</ele><time>2026-05-03T06:13:44Z</time></trkpt><trkpt lat="43.066220990680456" lon="12.169614298488659"><ele>501.0</ele><time>2026-05-03T06:13:46Z</time></trkpt><trkpt lat="43.06611447380327" lon="12.169643341926717"><ele>501.0</ele><time>2026-05-03T06:13:48Z</time></trkpt><trkpt lat="43.066020069993506" lon="12.169713027052444"><ele>501.0</ele><time>2026-05-03T06:13:50Z</time></trkpt><trkpt lat="43.0659533550464" lon="12.169762780599392"><ele>501.0</ele><time>2026-05-03T06:13:51Z</time></trkpt><trkpt lat="43.06583860566612" lon="12.16979916883112"><ele>501.0</ele><time>2026-05-03T06:13:53Z</time></trkpt><trkpt lat="43.065776301199875" lon="12.169784044156513"><ele>501.0</ele><time>2026-05-03T06:13:54Z</time></trkpt><trkpt lat="43.065647256189116" lon="12.169768556988213"><ele>499.8333333333333</ele><time>2026-05-03T06:13:56Z</time></trkpt><trkpt lat="43.06557622077209" lon="12.16975190653685"><ele>498.66666666666663</ele><time>2026-05-03T06:13:57Z</time></trkpt><trkpt lat="43.06550719825775" lon="12.16973196493981"><ele>497.5</ele><time>2026-05-03T06:13:58Z</time></trkpt><trkpt lat="43.06542691283475" lon="12.169720554114262"><ele>496.3333333333333</ele><time>2026-05-03T06:13:59Z</time></trkpt><trkpt lat="43.065352052375125" lon="12.16972344147286"><ele>495.16666666666663</ele><time>2026-05-03T06:14:00Z</time></trkpt><trkpt lat="43.065286974041626" lon="12.169837399778585"><ele>494.0</ele><time>2026-05-03T06:14:02Z</time></trkpt><trkpt lat="43.065264639173904" lon="12.169931170726791"><ele>493.99999999999994</ele><time>2026-05-03T06:14:03Z</time></trkpt><trkpt lat="43.06525302732786" lon="12.170022237096942"><ele>494.0</ele><time>2026-05-03T06:14:04Z</time></trkpt><trkpt lat="43.0652042724774" lon="12.1700939085198"><ele>494.0</ele><time>2026-05-03T06:14:05Z</time></trkpt><trkpt lat="43.065137418301376" lon="12.170121662508947"><ele>494.0</ele><time>2026-05-03T06:14:06Z</time></trkpt><trkpt lat="43.06502683451825" lon="12.17020438829602"><ele>493.99999999999994</ele><time>2026-05-03T06:14:08Z</time></trkpt><trkpt lat="43.064935566137486" lon="12.170289253903793"><ele>494.0</ele><time>2026-05-03T06:14:10Z</time></trkpt><trkpt lat="43.06482017392746" lon="12.170360745037387"><ele>493.99999999999994</ele><time>2026-05-03T06:14:12Z</time></trkpt><trkpt lat="43.064752935414255" lon="12.170394273064398"><ele>494.0</ele><time>2026-05-03T06:14:13Z</time></trkpt><trkpt lat="43.06469092605243" lon="12.17042278240477"><ele>494.0</ele><time>2026-05-03T06:14:14Z</time></trkpt><trkpt lat="43.06463094562505" lon="12.170454183598114"><ele>494.0</ele><time>2026-05-03T06:14:15Z</time></trkpt><trkpt lat="43.06453429351635" lon="12.170590446920368"><ele>493.99999999999994</ele><time>2026-05-03T06:14:17Z</time></trkpt><trkpt lat="43.064483701358526" lon="12.170652804461277"><ele>494.0</ele><time>2026-05-03T06:14:18Z</time></trkpt><trkpt lat="43.064424832969024" lon="12.170726869783076"><ele>493.99999999999994</ele><time>2026-05-03T06:14:19Z</time></trkpt><trkpt lat="43.06436591015671" lon="12.170785739095198"><ele>494.0</ele><time>2026-05-03T06:14:20Z</time></trkpt><trkpt lat="43.06431856056941" lon="12.170853099244825"><ele>494.0</ele><time>2026-05-03T06:14:21Z</time></trkpt><trkpt lat="43.06427243498237" lon="12.170931013418075"><ele>494.0</ele><time>2026-05-03T06:14:22Z</time></trkpt><trkpt lat="43.064203311789846" lon="12.170963175250993"><ele>493.99999999999994</ele><time>2026-05-03T06:14:23Z</time></trkpt><trkpt lat="43.064081597963245" lon="12.170956962315836"><ele>494.0</ele><time>2026-05-03T06:14:25Z</time></trkpt><trkpt lat="43.06401647408086" lon="12.170908077059998"><ele>495.2</ele><time>2026-05-03T06:14:26Z</time></trkpt><trkpt lat="43.06394689996936" lon="12.170849135605879"><ele>496.4</ele><time>2026-05-03T06:14:27Z</time></trkpt><trkpt lat="43.06387920235751" lon="12.170786734869"><ele>497.6</ele><time>2026-05-03T06:14:28Z</time></trkpt><trkpt lat="43.06380920138075" lon="12.170712572605968"><ele>498.8</ele><time>2026-05-03T06:14:29Z</time></trkpt><trkpt lat="43.063757528432184" lon="12.170628113986892"><ele>500.0</ele><time>2026-05-03T06:14:30Z</time></trkpt><trkpt lat="43.06363182027102" lon="12.170538006005348"><ele>500.49999999999994</ele><time>2026-05-03T06:14:32Z</time></trkpt><trkpt lat="43.06355955402972" lon="12.17052913801231"><ele>501.0</ele><time>2026-05-03T06:14:33Z</time></trkpt><trkpt lat="43.06347519785962" lon="12.170515836170885"><ele>501.5</ele><time>2026-05-03T06:14:34Z</time></trkpt><trkpt lat="43.063389238818154" lon="12.17053858259865"><ele>502.0</ele><time>2026-05-03T06:14:35Z</time></trkpt><trkpt lat="43.063303602078015" lon="12.170568907274516"><ele>502.49999999999994</ele><time>2026-05-03T06:14:36Z</time></trkpt><trkpt lat="43.06321876421613" lon="12.170603245297936"><ele>503.0</ele><time>2026-05-03T06:14:37Z</time></trkpt><trkpt lat="43.06312614616858" lon="12.170654467699103"><ele>504.49999999999994</ele><time>2026-05-03T06:14:38Z</time></trkpt><trkpt lat="43.06304362451622" lon="12.170705977841392"><ele>506.0</ele><time>2026-05-03T06:14:39Z</time></trkpt><trkpt lat="43.062982781873245" lon="12.17074412306408"><ele>507.5</ele><time>2026-05-03T06:14:40Z</time></trkpt><trkpt lat="43.06291406442947" lon="12.170787205296472"><ele>509.0</ele><time>2026-05-03T06:14:41Z</time></trkpt><trkpt lat="43.0628530636052" lon="12.17082544963941"><ele>510.49999999999994</ele><time>2026-05-03T06:14:42Z</time></trkpt><trkpt lat="43.062764887902574" lon="12.170881407069972"><ele>512.0</ele><time>2026-05-03T06:14:43Z</time></trkpt><trkpt lat="43.0626793870902" lon="12.170938482966264"><ele>511.99999999999994</ele><time>2026-05-03T06:14:44Z</time></trkpt><trkpt lat="43.06260945230449" lon="12.171011296232134"><ele>512.0</ele><time>2026-05-03T06:14:45Z</time></trkpt><trkpt lat="43.062542329935376" lon="12.171053211301963"><ele>512.0</ele><time>2026-05-03T06:14:46Z</time></trkpt><trkpt lat="43.06244183525458" lon="12.171068459022887"><ele>512.0</ele><time>2026-05-03T06:14:48Z</time></trkpt><trkpt lat="43.06238319235705" lon="12.170984182783435"><ele>511.99999999999994</ele><time>2026-05-03T06:14:49Z</time></trkpt><trkpt lat="43.06235140029018" lon="12.17088708726124"><ele>512.0</ele><time>2026-05-03T06:14:50Z</time></trkpt><trkpt lat="43.062276699835735" lon="12.17082230943536"><ele>511.8333333333333</ele><time>2026-05-03T06:14:52Z</time></trkpt><trkpt lat="43.06220160083139" lon="12.170810267847289"><ele>511.66666666666663</ele><time>2026-05-03T06:14:53Z</time></trkpt><trkpt lat="43.06212089796068" lon="12.170816937561547"><ele>511.5</ele><time>2026-05-03T06:14:54Z</time></trkpt><trkpt lat="43.06203390905355" lon="12.170801006993106"><ele>511.33333333333337</ele><time>2026-05-03T06:14:55Z</time></trkpt><trkpt lat="43.061951150575744" lon="12.170849794476013"><ele>511.1666666666667</ele><time>2026-05-03T06:14:56Z</time></trkpt><trkpt lat="43.061873749685624" lon="12.170852452555637"><ele>511.0</ele><time>2026-05-03T06:14:57Z</time></trkpt><trkpt lat="43.061807629479965" lon="12.170875098223775"><ele>511.0</ele><time>2026-05-03T06:14:58Z</time></trkpt><trkpt lat="43.06174527161268" lon="12.170897374120676"><ele>511.0</ele><time>2026-05-03T06:14:59Z</time></trkpt><trkpt lat="43.06168213199497" lon="12.170920164535953"><ele>511.0</ele><time>2026-05-03T06:15:00Z</time></trkpt><trkpt lat="43.06161470048326" lon="12.170944504127037"><ele>511.0</ele><time>2026-05-03T06:15:01Z</time></trkpt><trkpt lat="43.061544873679445" lon="12.170960358182166"><ele>511.0</ele><time>2026-05-03T06:15:02Z</time></trkpt><trkpt lat="43.06147648575187" lon="12.170980080118621"><ele>511.0</ele><time>2026-05-03T06:15:03Z</time></trkpt><trkpt lat="43.06140342827402" lon="12.170972783716504"><ele>511.0</ele><time>2026-05-03T06:15:04Z</time></trkpt><trkpt lat="43.06132855245421" lon="12.170959734523368"><ele>510.20000000000005</ele><time>2026-05-03T06:15:05Z</time></trkpt><trkpt lat="43.06124742533558" lon="12.170938528362873"><ele>509.40000000000003</ele><time>2026-05-03T06:15:06Z</time></trkpt><trkpt lat="43.061163902988746" lon="12.17086338745671"><ele>508.6</ele><time>2026-05-03T06:15:07Z</time></trkpt><trkpt lat="43.0610477358741" lon="12.170837320408506"><ele>507.8</ele><time>2026-05-03T06:15:08Z</time></trkpt><trkpt lat="43.06090027048874" lon="12.17082192491338"><ele>507.0</ele><time>2026-05-03T06:15:09Z</time></trkpt><trkpt lat="43.06076027449973" lon="12.17081791962351"><ele>506.0</ele><time>2026-05-03T06:15:10Z</time></trkpt><trkpt lat="43.06064077275476" lon="12.17078375168347"><ele>505.0</ele><time>2026-05-03T06:15:11Z</time></trkpt><trkpt lat="43.06052578596026" lon="12.17075131929032"><ele>504.0</ele><time>2026-05-03T06:15:12Z</time></trkpt><trkpt lat="43.06040900371394" lon="12.170747543750007"><ele>503.0</ele><time>2026-05-03T06:15:13Z</time></trkpt><trkpt lat="43.06030543982925" lon="12.1707254253801"><ele>503.0</ele><time>2026-05-03T06:15:14Z</time></trkpt><trkpt lat="43.06019819886068" lon="12.170749714478484"><ele>502.99999999999994</ele><time>2026-05-03T06:15:15Z</time></trkpt><trkpt lat="43.0600968044519" lon="12.170800499071945"><ele>502.99999999999994</ele><time>2026-05-03T06:15:16Z</time></trkpt><trkpt lat="43.05999949177161" lon="12.170841520298277"><ele>503.0</ele><time>2026-05-03T06:15:17Z</time></trkpt><trkpt lat="43.05989904754858" lon="12.170864747254559"><ele>503.0</ele><time>2026-05-03T06:15:18Z</time></trkpt><trkpt lat="43.05979486420166" lon="12.17087199036155"><ele>504.2</ele><time>2026-05-03T06:15:19Z</time></trkpt><trkpt lat="43.05969129840645" lon="12.170870368449345"><ele>505.4</ele><time>2026-05-03T06:15:20Z</time></trkpt><trkpt lat="43.0595846878787" lon="12.170858977700762"><ele>506.59999999999997</ele><time>2026-05-03T06:15:21Z</time></trkpt><trkpt lat="43.05950299829815" lon="12.170866384182347"><ele>507.79999999999995</ele><time>2026-05-03T06:15:22Z</time></trkpt><trkpt lat="43.05940973131974" lon="12.170817466526305"><ele>509.0</ele><time>2026-05-03T06:15:23Z</time></trkpt><trkpt lat="43.05932454624282" lon="12.170784070912935"><ele>509.0</ele><time>2026-05-03T06:15:24Z</time></trkpt><trkpt lat="43.05924097723881" lon="12.170750447451885"><ele>509.0</ele><time>2026-05-03T06:15:25Z</time></trkpt><trkpt lat="43.0591423279127" lon="12.170721979731905"><ele>509.0</ele><time>2026-05-03T06:15:26Z</time></trkpt><trkpt lat="43.05905259991279" lon="12.170703133193308"><ele>509.0</ele><time>2026-05-03T06:15:27Z</time></trkpt><trkpt lat="43.058966776520954" lon="12.170688677472011"><ele>509.0</ele><time>2026-05-03T06:15:28Z</time></trkpt><trkpt lat="43.05887324897871" lon="12.17072320986904"><ele>510.2</ele><time>2026-05-03T06:15:29Z</time></trkpt><trkpt lat="43.05878884348515" lon="12.17076886102631"><ele>511.4</ele><time>2026-05-03T06:15:30Z</time></trkpt><trkpt lat="43.058704892494504" lon="12.170818304456617"><ele>512.6</ele><time>2026-05-03T06:15:31Z</time></trkpt><trkpt lat="43.05861367313156" lon="12.170883337901934"><ele>513.8</ele><time>2026-05-03T06:15:32Z</time></trkpt><trkpt lat="43.05853258085561" lon="12.170945358248968"><ele>515.0</ele><time>2026-05-03T06:15:33Z</time></trkpt><trkpt lat="43.058446882820505" lon="12.170992787929848"><ele>515.0</ele><time>2026-05-03T06:15:34Z</time></trkpt><trkpt lat="43.05835952453191" lon="12.171030568787069"><ele>515.0</ele><time>2026-05-03T06:15:35Z</time></trkpt><trkpt lat="43.05827603457448" lon="12.17107302152908"><ele>515.0</ele><time>2026-05-03T06:15:36Z</time></trkpt><trkpt lat="43.0581921237742" lon="12.171064834497532"><ele>515.0</ele><time>2026-05-03T06:15:37Z</time></trkpt><trkpt lat="43.05810826602661" lon="12.17106379224035"><ele>515.0</ele><time>2026-05-03T06:15:38Z</time></trkpt><trkpt lat="43.05801762622252" lon="12.171056830253244"><ele>515.0</ele><time>2026-05-03T06:15:39Z</time></trkpt><trkpt lat="43.05793150635713" lon="12.171053281897287"><ele>515.6</ele><time>2026-05-03T06:15:40Z</time></trkpt><trkpt lat="43.05784382823486" lon="12.171077293327736"><ele>516.2</ele><time>2026-05-03T06:15:41Z</time></trkpt><trkpt lat="43.057753342199604" lon="12.171074694198028"><ele>516.8</ele><time>2026-05-03T06:15:42Z</time></trkpt><trkpt lat="43.05765653684572" lon="12.17107326326091"><ele>517.4</ele><time>2026-05-03T06:15:43Z</time></trkpt><trkpt lat="43.057560358751665" lon="12.171080942335369"><ele>518.0</ele><time>2026-05-03T06:15:44Z</time></trkpt><trkpt lat="43.05746731487305" lon="12.171075895503652"><ele>518.6</ele><time>2026-05-03T06:15:45Z</time></trkpt><trkpt lat="43.05737118257533" lon="12.17108309804385"><ele>519.1999999999999</ele><time>2026-05-03T06:15:46Z</time></trkpt><trkpt lat="43.05727628495496" lon="12.171090468207307"><ele>519.8</ele><time>2026-05-03T06:15:47Z</time></trkpt><trkpt lat="43.05718490588939" lon="12.171099145993946"><ele>520.4</ele><time>2026-05-03T06:15:48Z</time></trkpt><trkpt lat="43.05709985231324" lon="12.17112083684965"><ele>521.0</ele><time>2026-05-03T06:15:49Z</time></trkpt><trkpt lat="43.05700425427237" lon="12.171129604184902"><ele>521.0</ele><time>2026-05-03T06:15:50Z</time></trkpt><trkpt lat="43.05690726240998" lon="12.171143157088608"><ele>521.0</ele><time>2026-05-03T06:15:51Z</time></trkpt><trkpt lat="43.056812516684055" lon="12.171137164247233"><ele>521.0</ele><time>2026-05-03T06:15:52Z</time></trkpt><trkpt lat="43.056729087878466" lon="12.171167371699402"><ele>521.0</ele><time>2026-05-03T06:15:53Z</time></trkpt><trkpt lat="43.05663122779518" lon="12.171175329229438"><ele>521.0</ele><time>2026-05-03T06:15:54Z</time></trkpt><trkpt lat="43.05653357679208" lon="12.171181737532294"><ele>521.8</ele><time>2026-05-03T06:15:55Z</time></trkpt><trkpt lat="43.05643601427212" lon="12.171184075585701"><ele>522.6</ele><time>2026-05-03T06:15:56Z</time></trkpt><trkpt lat="43.05634327759563" lon="12.171189644744656"><ele>523.4</ele><time>2026-05-03T06:15:57Z</time></trkpt><trkpt lat="43.0562513599732" lon="12.171195188894846"><ele>524.2</ele><time>2026-05-03T06:15:58Z</time></trkpt><trkpt lat="43.05615581673957" lon="12.171214176158953"><ele>525.0</ele><time>2026-05-03T06:15:59Z</time></trkpt><trkpt lat="43.05605733719031" lon="12.171234920419845"><ele>525.0</ele><time>2026-05-03T06:16:00Z</time></trkpt><trkpt lat="43.055954091212314" lon="12.17126442511608"><ele>525.0</ele><time>2026-05-03T06:16:01Z</time></trkpt><trkpt lat="43.05585985036871" lon="12.171277028025024"><ele>525.0</ele><time>2026-05-03T06:16:02Z</time></trkpt><trkpt lat="43.055782264052" lon="12.171289665973239"><ele>525.0</ele><time>2026-05-03T06:16:03Z</time></trkpt><trkpt lat="43.05571695942605" lon="12.1713372914822"><ele>525.0</ele><time>2026-05-03T06:16:04Z</time></trkpt><trkpt lat="43.055622224460265" lon="12.171383036319776"><ele>523.0</ele><time>2026-05-03T06:16:06Z</time></trkpt><trkpt lat="43.055553863477584" lon="12.171384137498402"><ele>521.0</ele><time>2026-05-03T06:16:09Z</time></trkpt><trkpt lat="43.05541686983813" lon="12.171004498345765"><ele>519.0</ele><time>2026-05-03T06:16:25Z</time></trkpt><trkpt lat="43.055378631979494" lon="12.170854506315436"><ele>519.0</ele><time>2026-05-03T06:16:27Z</time></trkpt><trkpt lat="43.055360681261796" lon="12.170770792039043"><ele>519.0</ele><time>2026-05-03T06:16:28Z</time></trkpt><trkpt lat="43.05532296514868" lon="12.17063446073889"><ele>519.0</ele><time>2026-05-03T06:16:30Z</time></trkpt><trkpt lat="43.05530686345528" lon="12.170528970753558"><ele>519.0</ele><time>2026-05-03T06:16:32Z</time></trkpt><trkpt lat="43.05532686020863" lon="12.17040193407018"><ele>519.0</ele><time>2026-05-03T06:16:35Z</time></trkpt><trkpt lat="43.055317414905936" lon="12.170281563526842"><ele>519.0</ele><time>2026-05-03T06:16:37Z</time></trkpt><trkpt lat="43.055282453237915" lon="12.17016772967032"><ele>516.8571428571429</ele><time>2026-05-03T06:16:40Z</time></trkpt><trkpt lat="43.05526164964499" lon="12.170082796584841"><ele>514.7142857142857</ele><time>2026-05-03T06:16:42Z</time></trkpt><trkpt lat="43.05524588236633" lon="12.169992440252033"><ele>512.5714285714286</ele><time>2026-05-03T06:16:44Z</time></trkpt><trkpt lat="43.05522602682233" lon="12.169904388321848"><ele>510.42857142857144</ele><time>2026-05-03T06:16:46Z</time></trkpt><trkpt lat="43.05519812299963" lon="12.16981595537779"><ele>508.2857142857143</ele><time>2026-05-03T06:16:48Z</time></trkpt><trkpt lat="43.05516040867079" lon="12.169737252351569"><ele>506.1428571428571</ele><time>2026-05-03T06:16:50Z</time></trkpt><trkpt lat="43.05513063450444" lon="12.169655988712389"><ele>504.0</ele><time>2026-05-03T06:16:52Z</time></trkpt><trkpt lat="43.05512110652188" lon="12.169558510772484"><ele>501.5</ele><time>2026-05-03T06:16:55Z</time></trkpt><trkpt lat="43.05509577037569" lon="12.169450094847694"><ele>499.0</ele><time>2026-05-03T06:16:58Z</time></trkpt><trkpt lat="43.05507489209308" lon="12.169364518109303"><ele>496.5</ele><time>2026-05-03T06:17:00Z</time></trkpt><trkpt lat="43.055063078758515" lon="12.169252460545973"><ele>494.0</ele><time>2026-05-03T06:17:02Z</time></trkpt><trkpt lat="43.05506127774223" lon="12.169156767647442"><ele>491.5</ele><time>2026-05-03T06:17:04Z</time></trkpt><trkpt lat="43.055050395146836" lon="12.169064373541017"><ele>489.0</ele><time>2026-05-03T06:17:06Z</time></trkpt><trkpt lat="43.05503214129584" lon="12.16895653986288"><ele>486.7142857142857</ele><time>2026-05-03T06:17:08Z</time></trkpt><trkpt lat="43.055031344418346" lon="12.168849536419838"><ele>484.42857142857144</ele><time>2026-05-03T06:17:10Z</time></trkpt><trkpt lat="43.05502470684999" lon="12.168756840744106"><ele>482.14285714285717</ele><time>2026-05-03T06:17:12Z</time></trkpt><trkpt lat="43.05500216268015" lon="12.168654226988107"><ele>479.8571428571429</ele><time>2026-05-03T06:17:14Z</time></trkpt><trkpt lat="43.0549593700203" lon="12.168553343120454"><ele>477.57142857142856</ele><time>2026-05-03T06:17:17Z</time></trkpt><trkpt lat="43.05495002572375" lon="12.168462777024754"><ele>475.28571428571433</ele><time>2026-05-03T06:17:19Z</time></trkpt><trkpt lat="43.05493415139871" lon="12.168366504057031"><ele>473.0</ele><time>2026-05-03T06:17:23Z</time></trkpt><trkpt lat="43.0549258161403" lon="12.168264504113214"><ele>467.16666666666663</ele><time>2026-05-03T06:17:27Z</time></trkpt><trkpt lat="43.05494136811111" lon="12.168161085860833"><ele>461.3333333333333</ele><time>2026-05-03T06:17:31Z</time></trkpt><trkpt lat="43.054938674469014" lon="12.168046998813018"><ele>455.5</ele><time>2026-05-03T06:17:34Z</time></trkpt><trkpt lat="43.05494018678679" lon="12.16795743874616"><ele>449.66666666666663</ele><time>2026-05-03T06:17:36Z</time></trkpt><trkpt lat="43.05490821586479" lon="12.167853196274892"><ele>443.8333333333333</ele><time>2026-05-03T06:17:39Z</time></trkpt><trkpt lat="43.0548527326046" lon="12.167776455862992"><ele>438.0</ele><time>2026-05-03T06:19:29Z</time></trkpt><trkpt lat="43.05482508617102" lon="12.167659636813026"><ele>438.0</ele><time>2026-05-03T06:19:32Z</time></trkpt><trkpt lat="43.05478626061925" lon="12.167540803780737"><ele>438.0</ele><time>2026-05-03T06:19:36Z</time></trkpt><trkpt lat="43.0547412463129" lon="12.167462479581685"><ele>438.0</ele><time>2026-05-03T06:19:38Z</time></trkpt><trkpt lat="43.05469850483415" lon="12.167398261934459"><ele>438.0</ele><time>2026-05-03T06:19:41Z</time></trkpt><trkpt lat="43.054641865275684" lon="12.167280102794713"><ele>438.0</ele><time>2026-05-03T06:19:44Z</time></trkpt><trkpt lat="43.05464727556936" lon="12.16713450503129"><ele>438.0</ele><time>2026-05-03T06:19:47Z</time></trkpt><trkpt lat="43.05467292986346" lon="12.167049309539806"><ele>436.8333333333333</ele><time>2026-05-03T06:19:49Z</time></trkpt><trkpt lat="43.05470053111075" lon="12.166963134069238"><ele>435.66666666666663</ele><time>2026-05-03T06:19:51Z</time></trkpt><trkpt lat="43.054689364176646" lon="12.166858072270829"><ele>434.5</ele><time>2026-05-03T06:19:53Z</time></trkpt><trkpt lat="43.0546555996262" lon="12.16675902533372"><ele>433.3333333333333</ele><time>2026-05-03T06:19:55Z</time></trkpt><trkpt lat="43.054625373756224" lon="12.166670985650407"><ele>432.16666666666663</ele><time>2026-05-03T06:19:57Z</time></trkpt><trkpt lat="43.0546202088949" lon="12.166557893276329"><ele>431.0</ele><time>2026-05-03T06:19:59Z</time></trkpt><trkpt lat="43.054611984482165" lon="12.166456035996593"><ele>429.99999999999994</ele><time>2026-05-03T06:20:01Z</time></trkpt><trkpt lat="43.0545986908143" lon="12.166305761300992"><ele>429.0</ele><time>2026-05-03T06:20:05Z</time></trkpt><trkpt lat="43.05460109482902" lon="12.166209552437254"><ele>428.0</ele><time>2026-05-03T06:20:07Z</time></trkpt><trkpt lat="43.05457184049841" lon="12.166128814776542"><ele>427.0</ele><time>2026-05-03T06:20:09Z</time></trkpt><trkpt lat="43.054554079312574" lon="12.166034815762464"><ele>425.99999999999994</ele><time>2026-05-03T06:20:11Z</time></trkpt><trkpt lat="43.05454266404733" lon="12.1659357595716"><ele>425.0</ele><time>2026-05-03T06:20:13Z</time></trkpt><trkpt lat="43.05452657484847" lon="12.1658487396035"><ele>425.0</ele><time>2026-05-03T06:20:15Z</time></trkpt><trkpt lat="43.054509562754504" lon="12.1657566707296"><ele>425.0</ele><time>2026-05-03T06:20:17Z</time></trkpt><trkpt lat="43.054506095433595" lon="12.165634751754782"><ele>425.0</ele><time>2026-05-03T06:20:20Z</time></trkpt><trkpt lat="43.05450131299852" lon="12.165525561895768"><ele>425.0</ele><time>2026-05-03T06:20:22Z</time></trkpt><trkpt lat="43.05447925246549" lon="12.165442536754242"><ele>425.0</ele><time>2026-05-03T06:20:24Z</time></trkpt><trkpt lat="43.05446440260245" lon="12.165349092443492"><ele>425.0</ele><time>2026-05-03T06:20:26Z</time></trkpt><trkpt lat="43.05445180456935" lon="12.165251337060008"><ele>425.0</ele><time>2026-05-03T06:20:28Z</time></trkpt><trkpt lat="43.05444910512946" lon="12.165153318998971"><ele>423.8333333333333</ele><time>2026-05-03T06:20:30Z</time></trkpt><trkpt lat="43.05442666265743" lon="12.16501400135058"><ele>422.66666666666663</ele><time>2026-05-03T06:20:33Z</time></trkpt><trkpt lat="43.05440623958267" lon="12.164878083780652"><ele>421.5</ele><time>2026-05-03T06:20:35Z</time></trkpt><trkpt lat="43.05438154843391" lon="12.164796719514682"><ele>420.33333333333337</ele><time>2026-05-03T06:20:37Z</time></trkpt><trkpt lat="43.05429703026461" lon="12.164745910081125"><ele>419.1666666666667</ele><time>2026-05-03T06:20:39Z</time></trkpt><trkpt lat="43.054242285766065" lon="12.164662541108074"><ele>418.0</ele><time>2026-05-03T06:20:41Z</time></trkpt><trkpt lat="43.05422001227807" lon="12.164568144972709"><ele>416.50000000000006</ele><time>2026-05-03T06:20:43Z</time></trkpt><trkpt lat="43.05417300049643" lon="12.164478631180945"><ele>415.0</ele><time>2026-05-03T06:20:45Z</time></trkpt><trkpt lat="43.054122461693915" lon="12.164393911982193"><ele>413.5</ele><time>2026-05-03T06:20:47Z</time></trkpt><trkpt lat="43.05408822772079" lon="12.164288994014504"><ele>412.0</ele><time>2026-05-03T06:20:49Z</time></trkpt><trkpt lat="43.054036937386606" lon="12.164189651267382"><ele>410.50000000000006</ele><time>2026-05-03T06:20:51Z</time></trkpt><trkpt lat="43.054002708190225" lon="12.16408847324366"><ele>409.0</ele><time>2026-05-03T06:20:53Z</time></trkpt><trkpt lat="43.053954766968474" lon="12.16399982778457"><ele>405.85714285714283</ele><time>2026-05-03T06:20:55Z</time></trkpt><trkpt lat="43.053917714304724" lon="12.163894189633648"><ele>402.7142857142857</ele><time>2026-05-03T06:20:57Z</time></trkpt><trkpt lat="43.053874239301315" lon="12.16382520221344"><ele>399.57142857142856</ele><time>2026-05-03T06:20:59Z</time></trkpt><trkpt lat="43.053808712415844" lon="12.163783823315667"><ele>396.42857142857144</ele><time>2026-05-03T06:21:02Z</time></trkpt><trkpt lat="43.053764149943945" lon="12.163708165965035"><ele>393.28571428571433</ele><time>2026-05-03T06:21:04Z</time></trkpt><trkpt lat="43.05370478733356" lon="12.163659494676155"><ele>390.14285714285717</ele><time>2026-05-03T06:21:06Z</time></trkpt><trkpt lat="43.05365321535324" lon="12.163607416744327"><ele>387.0</ele><time>2026-05-03T06:21:08Z</time></trkpt><trkpt lat="43.05364470224334" lon="12.163481270316195"><ele>387.0</ele><time>2026-05-03T06:21:14Z</time></trkpt><trkpt lat="43.05366347839461" lon="12.163391635637769"><ele>387.0</ele><time>2026-05-03T06:21:16Z</time></trkpt><trkpt lat="43.05360027329516" lon="12.163294725017202"><ele>387.0</ele><time>2026-05-03T06:21:19Z</time></trkpt><trkpt lat="43.05352541973431" lon="12.163261653637365"><ele>387.0</ele><time>2026-05-03T06:21:21Z</time></trkpt><trkpt lat="43.05346101654699" lon="12.163214059589498"><ele>387.0</ele><time>2026-05-03T06:21:25Z</time></trkpt><trkpt lat="43.05338627513575" lon="12.163165407824271"><ele>387.0</ele><time>2026-05-03T06:21:27Z</time></trkpt><trkpt lat="43.053286887085335" lon="12.16309877156254"><ele>384.1666666666667</ele><time>2026-05-03T06:21:28Z</time></trkpt><trkpt lat="43.053203706798804" lon="12.163106952273951"><ele>381.3333333333333</ele><time>2026-05-03T06:21:30Z</time></trkpt><trkpt lat="43.05313455301226" lon="12.163159858203244"><ele>378.5</ele><time>2026-05-03T06:21:33Z</time></trkpt><trkpt lat="43.053070072376336" lon="12.163180409568518"><ele>375.66666666666663</ele><time>2026-05-03T06:21:35Z</time></trkpt><trkpt lat="43.0530041577903" lon="12.163205211589263"><ele>372.8333333333333</ele><time>2026-05-03T06:21:37Z</time></trkpt><trkpt lat="43.052926232459015" lon="12.163157114813995"><ele>370.0</ele><time>2026-05-03T06:21:40Z</time></trkpt><trkpt lat="43.05292164467905" lon="12.16306067359813"><ele>368.66666666666663</ele><time>2026-05-03T06:21:42Z</time></trkpt><trkpt lat="43.052894494711815" lon="12.162956780423926"><ele>367.3333333333333</ele><time>2026-05-03T06:21:44Z</time></trkpt><trkpt lat="43.05282141349081" lon="12.162868193968116"><ele>366.0</ele><time>2026-05-03T06:21:46Z</time></trkpt><trkpt lat="43.052768584087794" lon="12.162805491543912"><ele>364.6666666666667</ele><time>2026-05-03T06:21:48Z</time></trkpt><trkpt lat="43.05282412751282" lon="12.162682954605753"><ele>363.33333333333337</ele><time>2026-05-03T06:21:50Z</time></trkpt><trkpt lat="43.052858194662754" lon="12.162576473418522"><ele>362.0</ele><time>2026-05-03T06:21:54Z</time></trkpt><trkpt lat="43.052929884653814" lon="12.16251062274709"><ele>362.0</ele><time>2026-05-03T06:21:56Z</time></trkpt><trkpt lat="43.05298704937398" lon="12.162453564625242"><ele>362.0</ele><time>2026-05-03T06:21:59Z</time></trkpt><trkpt lat="43.05305799691421" lon="12.162393154895186"><ele>362.0</ele><time>2026-05-03T06:22:02Z</time></trkpt><trkpt lat="43.05306109283486" lon="12.162299803600975"><ele>362.0</ele><time>2026-05-03T06:22:06Z</time></trkpt><trkpt lat="43.05314889091639" lon="12.162200461687647"><ele>362.0</ele><time>2026-05-03T06:23:04Z</time></trkpt><trkpt lat="43.05326391756736" lon="12.16212699869999"><ele>361.1666666666667</ele><time>2026-05-03T06:23:06Z</time></trkpt><trkpt lat="43.053331930907305" lon="12.162089437643429"><ele>360.33333333333337</ele><time>2026-05-03T06:23:07Z</time></trkpt><trkpt lat="43.05339535618281" lon="12.162052988753274"><ele>359.5</ele><time>2026-05-03T06:23:08Z</time></trkpt><trkpt lat="43.05345574540808" lon="12.16201884737079"><ele>358.6666666666667</ele><time>2026-05-03T06:23:09Z</time></trkpt><trkpt lat="43.053544285825836" lon="12.161967963949403"><ele>357.8333333333333</ele><time>2026-05-03T06:23:10Z</time></trkpt><trkpt lat="43.053661805056" lon="12.161902393804326"><ele>357.0</ele><time>2026-05-03T06:23:11Z</time></trkpt><trkpt lat="43.053769884422174" lon="12.16184362732709"><ele>357.0</ele><time>2026-05-03T06:23:12Z</time></trkpt><trkpt lat="43.05385748213953" lon="12.16180037809431"><ele>357.0</ele><time>2026-05-03T06:23:13Z</time></trkpt><trkpt lat="43.05393957985014" lon="12.161775978261891"><ele>357.0</ele><time>2026-05-03T06:23:14Z</time></trkpt><trkpt lat="43.05402531324762" lon="12.161765170776896"><ele>357.0</ele><time>2026-05-03T06:23:15Z</time></trkpt><trkpt lat="43.054105441041024" lon="12.161780052159402"><ele>357.0</ele><time>2026-05-03T06:23:16Z</time></trkpt><trkpt lat="43.05418590020154" lon="12.161796200754397"><ele>357.0</ele><time>2026-05-03T06:23:17Z</time></trkpt><trkpt lat="43.05426710389008" lon="12.161833240180478"><ele>357.6666666666667</ele><time>2026-05-03T06:23:18Z</time></trkpt><trkpt lat="43.05435431594773" lon="12.16188278659879"><ele>358.3333333333333</ele><time>2026-05-03T06:23:19Z</time></trkpt><trkpt lat="43.05443716555512" lon="12.161917084866703"><ele>359.0</ele><time>2026-05-03T06:23:20Z</time></trkpt><trkpt lat="43.05451325370651" lon="12.161947510149403"><ele>359.66666666666663</ele><time>2026-05-03T06:23:21Z</time></trkpt><trkpt lat="43.05459296549879" lon="12.161996402599915"><ele>360.3333333333333</ele><time>2026-05-03T06:23:22Z</time></trkpt><trkpt lat="43.054658410945635" lon="12.162047904098714"><ele>361.0</ele><time>2026-05-03T06:23:23Z</time></trkpt><trkpt lat="43.05470105944794" lon="12.162122071400965"><ele>361.0</ele><time>2026-05-03T06:23:24Z</time></trkpt><trkpt lat="43.05474844275006" lon="12.16222452685596"><ele>361.0</ele><time>2026-05-03T06:23:25Z</time></trkpt><trkpt lat="43.05480175128246" lon="12.162326578804745"><ele>361.0</ele><time>2026-05-03T06:23:26Z</time></trkpt><trkpt lat="43.05485348543154" lon="12.162407958845133"><ele>361.0</ele><time>2026-05-03T06:23:27Z</time></trkpt><trkpt lat="43.054926751822656" lon="12.162440936863966"><ele>361.0</ele><time>2026-05-03T06:23:28Z</time></trkpt><trkpt lat="43.054998319375635" lon="12.162431151866082"><ele>361.0</ele><time>2026-05-03T06:23:29Z</time></trkpt><trkpt lat="43.05507115958705" lon="12.162387746678313"><ele>361.66666666666663</ele><time>2026-05-03T06:23:30Z</time></trkpt><trkpt lat="43.05514608579801" lon="12.162339654980968"><ele>362.3333333333333</ele><time>2026-05-03T06:23:31Z</time></trkpt><trkpt lat="43.05522253756622" lon="12.162317452805649"><ele>363.0</ele><time>2026-05-03T06:23:32Z</time></trkpt><trkpt lat="43.055307416164894" lon="12.162317334642214"><ele>363.6666666666667</ele><time>2026-05-03T06:23:33Z</time></trkpt><trkpt lat="43.05540269702239" lon="12.162345078022472"><ele>364.33333333333337</ele><time>2026-05-03T06:23:34Z</time></trkpt><trkpt lat="43.055504115622156" lon="12.162382248366484"><ele>365.0</ele><time>2026-05-03T06:23:35Z</time></trkpt><trkpt lat="43.05559558846362" lon="12.162420943944033"><ele>365.0</ele><time>2026-05-03T06:23:36Z</time></trkpt><trkpt lat="43.055679377980766" lon="12.162451031509603"><ele>365.0</ele><time>2026-05-03T06:23:37Z</time></trkpt><trkpt lat="43.05575780864247" lon="12.1624403149171"><ele>365.0</ele><time>2026-05-03T06:23:38Z</time></trkpt><trkpt lat="43.055831758708536" lon="12.162391245697146"><ele>365.0</ele><time>2026-05-03T06:23:39Z</time></trkpt><trkpt lat="43.055896794528365" lon="12.16233134179194"><ele>365.0</ele><time>2026-05-03T06:23:40Z</time></trkpt><trkpt lat="43.05595434803629" lon="12.162258029942478"><ele>365.0</ele><time>2026-05-03T06:23:41Z</time></trkpt><trkpt lat="43.05602206664362" lon="12.162201049902672"><ele>363.0</ele><time>2026-05-03T06:23:42Z</time></trkpt><trkpt lat="43.056085724301525" lon="12.162124215066576"><ele>361.0</ele><time>2026-05-03T06:23:43Z</time></trkpt><trkpt lat="43.05614377959513" lon="12.162044699046152"><ele>359.0</ele><time>2026-05-03T06:23:44Z</time></trkpt><trkpt lat="43.056226868531276" lon="12.16200772483035"><ele>357.0</ele><time>2026-05-03T06:23:45Z</time></trkpt><trkpt lat="43.05631277473628" lon="12.161999494251987"><ele>355.0</ele><time>2026-05-03T06:23:46Z</time></trkpt><trkpt lat="43.05641029102172" lon="12.162002876722799"><ele>353.0</ele><time>2026-05-03T06:23:47Z</time></trkpt><trkpt lat="43.05650549757459" lon="12.162016430023217"><ele>353.0</ele><time>2026-05-03T06:23:48Z</time></trkpt><trkpt lat="43.05659555367549" lon="12.162013479873371"><ele>353.0</ele><time>2026-05-03T06:23:49Z</time></trkpt><trkpt lat="43.056685707510795" lon="12.161980216191264"><ele>353.0</ele><time>2026-05-03T06:23:50Z</time></trkpt><trkpt lat="43.056762266249905" lon="12.161918766353184"><ele>353.0</ele><time>2026-05-03T06:23:51Z</time></trkpt><trkpt lat="43.05684703601265" lon="12.161844740232294"><ele>353.0</ele><time>2026-05-03T06:23:52Z</time></trkpt><trkpt lat="43.05693300561307" lon="12.161781257251917"><ele>353.0</ele><time>2026-05-03T06:23:53Z</time></trkpt><trkpt lat="43.0570194390165" lon="12.161744406809651"><ele>353.0</ele><time>2026-05-03T06:23:54Z</time></trkpt><trkpt lat="43.05710337199415" lon="12.161737657556998"><ele>353.0</ele><time>2026-05-03T06:23:55Z</time></trkpt><trkpt lat="43.05719155316003" lon="12.161741722667006"><ele>353.0</ele><time>2026-05-03T06:23:56Z</time></trkpt><trkpt lat="43.05726655926075" lon="12.161733308119734"><ele>353.0</ele><time>2026-05-03T06:23:57Z</time></trkpt><trkpt lat="43.05732780999057" lon="12.16168567396434"><ele>353.0</ele><time>2026-05-03T06:23:58Z</time></trkpt><trkpt lat="43.05736132893006" lon="12.161594749363356"><ele>352.5</ele><time>2026-05-03T06:23:59Z</time></trkpt><trkpt lat="43.05739703289798" lon="12.161485844527407"><ele>352.0</ele><time>2026-05-03T06:24:00Z</time></trkpt><trkpt lat="43.05742174959397" lon="12.161361307702482"><ele>351.5</ele><time>2026-05-03T06:24:01Z</time></trkpt><trkpt lat="43.057423375425635" lon="12.161244152844136"><ele>351.0</ele><time>2026-05-03T06:24:02Z</time></trkpt><trkpt lat="43.05744754613324" lon="12.161129479389851"><ele>350.5</ele><time>2026-05-03T06:24:03Z</time></trkpt><trkpt lat="43.057481220769716" lon="12.161027285786476"><ele>350.0</ele><time>2026-05-03T06:24:04Z</time></trkpt><trkpt lat="43.05752332364567" lon="12.160936963286423"><ele>350.0</ele><time>2026-05-03T06:24:05Z</time></trkpt><trkpt lat="43.05758317759717" lon="12.160868216762625"><ele>350.0</ele><time>2026-05-03T06:24:06Z</time></trkpt><trkpt lat="43.0576446114697" lon="12.160822545649719"><ele>350.0</ele><time>2026-05-03T06:24:07Z</time></trkpt><trkpt lat="43.05770709972134" lon="12.160782054322269"><ele>350.0</ele><time>2026-05-03T06:24:08Z</time></trkpt><trkpt lat="43.05775931327517" lon="12.160731747911424"><ele>350.0</ele><time>2026-05-03T06:24:09Z</time></trkpt><trkpt lat="43.05780321670776" lon="12.160664975198266"><ele>350.0</ele><time>2026-05-03T06:24:10Z</time></trkpt><trkpt lat="43.057882568524256" lon="12.160510624591806"><ele>348.83333333333337</ele><time>2026-05-03T06:24:12Z</time></trkpt><trkpt lat="43.0578429732447" lon="12.160395381600777"><ele>347.6666666666667</ele><time>2026-05-03T06:24:13Z</time></trkpt><trkpt lat="43.05782482176928" lon="12.160294024594574"><ele>346.5</ele><time>2026-05-03T06:24:14Z</time></trkpt><trkpt lat="43.05780754507693" lon="12.160184739364876"><ele>345.3333333333333</ele><time>2026-05-03T06:24:15Z</time></trkpt><trkpt lat="43.0577902928991" lon="12.160076378551304"><ele>344.16666666666663</ele><time>2026-05-03T06:24:16Z</time></trkpt><trkpt lat="43.05777412530208" lon="12.159965217475074"><ele>343.0</ele><time>2026-05-03T06:24:17Z</time></trkpt><trkpt lat="43.057759332907075" lon="12.159854911396144"><ele>342.0</ele><time>2026-05-03T06:24:18Z</time></trkpt><trkpt lat="43.05774610907023" lon="12.159745330214973"><ele>341.0</ele><time>2026-05-03T06:24:19Z</time></trkpt><trkpt lat="43.05772471508956" lon="12.159637562140173"><ele>340.0</ele><time>2026-05-03T06:24:20Z</time></trkpt><trkpt lat="43.05772617408772" lon="12.159527938080483"><ele>339.0</ele><time>2026-05-03T06:24:21Z</time></trkpt><trkpt lat="43.057727108633834" lon="12.159416724675518"><ele>338.0</ele><time>2026-05-03T06:24:22Z</time></trkpt><trkpt lat="43.057732960525534" lon="12.15929401429045"><ele>337.0</ele><time>2026-05-03T06:24:23Z</time></trkpt><trkpt lat="43.057740972280826" lon="12.159161737967336"><ele>337.0</ele><time>2026-05-03T06:24:24Z</time></trkpt><trkpt lat="43.057751999478775" lon="12.159035054186381"><ele>337.0</ele><time>2026-05-03T06:24:25Z</time></trkpt><trkpt lat="43.05776202475578" lon="12.15890855167452"><ele>337.0</ele><time>2026-05-03T06:24:26Z</time></trkpt><trkpt lat="43.05776532295468" lon="12.158774346623257"><ele>337.0</ele><time>2026-05-03T06:24:27Z</time></trkpt><trkpt lat="43.057764675301456" lon="12.158623307202433"><ele>337.0</ele><time>2026-05-03T06:24:28Z</time></trkpt><trkpt lat="43.05777673527657" lon="12.15848548386356"><ele>335.5</ele><time>2026-05-03T06:24:29Z</time></trkpt><trkpt lat="43.05778340715632" lon="12.158351496160261"><ele>334.0</ele><time>2026-05-03T06:24:30Z</time></trkpt><trkpt lat="43.057805089172746" lon="12.158217108646799"><ele>332.5</ele><time>2026-05-03T06:24:31Z</time></trkpt><trkpt lat="43.0578323874301" lon="12.158063103402112"><ele>331.0</ele><time>2026-05-03T06:24:32Z</time></trkpt><trkpt lat="43.05785562620585" lon="12.157862920632043"><ele>330.0</ele><time>2026-05-03T06:24:33Z</time></trkpt><trkpt lat="43.05788072042851" lon="12.15761503436328"><ele>329.0</ele><time>2026-05-03T06:24:34Z</time></trkpt><trkpt lat="43.0578977718377" lon="12.15738858782208"><ele>328.0</ele><time>2026-05-03T06:24:35Z</time></trkpt><trkpt lat="43.05790145518467" lon="12.157203698852117"><ele>327.66666666666663</ele><time>2026-05-03T06:24:36Z</time></trkpt><trkpt lat="43.057878361948255" lon="12.157032947760616"><ele>327.3333333333333</ele><time>2026-05-03T06:24:37Z</time></trkpt><trkpt lat="43.057823133749444" lon="12.156837915135196"><ele>327.0</ele><time>2026-05-03T06:24:38Z</time></trkpt><trkpt lat="43.05774059903976" lon="12.15658300396113"><ele>325.6666666666667</ele><time>2026-05-03T06:24:39Z</time></trkpt><trkpt lat="43.05764576055055" lon="12.15630822835209"><ele>324.33333333333337</ele><time>2026-05-03T06:24:40Z</time></trkpt><trkpt lat="43.05756593889406" lon="12.156050178436418"><ele>323.0</ele><time>2026-05-03T06:24:41Z</time></trkpt><trkpt lat="43.05750525003112" lon="12.155832952113679"><ele>322.25</ele><time>2026-05-03T06:24:42Z</time></trkpt><trkpt lat="43.05744791185226" lon="12.155634844504164"><ele>321.5</ele><time>2026-05-03T06:24:43Z</time></trkpt><trkpt lat="43.05738910566328" lon="12.155468737680659"><ele>320.75</ele><time>2026-05-03T06:24:44Z</time></trkpt><trkpt lat="43.05732370186189" lon="12.155328481084911"><ele>320.0</ele><time>2026-05-03T06:24:45Z</time></trkpt><trkpt lat="43.05724882801524" lon="12.155200746197137"><ele>320.0</ele><time>2026-05-03T06:24:46Z</time></trkpt><trkpt lat="43.05718901356909" lon="12.155079047656034"><ele>320.0</ele><time>2026-05-03T06:24:47Z</time></trkpt><trkpt lat="43.057130543447286" lon="12.154987111645031"><ele>320.0</ele><time>2026-05-03T06:24:48Z</time></trkpt><trkpt lat="43.05707743467282" lon="12.154903605579149"><ele>320.0</ele><time>2026-05-03T06:24:49Z</time></trkpt><trkpt lat="43.05702735674288" lon="12.154823144444396"><ele>320.0</ele><time>2026-05-03T06:24:50Z</time></trkpt><trkpt lat="43.05698344815091" lon="12.154743845923432"><ele>320.0</ele><time>2026-05-03T06:24:51Z</time></trkpt><trkpt lat="43.056948297799764" lon="12.154664987869104"><ele>319.6666666666667</ele><time>2026-05-03T06:24:52Z</time></trkpt><trkpt lat="43.05691509096157" lon="12.154581394547368"><ele>319.33333333333337</ele><time>2026-05-03T06:24:53Z</time></trkpt><trkpt lat="43.05686863304837" lon="12.15444533006797"><ele>319.0</ele><time>2026-05-03T06:24:55Z</time></trkpt><trkpt lat="43.05683486360382" lon="12.154334210751184"><ele>318.6666666666667</ele><time>2026-05-03T06:24:57Z</time></trkpt><trkpt lat="43.05681187714455" lon="12.154234029845217"><ele>318.3333333333333</ele><time>2026-05-03T06:24:59Z</time></trkpt><trkpt lat="43.056792684346966" lon="12.154136517507023"><ele>318.0</ele><time>2026-05-03T06:25:01Z</time></trkpt><trkpt lat="43.056769906288" lon="12.154029626949418"><ele>317.4</ele><time>2026-05-03T06:25:03Z</time></trkpt><trkpt lat="43.05672997299079" lon="12.15392455755498"><ele>316.8</ele><time>2026-05-03T06:25:05Z</time></trkpt><trkpt lat="43.056700321763174" lon="12.153795767940291"><ele>316.2</ele><time>2026-05-03T06:25:07Z</time></trkpt><trkpt lat="43.056666193226484" lon="12.153676144380546"><ele>315.6</ele><time>2026-05-03T06:25:09Z</time></trkpt><trkpt lat="43.0566307539338" lon="12.153518569269536"><ele>315.0</ele><time>2026-05-03T06:25:11Z</time></trkpt><trkpt lat="43.056599971125735" lon="12.153436040631911"><ele>314.1666666666667</ele><time>2026-05-03T06:25:12Z</time></trkpt><trkpt lat="43.05654783471957" lon="12.153285354094127"><ele>313.3333333333333</ele><time>2026-05-03T06:25:14Z</time></trkpt><trkpt lat="43.05652580687373" lon="12.153201881156557"><ele>312.5</ele><time>2026-05-03T06:25:15Z</time></trkpt><trkpt lat="43.05649471928777" lon="12.153106632412213"><ele>311.66666666666663</ele><time>2026-05-03T06:25:16Z</time></trkpt><trkpt lat="43.05646236913284" lon="12.153010132476581"><ele>310.8333333333333</ele><time>2026-05-03T06:25:17Z</time></trkpt><trkpt lat="43.056429987587485" lon="12.15290624653569"><ele>310.0</ele><time>2026-05-03T06:25:18Z</time></trkpt><trkpt lat="43.05639875209789" lon="12.152811621312251"><ele>309.3333333333333</ele><time>2026-05-03T06:25:19Z</time></trkpt><trkpt lat="43.05635996084824" lon="12.152719907750106"><ele>308.66666666666663</ele><time>2026-05-03T06:25:20Z</time></trkpt><trkpt lat="43.05633872334723" lon="12.152618577045047"><ele>308.0</ele><time>2026-05-03T06:25:21Z</time></trkpt><trkpt lat="43.05630748786368" lon="12.152535578850074"><ele>307.3333333333333</ele><time>2026-05-03T06:25:22Z</time></trkpt><trkpt lat="43.05625945990448" lon="12.152444691895171"><ele>306.6666666666667</ele><time>2026-05-03T06:25:23Z</time></trkpt><trkpt lat="43.056233214351536" lon="12.15234787687371"><ele>306.0</ele><time>2026-05-03T06:25:24Z</time></trkpt><trkpt lat="43.05621836966221" lon="12.152246137616634"><ele>305.6</ele><time>2026-05-03T06:25:25Z</time></trkpt><trkpt lat="43.056205929503875" lon="12.152132548824865"><ele>305.20000000000005</ele><time>2026-05-03T06:25:26Z</time></trkpt><trkpt lat="43.05618325622675" lon="12.151984956674873"><ele>304.79999999999995</ele><time>2026-05-03T06:25:27Z</time></trkpt><trkpt lat="43.05615429380906" lon="12.151845497846107"><ele>304.4</ele><time>2026-05-03T06:25:28Z</time></trkpt><trkpt lat="43.05612006479493" lon="12.151719155518599"><ele>304.0</ele><time>2026-05-03T06:25:29Z</time></trkpt><trkpt lat="43.05608471098348" lon="12.151581901914636"><ele>303.59999999999997</ele><time>2026-05-03T06:25:30Z</time></trkpt><trkpt lat="43.05605091831447" lon="12.15145035594363"><ele>303.2</ele><time>2026-05-03T06:25:31Z</time></trkpt><trkpt lat="43.05601821400835" lon="12.151326407358507"><ele>302.79999999999995</ele><time>2026-05-03T06:25:32Z</time></trkpt><trkpt lat="43.055988371725405" lon="12.151207598198576"><ele>302.4</ele><time>2026-05-03T06:25:33Z</time></trkpt><trkpt lat="43.055987895073514" lon="12.151086337257762"><ele>302.0</ele><time>2026-05-03T06:25:34Z</time></trkpt><trkpt lat="43.05600461776705" lon="12.15097779564432"><ele>302.0</ele><time>2026-05-03T06:25:35Z</time></trkpt><trkpt lat="43.055992801524745" lon="12.150829697546941"><ele>302.0</ele><time>2026-05-03T06:25:37Z</time></trkpt><trkpt lat="43.055843610345285" lon="12.150813635591009"><ele>302.0</ele><time>2026-05-03T06:25:39Z</time></trkpt><trkpt lat="43.05576672101374" lon="12.150833526380708"><ele>302.0</ele><time>2026-05-03T06:25:40Z</time></trkpt><trkpt lat="43.05570086713166" lon="12.150844360017432"><ele>302.0</ele><time>2026-05-03T06:25:41Z</time></trkpt><trkpt lat="43.05560094697448" lon="12.150844537676443"><ele>302.33333333333337</ele><time>2026-05-03T06:25:43Z</time></trkpt><trkpt lat="43.05552660593088" lon="12.150843815632939"><ele>302.6666666666667</ele><time>2026-05-03T06:25:46Z</time></trkpt><trkpt lat="43.0554417667939" lon="12.150863211209732"><ele>303.0</ele><time>2026-05-03T06:25:48Z</time></trkpt><trkpt lat="43.055354578258545" lon="12.150849813719654"><ele>303.3333333333333</ele><time>2026-05-03T06:25:50Z</time></trkpt><trkpt lat="43.05525176710206" lon="12.150870227113076"><ele>303.66666666666663</ele><time>2026-05-03T06:25:52Z</time></trkpt><trkpt lat="43.05518930667525" lon="12.15088845255569"><ele>304.0</ele><time>2026-05-03T06:25:53Z</time></trkpt><trkpt lat="43.0551172305575" lon="12.150878294115872"><ele>304.0</ele><time>2026-05-03T06:25:54Z</time></trkpt><trkpt lat="43.05501463530534" lon="12.15092376240556"><ele>304.0</ele><time>2026-05-03T06:25:56Z</time></trkpt><trkpt lat="43.05489565949041" lon="12.150950102642964"><ele>304.0</ele><time>2026-05-03T06:25:58Z</time></trkpt><trkpt lat="43.0548331305774" lon="12.150935966803932"><ele>304.0</ele><time>2026-05-03T06:25:59Z</time></trkpt><trkpt lat="43.05477016920829" lon="12.15096968471598"><ele>304.0</ele><time>2026-05-03T06:26:00Z</time></trkpt><trkpt lat="43.054705208547524" lon="12.150977094716124"><ele>304.0</ele><time>2026-05-03T06:26:01Z</time></trkpt><trkpt lat="43.05463797822694" lon="12.150984487663152"><ele>304.3333333333333</ele><time>2026-05-03T06:26:02Z</time></trkpt><trkpt lat="43.0545105682837" lon="12.15103271116081"><ele>304.66666666666663</ele><time>2026-05-03T06:26:04Z</time></trkpt><trkpt lat="43.05443922034787" lon="12.151042859596211"><ele>305.0</ele><time>2026-05-03T06:26:05Z</time></trkpt><trkpt lat="43.054368076248416" lon="12.151012523963406"><ele>305.3333333333333</ele><time>2026-05-03T06:26:06Z</time></trkpt><trkpt lat="43.054307961321705" lon="12.151079246182954"><ele>305.6666666666667</ele><time>2026-05-03T06:26:07Z</time></trkpt><trkpt lat="43.054223068259844" lon="12.15109661552972"><ele>306.0</ele><time>2026-05-03T06:26:09Z</time></trkpt><trkpt lat="43.05416846711252" lon="12.151047456746948"><ele>306.0</ele><time>2026-05-03T06:26:37Z</time></trkpt><trkpt lat="43.054157857488015" lon="12.150920455145036"><ele>306.0</ele><time>2026-05-03T06:26:39Z</time></trkpt><trkpt lat="43.05415599433025" lon="12.15081195956353"><ele>306.0</ele><time>2026-05-03T06:26:40Z</time></trkpt><trkpt lat="43.054158822397056" lon="12.150674362486557"><ele>306.0</ele><time>2026-05-03T06:26:41Z</time></trkpt><trkpt lat="43.0541691429612" lon="12.150557132863122"><ele>306.0</ele><time>2026-05-03T06:26:42Z</time></trkpt><trkpt lat="43.054184613609394" lon="12.15044496202514"><ele>306.0</ele><time>2026-05-03T06:26:43Z</time></trkpt><trkpt lat="43.05419762485542" lon="12.150318468990207"><ele>305.6666666666667</ele><time>2026-05-03T06:26:44Z</time></trkpt><trkpt lat="43.05420743217358" lon="12.150204097770972"><ele>305.3333333333333</ele><time>2026-05-03T06:26:45Z</time></trkpt><trkpt lat="43.05421847131477" lon="12.15009109117191"><ele>305.0</ele><time>2026-05-03T06:26:46Z</time></trkpt><trkpt lat="43.05423024470875" lon="12.149974592101845"><ele>304.66666666666663</ele><time>2026-05-03T06:26:47Z</time></trkpt><trkpt lat="43.05424684966473" lon="12.149850625309881"><ele>304.3333333333333</ele><time>2026-05-03T06:26:48Z</time></trkpt><trkpt lat="43.05426331813667" lon="12.149723973268863"><ele>304.0</ele><time>2026-05-03T06:26:49Z</time></trkpt><trkpt lat="43.054281403985414" lon="12.14959701902123"><ele>303.59999999999997</ele><time>2026-05-03T06:26:50Z</time></trkpt><trkpt lat="43.0543002695175" lon="12.149463339700723"><ele>303.2</ele><time>2026-05-03T06:26:51Z</time></trkpt><trkpt lat="43.05431818762854" lon="12.149332311256675"><ele>302.79999999999995</ele><time>2026-05-03T06:26:52Z</time></trkpt><trkpt lat="43.05433449478125" lon="12.14919194310903"><ele>302.4</ele><time>2026-05-03T06:26:53Z</time></trkpt><trkpt lat="43.05435276392874" lon="12.149045582820722"><ele>302.0</ele><time>2026-05-03T06:26:54Z</time></trkpt><trkpt lat="43.05436883035602" lon="12.148901294817955"><ele>301.8</ele><time>2026-05-03T06:26:55Z</time></trkpt><trkpt lat="43.05437950444447" lon="12.148761877610827"><ele>301.6</ele><time>2026-05-03T06:26:56Z</time></trkpt><trkpt lat="43.054403172249565" lon="12.148635488640597"><ele>301.40000000000003</ele><time>2026-05-03T06:26:57Z</time></trkpt><trkpt lat="43.054387691860065" lon="12.148516029483545"><ele>301.2</ele><time>2026-05-03T06:26:58Z</time></trkpt><trkpt lat="43.054382486078175" lon="12.148393684160382"><ele>301.0</ele><time>2026-05-03T06:26:59Z</time></trkpt><trkpt lat="43.05437234923581" lon="12.148260442742155"><ele>300.6</ele><time>2026-05-03T06:27:00Z</time></trkpt><trkpt lat="43.05435975214668" lon="12.14813154075222"><ele>300.20000000000005</ele><time>2026-05-03T06:27:01Z</time></trkpt><trkpt lat="43.05434208047298" lon="12.14800124015349"><ele>299.79999999999995</ele><time>2026-05-03T06:27:02Z</time></trkpt><trkpt lat="43.05432236182476" lon="12.147860307763118"><ele>299.4</ele><time>2026-05-03T06:27:03Z</time></trkpt><trkpt lat="43.05429695377056" lon="12.147724508611908"><ele>299.0</ele><time>2026-05-03T06:27:04Z</time></trkpt><trkpt lat="43.05426750435322" lon="12.147598688763708"><ele>299.0</ele><time>2026-05-03T06:27:05Z</time></trkpt><trkpt lat="43.05424225411854" lon="12.1474766313168"><ele>299.0</ele><time>2026-05-03T06:27:06Z</time></trkpt><trkpt lat="43.054236665594026" lon="12.147361940453195"><ele>299.0</ele><time>2026-05-03T06:27:07Z</time></trkpt><trkpt lat="43.05421877813584" lon="12.147256383034115"><ele>299.0</ele><time>2026-05-03T06:27:08Z</time></trkpt><trkpt lat="43.0542009366637" lon="12.147138346265924"><ele>299.0</ele><time>2026-05-03T06:27:09Z</time></trkpt><trkpt lat="43.05418548367758" lon="12.147011226563361"><ele>299.0</ele><time>2026-05-03T06:27:10Z</time></trkpt><trkpt lat="43.05417452957819" lon="12.146884717236695"><ele>298.59999999999997</ele><time>2026-05-03T06:27:11Z</time></trkpt><trkpt lat="43.05416546232052" lon="12.146754108299527"><ele>298.2</ele><time>2026-05-03T06:27:12Z</time></trkpt><trkpt lat="43.054142336313596" lon="12.146617314890873"><ele>297.79999999999995</ele><time>2026-05-03T06:27:13Z</time></trkpt><trkpt lat="43.054136763196254" lon="12.146489370803046"><ele>297.4</ele><time>2026-05-03T06:27:14Z</time></trkpt><trkpt lat="43.05412697638976" lon="12.146369596696191"><ele>297.0</ele><time>2026-05-03T06:27:15Z</time></trkpt><trkpt lat="43.054118982371826" lon="12.146252750641608"><ele>297.6</ele><time>2026-05-03T06:27:16Z</time></trkpt><trkpt lat="43.05411038398736" lon="12.146126063405905"><ele>298.2</ele><time>2026-05-03T06:27:17Z</time></trkpt><trkpt lat="43.0541018967306" lon="12.146005635023561"><ele>298.8</ele><time>2026-05-03T06:27:18Z</time></trkpt><trkpt lat="43.05409431295411" lon="12.14588557521469"><ele>299.4</ele><time>2026-05-03T06:27:19Z</time></trkpt><trkpt lat="43.05408652757858" lon="12.145743442830973"><ele>300.0</ele><time>2026-05-03T06:27:20Z</time></trkpt><trkpt lat="43.05407594840984" lon="12.145584851262168"><ele>300.0</ele><time>2026-05-03T06:27:21Z</time></trkpt><trkpt lat="43.05406352906415" lon="12.14543474174538"><ele>300.0</ele><time>2026-05-03T06:27:22Z</time></trkpt><trkpt lat="43.05405222092997" lon="12.145297048270038"><ele>300.0</ele><time>2026-05-03T06:27:23Z</time></trkpt><trkpt lat="43.05404110234433" lon="12.145171739487711"><ele>300.0</ele><time>2026-05-03T06:27:24Z</time></trkpt><trkpt lat="43.05403135717263" lon="12.14505499643376"><ele>300.0</ele><time>2026-05-03T06:27:25Z</time></trkpt><trkpt lat="43.05401695930847" lon="12.144946672847345"><ele>299.6666666666667</ele><time>2026-05-03T06:27:26Z</time></trkpt><trkpt lat="43.05399352322633" lon="12.144845228900044"><ele>299.3333333333333</ele><time>2026-05-03T06:27:27Z</time></trkpt><trkpt lat="43.0539654260233" lon="12.144755774321782"><ele>299.0</ele><time>2026-05-03T06:27:28Z</time></trkpt><trkpt lat="43.05392865372573" lon="12.144684622255244"><ele>298.66666666666663</ele><time>2026-05-03T06:27:29Z</time></trkpt><trkpt lat="43.05387456773068" lon="12.144605487885729"><ele>298.3333333333333</ele><time>2026-05-03T06:27:30Z</time></trkpt><trkpt lat="43.053802355638105" lon="12.144486307485383"><ele>298.0</ele><time>2026-05-03T06:27:32Z</time></trkpt><trkpt lat="43.053766667197245" lon="12.144400558006742"><ele>298.0</ele><time>2026-05-03T06:27:33Z</time></trkpt><trkpt lat="43.05372756656747" lon="12.14431984507112"><ele>298.0</ele><time>2026-05-03T06:27:34Z</time></trkpt><trkpt lat="43.05366570649561" lon="12.14420889832486"><ele>298.0</ele><time>2026-05-03T06:27:36Z</time></trkpt><trkpt lat="43.053651592638815" lon="12.144106350338735"><ele>298.0</ele><time>2026-05-03T06:27:38Z</time></trkpt><trkpt lat="43.05360750636098" lon="12.14399099716257"><ele>298.0</ele><time>2026-05-03T06:27:41Z</time></trkpt><trkpt lat="43.05354938159678" lon="12.143866505176284"><ele>298.0</ele><time>2026-05-03T06:27:43Z</time></trkpt><trkpt lat="43.053617857574665" lon="12.14392844801887"><ele>298.0</ele><time>2026-05-03T06:27:50Z</time></trkpt><trkpt lat="43.053688346234125" lon="12.143972850674343"><ele>298.0</ele><time>2026-05-03T06:27:52Z</time></trkpt><trkpt lat="43.05361596657817" lon="12.14429725738007"><ele>298.0</ele><time>2026-05-03T06:27:55Z</time></trkpt><trkpt lat="43.05353519547361" lon="12.144388902921039"><ele>298.0</ele><time>2026-05-03T06:27:57Z</time></trkpt><trkpt lat="43.05345178840017" lon="12.144532326462617"><ele>298.0</ele><time>2026-05-03T06:27:59Z</time></trkpt><trkpt lat="43.05339595221278" lon="12.14460675548288"><ele>298.0</ele><time>2026-05-03T06:28:00Z</time></trkpt><trkpt lat="43.0533416236144" lon="12.144690900359807"><ele>298.0</ele><time>2026-05-03T06:28:01Z</time></trkpt><trkpt lat="43.05329751261451" lon="12.14477680418313"><ele>298.0</ele><time>2026-05-03T06:28:02Z</time></trkpt><trkpt lat="43.0532580453097" lon="12.144857135803267"><ele>298.0</ele><time>2026-05-03T06:28:03Z</time></trkpt><trkpt lat="43.05321056739509" lon="12.144929769832087"><ele>299.0</ele><time>2026-05-03T06:28:04Z</time></trkpt><trkpt lat="43.053130026344114" lon="12.145059689987454"><ele>300.0</ele><time>2026-05-03T06:28:06Z</time></trkpt><trkpt lat="43.05304626949041" lon="12.145188712714363"><ele>301.0</ele><time>2026-05-03T06:28:08Z</time></trkpt><trkpt lat="43.053004014079384" lon="12.145255510845306"><ele>302.0</ele><time>2026-05-03T06:28:09Z</time></trkpt><trkpt lat="43.052920854577" lon="12.145390013214707"><ele>303.0</ele><time>2026-05-03T06:28:11Z</time></trkpt><trkpt lat="43.05287613683601" lon="12.145463043199511"><ele>303.0</ele><time>2026-05-03T06:28:12Z</time></trkpt><trkpt lat="43.052836337872726" lon="12.145531250366558"><ele>303.0</ele><time>2026-05-03T06:28:13Z</time></trkpt><trkpt lat="43.05279636802813" lon="12.145605286308092"><ele>303.0</ele><time>2026-05-03T06:28:14Z</time></trkpt><trkpt lat="43.052754372458736" lon="12.145674700581687"><ele>303.0</ele><time>2026-05-03T06:28:15Z</time></trkpt><trkpt lat="43.05266656627828" lon="12.145776823870884"><ele>303.0</ele><time>2026-05-03T06:28:17Z</time></trkpt><trkpt lat="43.05256462542469" lon="12.145857727678829"><ele>303.0</ele><time>2026-05-03T06:28:19Z</time></trkpt><trkpt lat="43.05244778092386" lon="12.145903162385732"><ele>304.4</ele><time>2026-05-03T06:28:21Z</time></trkpt><trkpt lat="43.05233562891775" lon="12.145993508372463"><ele>305.8</ele><time>2026-05-03T06:28:23Z</time></trkpt><trkpt lat="43.052301328752364" lon="12.146069736001019"><ele>307.2</ele><time>2026-05-03T06:28:24Z</time></trkpt><trkpt lat="43.052255977939744" lon="12.146138352704295"><ele>308.6</ele><time>2026-05-03T06:28:25Z</time></trkpt><trkpt lat="43.05216149658563" lon="12.146245871280968"><ele>310.0</ele><time>2026-05-03T06:28:27Z</time></trkpt><trkpt lat="43.052071480649815" lon="12.14638184258852"><ele>310.0</ele><time>2026-05-03T06:28:29Z</time></trkpt><trkpt lat="43.05203635904472" lon="12.146474919972974"><ele>310.0</ele><time>2026-05-03T06:28:30Z</time></trkpt><trkpt lat="43.05198302367086" lon="12.14653391282988"><ele>310.0</ele><time>2026-05-03T06:28:31Z</time></trkpt><trkpt lat="43.05193939935982" lon="12.14669204344115"><ele>310.0</ele><time>2026-05-03T06:28:33Z</time></trkpt><trkpt lat="43.051963855976354" lon="12.14679183572175"><ele>310.0</ele><time>2026-05-03T06:28:34Z</time></trkpt><trkpt lat="43.05193305906154" lon="12.146955880445653"><ele>310.42857142857144</ele><time>2026-05-03T06:28:36Z</time></trkpt><trkpt lat="43.051872390225945" lon="12.147009022740798"><ele>310.85714285714283</ele><time>2026-05-03T06:28:37Z</time></trkpt><trkpt lat="43.05183144571597" lon="12.14709031421552"><ele>311.2857142857143</ele><time>2026-05-03T06:28:38Z</time></trkpt><trkpt lat="43.05177920132595" lon="12.147160261249605"><ele>311.7142857142857</ele><time>2026-05-03T06:28:39Z</time></trkpt><trkpt lat="43.051731592922835" lon="12.147234187993114"><ele>312.14285714285717</ele><time>2026-05-03T06:28:40Z</time></trkpt><trkpt lat="43.05167039881769" lon="12.1472891684891"><ele>312.57142857142856</ele><time>2026-05-03T06:28:41Z</time></trkpt><trkpt lat="43.05162398075037" lon="12.147349009066286"><ele>313.0</ele><time>2026-05-03T06:28:42Z</time></trkpt><trkpt lat="43.051537202846134" lon="12.14746088020619"><ele>315.6</ele><time>2026-05-03T06:28:44Z</time></trkpt><trkpt lat="43.05145953692917" lon="12.147385715138112"><ele>318.20000000000005</ele><time>2026-05-03T06:28:45Z</time></trkpt><trkpt lat="43.05138816760209" lon="12.147431890321593"><ele>320.8</ele><time>2026-05-03T06:28:46Z</time></trkpt><trkpt lat="43.051303454827575" lon="12.147489240627024"><ele>323.40000000000003</ele><time>2026-05-03T06:28:47Z</time></trkpt><trkpt lat="43.051235806578404" lon="12.147541537310264"><ele>326.0</ele><time>2026-05-03T06:28:48Z</time></trkpt><trkpt lat="43.05130355934368" lon="12.148018091076873"><ele>326.0</ele><time>2026-05-03T06:28:49Z</time></trkpt><trkpt lat="43.05126234088443" lon="12.148090884845576"><ele>326.0</ele><time>2026-05-03T06:28:50Z</time></trkpt><trkpt lat="43.051229367462874" lon="12.14816729440284"><ele>326.0</ele><time>2026-05-03T06:28:52Z</time></trkpt><trkpt lat="43.05123760461944" lon="12.148338851297899"><ele>326.0</ele><time>2026-05-03T06:28:55Z</time></trkpt><trkpt lat="43.051239326019946" lon="12.148448650924438"><ele>326.0</ele><time>2026-05-03T06:28:57Z</time></trkpt><trkpt lat="43.05122371774994" lon="12.148554396779987"><ele>326.0</ele><time>2026-05-03T06:28:59Z</time></trkpt><trkpt lat="43.05122510203708" lon="12.148654134748654"><ele>327.33333333333337</ele><time>2026-05-03T06:29:00Z</time></trkpt><trkpt lat="43.05122386576049" lon="12.14875859460217"><ele>328.6666666666667</ele><time>2026-05-03T06:29:01Z</time></trkpt><trkpt lat="43.0512106425906" lon="12.148859810030967"><ele>330.0</ele><time>2026-05-03T06:29:02Z</time></trkpt><trkpt lat="43.05120462860611" lon="12.148951289654452"><ele>331.3333333333333</ele><time>2026-05-03T06:29:03Z</time></trkpt><trkpt lat="43.05120514279598" lon="12.149042225178166"><ele>332.66666666666663</ele><time>2026-05-03T06:29:04Z</time></trkpt><trkpt lat="43.05118806400334" lon="12.149211456620506"><ele>334.0</ele><time>2026-05-03T06:29:06Z</time></trkpt><trkpt lat="43.051182518671666" lon="12.1493118392643"><ele>334.6</ele><time>2026-05-03T06:29:07Z</time></trkpt><trkpt lat="43.05116458836129" lon="12.14947844473374"><ele>335.2</ele><time>2026-05-03T06:29:09Z</time></trkpt><trkpt lat="43.051170771658406" lon="12.149608070519061"><ele>335.8</ele><time>2026-05-03T06:29:11Z</time></trkpt><trkpt lat="43.05118253344966" lon="12.14973745751554"><ele>336.40000000000003</ele><time>2026-05-03T06:29:13Z</time></trkpt><trkpt lat="43.05118090602835" lon="12.149914196820832"><ele>337.0</ele><time>2026-05-03T06:29:15Z</time></trkpt><trkpt lat="43.051168960635835" lon="12.150021517042742"><ele>337.16666666666663</ele><time>2026-05-03T06:29:17Z</time></trkpt><trkpt lat="43.05114695720373" lon="12.150103930323533"><ele>337.3333333333333</ele><time>2026-05-03T06:29:19Z</time></trkpt><trkpt lat="43.05110047923392" lon="12.150209434046893"><ele>337.5</ele><time>2026-05-03T06:29:21Z</time></trkpt><trkpt lat="43.05107389174489" lon="12.150311500213135"><ele>337.6666666666667</ele><time>2026-05-03T06:29:23Z</time></trkpt><trkpt lat="43.05101748385581" lon="12.150447958356057"><ele>337.83333333333337</ele><time>2026-05-03T06:29:25Z</time></trkpt><trkpt lat="43.05100152836519" lon="12.150571533789702"><ele>338.0</ele><time>2026-05-03T06:29:34Z</time></trkpt><trkpt lat="43.05100142675251" lon="12.150681856010626"><ele>338.0</ele><time>2026-05-03T06:29:37Z</time></trkpt><trkpt lat="43.05098939388177" lon="12.150771523918968"><ele>338.0</ele><time>2026-05-03T06:29:39Z</time></trkpt><trkpt lat="43.0509763045985" lon="12.150859486613971"><ele>338.0</ele><time>2026-05-03T06:29:41Z</time></trkpt><trkpt lat="43.050949237281266" lon="12.15095108546767"><ele>338.0</ele><time>2026-05-03T06:29:43Z</time></trkpt><trkpt lat="43.050905870060305" lon="12.151053055535703"><ele>338.0</ele><time>2026-05-03T06:29:44Z</time></trkpt><trkpt lat="43.050892357060704" lon="12.151185224686484"><ele>338.0</ele><time>2026-05-03T06:29:46Z</time></trkpt><trkpt lat="43.05099016676064" lon="12.151317332707858"><ele>338.0</ele><time>2026-05-03T06:29:48Z</time></trkpt><trkpt lat="43.051033755498096" lon="12.151386413280713"><ele>338.0</ele><time>2026-05-03T06:29:49Z</time></trkpt><trkpt lat="43.05106322158072" lon="12.151548338479811"><ele>338.0</ele><time>2026-05-03T06:29:51Z</time></trkpt><trkpt lat="43.051086045881746" lon="12.151630325203222"><ele>338.0</ele><time>2026-05-03T06:29:52Z</time></trkpt><trkpt lat="43.05112657621572" lon="12.151802828681125"><ele>338.0</ele><time>2026-05-03T06:29:54Z</time></trkpt><trkpt lat="43.05115350652654" lon="12.15188762253322"><ele>338.57142857142856</ele><time>2026-05-03T06:29:55Z</time></trkpt><trkpt lat="43.05117699107316" lon="12.151974958247104"><ele>339.1428571428571</ele><time>2026-05-03T06:29:56Z</time></trkpt><trkpt lat="43.051205079359605" lon="12.152052575868167"><ele>339.71428571428567</ele><time>2026-05-03T06:29:57Z</time></trkpt><trkpt lat="43.051236459138394" lon="12.15213499565089"><ele>340.2857142857143</ele><time>2026-05-03T06:29:58Z</time></trkpt><trkpt lat="43.05127000824708" lon="12.152211233348934"><ele>340.85714285714283</ele><time>2026-05-03T06:29:59Z</time></trkpt><trkpt lat="43.05130251976116" lon="12.152291837911893"><ele>341.4285714285714</ele><time>2026-05-03T06:30:00Z</time></trkpt><trkpt lat="43.05132440260877" lon="12.152416407522669"><ele>342.0</ele><time>2026-05-03T06:30:02Z</time></trkpt><trkpt lat="43.051310965916535" lon="12.152526144750738"><ele>343.3333333333333</ele><time>2026-05-03T06:30:04Z</time></trkpt><trkpt lat="43.05130566791869" lon="12.152692194443276"><ele>344.6666666666667</ele><time>2026-05-03T06:30:06Z</time></trkpt><trkpt lat="43.05132288851869" lon="12.152784765894223"><ele>346.0</ele><time>2026-05-03T06:30:07Z</time></trkpt><trkpt lat="43.05133422931757" lon="12.152878840639838"><ele>347.33333333333337</ele><time>2026-05-03T06:30:08Z</time></trkpt><trkpt lat="43.0513389820044" lon="12.15297749768296"><ele>348.6666666666667</ele><time>2026-05-03T06:30:09Z</time></trkpt><trkpt lat="43.05133980576436" lon="12.153074265998425"><ele>350.0</ele><time>2026-05-03T06:30:10Z</time></trkpt><trkpt lat="43.05131342062334" lon="12.15322980095908"><ele>350.6</ele><time>2026-05-03T06:30:12Z</time></trkpt><trkpt lat="43.051237574877334" lon="12.153356384839748"><ele>351.2</ele><time>2026-05-03T06:30:14Z</time></trkpt><trkpt lat="43.05119369463631" lon="12.153454020841703"><ele>351.79999999999995</ele><time>2026-05-03T06:30:15Z</time></trkpt><trkpt lat="43.05113750417738" lon="12.153535321611304"><ele>352.4</ele><time>2026-05-03T06:30:16Z</time></trkpt><trkpt lat="43.05105574091731" lon="12.153660820887927"><ele>353.0</ele><time>2026-05-03T06:30:18Z</time></trkpt><trkpt lat="43.05095051887883" lon="12.153765290632293"><ele>353.0</ele><time>2026-05-03T06:30:20Z</time></trkpt><trkpt lat="43.050899162630714" lon="12.153829013818427"><ele>353.0</ele><time>2026-05-03T06:30:21Z</time></trkpt><trkpt lat="43.05086837535693" lon="12.153958532241125"><ele>353.0</ele><time>2026-05-03T06:30:23Z</time></trkpt><trkpt lat="43.05089854980475" lon="12.15409339655908"><ele>353.0</ele><time>2026-05-03T06:30:25Z</time></trkpt><trkpt lat="43.05094007430164" lon="12.154243185053893"><ele>353.0</ele><time>2026-05-03T06:30:27Z</time></trkpt><trkpt lat="43.050934910571094" lon="12.15439569217708"><ele>352.0</ele><time>2026-05-03T06:30:29Z</time></trkpt><trkpt lat="43.05089867614922" lon="12.154502753184987"><ele>351.0</ele><time>2026-05-03T06:30:31Z</time></trkpt><trkpt lat="43.0508461158218" lon="12.15456497792857"><ele>350.0</ele><time>2026-05-03T06:30:33Z</time></trkpt><trkpt lat="43.05080733278439" lon="12.154686608128658"><ele>349.0</ele><time>2026-05-03T06:30:36Z</time></trkpt><trkpt lat="43.050778223081714" lon="12.154770671866048"><ele>348.0</ele><time>2026-05-03T06:30:38Z</time></trkpt><trkpt lat="43.050741524030464" lon="12.154917716575762"><ele>347.0</ele><time>2026-05-03T06:30:40Z</time></trkpt><trkpt lat="43.05074533362469" lon="12.15507962252385"><ele>352.6</ele><time>2026-05-03T06:30:42Z</time></trkpt><trkpt lat="43.05076219547103" lon="12.155174142039144"><ele>358.20000000000005</ele><time>2026-05-03T06:30:44Z</time></trkpt><trkpt lat="43.050772825710126" lon="12.155290249499531"><ele>363.8</ele><time>2026-05-03T06:30:46Z</time></trkpt><trkpt lat="43.05077180072302" lon="12.155413586887866"><ele>369.4</ele><time>2026-05-03T06:30:48Z</time></trkpt><trkpt lat="43.050738976631905" lon="12.155547962028566"><ele>375.0</ele><time>2026-05-03T06:30:50Z</time></trkpt><trkpt lat="43.0507663811616" lon="12.155699481794057"><ele>372.6</ele><time>2026-05-03T06:30:52Z</time></trkpt><trkpt lat="43.05077659574143" lon="12.15588960010351"><ele>370.2</ele><time>2026-05-03T06:30:55Z</time></trkpt><trkpt lat="43.05074074741724" lon="12.156006279258442"><ele>367.79999999999995</ele><time>2026-05-03T06:30:57Z</time></trkpt><trkpt lat="43.05069494813706" lon="12.156121338311818"><ele>365.4</ele><time>2026-05-03T06:30:59Z</time></trkpt><trkpt lat="43.05064240411945" lon="12.15623055868674"><ele>363.0</ele><time>2026-05-03T06:31:01Z</time></trkpt><trkpt lat="43.05058520209145" lon="12.156357624492204"><ele>363.0</ele><time>2026-05-03T06:31:03Z</time></trkpt><trkpt lat="43.05055222003389" lon="12.15649752082951"><ele>363.0</ele><time>2026-05-03T06:31:05Z</time></trkpt><trkpt lat="43.05051155109066" lon="12.156610124523471"><ele>363.0</ele><time>2026-05-03T06:31:07Z</time></trkpt><trkpt lat="43.05047538503679" lon="12.15669897160891"><ele>363.0</ele><time>2026-05-03T06:31:09Z</time></trkpt><trkpt lat="43.05044720952239" lon="12.15682388389601"><ele>363.0</ele><time>2026-05-03T06:31:11Z</time></trkpt><trkpt lat="43.050406642602006" lon="12.156938689524118"><ele>361.0</ele><time>2026-05-03T06:31:13Z</time></trkpt><trkpt lat="43.05039338871644" lon="12.157091538510791"><ele>359.0</ele><time>2026-05-03T06:31:15Z</time></trkpt><trkpt lat="43.050367056262125" lon="12.157206571549214"><ele>357.0</ele><time>2026-05-03T06:31:17Z</time></trkpt><trkpt lat="43.05033359438712" lon="12.157345723807742"><ele>355.0</ele><time>2026-05-03T06:31:19Z</time></trkpt><trkpt lat="43.050323287796886" lon="12.157507230122171"><ele>353.0</ele><time>2026-05-03T06:31:21Z</time></trkpt><trkpt lat="43.05030944084319" lon="12.157626348050712"><ele>352.5</ele><time>2026-05-03T06:31:23Z</time></trkpt><trkpt lat="43.050227565550095" lon="12.15766647562412"><ele>352.0</ele><time>2026-05-03T06:31:26Z</time></trkpt><trkpt lat="43.050169368248085" lon="12.157705170831086"><ele>351.5</ele><time>2026-05-03T06:31:43Z</time></trkpt><trkpt lat="43.05008156883326" lon="12.157731772796176"><ele>351.0</ele><time>2026-05-03T06:31:45Z</time></trkpt><trkpt lat="43.050015554470406" lon="12.157735818256613"><ele>350.5</ele><time>2026-05-03T06:31:46Z</time></trkpt><trkpt lat="43.04992520401575" lon="12.157759661776764"><ele>350.0</ele><time>2026-05-03T06:31:50Z</time></trkpt><trkpt lat="43.04991248820978" lon="12.157858355376685"><ele>350.0</ele><time>2026-05-03T06:31:52Z</time></trkpt><trkpt lat="43.04996136347293" lon="12.157963018528005"><ele>350.0</ele><time>2026-05-03T06:31:54Z</time></trkpt><trkpt lat="43.04999223796382" lon="12.15811008929646"><ele>350.0</ele><time>2026-05-03T06:31:56Z</time></trkpt><trkpt lat="43.050026477673484" lon="12.158252984826499"><ele>350.0</ele><time>2026-05-03T06:31:58Z</time></trkpt><trkpt lat="43.05004186364684" lon="12.158341564906543"><ele>350.0</ele><time>2026-05-03T06:31:59Z</time></trkpt><trkpt lat="43.05006093745417" lon="12.158483505771496"><ele>349.5</ele><time>2026-05-03T06:32:01Z</time></trkpt><trkpt lat="43.05004879595588" lon="12.158581144488739"><ele>349.0</ele><time>2026-05-03T06:32:03Z</time></trkpt><trkpt lat="43.04998649990802" lon="12.1585624603686"><ele>348.5</ele><time>2026-05-03T06:32:05Z</time></trkpt><trkpt lat="43.04989599209117" lon="12.158528572570013"><ele>348.0</ele><time>2026-05-03T06:32:07Z</time></trkpt><trkpt lat="43.04980396778217" lon="12.158494651473948"><ele>347.5</ele><time>2026-05-03T06:32:09Z</time></trkpt><trkpt lat="43.04971359911851" lon="12.158460146885052"><ele>347.0</ele><time>2026-05-03T06:32:11Z</time></trkpt><trkpt lat="43.04964275386851" lon="12.15841899227507"><ele>348.83333333333337</ele><time>2026-05-03T06:32:13Z</time></trkpt><trkpt lat="43.049576303402496" lon="12.158367893831425"><ele>350.6666666666667</ele><time>2026-05-03T06:32:15Z</time></trkpt><trkpt lat="43.04951999303583" lon="12.158301620788793"><ele>352.5</ele><time>2026-05-03T06:32:17Z</time></trkpt><trkpt lat="43.049421277048715" lon="12.158231375303926"><ele>354.3333333333333</ele><time>2026-05-03T06:32:20Z</time></trkpt><trkpt lat="43.04932787741033" lon="12.158213591230883"><ele>356.16666666666663</ele><time>2026-05-03T06:32:22Z</time></trkpt><trkpt lat="43.049241216616174" lon="12.15822298151341"><ele>358.0</ele><time>2026-05-03T06:32:24Z</time></trkpt><trkpt lat="43.04917101392536" lon="12.158215691027458"><ele>360.5</ele><time>2026-05-03T06:32:26Z</time></trkpt><trkpt lat="43.049098332319126" lon="12.158224398312733"><ele>363.0</ele><time>2026-05-03T06:32:28Z</time></trkpt><trkpt lat="43.04902405513801" lon="12.158267162285778"><ele>365.5</ele><time>2026-05-03T06:32:30Z</time></trkpt><trkpt lat="43.04890771650448" lon="12.15825582312743"><ele>368.0</ele><time>2026-05-03T06:32:32Z</time></trkpt><trkpt lat="43.04881794661628" lon="12.158272910658411"><ele>370.5</ele><time>2026-05-03T06:32:36Z</time></trkpt><trkpt lat="43.048741509829604" lon="12.158298064715758"><ele>373.0</ele><time>2026-05-03T06:32:39Z</time></trkpt><trkpt lat="43.04867728290838" lon="12.15831545275725"><ele>373.0</ele><time>2026-05-03T06:32:40Z</time></trkpt><trkpt lat="43.0486085402025" lon="12.158323616654465"><ele>373.0</ele><time>2026-05-03T06:32:41Z</time></trkpt><trkpt lat="43.048427208619835" lon="12.158343634581003"><ele>373.0</ele><time>2026-05-03T06:32:42Z</time></trkpt><trkpt lat="43.048370977309524" lon="12.158276473854604"><ele>373.0</ele><time>2026-05-03T06:32:45Z</time></trkpt><trkpt lat="43.048329692585384" lon="12.158195691403815"><ele>373.0</ele><time>2026-05-03T06:32:47Z</time></trkpt><trkpt lat="43.04827128712163" lon="12.158239224249652"><ele>377.66666666666663</ele><time>2026-05-03T06:32:52Z</time></trkpt><trkpt lat="43.04823367399487" lon="12.1583116370233"><ele>382.3333333333333</ele><time>2026-05-03T06:33:31Z</time></trkpt><trkpt lat="43.0482310248964" lon="12.158399332526812"><ele>387.0</ele><time>2026-05-03T06:33:32Z</time></trkpt><trkpt lat="43.04817927986356" lon="12.158505848297375"><ele>391.66666666666663</ele><time>2026-05-03T06:33:34Z</time></trkpt><trkpt lat="43.04810211062269" lon="12.158668166864324"><ele>396.3333333333333</ele><time>2026-05-03T06:33:36Z</time></trkpt><trkpt lat="43.04805066580624" lon="12.158751211576725"><ele>401.0</ele><time>2026-05-03T06:33:37Z</time></trkpt><trkpt lat="43.04798593725303" lon="12.158836669936234"><ele>400.99999999999994</ele><time>2026-05-03T06:33:38Z</time></trkpt><trkpt lat="43.047880752111205" lon="12.158881901728854"><ele>401.0</ele><time>2026-05-03T06:33:40Z</time></trkpt><trkpt lat="43.04780445984454" lon="12.158908599349877"><ele>401.0</ele><time>2026-05-03T06:33:41Z</time></trkpt><trkpt lat="43.04774183770739" lon="12.158927454411021"><ele>401.0</ele><time>2026-05-03T06:33:42Z</time></trkpt><trkpt lat="43.047674677563734" lon="12.15894242340299"><ele>400.99999999999994</ele><time>2026-05-03T06:33:43Z</time></trkpt><trkpt lat="43.04755351297659" lon="12.158986399718055"><ele>401.0</ele><time>2026-05-03T06:33:45Z</time></trkpt><trkpt lat="43.04748310333692" lon="12.159026237160717"><ele>401.4</ele><time>2026-05-03T06:33:46Z</time></trkpt><trkpt lat="43.047421567608346" lon="12.159073503431875"><ele>401.8</ele><time>2026-05-03T06:33:47Z</time></trkpt><trkpt lat="43.04730807182377" lon="12.159143263379077"><ele>402.2</ele><time>2026-05-03T06:33:49Z</time></trkpt><trkpt lat="43.04719470656629" lon="12.159214378320128"><ele>402.59999999999997</ele><time>2026-05-03T06:33:51Z</time></trkpt><trkpt lat="43.04713370026999" lon="12.159251802653367"><ele>403.0</ele><time>2026-05-03T06:33:52Z</time></trkpt><trkpt lat="43.04706980650482" lon="12.159281346739457"><ele>403.0</ele><time>2026-05-03T06:33:53Z</time></trkpt><trkpt lat="43.04694833343361" lon="12.159307654195166"><ele>403.0</ele><time>2026-05-03T06:33:55Z</time></trkpt><trkpt lat="43.04682612187851" lon="12.159340632821614"><ele>403.0</ele><time>2026-05-03T06:33:57Z</time></trkpt><trkpt lat="43.04669835770715" lon="12.15935591831818"><ele>403.0</ele><time>2026-05-03T06:33:59Z</time></trkpt><trkpt lat="43.04663625802659" lon="12.159387893110893"><ele>403.0</ele><time>2026-05-03T06:34:00Z</time></trkpt><trkpt lat="43.04657428524022" lon="12.159490804975903"><ele>401.59999999999997</ele><time>2026-05-03T06:34:02Z</time></trkpt><trkpt lat="43.04658574317603" lon="12.15957914146943"><ele>400.2</ele><time>2026-05-03T06:34:04Z</time></trkpt><trkpt lat="43.04660018518116" lon="12.159705144902242"><ele>398.8</ele><time>2026-05-03T06:34:06Z</time></trkpt><trkpt lat="43.04661791477713" lon="12.159854068094344"><ele>397.4</ele><time>2026-05-03T06:34:08Z</time></trkpt><trkpt lat="43.04663601552785" lon="12.159954104471453"><ele>396.0</ele><time>2026-05-03T06:34:10Z</time></trkpt><trkpt lat="43.046604616522686" lon="12.160197625759793"><ele>402.20000000000005</ele><time>2026-05-03T06:34:13Z</time></trkpt><trkpt lat="43.046561259994924" lon="12.160351369489764"><ele>408.40000000000003</ele><time>2026-05-03T06:34:15Z</time></trkpt><trkpt lat="43.046522107640016" lon="12.160458301136917"><ele>414.6</ele><time>2026-05-03T06:34:17Z</time></trkpt><trkpt lat="43.04646666549685" lon="12.160510350407819"><ele>420.8</ele><time>2026-05-03T06:34:19Z</time></trkpt><trkpt lat="43.0463752566518" lon="12.160600793169703"><ele>427.0</ele><time>2026-05-03T06:34:21Z</time></trkpt><trkpt lat="43.04630831286787" lon="12.160689216222636"><ele>425.8</ele><time>2026-05-03T06:34:23Z</time></trkpt><trkpt lat="43.04626350474516" lon="12.160835168108596"><ele>424.6</ele><time>2026-05-03T06:34:25Z</time></trkpt><trkpt lat="43.04621652222105" lon="12.160928831197383"><ele>423.40000000000003</ele><time>2026-05-03T06:34:26Z</time></trkpt><trkpt lat="43.04618532183259" lon="12.161024223694595"><ele>422.20000000000005</ele><time>2026-05-03T06:34:27Z</time></trkpt><trkpt lat="43.04610004248342" lon="12.161135486039722"><ele>421.0</ele><time>2026-05-03T06:34:29Z</time></trkpt><trkpt lat="43.0460575926985" lon="12.161212278580235"><ele>421.00000000000006</ele><time>2026-05-03T06:34:30Z</time></trkpt><trkpt lat="43.04599975948747" lon="12.161264869888651"><ele>421.0</ele><time>2026-05-03T06:34:31Z</time></trkpt><trkpt lat="43.04597234104401" lon="12.161405359175042"><ele>421.0</ele><time>2026-05-03T06:34:33Z</time></trkpt><trkpt lat="43.04595771510905" lon="12.161489469688814"><ele>421.0</ele><time>2026-05-03T06:34:34Z</time></trkpt><trkpt lat="43.04591620837623" lon="12.161601234375583"><ele>421.00000000000006</ele><time>2026-05-03T06:34:36Z</time></trkpt><trkpt lat="43.045863486766436" lon="12.161670910195493"><ele>421.0</ele><time>2026-05-03T06:34:37Z</time></trkpt><trkpt lat="43.045821783562495" lon="12.161753132380325"><ele>425.33333333333337</ele><time>2026-05-03T06:34:38Z</time></trkpt><trkpt lat="43.04577618614826" lon="12.161830746308215"><ele>429.6666666666667</ele><time>2026-05-03T06:34:39Z</time></trkpt><trkpt lat="43.04573675849731" lon="12.161902360377322"><ele>434.0</ele><time>2026-05-03T06:34:40Z</time></trkpt><trkpt lat="43.04563690802479" lon="12.161997857963865"><ele>438.33333333333337</ele><time>2026-05-03T06:34:42Z</time></trkpt><trkpt lat="43.04556478028985" lon="12.162031905483872"><ele>442.6666666666667</ele><time>2026-05-03T06:34:43Z</time></trkpt><trkpt lat="43.045507883630734" lon="12.162076965156961"><ele>447.0</ele><time>2026-05-03T06:34:44Z</time></trkpt><trkpt lat="43.045421088507105" lon="12.162178846672981"><ele>447.0</ele><time>2026-05-03T06:34:46Z</time></trkpt><trkpt lat="43.04536637349997" lon="12.16226083975144"><ele>447.0</ele><time>2026-05-03T06:34:47Z</time></trkpt><trkpt lat="43.04530177630147" lon="12.16233787983943"><ele>447.0</ele><time>2026-05-03T06:34:48Z</time></trkpt><trkpt lat="43.04525985196878" lon="12.162427291460434"><ele>447.0</ele><time>2026-05-03T06:34:49Z</time></trkpt><trkpt lat="43.04522817206307" lon="12.162539099344128"><ele>447.0</ele><time>2026-05-03T06:34:51Z</time></trkpt><trkpt lat="43.04518371506356" lon="12.162617124942258"><ele>447.0</ele><time>2026-05-03T06:34:52Z</time></trkpt><trkpt lat="43.045124490754404" lon="12.162712842394795"><ele>446.8</ele><time>2026-05-03T06:34:53Z</time></trkpt><trkpt lat="43.04508872246276" lon="12.162801545166294"><ele>446.6</ele><time>2026-05-03T06:34:54Z</time></trkpt><trkpt lat="43.04498964978185" lon="12.16294062131324"><ele>446.40000000000003</ele><time>2026-05-03T06:34:56Z</time></trkpt><trkpt lat="43.04491688764389" lon="12.163021715561404"><ele>446.20000000000005</ele><time>2026-05-03T06:34:57Z</time></trkpt><trkpt lat="43.04485716341286" lon="12.163099990616676"><ele>446.0</ele><time>2026-05-03T06:34:58Z</time></trkpt><trkpt lat="43.044795115430134" lon="12.163181854410517"><ele>441.8</ele><time>2026-05-03T06:34:59Z</time></trkpt><trkpt lat="43.0447612768191" lon="12.16325612996433"><ele>437.6</ele><time>2026-05-03T06:35:00Z</time></trkpt><trkpt lat="43.04470179672878" lon="12.163389709658041"><ele>433.4</ele><time>2026-05-03T06:35:02Z</time></trkpt><trkpt lat="43.0446301764824" lon="12.163463024751534"><ele>429.2</ele><time>2026-05-03T06:35:04Z</time></trkpt><trkpt lat="43.04452732673831" lon="12.163514193409627"><ele>425.0</ele><time>2026-05-03T06:35:06Z</time></trkpt><trkpt lat="43.044442094659075" lon="12.163543415676335"><ele>424.99999999999994</ele><time>2026-05-03T06:35:09Z</time></trkpt><trkpt lat="43.044380664543596" lon="12.163620247702061"><ele>425.0</ele><time>2026-05-03T06:35:13Z</time></trkpt><trkpt lat="43.044447293244794" lon="12.163674499525056"><ele>425.0</ele><time>2026-05-03T06:35:16Z</time></trkpt><trkpt lat="43.04447705798486" lon="12.163592720101342"><ele>425.0</ele><time>2026-05-03T06:35:19Z</time></trkpt><trkpt lat="43.04452402989947" lon="12.16343589618624"><ele>424.99999999999994</ele><time>2026-05-03T06:35:43Z</time></trkpt><trkpt lat="43.044559329409545" lon="12.16335847494281"><ele>425.0</ele><time>2026-05-03T06:35:44Z</time></trkpt><trkpt lat="43.04461053225169" lon="12.163277964112867"><ele>428.49999999999994</ele><time>2026-05-03T06:35:45Z</time></trkpt><trkpt lat="43.04467311119266" lon="12.163183621165025"><ele>432.0</ele><time>2026-05-03T06:35:46Z</time></trkpt><trkpt lat="43.044720999133816" lon="12.163094495901602"><ele>435.5</ele><time>2026-05-03T06:35:47Z</time></trkpt><trkpt lat="43.044747781096994" lon="12.163009920830692"><ele>439.0</ele><time>2026-05-03T06:35:48Z</time></trkpt><trkpt lat="43.04477787421746" lon="12.16292326499535"><ele>442.49999999999994</ele><time>2026-05-03T06:35:49Z</time></trkpt><trkpt lat="43.04482204356818" lon="12.16277091185471"><ele>446.0</ele><time>2026-05-03T06:35:51Z</time></trkpt><trkpt lat="43.04485052750815" lon="12.162659771295855"><ele>446.0</ele><time>2026-05-03T06:35:52Z</time></trkpt><trkpt lat="43.044883612062925" lon="12.162553580264749"><ele>446.0</ele><time>2026-05-03T06:35:53Z</time></trkpt><trkpt lat="43.04491521564359" lon="12.162453782889635"><ele>446.0</ele><time>2026-05-03T06:35:54Z</time></trkpt><trkpt lat="43.04491181308261" lon="12.162328517548932"><ele>446.0</ele><time>2026-05-03T06:35:56Z</time></trkpt><trkpt lat="43.04491159510197" lon="12.162161444713993"><ele>446.0</ele><time>2026-05-03T06:35:58Z</time></trkpt><trkpt lat="43.044941857911866" lon="12.16206486259368"><ele>446.16666666666663</ele><time>2026-05-03T06:35:59Z</time></trkpt><trkpt lat="43.04498823632562" lon="12.161996673992055"><ele>446.3333333333333</ele><time>2026-05-03T06:36:00Z</time></trkpt><trkpt lat="43.04503932925996" lon="12.161926128373029"><ele>446.5</ele><time>2026-05-03T06:36:01Z</time></trkpt><trkpt lat="43.04508944363314" lon="12.161821336239433"><ele>446.66666666666663</ele><time>2026-05-03T06:36:02Z</time></trkpt><trkpt lat="43.04515041082417" lon="12.161732486651681"><ele>446.8333333333333</ele><time>2026-05-03T06:36:03Z</time></trkpt><trkpt lat="43.04521912060447" lon="12.161662100918418"><ele>447.0</ele><time>2026-05-03T06:36:04Z</time></trkpt><trkpt lat="43.04526960077709" lon="12.161575435350521"><ele>449.3333333333333</ele><time>2026-05-03T06:36:05Z</time></trkpt><trkpt lat="43.045309628175985" lon="12.161499691791425"><ele>451.66666666666663</ele><time>2026-05-03T06:36:06Z</time></trkpt><trkpt lat="43.04534769266856" lon="12.161418080937917"><ele>454.0</ele><time>2026-05-03T06:36:07Z</time></trkpt><trkpt lat="43.04537806068399" lon="12.161313851555523"><ele>456.3333333333333</ele><time>2026-05-03T06:36:08Z</time></trkpt><trkpt lat="43.045409737814275" lon="12.161203752318754"><ele>458.66666666666663</ele><time>2026-05-03T06:36:09Z</time></trkpt><trkpt lat="43.04542888113714" lon="12.161099390797071"><ele>461.0</ele><time>2026-05-03T06:36:10Z</time></trkpt><trkpt lat="43.04544513721965" lon="12.160986732757246"><ele>461.0</ele><time>2026-05-03T06:36:11Z</time></trkpt><trkpt lat="43.045433100397005" lon="12.16082018429517"><ele>461.0</ele><time>2026-05-03T06:36:13Z</time></trkpt><trkpt lat="43.045363661398625" lon="12.160676240925804"><ele>461.0</ele><time>2026-05-03T06:36:15Z</time></trkpt><trkpt lat="43.045347216873864" lon="12.160529457515938"><ele>461.0</ele><time>2026-05-03T06:36:17Z</time></trkpt><trkpt lat="43.04537769431049" lon="12.160426839651366"><ele>461.0</ele><time>2026-05-03T06:36:19Z</time></trkpt><trkpt lat="43.045446104765055" lon="12.160317338274622"><ele>461.7142857142857</ele><time>2026-05-03T06:36:21Z</time></trkpt><trkpt lat="43.045460778839335" lon="12.160222566435735"><ele>462.42857142857144</ele><time>2026-05-03T06:36:23Z</time></trkpt><trkpt lat="43.0454561391581" lon="12.160135486001765"><ele>463.14285714285717</ele><time>2026-05-03T06:36:24Z</time></trkpt><trkpt lat="43.04541737997205" lon="12.16004293725923"><ele>463.8571428571429</ele><time>2026-05-03T06:36:26Z</time></trkpt><trkpt lat="43.04538711562595" lon="12.159962477222662"><ele>464.57142857142856</ele><time>2026-05-03T06:36:28Z</time></trkpt><trkpt lat="43.045351792143144" lon="12.15984324648173"><ele>465.28571428571433</ele><time>2026-05-03T06:36:31Z</time></trkpt><trkpt lat="43.045337519018204" lon="12.159755589480929"><ele>466.0</ele><time>2026-05-03T06:36:33Z</time></trkpt><trkpt lat="43.04534649465868" lon="12.159653331885282"><ele>466.83333333333337</ele><time>2026-05-03T06:36:35Z</time></trkpt><trkpt lat="43.0453984941327" lon="12.15954336591869"><ele>467.6666666666667</ele><time>2026-05-03T06:36:37Z</time></trkpt><trkpt lat="43.04544852473865" lon="12.159466923604812"><ele>468.5</ele><time>2026-05-03T06:36:38Z</time></trkpt><trkpt lat="43.0454933305193" lon="12.159394276275775"><ele>469.33333333333337</ele><time>2026-05-03T06:36:39Z</time></trkpt><trkpt lat="43.04552469774298" lon="12.159293967911793"><ele>470.1666666666667</ele><time>2026-05-03T06:36:40Z</time></trkpt><trkpt lat="43.04556382123383" lon="12.159195958354761"><ele>471.0</ele><time>2026-05-03T06:36:41Z</time></trkpt><trkpt lat="43.045600138427375" lon="12.159119649033105"><ele>473.20000000000005</ele><time>2026-05-03T06:36:42Z</time></trkpt><trkpt lat="43.04561963992939" lon="12.158950053126935"><ele>475.40000000000003</ele><time>2026-05-03T06:36:44Z</time></trkpt><trkpt lat="43.04561082467738" lon="12.15885878084738"><ele>477.6</ele><time>2026-05-03T06:36:45Z</time></trkpt><trkpt lat="43.04559826803857" lon="12.158749945375982"><ele>479.8</ele><time>2026-05-03T06:36:46Z</time></trkpt><trkpt lat="43.045586245916034" lon="12.1586537752342"><ele>482.0</ele><time>2026-05-03T06:36:47Z</time></trkpt><trkpt lat="43.045553337419165" lon="12.158484906880648"><ele>482.0</ele><time>2026-05-03T06:36:49Z</time></trkpt><trkpt lat="43.04553121451238" lon="12.158386479232485"><ele>482.00000000000006</ele><time>2026-05-03T06:36:50Z</time></trkpt><trkpt lat="43.0455031613457" lon="12.158304573474183"><ele>482.00000000000006</ele><time>2026-05-03T06:36:51Z</time></trkpt><trkpt lat="43.04547020953778" lon="12.158158395110082"><ele>482.0</ele><time>2026-05-03T06:36:53Z</time></trkpt><trkpt lat="43.045528312522286" lon="12.158046350951926"><ele>482.0</ele><time>2026-05-03T06:36:55Z</time></trkpt><trkpt lat="43.04563583110207" lon="12.157997898241518"><ele>484.0</ele><time>2026-05-03T06:36:57Z</time></trkpt><trkpt lat="43.045749699887004" lon="12.157954499516102"><ele>486.00000000000006</ele><time>2026-05-03T06:36:59Z</time></trkpt><trkpt lat="43.04581791728692" lon="12.157941970872246"><ele>488.00000000000006</ele><time>2026-05-03T06:37:00Z</time></trkpt><trkpt lat="43.045878260247825" lon="12.157910293921148"><ele>490.0</ele><time>2026-05-03T06:37:01Z</time></trkpt><trkpt lat="43.0460055111884" lon="12.157840091458311"><ele>492.0</ele><time>2026-05-03T06:37:03Z</time></trkpt><trkpt lat="43.046076848929985" lon="12.157803861636827"><ele>488.40000000000003</ele><time>2026-05-03T06:37:04Z</time></trkpt><trkpt lat="43.04613803928231" lon="12.157754594554456"><ele>484.80000000000007</ele><time>2026-05-03T06:37:05Z</time></trkpt><trkpt lat="43.04621946207942" lon="12.157655814905937"><ele>481.2</ele><time>2026-05-03T06:37:07Z</time></trkpt><trkpt lat="43.04628778677544" lon="12.157543911014445"><ele>477.6</ele><time>2026-05-03T06:37:09Z</time></trkpt><trkpt lat="43.04632499791379" lon="12.157392630286978"><ele>474.0</ele><time>2026-05-03T06:37:11Z</time></trkpt><trkpt lat="43.04632092658749" lon="12.157297119425365"><ele>474.0</ele><time>2026-05-03T06:37:12Z</time></trkpt><trkpt lat="43.046316064380214" lon="12.15720407014895"><ele>474.0</ele><time>2026-05-03T06:37:13Z</time></trkpt><trkpt lat="43.046296657123726" lon="12.15703947385408"><ele>474.0</ele><time>2026-05-03T06:37:15Z</time></trkpt><trkpt lat="43.04627953288979" lon="12.156954680449271"><ele>474.0</ele><time>2026-05-03T06:37:16Z</time></trkpt><trkpt lat="43.04626015303963" lon="12.156854672139836"><ele>474.0</ele><time>2026-05-03T06:37:17Z</time></trkpt><trkpt lat="43.04623532585405" lon="12.156754144275585"><ele>474.0</ele><time>2026-05-03T06:37:18Z</time></trkpt><trkpt lat="43.04620461217705" lon="12.156647810302825"><ele>474.0</ele><time>2026-05-03T06:37:19Z</time></trkpt><trkpt lat="43.04617937944399" lon="12.156553337281965"><ele>474.0</ele><time>2026-05-03T06:37:20Z</time></trkpt><trkpt lat="43.046160096434" lon="12.156464192556847"><ele>474.0</ele><time>2026-05-03T06:37:21Z</time></trkpt><trkpt lat="43.04618175248034" lon="12.156338134625972"><ele>474.0</ele><time>2026-05-03T06:37:23Z</time></trkpt><trkpt lat="43.04625147969138" lon="12.156274067496764"><ele>474.0</ele><time>2026-05-03T06:37:24Z</time></trkpt><trkpt lat="43.04629909184377" lon="12.1561897278374"><ele>474.0</ele><time>2026-05-03T06:37:25Z</time></trkpt><trkpt lat="43.046308018085554" lon="12.15610426098195"><ele>475.0</ele><time>2026-05-03T06:37:26Z</time></trkpt><trkpt lat="43.04627960080337" lon="12.155950997984412"><ele>476.0</ele><time>2026-05-03T06:37:28Z</time></trkpt><trkpt lat="43.04625293670905" lon="12.155864695403823"><ele>477.0</ele><time>2026-05-03T06:37:29Z</time></trkpt><trkpt lat="43.04627794879838" lon="12.155710154753002"><ele>478.0</ele><time>2026-05-03T06:37:31Z</time></trkpt><trkpt lat="43.04633310367178" lon="12.155656294942155"><ele>479.0</ele><time>2026-05-03T06:37:32Z</time></trkpt><trkpt lat="43.046406972104144" lon="12.15561812690909"><ele>480.0</ele><time>2026-05-03T06:37:33Z</time></trkpt><trkpt lat="43.046490593853314" lon="12.155576335327439"><ele>481.0</ele><time>2026-05-03T06:37:34Z</time></trkpt><trkpt lat="43.046557683341724" lon="12.15552363673946"><ele>482.0</ele><time>2026-05-03T06:37:35Z</time></trkpt><trkpt lat="43.04659827916662" lon="12.1554498785748"><ele>483.0</ele><time>2026-05-03T06:37:36Z</time></trkpt><trkpt lat="43.04662816877618" lon="12.155367778831964"><ele>484.0</ele><time>2026-05-03T06:37:37Z</time></trkpt><trkpt lat="43.04664862267097" lon="12.155280555035448"><ele>485.0</ele><time>2026-05-03T06:37:38Z</time></trkpt><trkpt lat="43.0466602011583" lon="12.155171181466804"><ele>486.0</ele><time>2026-05-03T06:37:39Z</time></trkpt><trkpt lat="43.0466797252572" lon="12.155055109034684"><ele>487.0</ele><time>2026-05-03T06:37:40Z</time></trkpt><trkpt lat="43.04670308211166" lon="12.154970872745155"><ele>484.33333333333337</ele><time>2026-05-03T06:37:41Z</time></trkpt><trkpt lat="43.04676051224934" lon="12.15490976411177"><ele>481.6666666666667</ele><time>2026-05-03T06:37:42Z</time></trkpt><trkpt lat="43.04683717811372" lon="12.154844605889483"><ele>479.0</ele><time>2026-05-03T06:37:43Z</time></trkpt><trkpt lat="43.04690769144209" lon="12.154767837204327"><ele>476.33333333333337</ele><time>2026-05-03T06:37:44Z</time></trkpt><trkpt lat="43.046973127954885" lon="12.154696428335166"><ele>473.6666666666667</ele><time>2026-05-03T06:37:45Z</time></trkpt><trkpt lat="43.04703031998968" lon="12.154618532878425"><ele>471.0</ele><time>2026-05-03T06:37:46Z</time></trkpt><trkpt lat="43.04708731594289" lon="12.154542586355097"><ele>471.0</ele><time>2026-05-03T06:37:47Z</time></trkpt><trkpt lat="43.04714485181453" lon="12.154450566764687"><ele>471.0</ele><time>2026-05-03T06:37:48Z</time></trkpt><trkpt lat="43.04719706116589" lon="12.154361092990941"><ele>471.0</ele><time>2026-05-03T06:37:49Z</time></trkpt><trkpt lat="43.04725422375846" lon="12.154303874297947"><ele>471.0</ele><time>2026-05-03T06:37:50Z</time></trkpt><trkpt lat="43.04732363965397" lon="12.15426688914905"><ele>471.0</ele><time>2026-05-03T06:37:51Z</time></trkpt><trkpt lat="43.04741030634258" lon="12.154230552476015"><ele>471.0</ele><time>2026-05-03T06:37:52Z</time></trkpt><trkpt lat="43.0474924231857" lon="12.154195909066717"><ele>469.3333333333333</ele><time>2026-05-03T06:37:53Z</time></trkpt><trkpt lat="43.04755944771697" lon="12.154142826872246"><ele>467.66666666666663</ele><time>2026-05-03T06:37:54Z</time></trkpt><trkpt lat="43.047627815668804" lon="12.154068961842842"><ele>466.0</ele><time>2026-05-03T06:37:55Z</time></trkpt><trkpt lat="43.04766914980087" lon="12.153985765957268"><ele>464.3333333333333</ele><time>2026-05-03T06:37:56Z</time></trkpt><trkpt lat="43.04771910915018" lon="12.153879777886091"><ele>462.66666666666663</ele><time>2026-05-03T06:37:58Z</time></trkpt><trkpt lat="43.04767950983768" lon="12.153777783836732"><ele>461.0</ele><time>2026-05-03T06:38:01Z</time></trkpt><trkpt lat="43.04761648347393" lon="12.153772134321574"><ele>460.8</ele><time>2026-05-03T06:38:04Z</time></trkpt><trkpt lat="43.04752761645553" lon="12.153733770476457"><ele>460.6</ele><time>2026-05-03T06:38:05Z</time></trkpt><trkpt lat="43.04741182551206" lon="12.153753859861894"><ele>460.4</ele><time>2026-05-03T06:38:06Z</time></trkpt><trkpt lat="43.047270648203536" lon="12.153814722191491"><ele>460.2</ele><time>2026-05-03T06:38:07Z</time></trkpt><trkpt lat="43.04718113866985" lon="12.153837314109337"><ele>460.0</ele><time>2026-05-03T06:38:08Z</time></trkpt><trkpt lat="43.047098053529574" lon="12.15384030853645"><ele>461.0</ele><time>2026-05-03T06:38:09Z</time></trkpt><trkpt lat="43.046940968723064" lon="12.153800666334527"><ele>462.0</ele><time>2026-05-03T06:38:11Z</time></trkpt><trkpt lat="43.046865433707886" lon="12.153770185151908"><ele>463.0</ele><time>2026-05-03T06:38:12Z</time></trkpt><trkpt lat="43.046796152477825" lon="12.153730338529293"><ele>464.0</ele><time>2026-05-03T06:38:13Z</time></trkpt><trkpt lat="43.046720162038035" lon="12.153720636609368"><ele>465.0</ele><time>2026-05-03T06:38:14Z</time></trkpt><trkpt lat="43.046631910048205" lon="12.15370703071031"><ele>465.85714285714283</ele><time>2026-05-03T06:38:15Z</time></trkpt><trkpt lat="43.046565837109114" lon="12.15373854609346"><ele>466.7142857142858</ele><time>2026-05-03T06:38:16Z</time></trkpt><trkpt lat="43.04653401579477" lon="12.153818465253535"><ele>467.5714285714286</ele><time>2026-05-03T06:38:17Z</time></trkpt><trkpt lat="43.04645978620928" lon="12.153859800989835"><ele>468.42857142857144</ele><time>2026-05-03T06:38:18Z</time></trkpt><trkpt lat="43.04639903200949" lon="12.153913123378846"><ele>469.28571428571433</ele><time>2026-05-03T06:38:19Z</time></trkpt><trkpt lat="43.04632004689703" lon="12.153957748385999"><ele>470.1428571428572</ele><time>2026-05-03T06:38:20Z</time></trkpt><trkpt lat="43.04624613555387" lon="12.153959761491684"><ele>471.00000000000006</ele><time>2026-05-03T06:38:21Z</time></trkpt><trkpt lat="43.046125490677" lon="12.154014797386596"><ele>474.0</ele><time>2026-05-03T06:38:23Z</time></trkpt><trkpt lat="43.046057214192935" lon="12.154054361208663"><ele>477.0</ele><time>2026-05-03T06:38:24Z</time></trkpt><trkpt lat="43.046008680930285" lon="12.154167868121313"><ele>480.0</ele><time>2026-05-03T06:38:26Z</time></trkpt><trkpt lat="43.046001427135536" lon="12.154268087568566"><ele>483.0</ele><time>2026-05-03T06:38:27Z</time></trkpt><trkpt lat="43.04598759407135" lon="12.154353500600612"><ele>486.0</ele><time>2026-05-03T06:38:28Z</time></trkpt><trkpt lat="43.045901687122246" lon="12.154432639537333"><ele>489.0</ele><time>2026-05-03T06:38:30Z</time></trkpt><trkpt lat="43.045798607808294" lon="12.154451096678578"><ele>492.79999999999995</ele><time>2026-05-03T06:38:32Z</time></trkpt><trkpt lat="43.04573576290893" lon="12.15447136469009"><ele>496.59999999999997</ele><time>2026-05-03T06:38:33Z</time></trkpt><trkpt lat="43.04567152418155" lon="12.154497843457538"><ele>500.4</ele><time>2026-05-03T06:38:34Z</time></trkpt><trkpt lat="43.045549856265644" lon="12.154521481189505"><ele>504.2</ele><time>2026-05-03T06:38:36Z</time></trkpt><trkpt lat="43.045442072868816" lon="12.154602294956193"><ele>508.0</ele><time>2026-05-03T06:38:38Z</time></trkpt><trkpt lat="43.04537204834117" lon="12.154758730037729"><ele>508.0</ele><time>2026-05-03T06:38:40Z</time></trkpt><trkpt lat="43.04533309609275" lon="12.154861676410293"><ele>507.99999999999994</ele><time>2026-05-03T06:38:41Z</time></trkpt><trkpt lat="43.04528592426047" lon="12.15498302545871"><ele>507.99999999999994</ele><time>2026-05-03T06:38:42Z</time></trkpt><trkpt lat="43.04523345034373" lon="12.155094288714059"><ele>508.0</ele><time>2026-05-03T06:38:43Z</time></trkpt><trkpt lat="43.045191925558896" lon="12.155214030380938"><ele>508.0</ele><time>2026-05-03T06:38:44Z</time></trkpt><trkpt lat="43.04515179765189" lon="12.15532957230603"><ele>510.33333333333337</ele><time>2026-05-03T06:38:45Z</time></trkpt><trkpt lat="43.0451037534699" lon="12.155461175695905"><ele>512.6666666666667</ele><time>2026-05-03T06:38:46Z</time></trkpt><trkpt lat="43.04508021744268" lon="12.155550297004485"><ele>515.0</ele><time>2026-05-03T06:38:47Z</time></trkpt><trkpt lat="43.04503036941692" lon="12.155665557807678"><ele>517.3333333333334</ele><time>2026-05-03T06:38:49Z</time></trkpt><trkpt lat="43.04498108334046" lon="12.155761934825534"><ele>519.6666666666666</ele><time>2026-05-03T06:38:51Z</time></trkpt><trkpt lat="43.04493003169308" lon="12.155853939496357"><ele>522.0</ele><time>2026-05-03T06:38:54Z</time></trkpt><trkpt lat="43.04487016215365" lon="12.15593414874358"><ele>525.6</ele><time>2026-05-03T06:56:42Z</time></trkpt><trkpt lat="43.044852283839056" lon="12.156051326552388"><ele>529.2</ele><time>2026-05-03T06:57:10Z</time></trkpt><trkpt lat="43.0448342273339" lon="12.156180943562656"><ele>532.8</ele><time>2026-05-03T06:57:11Z</time></trkpt><trkpt lat="43.04480898493878" lon="12.15632784481907"><ele>536.4</ele><time>2026-05-03T06:57:12Z</time></trkpt><trkpt lat="43.044767255178314" lon="12.156430268980591"><ele>540.0</ele><time>2026-05-03T06:57:13Z</time></trkpt><trkpt lat="43.04471112505746" lon="12.1565090710239"><ele>536.4</ele><time>2026-05-03T06:57:14Z</time></trkpt><trkpt lat="43.04463968694432" lon="12.156591299743685"><ele>532.8</ele><time>2026-05-03T06:57:15Z</time></trkpt><trkpt lat="43.0445447257218" lon="12.156701230803408"><ele>529.2</ele><time>2026-05-03T06:57:16Z</time></trkpt><trkpt lat="43.04446333982841" lon="12.156792383229723"><ele>525.6</ele><time>2026-05-03T06:57:17Z</time></trkpt><trkpt lat="43.04440078201182" lon="12.156873567044839"><ele>522.0</ele><time>2026-05-03T06:57:18Z</time></trkpt><trkpt lat="43.04434846383229" lon="12.156957272405274"><ele>522.0</ele><time>2026-05-03T06:57:19Z</time></trkpt><trkpt lat="43.04429876940652" lon="12.157050223562795"><ele>522.0</ele><time>2026-05-03T06:57:20Z</time></trkpt><trkpt lat="43.04425912837684" lon="12.157130050308222"><ele>522.0</ele><time>2026-05-03T06:57:21Z</time></trkpt><trkpt lat="43.04418542700347" lon="12.157236249184525"><ele>522.0</ele><time>2026-05-03T06:57:23Z</time></trkpt><trkpt lat="43.044102781069704" lon="12.1572936844121"><ele>522.0</ele><time>2026-05-03T06:57:25Z</time></trkpt><trkpt lat="43.0440417944644" lon="12.15720063503743"><ele>522.0</ele><time>2026-05-03T06:57:28Z</time></trkpt><trkpt lat="43.04403495239191" lon="12.157103951311989"><ele>520.0</ele><time>2026-05-03T06:57:29Z</time></trkpt><trkpt lat="43.04402112407591" lon="12.156997293946416"><ele>518.0</ele><time>2026-05-03T06:57:30Z</time></trkpt><trkpt lat="43.044008554384675" lon="12.156887498871443"><ele>516.0</ele><time>2026-05-03T06:57:31Z</time></trkpt><trkpt lat="43.04400417460698" lon="12.156784814369765"><ele>514.0</ele><time>2026-05-03T06:57:32Z</time></trkpt><trkpt lat="43.0439703678614" lon="12.156632450546365"><ele>512.0</ele><time>2026-05-03T06:57:34Z</time></trkpt><trkpt lat="43.04389432387087" lon="12.156540227045564"><ele>517.0</ele><time>2026-05-03T06:57:36Z</time></trkpt><trkpt lat="43.04377904633613" lon="12.15651131333506"><ele>522.0</ele><time>2026-05-03T06:57:38Z</time></trkpt><trkpt lat="43.04371330116017" lon="12.156508946635029"><ele>527.0</ele><time>2026-05-03T06:57:39Z</time></trkpt><trkpt lat="43.04364087028092" lon="12.156506866749815"><ele>532.0</ele><time>2026-05-03T06:57:40Z</time></trkpt><trkpt lat="43.04357700578678" lon="12.15650311866953"><ele>537.0</ele><time>2026-05-03T06:57:41Z</time></trkpt><trkpt lat="43.04350136086951" lon="12.156506014713397"><ele>542.0</ele><time>2026-05-03T06:57:42Z</time></trkpt><trkpt lat="43.04342615821843" lon="12.156485798090465"><ele>542.0</ele><time>2026-05-03T06:57:43Z</time></trkpt><trkpt lat="43.04336976515458" lon="12.156414826833979"><ele>542.0</ele><time>2026-05-03T06:57:44Z</time></trkpt><trkpt lat="43.0432996052801" lon="12.156446977247866"><ele>542.0</ele><time>2026-05-03T06:57:45Z</time></trkpt><trkpt lat="43.04321879772437" lon="12.156464425423794"><ele>542.0</ele><time>2026-05-03T06:57:46Z</time></trkpt><trkpt lat="43.043132887261436" lon="12.156473335637088"><ele>542.0</ele><time>2026-05-03T06:57:47Z</time></trkpt><trkpt lat="43.04303977103975" lon="12.156473551484936"><ele>542.0</ele><time>2026-05-03T06:57:48Z</time></trkpt><trkpt lat="43.04294722863018" lon="12.15647262971762"><ele>541.5</ele><time>2026-05-03T06:57:49Z</time></trkpt><trkpt lat="43.04287457810034" lon="12.156477459236976"><ele>541.0</ele><time>2026-05-03T06:57:50Z</time></trkpt><trkpt lat="43.04277510285886" lon="12.156475934774482"><ele>540.5</ele><time>2026-05-03T06:57:52Z</time></trkpt><trkpt lat="43.042690287884966" lon="12.156481769910151"><ele>540.0</ele><time>2026-05-03T06:57:54Z</time></trkpt><trkpt lat="43.042583550530395" lon="12.156477504585721"><ele>539.5</ele><time>2026-05-03T06:57:56Z</time></trkpt><trkpt lat="43.042507454198535" lon="12.156470791418668"><ele>539.0</ele><time>2026-05-03T06:57:57Z</time></trkpt><trkpt lat="43.042430006416744" lon="12.156463112090877"><ele>539.0</ele><time>2026-05-03T06:57:58Z</time></trkpt><trkpt lat="43.042359343168876" lon="12.156462174353157"><ele>539.0</ele><time>2026-05-03T06:57:59Z</time></trkpt><trkpt lat="43.04229476250754" lon="12.156455931599247"><ele>539.0</ele><time>2026-05-03T06:58:00Z</time></trkpt><trkpt lat="43.04221471802935" lon="12.15644303695242"><ele>539.0</ele><time>2026-05-03T06:58:01Z</time></trkpt><trkpt lat="43.04214325625547" lon="12.15642789139834"><ele>539.0</ele><time>2026-05-03T06:58:02Z</time></trkpt><trkpt lat="43.042071357255864" lon="12.156403574465175"><ele>539.0</ele><time>2026-05-03T06:58:03Z</time></trkpt><trkpt lat="43.04198802492811" lon="12.156390355292732"><ele>539.0</ele><time>2026-05-03T06:58:04Z</time></trkpt><trkpt lat="43.041923667463124" lon="12.156386347049036"><ele>539.0</ele><time>2026-05-03T06:58:05Z</time></trkpt><trkpt lat="43.041802357979385" lon="12.156394481920021"><ele>539.0</ele><time>2026-05-03T06:58:07Z</time></trkpt><trkpt lat="43.041696175653854" lon="12.1564109642985"><ele>539.0</ele><time>2026-05-03T06:58:09Z</time></trkpt><trkpt lat="43.041582741766504" lon="12.15644019718896"><ele>539.0</ele><time>2026-05-03T06:58:11Z</time></trkpt><trkpt lat="43.04151612994504" lon="12.156460914836664"><ele>539.0</ele><time>2026-05-03T06:58:12Z</time></trkpt><trkpt lat="43.0414514725685" lon="12.156475628412037"><ele>536.6666666666666</ele><time>2026-05-03T06:58:13Z</time></trkpt><trkpt lat="43.04138856011584" lon="12.15649377805467"><ele>534.3333333333333</ele><time>2026-05-03T06:58:14Z</time></trkpt><trkpt lat="43.04127337653807" lon="12.15650553150005"><ele>532.0</ele><time>2026-05-03T06:58:16Z</time></trkpt><trkpt lat="43.04120186430125" lon="12.156509387939607"><ele>529.6666666666666</ele><time>2026-05-03T06:58:18Z</time></trkpt><trkpt lat="43.041104648949194" lon="12.156502456976527"><ele>527.3333333333334</ele><time>2026-05-03T06:58:20Z</time></trkpt><trkpt lat="43.04102453250928" lon="12.156493645673768"><ele>525.0</ele><time>2026-05-03T06:58:21Z</time></trkpt><trkpt lat="43.040952058599565" lon="12.15649013578493"><ele>525.0</ele><time>2026-05-03T06:58:22Z</time></trkpt><trkpt lat="43.04088811158009" lon="12.156480312133043"><ele>525.0</ele><time>2026-05-03T06:58:23Z</time></trkpt><trkpt lat="43.04077380868488" lon="12.15645758468632"><ele>525.0</ele><time>2026-05-03T06:58:25Z</time></trkpt><trkpt lat="43.0406803136723" lon="12.156458998352633"><ele>525.0</ele><time>2026-05-03T06:58:27Z</time></trkpt><trkpt lat="43.04055931112249" lon="12.15644483416063"><ele>525.0</ele><time>2026-05-03T06:58:29Z</time></trkpt><trkpt lat="43.04048622550325" lon="12.156433325702896"><ele>521.0</ele><time>2026-05-03T06:58:30Z</time></trkpt><trkpt lat="43.04040760997383" lon="12.156413677280407"><ele>517.0</ele><time>2026-05-03T06:58:31Z</time></trkpt><trkpt lat="43.04033141551151" lon="12.156391210566246"><ele>513.0</ele><time>2026-05-03T06:58:32Z</time></trkpt><trkpt lat="43.04026422558994" lon="12.156372457750031"><ele>509.0</ele><time>2026-05-03T06:58:33Z</time></trkpt><trkpt lat="43.040200575162984" lon="12.156346919393116"><ele>505.0</ele><time>2026-05-03T06:58:34Z</time></trkpt><trkpt lat="43.04013924204729" lon="12.156320131287242"><ele>501.0</ele><time>2026-05-03T06:58:35Z</time></trkpt><trkpt lat="43.040027328008286" lon="12.156276722952509"><ele>494.25</ele><time>2026-05-03T06:58:37Z</time></trkpt><trkpt lat="43.0399078023792" lon="12.156252988502425"><ele>487.5</ele><time>2026-05-03T06:58:39Z</time></trkpt><trkpt lat="43.03979295408017" lon="12.156200283490785"><ele>480.75</ele><time>2026-05-03T06:58:41Z</time></trkpt><trkpt lat="43.03969423494758" lon="12.156114676274912"><ele>474.0</ele><time>2026-05-03T06:58:43Z</time></trkpt><trkpt lat="43.039620222607596" lon="12.156015620523528"><ele>474.0</ele><time>2026-05-03T06:58:45Z</time></trkpt><trkpt lat="43.03957086320944" lon="12.1558887750664"><ele>474.0</ele><time>2026-05-03T06:58:47Z</time></trkpt><trkpt lat="43.039545258064585" lon="12.155759730260916"><ele>474.0</ele><time>2026-05-03T06:58:49Z</time></trkpt><trkpt lat="43.03952641545948" lon="12.155641303870071"><ele>474.0</ele><time>2026-05-03T06:58:51Z</time></trkpt><trkpt lat="43.03952789034968" lon="12.155514041634948"><ele>474.0</ele><time>2026-05-03T06:58:53Z</time></trkpt><trkpt lat="43.03951887038196" lon="12.155365203556828"><ele>472.0</ele><time>2026-05-03T06:58:55Z</time></trkpt><trkpt lat="43.03953920360085" lon="12.15521438176128"><ele>470.0</ele><time>2026-05-03T06:58:57Z</time></trkpt><trkpt lat="43.03957303081938" lon="12.155069189586476"><ele>468.0</ele><time>2026-05-03T06:58:59Z</time></trkpt><trkpt lat="43.03960161808303" lon="12.154957243557929"><ele>466.0</ele><time>2026-05-03T06:59:01Z</time></trkpt><trkpt lat="43.03963419886086" lon="12.154849174610945"><ele>464.0</ele><time>2026-05-03T06:59:03Z</time></trkpt><trkpt lat="43.03965980424517" lon="12.154745815392985"><ele>461.8571428571429</ele><time>2026-05-03T06:59:05Z</time></trkpt><trkpt lat="43.03968323415377" lon="12.15465304528975"><ele>459.7142857142857</ele><time>2026-05-03T06:59:07Z</time></trkpt><trkpt lat="43.039711506626396" lon="12.154565761748508"><ele>457.57142857142856</ele><time>2026-05-03T06:59:09Z</time></trkpt><trkpt lat="43.03973607993608" lon="12.154481167552042"><ele>455.42857142857144</ele><time>2026-05-03T06:59:11Z</time></trkpt><trkpt lat="43.039759329860985" lon="12.154395699094893"><ele>453.2857142857142</ele><time>2026-05-03T06:59:13Z</time></trkpt><trkpt lat="43.03978132748006" lon="12.15431174220627"><ele>451.1428571428571</ele><time>2026-05-03T06:59:15Z</time></trkpt><trkpt lat="43.039811117932516" lon="12.15421071581995"><ele>449.0</ele><time>2026-05-03T06:59:17Z</time></trkpt><trkpt lat="43.03983880504252" lon="12.154105799870289"><ele>447.66666666666663</ele><time>2026-05-03T06:59:19Z</time></trkpt><trkpt lat="43.039875207961316" lon="12.153996299524845"><ele>446.3333333333333</ele><time>2026-05-03T06:59:21Z</time></trkpt><trkpt lat="43.039903433622975" lon="12.153882186944816"><ele>445.0</ele><time>2026-05-03T06:59:23Z</time></trkpt><trkpt lat="43.03994306893508" lon="12.153767611024199"><ele>443.66666666666663</ele><time>2026-05-03T06:59:25Z</time></trkpt><trkpt lat="43.039984887183564" lon="12.153654020820648"><ele>442.3333333333333</ele><time>2026-05-03T06:59:27Z</time></trkpt><trkpt lat="43.0400170715833" lon="12.153545430494148"><ele>441.0</ele><time>2026-05-03T06:59:29Z</time></trkpt><trkpt lat="43.04006022702834" lon="12.153388286299572"><ele>444.8</ele><time>2026-05-03T06:59:31Z</time></trkpt><trkpt lat="43.040100891919046" lon="12.153240158406573"><ele>448.6</ele><time>2026-05-03T06:59:33Z</time></trkpt><trkpt lat="43.0401369029325" lon="12.153101385586863"><ele>452.4</ele><time>2026-05-03T06:59:35Z</time></trkpt><trkpt lat="43.04017261666503" lon="12.152965274563508"><ele>456.2</ele><time>2026-05-03T06:59:37Z</time></trkpt><trkpt lat="43.04020341427836" lon="12.15284951257369"><ele>460.0</ele><time>2026-05-03T06:59:39Z</time></trkpt><trkpt lat="43.04022816855733" lon="12.152750527031436"><ele>460.00000000000006</ele><time>2026-05-03T06:59:41Z</time></trkpt><trkpt lat="43.04024315799217" lon="12.152643258729372"><ele>460.0</ele><time>2026-05-03T06:59:43Z</time></trkpt><trkpt lat="43.04025890411304" lon="12.152535182106046"><ele>460.0</ele><time>2026-05-03T06:59:45Z</time></trkpt><trkpt lat="43.040312628530515" lon="12.152453744475716"><ele>460.0</ele><time>2026-05-03T06:59:47Z</time></trkpt><trkpt lat="43.040387847201224" lon="12.152365018301545"><ele>460.00000000000006</ele><time>2026-05-03T06:59:49Z</time></trkpt><trkpt lat="43.04047780470926" lon="12.152288587964962"><ele>460.0</ele><time>2026-05-03T06:59:51Z</time></trkpt><trkpt lat="43.040545670851756" lon="12.152206255259882"><ele>460.0</ele><time>2026-05-03T06:59:53Z</time></trkpt><trkpt lat="43.04060807986192" lon="12.15209792891149"><ele>460.0</ele><time>2026-05-03T06:59:55Z</time></trkpt><trkpt lat="43.04064544189987" lon="12.151982670611586"><ele>460.0</ele><time>2026-05-03T06:59:57Z</time></trkpt><trkpt lat="43.04069447300609" lon="12.151871452521522"><ele>460.0</ele><time>2026-05-03T06:59:59Z</time></trkpt><trkpt lat="43.04074773927342" lon="12.151757916292866"><ele>460.0</ele><time>2026-05-03T07:00:01Z</time></trkpt><trkpt lat="43.04077439513162" lon="12.151621318739995"><ele>465.2</ele><time>2026-05-03T07:00:03Z</time></trkpt><trkpt lat="43.040814539020914" lon="12.151482028665427"><ele>470.4</ele><time>2026-05-03T07:00:05Z</time></trkpt><trkpt lat="43.04083587047434" lon="12.151350858513487"><ele>475.6</ele><time>2026-05-03T07:00:07Z</time></trkpt><trkpt lat="43.04088450881845" lon="12.151237161899843"><ele>480.8</ele><time>2026-05-03T07:00:09Z</time></trkpt><trkpt lat="43.040932948295165" lon="12.15111086111074"><ele>486.0</ele><time>2026-05-03T07:00:11Z</time></trkpt><trkpt lat="43.04099400041738" lon="12.150963171652364"><ele>486.0</ele><time>2026-05-03T07:00:13Z</time></trkpt><trkpt lat="43.04107969687036" lon="12.150858402805017"><ele>486.0</ele><time>2026-05-03T07:00:15Z</time></trkpt><trkpt lat="43.0411877273717" lon="12.150769337847489"><ele>486.0</ele><time>2026-05-03T07:00:17Z</time></trkpt><trkpt lat="43.0412673240946" lon="12.150670791999861"><ele>486.0</ele><time>2026-05-03T07:00:19Z</time></trkpt><trkpt lat="43.04132497168024" lon="12.15061555390389"><ele>486.0</ele><time>2026-05-03T07:00:21Z</time></trkpt><trkpt lat="43.041262668428544" lon="12.150666763461397"><ele>486.0</ele><time>2026-05-03T07:01:02Z</time></trkpt><trkpt lat="43.041204886773876" lon="12.150743727519714"><ele>486.0</ele><time>2026-05-03T07:01:04Z</time></trkpt><trkpt lat="43.041117760544076" lon="12.150800196532579"><ele>486.0</ele><time>2026-05-03T07:01:06Z</time></trkpt><trkpt lat="43.041036831087816" lon="12.150905434055934"><ele>486.0</ele><time>2026-05-03T07:01:08Z</time></trkpt><trkpt lat="43.04096516780406" lon="12.151002306494984"><ele>486.0</ele><time>2026-05-03T07:01:10Z</time></trkpt><trkpt lat="43.04092955147595" lon="12.151144757167607"><ele>486.0</ele><time>2026-05-03T07:01:12Z</time></trkpt><trkpt lat="43.04086685532152" lon="12.151277224709693"><ele>486.0</ele><time>2026-05-03T07:01:14Z</time></trkpt><trkpt lat="43.04081698487799" lon="12.151420545016846"><ele>486.0</ele><time>2026-05-03T07:01:16Z</time></trkpt><trkpt lat="43.040794705802995" lon="12.151561791408353"><ele>486.0</ele><time>2026-05-03T07:01:18Z</time></trkpt><trkpt lat="43.040756152245784" lon="12.151705496049972"><ele>486.0</ele><time>2026-05-03T07:01:20Z</time></trkpt><trkpt lat="43.04071752799297" lon="12.151834366133722"><ele>480.8</ele><time>2026-05-03T07:01:22Z</time></trkpt><trkpt lat="43.04066274949088" lon="12.151965984320912"><ele>475.6</ele><time>2026-05-03T07:01:24Z</time></trkpt><trkpt lat="43.04059934762434" lon="12.152116154042115"><ele>470.4</ele><time>2026-05-03T07:01:26Z</time></trkpt><trkpt lat="43.04050573517915" lon="12.152231320891584"><ele>465.2</ele><time>2026-05-03T07:01:28Z</time></trkpt><trkpt lat="43.04045209547771" lon="12.152292417407992"><ele>460.0</ele><time>2026-05-03T07:01:29Z</time></trkpt><trkpt lat="43.04039991696654" lon="12.152351348926457"><ele>459.99999999999994</ele><time>2026-05-03T07:01:30Z</time></trkpt><trkpt lat="43.04034720989358" lon="12.152403737407864"><ele>460.0</ele><time>2026-05-03T07:01:31Z</time></trkpt><trkpt lat="43.040293919972285" lon="12.152457134810339"><ele>459.99999999999994</ele><time>2026-05-03T07:01:32Z</time></trkpt><trkpt lat="43.04024584106196" lon="12.152523745335047"><ele>459.99999999999994</ele><time>2026-05-03T07:01:33Z</time></trkpt><trkpt lat="43.040191898539625" lon="12.152589476754775"><ele>460.0</ele><time>2026-05-03T07:01:34Z</time></trkpt><trkpt lat="43.04013111500622" lon="12.152645072489252"><ele>459.99999999999994</ele><time>2026-05-03T07:01:35Z</time></trkpt><trkpt lat="43.04007899215174" lon="12.152719978079384"><ele>459.99999999999994</ele><time>2026-05-03T07:01:36Z</time></trkpt><trkpt lat="43.0400360617156" lon="12.15281365262899"><ele>459.99999999999994</ele><time>2026-05-03T07:01:37Z</time></trkpt><trkpt lat="43.039992739571176" lon="12.152900454940774"><ele>460.0</ele><time>2026-05-03T07:01:38Z</time></trkpt><trkpt lat="43.03994559399268" lon="12.152976232998993"><ele>459.99999999999994</ele><time>2026-05-03T07:01:39Z</time></trkpt><trkpt lat="43.03989134925802" lon="12.153033999367155"><ele>459.99999999999994</ele><time>2026-05-03T07:01:40Z</time></trkpt><trkpt lat="43.0398347705427" lon="12.153090184113424"><ele>460.0</ele><time>2026-05-03T07:01:41Z</time></trkpt><trkpt lat="43.03978007545802" lon="12.153138075895127"><ele>459.99999999999994</ele><time>2026-05-03T07:01:42Z</time></trkpt><trkpt lat="43.03972338377037" lon="12.153184259909207"><ele>459.99999999999994</ele><time>2026-05-03T07:01:43Z</time></trkpt><trkpt lat="43.03967169936249" lon="12.153234260394596"><ele>456.2</ele><time>2026-05-03T07:01:44Z</time></trkpt><trkpt lat="43.03956800052831" lon="12.153337426435046"><ele>452.4</ele><time>2026-05-03T07:01:46Z</time></trkpt><trkpt lat="43.039512381848574" lon="12.153382496259196"><ele>448.6</ele><time>2026-05-03T07:01:47Z</time></trkpt><trkpt lat="43.03941442151218" lon="12.153479696693148"><ele>444.8</ele><time>2026-05-03T07:01:49Z</time></trkpt><trkpt lat="43.039358908414" lon="12.153537562241763"><ele>441.0</ele><time>2026-05-03T07:01:50Z</time></trkpt><trkpt lat="43.039308043488646" lon="12.15360308768338"><ele>441.0</ele><time>2026-05-03T07:01:51Z</time></trkpt><trkpt lat="43.039228986254" lon="12.153659159459929"><ele>441.0</ele><time>2026-05-03T07:01:52Z</time></trkpt><trkpt lat="43.03919195561577" lon="12.15376360144374"><ele>441.0</ele><time>2026-05-03T07:01:53Z</time></trkpt><trkpt lat="43.03912850846602" lon="12.15384634801299"><ele>441.0</ele><time>2026-05-03T07:01:54Z</time></trkpt><trkpt lat="43.03906335787921" lon="12.153942616342256"><ele>441.0</ele><time>2026-05-03T07:01:55Z</time></trkpt><trkpt lat="43.03899976318705" lon="12.154021516535934"><ele>441.0</ele><time>2026-05-03T07:01:56Z</time></trkpt><trkpt lat="43.03893048631451" lon="12.154093153303286"><ele>438.1666666666667</ele><time>2026-05-03T07:01:57Z</time></trkpt><trkpt lat="43.03885670853594" lon="12.154161266342518"><ele>435.33333333333337</ele><time>2026-05-03T07:01:58Z</time></trkpt><trkpt lat="43.03878838235354" lon="12.154237165994394"><ele>432.5</ele><time>2026-05-03T07:01:59Z</time></trkpt><trkpt lat="43.03872611364116" lon="12.154311920089182"><ele>429.6666666666667</ele><time>2026-05-03T07:02:00Z</time></trkpt><trkpt lat="43.03866860681215" lon="12.154386758346197"><ele>426.83333333333337</ele><time>2026-05-03T07:02:01Z</time></trkpt><trkpt lat="43.03860563177076" lon="12.154461196220073"><ele>424.0</ele><time>2026-05-03T07:02:02Z</time></trkpt><trkpt lat="43.03853389813359" lon="12.154533737978152"><ele>424.00000000000006</ele><time>2026-05-03T07:02:03Z</time></trkpt><trkpt lat="43.03846455340405" lon="12.15460361356013"><ele>424.0</ele><time>2026-05-03T07:02:04Z</time></trkpt><trkpt lat="43.03840567786379" lon="12.154674188269437"><ele>424.0</ele><time>2026-05-03T07:02:05Z</time></trkpt><trkpt lat="43.038350926920884" lon="12.15474312369555"><ele>424.0</ele><time>2026-05-03T07:02:06Z</time></trkpt><trkpt lat="43.038294862352814" lon="12.154808726769023"><ele>424.00000000000006</ele><time>2026-05-03T07:02:07Z</time></trkpt><trkpt lat="43.0382395164416" lon="12.154867832313018"><ele>424.0</ele><time>2026-05-03T07:02:08Z</time></trkpt><trkpt lat="43.03817785164634" lon="12.154932727296565"><ele>420.83333333333337</ele><time>2026-05-03T07:02:09Z</time></trkpt><trkpt lat="43.038115554512366" lon="12.154995200121128"><ele>417.6666666666667</ele><time>2026-05-03T07:02:10Z</time></trkpt><trkpt lat="43.038055758410195" lon="12.155059920029329"><ele>414.5</ele><time>2026-05-03T07:02:11Z</time></trkpt><trkpt lat="43.037997679521126" lon="12.155132267033673"><ele>411.33333333333337</ele><time>2026-05-03T07:02:12Z</time></trkpt><trkpt lat="43.03793891360532" lon="12.155202828092008"><ele>408.1666666666667</ele><time>2026-05-03T07:02:13Z</time></trkpt><trkpt lat="43.03787775418473" lon="12.155271308898428"><ele>405.0</ele><time>2026-05-03T07:02:14Z</time></trkpt><trkpt lat="43.03781840380384" lon="12.155342577865968"><ele>405.0</ele><time>2026-05-03T07:02:15Z</time></trkpt><trkpt lat="43.03774654913113" lon="12.155400135977539"><ele>405.0</ele><time>2026-05-03T07:02:16Z</time></trkpt><trkpt lat="43.03768150568543" lon="12.15547602632814"><ele>405.0</ele><time>2026-05-03T07:02:17Z</time></trkpt><trkpt lat="43.03761619904298" lon="12.155552867986733"><ele>405.0</ele><time>2026-05-03T07:02:18Z</time></trkpt><trkpt lat="43.0375554520173" lon="12.155626009640041"><ele>405.0</ele><time>2026-05-03T07:02:19Z</time></trkpt><trkpt lat="43.03749456316565" lon="12.155699322025411"><ele>405.0</ele><time>2026-05-03T07:02:20Z</time></trkpt><trkpt lat="43.03743758892024" lon="12.155767921272934"><ele>402.1666666666667</ele><time>2026-05-03T07:02:21Z</time></trkpt><trkpt lat="43.03738874793776" lon="12.155852299390924"><ele>399.33333333333337</ele><time>2026-05-03T07:02:22Z</time></trkpt><trkpt lat="43.03732477572667" lon="12.155917213799231"><ele>396.5</ele><time>2026-05-03T07:02:23Z</time></trkpt><trkpt lat="43.03725883110308" lon="12.155990800460676"><ele>393.6666666666667</ele><time>2026-05-03T07:02:24Z</time></trkpt><trkpt lat="43.037192601153386" lon="12.15607816171112"><ele>390.83333333333337</ele><time>2026-05-03T07:02:25Z</time></trkpt><trkpt lat="43.03713228214332" lon="12.156171651325725"><ele>388.0</ele><time>2026-05-03T07:02:26Z</time></trkpt><trkpt lat="43.03707526473656" lon="12.156264813263643"><ele>388.00000000000006</ele><time>2026-05-03T07:02:27Z</time></trkpt><trkpt lat="43.03702034660043" lon="12.156353982930964"><ele>388.0</ele><time>2026-05-03T07:02:28Z</time></trkpt><trkpt lat="43.03696744943134" lon="12.156446109408193"><ele>388.0</ele><time>2026-05-03T07:02:29Z</time></trkpt><trkpt lat="43.03692433532314" lon="12.156545946012635"><ele>388.0</ele><time>2026-05-03T07:02:30Z</time></trkpt><trkpt lat="43.03689139263541" lon="12.1566499673608"><ele>388.00000000000006</ele><time>2026-05-03T07:02:31Z</time></trkpt><trkpt lat="43.036857949971186" lon="12.156742918640711"><ele>388.0</ele><time>2026-05-03T07:02:32Z</time></trkpt><trkpt lat="43.03680597075532" lon="12.156857683091664"><ele>387.79999999999995</ele><time>2026-05-03T07:02:34Z</time></trkpt><trkpt lat="43.03674205983157" lon="12.156911227122459"><ele>387.6</ele><time>2026-05-03T07:02:36Z</time></trkpt><trkpt lat="43.036641344078745" lon="12.156796989703487"><ele>387.4</ele><time>2026-05-03T07:02:37Z</time></trkpt><trkpt lat="43.036567782815546" lon="12.156737787115363"><ele>387.20000000000005</ele><time>2026-05-03T07:02:38Z</time></trkpt><trkpt lat="43.03649027731157" lon="12.156699766123815"><ele>387.0</ele><time>2026-05-03T07:02:39Z</time></trkpt><trkpt lat="43.03640885489107" lon="12.156687866776398"><ele>384.0</ele><time>2026-05-03T07:02:40Z</time></trkpt><trkpt lat="43.03632293108737" lon="12.156703294720607"><ele>381.0</ele><time>2026-05-03T07:02:41Z</time></trkpt><trkpt lat="43.03623300185815" lon="12.156718990387958"><ele>378.0</ele><time>2026-05-03T07:02:42Z</time></trkpt><trkpt lat="43.03616191928421" lon="12.156685758039242"><ele>375.0</ele><time>2026-05-03T07:02:43Z</time></trkpt><trkpt lat="43.03608804277743" lon="12.156692819511525"><ele>372.0</ele><time>2026-05-03T07:02:44Z</time></trkpt><trkpt lat="43.036016020109365" lon="12.156674516497395"><ele>369.0</ele><time>2026-05-03T07:02:45Z</time></trkpt><trkpt lat="43.03594951553301" lon="12.156663556017678"><ele>369.0</ele><time>2026-05-03T07:02:46Z</time></trkpt><trkpt lat="43.03588369373104" lon="12.156652768096071"><ele>369.0</ele><time>2026-05-03T07:02:47Z</time></trkpt><trkpt lat="43.03581494221377" lon="12.156638022347277"><ele>369.0</ele><time>2026-05-03T07:02:48Z</time></trkpt><trkpt lat="43.035757447833284" lon="12.156593056629838"><ele>369.0</ele><time>2026-05-03T07:02:49Z</time></trkpt><trkpt lat="43.0356494160139" lon="12.156524664810906"><ele>369.0</ele><time>2026-05-03T07:02:51Z</time></trkpt><trkpt lat="43.03559585656179" lon="12.156477920896409"><ele>369.0</ele><time>2026-05-03T07:02:52Z</time></trkpt><trkpt lat="43.03553475236561" lon="12.156456371489671"><ele>369.0</ele><time>2026-05-03T07:02:53Z</time></trkpt><trkpt lat="43.03546816142861" lon="12.156419774234097"><ele>366.6666666666667</ele><time>2026-05-03T07:02:54Z</time></trkpt><trkpt lat="43.03540068555594" lon="12.156405792550379"><ele>364.3333333333333</ele><time>2026-05-03T07:02:55Z</time></trkpt><trkpt lat="43.03533567833079" lon="12.156408054874316"><ele>362.0</ele><time>2026-05-03T07:02:56Z</time></trkpt><trkpt lat="43.03522324240025" lon="12.156353448109583"><ele>359.66666666666663</ele><time>2026-05-03T07:02:58Z</time></trkpt><trkpt lat="43.035167283373845" lon="12.156301796428146"><ele>357.3333333333333</ele><time>2026-05-03T07:02:59Z</time></trkpt><trkpt lat="43.03510910951795" lon="12.15624306197738"><ele>355.0</ele><time>2026-05-03T07:03:00Z</time></trkpt><trkpt lat="43.035057449773156" lon="12.156179804159194"><ele>355.0</ele><time>2026-05-03T07:03:01Z</time></trkpt><trkpt lat="43.035003656414396" lon="12.15611911684344"><ele>355.0</ele><time>2026-05-03T07:03:02Z</time></trkpt><trkpt lat="43.034955870007494" lon="12.156032221813849"><ele>355.0</ele><time>2026-05-03T07:03:03Z</time></trkpt><trkpt lat="43.03493657584514" lon="12.155908679549107"><ele>355.0</ele><time>2026-05-03T07:03:04Z</time></trkpt><trkpt lat="43.03492229623011" lon="12.155788125020862"><ele>355.0</ele><time>2026-05-03T07:03:05Z</time></trkpt><trkpt lat="43.034900754840415" lon="12.155689205689132"><ele>355.0</ele><time>2026-05-03T07:03:06Z</time></trkpt><trkpt lat="43.03485656281155" lon="12.15562102821074"><ele>355.8333333333333</ele><time>2026-05-03T07:03:07Z</time></trkpt><trkpt lat="43.03478919684712" lon="12.155595200601905"><ele>356.66666666666663</ele><time>2026-05-03T07:03:08Z</time></trkpt><trkpt lat="43.03471963394728" lon="12.15558627992675"><ele>357.5</ele><time>2026-05-03T07:03:09Z</time></trkpt><trkpt lat="43.03462631469406" lon="12.155582334472264"><ele>358.3333333333333</ele><time>2026-05-03T07:03:10Z</time></trkpt><trkpt lat="43.03452910256631" lon="12.155575369035386"><ele>359.1666666666667</ele><time>2026-05-03T07:03:11Z</time></trkpt><trkpt lat="43.034438945112036" lon="12.15552960955373"><ele>360.0</ele><time>2026-05-03T07:03:12Z</time></trkpt><trkpt lat="43.0343493816156" lon="12.15550164950302"><ele>360.0</ele><time>2026-05-03T07:03:13Z</time></trkpt><trkpt lat="43.03425780075977" lon="12.155463989527716"><ele>360.0</ele><time>2026-05-03T07:03:14Z</time></trkpt><trkpt lat="43.03416434154366" lon="12.155421492432888"><ele>360.0</ele><time>2026-05-03T07:03:15Z</time></trkpt><trkpt lat="43.03407732144523" lon="12.15539310513715"><ele>360.0</ele><time>2026-05-03T07:03:16Z</time></trkpt><trkpt lat="43.03402311938323" lon="12.15531397596699"><ele>360.0</ele><time>2026-05-03T07:03:17Z</time></trkpt><trkpt lat="43.03396491729734" lon="12.15523645083833"><ele>360.0</ele><time>2026-05-03T07:03:18Z</time></trkpt><trkpt lat="43.033914777215294" lon="12.155148531512163"><ele>359.1666666666667</ele><time>2026-05-03T07:03:19Z</time></trkpt><trkpt lat="43.03386661223684" lon="12.15505659266358"><ele>358.3333333333333</ele><time>2026-05-03T07:03:20Z</time></trkpt><trkpt lat="43.03381686566414" lon="12.15497719086511"><ele>357.5</ele><time>2026-05-03T07:03:21Z</time></trkpt><trkpt lat="43.033779760440815" lon="12.154882527616252"><ele>356.66666666666663</ele><time>2026-05-03T07:03:22Z</time></trkpt><trkpt lat="43.03373342301405" lon="12.154774751943766"><ele>355.8333333333333</ele><time>2026-05-03T07:03:23Z</time></trkpt><trkpt lat="43.033689669280214" lon="12.154674552474292"><ele>355.0</ele><time>2026-05-03T07:03:24Z</time></trkpt><trkpt lat="43.03364247993705" lon="12.154581407442057"><ele>355.0</ele><time>2026-05-03T07:03:25Z</time></trkpt><trkpt lat="43.0335936871546" lon="12.15450230203536"><ele>355.0</ele><time>2026-05-03T07:03:26Z</time></trkpt><trkpt lat="43.03354256321377" lon="12.154444364934085"><ele>355.0</ele><time>2026-05-03T07:03:27Z</time></trkpt><trkpt lat="43.03343988595679" lon="12.15435215217967"><ele>355.0</ele><time>2026-05-03T07:03:29Z</time></trkpt><trkpt lat="43.03333251694369" lon="12.154272143616351"><ele>355.0</ele><time>2026-05-03T07:03:31Z</time></trkpt><trkpt lat="43.03326788346356" lon="12.154255376959805"><ele>351.4</ele><time>2026-05-03T07:03:32Z</time></trkpt><trkpt lat="43.03315850000084" lon="12.154287383286084"><ele>347.8</ele><time>2026-05-03T07:03:34Z</time></trkpt><trkpt lat="43.03307077152392" lon="12.154205619010233"><ele>344.20000000000005</ele><time>2026-05-03T07:03:36Z</time></trkpt><trkpt lat="43.03303999104789" lon="12.154086594548277"><ele>340.6</ele><time>2026-05-03T07:03:38Z</time></trkpt><trkpt lat="43.033081257304964" lon="12.153943553391315"><ele>337.0</ele><time>2026-05-03T07:03:40Z</time></trkpt><trkpt lat="43.03310865290562" lon="12.15385835409445"><ele>337.0</ele><time>2026-05-03T07:03:41Z</time></trkpt><trkpt lat="43.033134239009456" lon="12.15375238841369"><ele>337.0</ele><time>2026-05-03T07:03:42Z</time></trkpt><trkpt lat="43.03315878295112" lon="12.153642577802461"><ele>337.0</ele><time>2026-05-03T07:03:43Z</time></trkpt><trkpt lat="43.03318097475027" lon="12.153524678016806"><ele>337.0</ele><time>2026-05-03T07:03:44Z</time></trkpt><trkpt lat="43.03320233919339" lon="12.153398789200152"><ele>337.0</ele><time>2026-05-03T07:03:45Z</time></trkpt><trkpt lat="43.03322690834621" lon="12.153286884745283"><ele>337.0</ele><time>2026-05-03T07:03:46Z</time></trkpt><trkpt lat="43.03324560377231" lon="12.153185071956553"><ele>337.42857142857144</ele><time>2026-05-03T07:03:47Z</time></trkpt><trkpt lat="43.03324132326395" lon="12.153096542487264"><ele>337.8571428571429</ele><time>2026-05-03T07:03:48Z</time></trkpt><trkpt lat="43.03320513992379" lon="12.153019962890687"><ele>338.28571428571433</ele><time>2026-05-03T07:03:49Z</time></trkpt><trkpt lat="43.033141625018786" lon="12.152953680011427"><ele>338.7142857142857</ele><time>2026-05-03T07:03:50Z</time></trkpt><trkpt lat="43.033064035509994" lon="12.152910348391346"><ele>339.1428571428571</ele><time>2026-05-03T07:03:51Z</time></trkpt><trkpt lat="43.03299939232475" lon="12.152850045932912"><ele>339.5714285714286</ele><time>2026-05-03T07:03:52Z</time></trkpt><trkpt lat="43.03294014723625" lon="12.152794780244921"><ele>340.0</ele><time>2026-05-03T07:03:53Z</time></trkpt><trkpt lat="43.03288360715442" lon="12.152750663207819"><ele>340.0</ele><time>2026-05-03T07:03:54Z</time></trkpt><trkpt lat="43.032793205613764" lon="12.152674766866623"><ele>340.0</ele><time>2026-05-03T07:03:56Z</time></trkpt><trkpt lat="43.03290307049046" lon="12.15228781184727"><ele>340.0</ele><time>2026-05-03T07:03:58Z</time></trkpt><trkpt lat="43.03296130128615" lon="12.15214450437986"><ele>339.4</ele><time>2026-05-03T07:04:00Z</time></trkpt><trkpt lat="43.032998147457846" lon="12.152064212011885"><ele>338.8</ele><time>2026-05-03T07:04:01Z</time></trkpt><trkpt lat="43.03304845526095" lon="12.15199765600352"><ele>338.20000000000005</ele><time>2026-05-03T07:04:02Z</time></trkpt><trkpt lat="43.03320377053939" lon="12.151946821990686"><ele>337.6</ele><time>2026-05-03T07:04:04Z</time></trkpt><trkpt lat="43.03333749419158" lon="12.151899360940968"><ele>337.0</ele><time>2026-05-03T07:04:05Z</time></trkpt><trkpt lat="43.03348972151449" lon="12.151813452246612"><ele>339.5</ele><time>2026-05-03T07:04:06Z</time></trkpt><trkpt lat="43.0336628504535" lon="12.151727160346542"><ele>342.0</ele><time>2026-05-03T07:04:07Z</time></trkpt><trkpt lat="43.03378993258301" lon="12.151666971490998"><ele>344.5</ele><time>2026-05-03T07:04:08Z</time></trkpt><trkpt lat="43.03388138294451" lon="12.151622725924204"><ele>347.0</ele><time>2026-05-03T07:04:09Z</time></trkpt><trkpt lat="43.03393419026008" lon="12.151572788629567"><ele>347.0</ele><time>2026-05-03T07:04:10Z</time></trkpt><trkpt lat="43.033905397663865" lon="12.15142464253969"><ele>347.0</ele><time>2026-05-03T07:04:12Z</time></trkpt><trkpt lat="43.033835465133" lon="12.15135570795604"><ele>347.0</ele><time>2026-05-03T07:04:13Z</time></trkpt><trkpt lat="43.03376214181428" lon="12.151272421666857"><ele>347.0</ele><time>2026-05-03T07:04:14Z</time></trkpt><trkpt lat="43.03366865322635" lon="12.151185112436897"><ele>347.0</ele><time>2026-05-03T07:04:15Z</time></trkpt><trkpt lat="43.033577947293075" lon="12.151110447345783"><ele>347.0</ele><time>2026-05-03T07:04:16Z</time></trkpt><trkpt lat="43.033512004166965" lon="12.151036926850649"><ele>347.0</ele><time>2026-05-03T07:04:17Z</time></trkpt><trkpt lat="43.0334659950517" lon="12.150945543293426"><ele>347.0</ele><time>2026-05-03T07:04:18Z</time></trkpt><trkpt lat="43.033418438647864" lon="12.150849757023309"><ele>347.0</ele><time>2026-05-03T07:04:19Z</time></trkpt><trkpt lat="43.03336681805163" lon="12.150747178473473"><ele>347.0</ele><time>2026-05-03T07:04:20Z</time></trkpt><trkpt lat="43.033306965880946" lon="12.150639306008987"><ele>347.0</ele><time>2026-05-03T07:04:21Z</time></trkpt><trkpt lat="43.03325667274584" lon="12.150529967657475"><ele>344.7142857142857</ele><time>2026-05-03T07:04:22Z</time></trkpt><trkpt lat="43.03321863989607" lon="12.150437818499631"><ele>342.4285714285714</ele><time>2026-05-03T07:04:23Z</time></trkpt><trkpt lat="43.03319215512817" lon="12.150339322795034"><ele>340.1428571428571</ele><time>2026-05-03T07:04:24Z</time></trkpt><trkpt lat="43.03318360264663" lon="12.150240721774832"><ele>337.8571428571429</ele><time>2026-05-03T07:04:25Z</time></trkpt><trkpt lat="43.03319120439861" lon="12.150133534771113"><ele>335.57142857142856</ele><time>2026-05-03T07:04:26Z</time></trkpt><trkpt lat="43.03321143587219" lon="12.150041342493461"><ele>333.2857142857143</ele><time>2026-05-03T07:04:27Z</time></trkpt><trkpt lat="43.033238376355904" lon="12.149960946251653"><ele>331.0</ele><time>2026-05-03T07:04:28Z</time></trkpt><trkpt lat="43.033264356221665" lon="12.149882485135157"><ele>331.0</ele><time>2026-05-03T07:04:29Z</time></trkpt><trkpt lat="43.03330184784693" lon="12.149806705028018"><ele>331.0</ele><time>2026-05-03T07:04:30Z</time></trkpt><trkpt lat="43.033360320607" lon="12.149723464009993"><ele>331.0</ele><time>2026-05-03T07:04:31Z</time></trkpt><trkpt lat="43.033424206160525" lon="12.14965101570481"><ele>331.0</ele><time>2026-05-03T07:04:32Z</time></trkpt><trkpt lat="43.03348721646466" lon="12.149577272777407"><ele>331.0</ele><time>2026-05-03T07:04:33Z</time></trkpt><trkpt lat="43.033551854449804" lon="12.149514413951472"><ele>331.0</ele><time>2026-05-03T07:04:34Z</time></trkpt><trkpt lat="43.033621797533385" lon="12.149468079851376"><ele>333.4</ele><time>2026-05-03T07:04:35Z</time></trkpt><trkpt lat="43.033698333578315" lon="12.149428825183492"><ele>335.8</ele><time>2026-05-03T07:04:36Z</time></trkpt><trkpt lat="43.03382902507427" lon="12.149449706247399"><ele>338.2</ele><time>2026-05-03T07:04:38Z</time></trkpt><trkpt lat="43.03391728269363" lon="12.149477729901326"><ele>340.59999999999997</ele><time>2026-05-03T07:04:39Z</time></trkpt><trkpt lat="43.03401964440868" lon="12.149473061845255"><ele>343.0</ele><time>2026-05-03T07:04:40Z</time></trkpt><trkpt lat="43.03410361894928" lon="12.149447716698687"><ele>345.0</ele><time>2026-05-03T07:04:41Z</time></trkpt><trkpt lat="43.03417215433924" lon="12.149405113519647"><ele>347.0</ele><time>2026-05-03T07:04:42Z</time></trkpt><trkpt lat="43.03423069331037" lon="12.149361361476027"><ele>349.0</ele><time>2026-05-03T07:04:43Z</time></trkpt><trkpt lat="43.03430601448853" lon="12.14926842405787"><ele>351.0</ele><time>2026-05-03T07:04:45Z</time></trkpt><trkpt lat="43.03423468813406" lon="12.149135206118022"><ele>353.0</ele><time>2026-05-03T07:04:47Z</time></trkpt><trkpt lat="43.03414055442373" lon="12.14910620325942"><ele>352.0</ele><time>2026-05-03T07:04:48Z</time></trkpt><trkpt lat="43.03404943558441" lon="12.149066811269925"><ele>351.0</ele><time>2026-05-03T07:04:49Z</time></trkpt><trkpt lat="43.03398499972093" lon="12.149003997668256"><ele>350.0</ele><time>2026-05-03T07:04:50Z</time></trkpt><trkpt lat="43.03395213129724" lon="12.148919375712538"><ele>349.0</ele><time>2026-05-03T07:04:51Z</time></trkpt><trkpt lat="43.033922804078195" lon="12.148803613117275"><ele>348.0</ele><time>2026-05-03T07:04:52Z</time></trkpt><trkpt lat="43.03389458987662" lon="12.148698503315746"><ele>347.0</ele><time>2026-05-03T07:04:53Z</time></trkpt><trkpt lat="43.03390508069408" lon="12.148544856249636"><ele>347.0</ele><time>2026-05-03T07:04:55Z</time></trkpt><trkpt lat="43.033942412308605" lon="12.148355257967653"><ele>347.0</ele><time>2026-05-03T07:04:57Z</time></trkpt><trkpt lat="43.033974890592184" lon="12.148235989095781"><ele>347.0</ele><time>2026-05-03T07:04:58Z</time></trkpt><trkpt lat="43.03401269855303" lon="12.148139685651932"><ele>347.0</ele><time>2026-05-03T07:04:59Z</time></trkpt><trkpt lat="43.034059874959716" lon="12.14806659081646"><ele>347.0</ele><time>2026-05-03T07:05:00Z</time></trkpt><trkpt lat="43.03411804106427" lon="12.147969675674187"><ele>347.0</ele><time>2026-05-03T07:05:01Z</time></trkpt><trkpt lat="43.03415645843951" lon="12.147860435486722"><ele>347.0</ele><time>2026-05-03T07:05:02Z</time></trkpt><trkpt lat="43.03415943890881" lon="12.14774731777091"><ele>347.0</ele><time>2026-05-03T07:05:03Z</time></trkpt><trkpt lat="43.034130684576326" lon="12.147633191431536"><ele>347.0</ele><time>2026-05-03T07:05:04Z</time></trkpt><trkpt lat="43.03410673102312" lon="12.147512630766599"><ele>347.0</ele><time>2026-05-03T07:05:05Z</time></trkpt><trkpt lat="43.03409041601547" lon="12.14740509482971"><ele>347.0</ele><time>2026-05-03T07:05:06Z</time></trkpt><trkpt lat="43.03411472462766" lon="12.147249896675854"><ele>348.8</ele><time>2026-05-03T07:05:08Z</time></trkpt><trkpt lat="43.03417063890287" lon="12.147173544193462"><ele>350.6</ele><time>2026-05-03T07:05:09Z</time></trkpt><trkpt lat="43.0342388993397" lon="12.14708198086327"><ele>352.40000000000003</ele><time>2026-05-03T07:05:10Z</time></trkpt><trkpt lat="43.034311098633026" lon="12.146974858649006"><ele>354.20000000000005</ele><time>2026-05-03T07:05:11Z</time></trkpt><trkpt lat="43.03439235698562" lon="12.146869180855795"><ele>356.0</ele><time>2026-05-03T07:05:12Z</time></trkpt><trkpt lat="43.03448176865394" lon="12.146790586336225"><ele>356.0</ele><time>2026-05-03T07:05:13Z</time></trkpt><trkpt lat="43.03458669012898" lon="12.146726976391415"><ele>356.0</ele><time>2026-05-03T07:05:14Z</time></trkpt><trkpt lat="43.034700057724976" lon="12.146657117262016"><ele>356.0</ele><time>2026-05-03T07:05:15Z</time></trkpt><trkpt lat="43.03479933723316" lon="12.146587248295376"><ele>356.0</ele><time>2026-05-03T07:05:16Z</time></trkpt><trkpt lat="43.034897970554084" lon="12.146523176933478"><ele>358.75</ele><time>2026-05-03T07:05:17Z</time></trkpt><trkpt lat="43.03500743727603" lon="12.146444158530912"><ele>361.5</ele><time>2026-05-03T07:05:18Z</time></trkpt><trkpt lat="43.03510697971654" lon="12.146350999883959"><ele>364.25</ele><time>2026-05-03T07:05:19Z</time></trkpt><trkpt lat="43.03520646772498" lon="12.146252131761127"><ele>367.0</ele><time>2026-05-03T07:05:20Z</time></trkpt><trkpt lat="43.03531090702878" lon="12.146141175408445"><ele>367.0</ele><time>2026-05-03T07:05:21Z</time></trkpt><trkpt lat="43.03543183686629" lon="12.14603884008"><ele>367.0</ele><time>2026-05-03T07:05:22Z</time></trkpt><trkpt lat="43.03554259114085" lon="12.145961741351497"><ele>367.0</ele><time>2026-05-03T07:05:23Z</time></trkpt><trkpt lat="43.035624197180084" lon="12.145894324144317"><ele>367.0</ele><time>2026-05-03T07:05:24Z</time></trkpt><trkpt lat="43.03568013702327" lon="12.145812012488987"><ele>367.0</ele><time>2026-05-03T07:05:25Z</time></trkpt><trkpt lat="43.03570319107136" lon="12.145724035334688"><ele>367.0</ele><time>2026-05-03T07:05:26Z</time></trkpt><trkpt lat="43.03567985876211" lon="12.145639373478497"><ele>367.0</ele><time>2026-05-03T07:05:27Z</time></trkpt><trkpt lat="43.0356167836392" lon="12.145560402796278"><ele>367.0</ele><time>2026-05-03T07:05:28Z</time></trkpt><trkpt lat="43.03553793890901" lon="12.145518151876509"><ele>367.0</ele><time>2026-05-03T07:05:29Z</time></trkpt><trkpt lat="43.0354594784872" lon="12.145473287435609"><ele>367.0</ele><time>2026-05-03T07:05:30Z</time></trkpt><trkpt lat="43.03538905287109" lon="12.145382617467746"><ele>367.0</ele><time>2026-05-03T07:05:31Z</time></trkpt><trkpt lat="43.035350272505156" lon="12.145263749404316"><ele>367.0</ele><time>2026-05-03T07:05:32Z</time></trkpt><trkpt lat="43.03535370083608" lon="12.145136183888024"><ele>367.0</ele><time>2026-05-03T07:05:33Z</time></trkpt><trkpt lat="43.03538345326488" lon="12.145016248639033"><ele>367.0</ele><time>2026-05-03T07:05:34Z</time></trkpt><trkpt lat="43.035429127333195" lon="12.144884221736401"><ele>367.0</ele><time>2026-05-03T07:05:35Z</time></trkpt><trkpt lat="43.03548716447435" lon="12.144757099240332"><ele>367.0</ele><time>2026-05-03T07:05:36Z</time></trkpt><trkpt lat="43.03556820586382" lon="12.144618308528038"><ele>369.25</ele><time>2026-05-03T07:05:37Z</time></trkpt><trkpt lat="43.03564820464598" lon="12.14447908113249"><ele>371.5</ele><time>2026-05-03T07:05:38Z</time></trkpt><trkpt lat="43.03572572422734" lon="12.144303211448406"><ele>373.75</ele><time>2026-05-03T07:05:39Z</time></trkpt><trkpt lat="43.03580859283153" lon="12.144109660443291"><ele>376.0</ele><time>2026-05-03T07:05:40Z</time></trkpt><trkpt lat="43.03589241368833" lon="12.143929423993129"><ele>380.25</ele><time>2026-05-03T07:05:41Z</time></trkpt><trkpt lat="43.03596633435728" lon="12.14378115022384"><ele>384.5</ele><time>2026-05-03T07:05:42Z</time></trkpt><trkpt lat="43.036028894572695" lon="12.143624482009002"><ele>388.75</ele><time>2026-05-03T07:05:43Z</time></trkpt><trkpt lat="43.03606666743742" lon="12.143455347506743"><ele>393.0</ele><time>2026-05-03T07:05:44Z</time></trkpt><trkpt lat="43.03610425293495" lon="12.143312448118557"><ele>396.0</ele><time>2026-05-03T07:05:45Z</time></trkpt><trkpt lat="43.036143293202215" lon="12.143196277980275"><ele>399.0</ele><time>2026-05-03T07:05:46Z</time></trkpt><trkpt lat="43.03618088135755" lon="12.143083919032424"><ele>402.0</ele><time>2026-05-03T07:05:47Z</time></trkpt><trkpt lat="43.03621155495488" lon="12.142986436159328"><ele>405.0</ele><time>2026-05-03T07:05:48Z</time></trkpt><trkpt lat="43.036237101711386" lon="12.142905787790033"><ele>408.0</ele><time>2026-05-03T07:05:49Z</time></trkpt><trkpt lat="43.03628508470805" lon="12.142771547129449"><ele>411.0</ele><time>2026-05-03T07:05:51Z</time></trkpt><trkpt lat="43.03632167135296" lon="12.142689283952347"><ele>411.0</ele><time>2026-05-03T07:05:53Z</time></trkpt><trkpt lat="43.03637734365708" lon="12.14263707224779"><ele>411.0</ele><time>2026-05-03T07:05:57Z</time></trkpt><trkpt lat="43.03631145803015" lon="12.142637627499475"><ele>411.0</ele><time>2026-05-03T07:06:00Z</time></trkpt><trkpt lat="43.03627547493957" lon="12.142713861214036"><ele>411.0</ele><time>2026-05-03T07:06:02Z</time></trkpt><trkpt lat="43.03619955261028" lon="12.142749263935595"><ele>411.0</ele><time>2026-05-03T07:06:05Z</time></trkpt><trkpt lat="43.03613371646043" lon="12.14280330264269"><ele>411.0</ele><time>2026-05-03T07:06:08Z</time></trkpt><trkpt lat="43.03604251277967" lon="12.142879858985989"><ele>411.0</ele><time>2026-05-03T07:06:10Z</time></trkpt><trkpt lat="43.03597743952278" lon="12.142928664179136"><ele>411.0</ele><time>2026-05-03T07:06:11Z</time></trkpt><trkpt lat="43.03589341365138" lon="12.142979288212057"><ele>411.0</ele><time>2026-05-03T07:06:12Z</time></trkpt><trkpt lat="43.03581492618137" lon="12.143062096429915"><ele>411.0</ele><time>2026-05-03T07:06:13Z</time></trkpt><trkpt lat="43.035734099228115" lon="12.14312935109053"><ele>411.0</ele><time>2026-05-03T07:06:14Z</time></trkpt><trkpt lat="43.03566164038032" lon="12.143188516603391"><ele>411.0</ele><time>2026-05-03T07:06:15Z</time></trkpt><trkpt lat="43.03559528420307" lon="12.143226915129164"><ele>408.4</ele><time>2026-05-03T07:06:16Z</time></trkpt><trkpt lat="43.03547925382551" lon="12.14324418815828"><ele>405.8</ele><time>2026-05-03T07:06:18Z</time></trkpt><trkpt lat="43.03539559953106" lon="12.143287779593098"><ele>403.2</ele><time>2026-05-03T07:06:19Z</time></trkpt><trkpt lat="43.0352884988543" lon="12.143351277369748"><ele>400.59999999999997</ele><time>2026-05-03T07:06:20Z</time></trkpt><trkpt lat="43.03517960742991" lon="12.143411292708471"><ele>398.0</ele><time>2026-05-03T07:06:21Z</time></trkpt><trkpt lat="43.03509214655838" lon="12.143458598878354"><ele>398.0</ele><time>2026-05-03T07:06:22Z</time></trkpt><trkpt lat="43.03501218188492" lon="12.143490631286355"><ele>398.0</ele><time>2026-05-03T07:06:23Z</time></trkpt><trkpt lat="43.03490975688883" lon="12.143527259752073"><ele>398.0</ele><time>2026-05-03T07:06:24Z</time></trkpt><trkpt lat="43.03481331576957" lon="12.143574037071739"><ele>398.0</ele><time>2026-05-03T07:06:25Z</time></trkpt><trkpt lat="43.03472496871197" lon="12.143598304749453"><ele>398.0</ele><time>2026-05-03T07:06:26Z</time></trkpt><trkpt lat="43.034651252512106" lon="12.143608585684083"><ele>397.85714285714283</ele><time>2026-05-03T07:06:27Z</time></trkpt><trkpt lat="43.03457458448638" lon="12.143612649885752"><ele>397.7142857142857</ele><time>2026-05-03T07:06:28Z</time></trkpt><trkpt lat="43.034506108361136" lon="12.143599008747795"><ele>397.57142857142856</ele><time>2026-05-03T07:06:29Z</time></trkpt><trkpt lat="43.03443980221331" lon="12.143572186118284"><ele>397.42857142857144</ele><time>2026-05-03T07:06:30Z</time></trkpt><trkpt lat="43.034373677554335" lon="12.143542030158471"><ele>397.2857142857143</ele><time>2026-05-03T07:06:31Z</time></trkpt><trkpt lat="43.03430560131268" lon="12.143500486275776"><ele>397.1428571428571</ele><time>2026-05-03T07:06:32Z</time></trkpt><trkpt lat="43.03424444738653" lon="12.143460127228414"><ele>397.0</ele><time>2026-05-03T07:06:33Z</time></trkpt><trkpt lat="43.03417583265926" lon="12.143418358840018"><ele>398.8</ele><time>2026-05-03T07:06:34Z</time></trkpt><trkpt lat="43.034101089771156" lon="12.143349201249883"><ele>400.6</ele><time>2026-05-03T07:06:35Z</time></trkpt><trkpt lat="43.034020047098984" lon="12.143258077664605"><ele>402.40000000000003</ele><time>2026-05-03T07:06:36Z</time></trkpt><trkpt lat="43.033934055376264" lon="12.143182237580936"><ele>404.20000000000005</ele><time>2026-05-03T07:06:37Z</time></trkpt><trkpt lat="43.03383383108393" lon="12.143141824887856"><ele>406.0</ele><time>2026-05-03T07:06:38Z</time></trkpt><trkpt lat="43.03374182632654" lon="12.1430965050064"><ele>406.00000000000006</ele><time>2026-05-03T07:06:39Z</time></trkpt><trkpt lat="43.03366668901934" lon="12.14303767632781"><ele>406.0</ele><time>2026-05-03T07:06:40Z</time></trkpt><trkpt lat="43.033592044401864" lon="12.142977173387473"><ele>406.0</ele><time>2026-05-03T07:06:41Z</time></trkpt><trkpt lat="43.0335215436583" lon="12.142907884508066"><ele>406.0</ele><time>2026-05-03T07:06:42Z</time></trkpt><trkpt lat="43.03346321613112" lon="12.142829309592006"><ele>406.00000000000006</ele><time>2026-05-03T07:06:43Z</time></trkpt><trkpt lat="43.033410593445176" lon="12.14274663785887"><ele>406.0</ele><time>2026-05-03T07:06:44Z</time></trkpt><trkpt lat="43.03333864173487" lon="12.14266609883403"><ele>407.1666666666667</ele><time>2026-05-03T07:06:45Z</time></trkpt><trkpt lat="43.03325277010094" lon="12.142591462462846"><ele>408.33333333333337</ele><time>2026-05-03T07:06:46Z</time></trkpt><trkpt lat="43.03318135095559" lon="12.14253255134232"><ele>409.5</ele><time>2026-05-03T07:06:47Z</time></trkpt><trkpt lat="43.03311090575808" lon="12.14248127605957"><ele>410.66666666666663</ele><time>2026-05-03T07:06:48Z</time></trkpt><trkpt lat="43.03304158681078" lon="12.142423572801649"><ele>411.8333333333333</ele><time>2026-05-03T07:06:49Z</time></trkpt><trkpt lat="43.03297485602246" lon="12.142348412160919"><ele>413.0</ele><time>2026-05-03T07:06:50Z</time></trkpt><trkpt lat="43.032910214515255" lon="12.142282117129588"><ele>413.0</ele><time>2026-05-03T07:06:51Z</time></trkpt><trkpt lat="43.032846556152094" lon="12.142204590940759"><ele>413.0</ele><time>2026-05-03T07:06:52Z</time></trkpt><trkpt lat="43.03278324419168" lon="12.142116135784566"><ele>413.0</ele><time>2026-05-03T07:06:53Z</time></trkpt><trkpt lat="43.03272851860772" lon="12.14204668851472"><ele>413.0</ele><time>2026-05-03T07:06:54Z</time></trkpt><trkpt lat="43.03267735686462" lon="12.141903747830687"><ele>413.0</ele><time>2026-05-03T07:06:56Z</time></trkpt><trkpt lat="43.03263718459932" lon="12.141801596108058"><ele>412.99999999999994</ele><time>2026-05-03T07:06:58Z</time></trkpt><trkpt lat="43.032558458065544" lon="12.141738646501755"><ele>413.0</ele><time>2026-05-03T07:07:02Z</time></trkpt><trkpt lat="43.032495937375494" lon="12.141715403453544"><ele>413.0</ele><time>2026-05-03T07:07:03Z</time></trkpt><trkpt lat="43.03243113904149" lon="12.141735500385588"><ele>413.0</ele><time>2026-05-03T07:07:04Z</time></trkpt><trkpt lat="43.03232230595123" lon="12.14177729707767"><ele>412.99999999999994</ele><time>2026-05-03T07:07:06Z</time></trkpt><trkpt lat="43.0322168549018" lon="12.141789919096018"><ele>413.0</ele><time>2026-05-03T07:07:08Z</time></trkpt><trkpt lat="43.032117464119466" lon="12.141888270637555"><ele>414.79999999999995</ele><time>2026-05-03T07:07:10Z</time></trkpt><trkpt lat="43.03205263711151" lon="12.141926965075674"><ele>416.6</ele><time>2026-05-03T07:07:11Z</time></trkpt><trkpt lat="43.0319456798329" lon="12.141950347934882"><ele>418.4</ele><time>2026-05-03T07:07:13Z</time></trkpt><trkpt lat="43.03187497280036" lon="12.14200713940378"><ele>420.20000000000005</ele><time>2026-05-03T07:07:15Z</time></trkpt><trkpt lat="43.031781612008125" lon="12.142102305761014"><ele>422.0</ele><time>2026-05-03T07:07:17Z</time></trkpt><trkpt lat="43.031648491015915" lon="12.142044677946984"><ele>422.6</ele><time>2026-05-03T07:07:19Z</time></trkpt><trkpt lat="43.03153246943128" lon="12.142001853728802"><ele>423.20000000000005</ele><time>2026-05-03T07:07:20Z</time></trkpt><trkpt lat="43.031417828903486" lon="12.14197368998653"><ele>423.8</ele><time>2026-05-03T07:07:21Z</time></trkpt><trkpt lat="43.03131288552811" lon="12.141941858154455"><ele>424.4</ele><time>2026-05-03T07:07:22Z</time></trkpt><trkpt lat="43.03122378104521" lon="12.141939770530337"><ele>425.0</ele><time>2026-05-03T07:07:23Z</time></trkpt><trkpt lat="43.0311471599438" lon="12.141928742439037"><ele>425.0</ele><time>2026-05-03T07:07:24Z</time></trkpt><trkpt lat="43.031067743999124" lon="12.141915625119795"><ele>425.0</ele><time>2026-05-03T07:07:25Z</time></trkpt><trkpt lat="43.03098329626394" lon="12.14190272104136"><ele>425.0</ele><time>2026-05-03T07:07:26Z</time></trkpt><trkpt lat="43.03090196446644" lon="12.141888613717025"><ele>425.0</ele><time>2026-05-03T07:07:27Z</time></trkpt><trkpt lat="43.03083832888272" lon="12.141873588504003"><ele>425.0</ele><time>2026-05-03T07:07:28Z</time></trkpt><trkpt lat="43.03077185634159" lon="12.141904077885517"><ele>425.0</ele><time>2026-05-03T07:07:29Z</time></trkpt><trkpt lat="43.03071347356107" lon="12.141936701197718"><ele>425.0</ele><time>2026-05-03T07:07:30Z</time></trkpt><trkpt lat="43.030648864764856" lon="12.141994225691306"><ele>426.0</ele><time>2026-05-03T07:07:31Z</time></trkpt><trkpt lat="43.03056516087893" lon="12.142028874809242"><ele>427.0</ele><time>2026-05-03T07:07:32Z</time></trkpt><trkpt lat="43.03048955962423" lon="12.14207130177946"><ele>428.0</ele><time>2026-05-03T07:07:33Z</time></trkpt><trkpt lat="43.0304256495909" lon="12.142117495217375"><ele>429.0</ele><time>2026-05-03T07:07:34Z</time></trkpt><trkpt lat="43.03036934181856" lon="12.142169845531496"><ele>430.0</ele><time>2026-05-03T07:07:36Z</time></trkpt><trkpt lat="43.030298863474535" lon="12.142185813110155"><ele>431.0</ele><time>2026-05-03T07:07:38Z</time></trkpt><trkpt lat="43.03023848369451" lon="12.142210609836198"><ele>432.0</ele><time>2026-05-03T07:07:39Z</time></trkpt><trkpt lat="43.030165446895445" lon="12.142236153223044"><ele>432.0</ele><time>2026-05-03T07:07:42Z</time></trkpt><trkpt lat="43.03009089002781" lon="12.142249584998256"><ele>432.00000000000006</ele><time>2026-05-03T07:07:43Z</time></trkpt><trkpt lat="43.03002370598456" lon="12.142248944486399"><ele>432.00000000000006</ele><time>2026-05-03T07:07:45Z</time></trkpt><trkpt lat="43.029959314125534" lon="12.142270887231845"><ele>432.0</ele><time>2026-05-03T07:07:50Z</time></trkpt><trkpt lat="43.02988764524462" lon="12.14227776422784"><ele>432.0</ele><time>2026-05-03T07:07:52Z</time></trkpt><trkpt lat="43.02964651594841" lon="12.142308042458499"><ele>430.0</ele><time>2026-05-03T07:07:54Z</time></trkpt><trkpt lat="43.02957556570095" lon="12.142294771513301"><ele>428.0</ele><time>2026-05-03T07:07:55Z</time></trkpt><trkpt lat="43.02947317234399" lon="12.142184291600874"><ele>426.0</ele><time>2026-05-03T07:07:57Z</time></trkpt><trkpt lat="43.02941777330355" lon="12.142136198120436"><ele>424.0</ele><time>2026-05-03T07:07:58Z</time></trkpt><trkpt lat="43.0293652974692" lon="12.142079913355177"><ele>422.0</ele><time>2026-05-03T07:07:59Z</time></trkpt><trkpt lat="43.029323824197064" lon="12.141983276272928"><ele>420.0</ele><time>2026-05-03T07:08:00Z</time></trkpt><trkpt lat="43.029253891026414" lon="12.141941276654107"><ele>420.0</ele><time>2026-05-03T07:08:01Z</time></trkpt><trkpt lat="43.029207701405724" lon="12.141879529177798"><ele>420.0</ele><time>2026-05-03T07:08:02Z</time></trkpt><trkpt lat="43.02914675075049" lon="12.141720253054151"><ele>420.0</ele><time>2026-05-03T07:08:04Z</time></trkpt><trkpt lat="43.029110412342526" lon="12.141628138949304"><ele>420.0</ele><time>2026-05-03T07:08:05Z</time></trkpt><trkpt lat="43.02906750944259" lon="12.141546480764097"><ele>420.0</ele><time>2026-05-03T07:08:06Z</time></trkpt><trkpt lat="43.02902255693739" lon="12.141472257912278"><ele>420.0</ele><time>2026-05-03T07:08:07Z</time></trkpt><trkpt lat="43.02897280704884" lon="12.14141906030931"><ele>422.4</ele><time>2026-05-03T07:08:08Z</time></trkpt><trkpt lat="43.028904232575755" lon="12.141345158700815"><ele>424.8</ele><time>2026-05-03T07:08:10Z</time></trkpt><trkpt lat="43.02895503953055" lon="12.141211666496538"><ele>427.20000000000005</ele><time>2026-05-03T07:08:12Z</time></trkpt><trkpt lat="43.02896757774213" lon="12.141122329277522"><ele>429.6</ele><time>2026-05-03T07:08:13Z</time></trkpt><trkpt lat="43.02887661208222" lon="12.140996890455046"><ele>432.0</ele><time>2026-05-03T07:08:15Z</time></trkpt><trkpt lat="43.02880605620847" lon="12.1409729663898"><ele>432.0</ele><time>2026-05-03T07:08:16Z</time></trkpt><trkpt lat="43.028714848533916" lon="12.140962614176056"><ele>432.0</ele><time>2026-05-03T07:08:18Z</time></trkpt><trkpt lat="43.028592744058486" lon="12.140947618066603"><ele>432.0</ele><time>2026-05-03T07:08:20Z</time></trkpt><trkpt lat="43.028522426668125" lon="12.140971920823928"><ele>432.0</ele><time>2026-05-03T07:08:21Z</time></trkpt><trkpt lat="43.02844166471222" lon="12.140971960588347"><ele>432.0</ele><time>2026-05-03T07:08:23Z</time></trkpt><trkpt lat="43.02838055204408" lon="12.141015088350587"><ele>432.0</ele><time>2026-05-03T07:08:24Z</time></trkpt><trkpt lat="43.028259322581114" lon="12.141072459916451"><ele>431.8</ele><time>2026-05-03T07:08:26Z</time></trkpt><trkpt lat="43.02817220034624" lon="12.14103630068857"><ele>431.6</ele><time>2026-05-03T07:08:28Z</time></trkpt><trkpt lat="43.02815894593366" lon="12.140870790465911"><ele>431.40000000000003</ele><time>2026-05-03T07:08:30Z</time></trkpt><trkpt lat="43.028130378561976" lon="12.140790614744073"><ele>431.20000000000005</ele><time>2026-05-03T07:08:31Z</time></trkpt><trkpt lat="43.02806733541375" lon="12.140674333455369"><ele>431.0</ele><time>2026-05-03T07:08:33Z</time></trkpt><trkpt lat="43.028032947258296" lon="12.140597458545104"><ele>430.99999999999994</ele><time>2026-05-03T07:09:17Z</time></trkpt><trkpt lat="43.027960803821315" lon="12.140517699636906"><ele>431.0</ele><time>2026-05-03T07:09:19Z</time></trkpt><trkpt lat="43.02788864883746" lon="12.140499079546881"><ele>431.0</ele><time>2026-05-03T07:09:20Z</time></trkpt><trkpt lat="43.02780761124092" lon="12.14048312273112"><ele>431.0</ele><time>2026-05-03T07:09:21Z</time></trkpt><trkpt lat="43.027717888133495" lon="12.140458451941154"><ele>430.99999999999994</ele><time>2026-05-03T07:09:22Z</time></trkpt><trkpt lat="43.02762211397854" lon="12.140443997324446"><ele>431.0</ele><time>2026-05-03T07:09:23Z</time></trkpt><trkpt lat="43.02752569457123" lon="12.140427572266116"><ele>431.20000000000005</ele><time>2026-05-03T07:09:24Z</time></trkpt><trkpt lat="43.02742723353349" lon="12.14040551392391"><ele>431.40000000000003</ele><time>2026-05-03T07:09:25Z</time></trkpt><trkpt lat="43.027324540319235" lon="12.140377805546795"><ele>431.6</ele><time>2026-05-03T07:09:26Z</time></trkpt><trkpt lat="43.02721280841011" lon="12.140316405579092"><ele>431.8</ele><time>2026-05-03T07:09:27Z</time></trkpt><trkpt lat="43.027105148698794" lon="12.140326545948014"><ele>432.0</ele><time>2026-05-03T07:09:28Z</time></trkpt><trkpt lat="43.027038055082485" lon="12.140304712278818"><ele>432.0</ele><time>2026-05-03T07:09:29Z</time></trkpt><trkpt lat="43.02697176452704" lon="12.140242933660577"><ele>432.0</ele><time>2026-05-03T07:09:32Z</time></trkpt><trkpt lat="43.0268966542516" lon="12.14022152878865"><ele>432.0</ele><time>2026-05-03T07:09:34Z</time></trkpt><trkpt lat="43.0269207921464" lon="12.139863384921053"><ele>432.0</ele><time>2026-05-03T07:09:35Z</time></trkpt><trkpt lat="43.02691684376287" lon="12.13975783599226"><ele>429.40000000000003</ele><time>2026-05-03T07:09:36Z</time></trkpt><trkpt lat="43.026911010730224" lon="12.13964744331329"><ele>426.80000000000007</ele><time>2026-05-03T07:09:37Z</time></trkpt><trkpt lat="43.026904969076945" lon="12.139528028616596"><ele>424.2</ele><time>2026-05-03T07:09:38Z</time></trkpt><trkpt lat="43.026896899320974" lon="12.13940694249072"><ele>421.6</ele><time>2026-05-03T07:09:39Z</time></trkpt><trkpt lat="43.026884146912174" lon="12.139273208571618"><ele>419.0</ele><time>2026-05-03T07:09:40Z</time></trkpt><trkpt lat="43.026879476756285" lon="12.139144434673714"><ele>416.79999999999995</ele><time>2026-05-03T07:09:41Z</time></trkpt><trkpt lat="43.026876474697524" lon="12.139014893774885"><ele>414.59999999999997</ele><time>2026-05-03T07:09:42Z</time></trkpt><trkpt lat="43.02687808245793" lon="12.138884289154158"><ele>412.4</ele><time>2026-05-03T07:09:43Z</time></trkpt><trkpt lat="43.02688797727824" lon="12.138761856644193"><ele>410.2</ele><time>2026-05-03T07:09:44Z</time></trkpt><trkpt lat="43.026884311185164" lon="12.138640414909272"><ele>408.0</ele><time>2026-05-03T07:09:45Z</time></trkpt><trkpt lat="43.02685829305352" lon="12.138522821176824"><ele>408.0</ele><time>2026-05-03T07:09:46Z</time></trkpt><trkpt lat="43.026836147660866" lon="12.138410962767336"><ele>408.0</ele><time>2026-05-03T07:09:47Z</time></trkpt><trkpt lat="43.026836096647926" lon="12.138291403123795"><ele>408.0</ele><time>2026-05-03T07:09:48Z</time></trkpt><trkpt lat="43.02683895205676" lon="12.138171326795385"><ele>408.0</ele><time>2026-05-03T07:09:49Z</time></trkpt><trkpt lat="43.026835801954896" lon="12.138054566433608"><ele>408.0</ele><time>2026-05-03T07:09:50Z</time></trkpt><trkpt lat="43.02683807471773" lon="12.137938229003984"><ele>408.0</ele><time>2026-05-03T07:09:51Z</time></trkpt><trkpt lat="43.02686276435164" lon="12.137829865875695"><ele>406.8333333333333</ele><time>2026-05-03T07:09:52Z</time></trkpt><trkpt lat="43.026894622260826" lon="12.13772300759804"><ele>405.66666666666663</ele><time>2026-05-03T07:09:53Z</time></trkpt><trkpt lat="43.02690229068291" lon="12.137591988637345"><ele>404.5</ele><time>2026-05-03T07:09:54Z</time></trkpt><trkpt lat="43.02689589749205" lon="12.137472968854638"><ele>403.3333333333333</ele><time>2026-05-03T07:09:55Z</time></trkpt><trkpt lat="43.02687758393681" lon="12.13736062784578"><ele>402.16666666666663</ele><time>2026-05-03T07:09:56Z</time></trkpt><trkpt lat="43.026854516905225" lon="12.137268588702964"><ele>401.0</ele><time>2026-05-03T07:09:57Z</time></trkpt><trkpt lat="43.02681594753496" lon="12.137117983605672"><ele>399.4</ele><time>2026-05-03T07:09:59Z</time></trkpt><trkpt lat="43.02680165028016" lon="12.136969079114587"><ele>397.8</ele><time>2026-05-03T07:10:01Z</time></trkpt><trkpt lat="43.026715550037274" lon="12.136870081150873"><ele>396.2</ele><time>2026-05-03T07:10:03Z</time></trkpt><trkpt lat="43.026651229013915" lon="12.136859761775561"><ele>394.59999999999997</ele><time>2026-05-03T07:10:04Z</time></trkpt><trkpt lat="43.02653971394592" lon="12.136843325599143"><ele>393.0</ele><time>2026-05-03T07:10:06Z</time></trkpt><trkpt lat="43.02645894158783" lon="12.136732748408138"><ele>391.5</ele><time>2026-05-03T07:10:08Z</time></trkpt><trkpt lat="43.02641418758239" lon="12.136664336999585"><ele>390.0</ele><time>2026-05-03T07:10:09Z</time></trkpt><trkpt lat="43.02635834606446" lon="12.136595619487496"><ele>388.5</ele><time>2026-05-03T07:10:10Z</time></trkpt><trkpt lat="43.02629447402508" lon="12.136526171774575"><ele>387.0</ele><time>2026-05-03T07:10:11Z</time></trkpt><trkpt lat="43.02622543359577" lon="12.136458870637542"><ele>385.5</ele><time>2026-05-03T07:10:12Z</time></trkpt><trkpt lat="43.02616330706971" lon="12.136392487798332"><ele>384.0</ele><time>2026-05-03T07:10:13Z</time></trkpt><trkpt lat="43.026118932130665" lon="12.13628985808477"><ele>382.79999999999995</ele><time>2026-05-03T07:10:14Z</time></trkpt><trkpt lat="43.02608818209268" lon="12.136157065781918"><ele>381.59999999999997</ele><time>2026-05-03T07:10:15Z</time></trkpt><trkpt lat="43.02603937382552" lon="12.136019808766989"><ele>380.4</ele><time>2026-05-03T07:10:16Z</time></trkpt><trkpt lat="43.025964045561274" lon="12.13588023770172"><ele>379.2</ele><time>2026-05-03T07:10:17Z</time></trkpt><trkpt lat="43.02590005998497" lon="12.135768278534597"><ele>378.0</ele><time>2026-05-03T07:10:18Z</time></trkpt><trkpt lat="43.025839768237155" lon="12.13564933245529"><ele>375.4</ele><time>2026-05-03T07:10:19Z</time></trkpt><trkpt lat="43.025782217803496" lon="12.13553479018797"><ele>372.79999999999995</ele><time>2026-05-03T07:10:20Z</time></trkpt><trkpt lat="43.02572398269752" lon="12.135421225382444"><ele>370.2</ele><time>2026-05-03T07:10:21Z</time></trkpt><trkpt lat="43.02567498923514" lon="12.135309965229881"><ele>367.6</ele><time>2026-05-03T07:10:22Z</time></trkpt><trkpt lat="43.02562843505111" lon="12.135195587621245"><ele>365.0</ele><time>2026-05-03T07:10:23Z</time></trkpt><trkpt lat="43.02558462433204" lon="12.135079947562783"><ele>365.0</ele><time>2026-05-03T07:10:24Z</time></trkpt><trkpt lat="43.025535699543276" lon="12.134965166060077"><ele>365.0</ele><time>2026-05-03T07:10:25Z</time></trkpt><trkpt lat="43.025485151002606" lon="12.134858850767833"><ele>365.0</ele><time>2026-05-03T07:10:26Z</time></trkpt><trkpt lat="43.025434915050006" lon="12.134746260973182"><ele>365.0</ele><time>2026-05-03T07:10:27Z</time></trkpt><trkpt lat="43.02538249930745" lon="12.134629978039403"><ele>365.0</ele><time>2026-05-03T07:10:28Z</time></trkpt><trkpt lat="43.025331860830185" lon="12.134516951218385"><ele>364.4</ele><time>2026-05-03T07:10:29Z</time></trkpt><trkpt lat="43.025281233359294" lon="12.13440050930866"><ele>363.8</ele><time>2026-05-03T07:10:30Z</time></trkpt><trkpt lat="43.02522958299533" lon="12.134288491421866"><ele>363.20000000000005</ele><time>2026-05-03T07:10:31Z</time></trkpt><trkpt lat="43.025179721665324" lon="12.134173715696065"><ele>362.6</ele><time>2026-05-03T07:10:32Z</time></trkpt><trkpt lat="43.025130250367326" lon="12.134058623733505"><ele>362.0</ele><time>2026-05-03T07:10:33Z</time></trkpt><trkpt lat="43.02508397843282" lon="12.133945019580283"><ele>360.6666666666667</ele><time>2026-05-03T07:10:34Z</time></trkpt><trkpt lat="43.02504022086059" lon="12.133835365640197"><ele>359.33333333333337</ele><time>2026-05-03T07:10:35Z</time></trkpt><trkpt lat="43.0249961635646" lon="12.133736570467807"><ele>358.0</ele><time>2026-05-03T07:10:36Z</time></trkpt><trkpt lat="43.02494911480533" lon="12.133648350785316"><ele>356.6666666666667</ele><time>2026-05-03T07:10:37Z</time></trkpt><trkpt lat="43.02490673129212" lon="12.133565183463675"><ele>355.3333333333333</ele><time>2026-05-03T07:10:38Z</time></trkpt><trkpt lat="43.02487933167202" lon="12.13347231689342"><ele>354.0</ele><time>2026-05-03T07:10:39Z</time></trkpt><trkpt lat="43.024859410350174" lon="12.133388991187879"><ele>352.3333333333333</ele><time>2026-05-03T07:10:40Z</time></trkpt><trkpt lat="43.02480020961059" lon="12.13328478358932"><ele>350.6666666666667</ele><time>2026-05-03T07:10:42Z</time></trkpt><trkpt lat="43.02474018280128" lon="12.133221589302563"><ele>349.0</ele><time>2026-05-03T07:10:45Z</time></trkpt><trkpt lat="43.02470949879169" lon="12.133125237101337"><ele>347.33333333333337</ele><time>2026-05-03T07:10:48Z</time></trkpt><trkpt lat="43.024644659627164" lon="12.132988711542973"><ele>345.6666666666667</ele><time>2026-05-03T07:10:50Z</time></trkpt><trkpt lat="43.02460533841153" lon="12.132900122042853"><ele>344.0</ele><time>2026-05-03T07:10:51Z</time></trkpt><trkpt lat="43.02456178855111" lon="12.132803483247875"><ele>343.8571428571429</ele><time>2026-05-03T07:10:52Z</time></trkpt><trkpt lat="43.02452094228611" lon="12.13273607877776"><ele>343.7142857142857</ele><time>2026-05-03T07:10:53Z</time></trkpt><trkpt lat="43.02446409573032" lon="12.132662516424828"><ele>343.57142857142856</ele><time>2026-05-03T07:10:54Z</time></trkpt><trkpt lat="43.02439750018704" lon="12.13258588899312"><ele>343.42857142857144</ele><time>2026-05-03T07:10:55Z</time></trkpt><trkpt lat="43.024336284062116" lon="12.132527377700178"><ele>343.2857142857143</ele><time>2026-05-03T07:10:56Z</time></trkpt><trkpt lat="43.02427294633244" lon="12.132479242677004"><ele>343.14285714285717</ele><time>2026-05-03T07:10:57Z</time></trkpt><trkpt lat="43.02421681971262" lon="12.132438982091665"><ele>343.0</ele><time>2026-05-03T07:10:58Z</time></trkpt><trkpt lat="43.02412687417698" lon="12.132382975398345"><ele>339.4</ele><time>2026-05-03T07:11:00Z</time></trkpt><trkpt lat="43.02406312614338" lon="12.132271050923137"><ele>335.79999999999995</ele><time>2026-05-03T07:11:02Z</time></trkpt><trkpt lat="43.02400927717781" lon="12.132151463172208"><ele>332.2</ele><time>2026-05-03T07:11:04Z</time></trkpt><trkpt lat="43.023977397938005" lon="12.132027409093785"><ele>328.6</ele><time>2026-05-03T07:11:06Z</time></trkpt><trkpt lat="43.023955805922625" lon="12.131900592356022"><ele>325.0</ele><time>2026-05-03T07:11:08Z</time></trkpt><trkpt lat="43.02392448058784" lon="12.131763347052091"><ele>325.0</ele><time>2026-05-03T07:11:10Z</time></trkpt><trkpt lat="43.023855375809845" lon="12.131749709098465"><ele>325.0</ele><time>2026-05-03T07:11:12Z</time></trkpt><trkpt lat="43.02378011898493" lon="12.131841041948412"><ele>325.0</ele><time>2026-05-03T07:11:14Z</time></trkpt><trkpt lat="43.023723355002424" lon="12.13197281170346"><ele>325.0</ele><time>2026-05-03T07:11:16Z</time></trkpt><trkpt lat="43.02367039972268" lon="12.132050412892516"><ele>325.0</ele><time>2026-05-03T07:11:18Z</time></trkpt><trkpt lat="43.02360964171376" lon="12.131996685501285"><ele>325.0</ele><time>2026-05-03T07:11:21Z</time></trkpt><trkpt lat="43.02358807402052" lon="12.131861160332113"><ele>325.0</ele><time>2026-05-03T07:11:23Z</time></trkpt><trkpt lat="43.023550881416" lon="12.131746379769055"><ele>325.0</ele><time>2026-05-03T07:11:25Z</time></trkpt><trkpt lat="43.02350126131887" lon="12.131633605906124"><ele>325.0</ele><time>2026-05-03T07:11:27Z</time></trkpt><trkpt lat="43.02344101029839" lon="12.131502145176098"><ele>325.0</ele><time>2026-05-03T07:11:29Z</time></trkpt><trkpt lat="43.02337634487295" lon="12.131410414948878"><ele>325.0</ele><time>2026-05-03T07:11:31Z</time></trkpt><trkpt lat="43.02332532135736" lon="12.131335273685204"><ele>323.3333333333333</ele><time>2026-05-03T07:11:34Z</time></trkpt><trkpt lat="43.023267887025646" lon="12.131237588252922"><ele>321.66666666666663</ele><time>2026-05-03T07:11:55Z</time></trkpt><trkpt lat="43.023193962009756" lon="12.131155298916596"><ele>320.0</ele><time>2026-05-03T07:11:57Z</time></trkpt><trkpt lat="43.023154241926356" lon="12.131063736317238"><ele>318.3333333333333</ele><time>2026-05-03T07:12:01Z</time></trkpt><trkpt lat="43.02316002879347" lon="12.130960597169649"><ele>316.6666666666667</ele><time>2026-05-03T07:12:03Z</time></trkpt><trkpt lat="43.023147515605615" lon="12.130855678964087"><ele>315.0</ele><time>2026-05-03T07:12:05Z</time></trkpt><trkpt lat="43.02310153155575" lon="12.130743767953506"><ele>315.0</ele><time>2026-05-03T07:12:07Z</time></trkpt><trkpt lat="43.02304918429688" lon="12.13063816574043"><ele>315.0</ele><time>2026-05-03T07:12:09Z</time></trkpt><trkpt lat="43.02300529441078" lon="12.13056838611856"><ele>315.0</ele><time>2026-05-03T07:12:11Z</time></trkpt><trkpt lat="43.02293309764091" lon="12.130617955165029"><ele>315.0</ele><time>2026-05-03T07:12:14Z</time></trkpt><trkpt lat="43.022888580717265" lon="12.130733518080444"><ele>315.0</ele><time>2026-05-03T07:12:31Z</time></trkpt><trkpt lat="43.02287638518089" lon="12.130819812258936"><ele>315.0</ele><time>2026-05-03T07:12:32Z</time></trkpt><trkpt lat="43.0228728264128" lon="12.130931856712094"><ele>315.0</ele><time>2026-05-03T07:12:34Z</time></trkpt><trkpt lat="43.02281467111659" lon="12.13102239858651"><ele>315.0</ele><time>2026-05-03T07:12:36Z</time></trkpt><trkpt lat="43.02271834392282" lon="12.131057754528607"><ele>315.0</ele><time>2026-05-03T07:12:38Z</time></trkpt><trkpt lat="43.02264130852641" lon="12.131079993322716"><ele>315.0</ele><time>2026-05-03T07:12:40Z</time></trkpt><trkpt lat="43.02258047974372" lon="12.131146245173925"><ele>315.0</ele><time>2026-05-03T07:12:42Z</time></trkpt><trkpt lat="43.02250882634685" lon="12.131144011758913"><ele>315.0</ele><time>2026-05-03T07:12:44Z</time></trkpt><trkpt lat="43.022473444036635" lon="12.131024460765634"><ele>315.8</ele><time>2026-05-03T07:12:46Z</time></trkpt><trkpt lat="43.02242475602295" lon="12.130894725974203"><ele>316.6</ele><time>2026-05-03T07:12:48Z</time></trkpt><trkpt lat="43.022330613268196" lon="12.130745941957976"><ele>317.4</ele><time>2026-05-03T07:12:50Z</time></trkpt><trkpt lat="43.02226376110726" lon="12.130660575682967"><ele>318.2</ele><time>2026-05-03T07:12:51Z</time></trkpt><trkpt lat="43.022193169368265" lon="12.13057159522872"><ele>319.0</ele><time>2026-05-03T07:12:52Z</time></trkpt><trkpt lat="43.022114601789056" lon="12.130458756502737"><ele>319.0</ele><time>2026-05-03T07:12:53Z</time></trkpt><trkpt lat="43.02205066324706" lon="12.130335538300187"><ele>319.0</ele><time>2026-05-03T07:12:54Z</time></trkpt><trkpt lat="43.022005535952815" lon="12.130227284458924"><ele>319.0</ele><time>2026-05-03T07:12:55Z</time></trkpt><trkpt lat="43.02196645351547" lon="12.130140545048826"><ele>319.0</ele><time>2026-05-03T07:12:56Z</time></trkpt><trkpt lat="43.02191063457906" lon="12.13009585448461"><ele>319.0</ele><time>2026-05-03T07:12:57Z</time></trkpt><trkpt lat="43.02184045337093" lon="12.130075129950988"><ele>319.0</ele><time>2026-05-03T07:12:58Z</time></trkpt><trkpt lat="43.02176622654502" lon="12.130073532960042"><ele>319.0</ele><time>2026-05-03T07:12:59Z</time></trkpt><trkpt lat="43.02167777863896" lon="12.13006221072521"><ele>319.0</ele><time>2026-05-03T07:13:00Z</time></trkpt><trkpt lat="43.021588691011026" lon="12.130023812719084"><ele>319.0</ele><time>2026-05-03T07:13:01Z</time></trkpt><trkpt lat="43.0215186948576" lon="12.129990157428006"><ele>319.0</ele><time>2026-05-03T07:13:02Z</time></trkpt><trkpt lat="43.021415898069286" lon="12.129999419853448"><ele>319.0</ele><time>2026-05-03T07:13:04Z</time></trkpt><trkpt lat="43.021346761331316" lon="12.130039752003105"><ele>319.0</ele><time>2026-05-03T07:13:05Z</time></trkpt><trkpt lat="43.02126427456948" lon="12.130070739148426"><ele>320.5</ele><time>2026-05-03T07:13:06Z</time></trkpt><trkpt lat="43.0211734063622" lon="12.130088352191194"><ele>322.0</ele><time>2026-05-03T07:13:07Z</time></trkpt><trkpt lat="43.021102007140335" lon="12.13012099755267"><ele>323.5</ele><time>2026-05-03T07:13:08Z</time></trkpt><trkpt lat="43.02102639130598" lon="12.130219717933757"><ele>325.0</ele><time>2026-05-03T07:13:10Z</time></trkpt><trkpt lat="43.0209380244496" lon="12.130253108359502"><ele>326.5</ele><time>2026-05-03T07:13:12Z</time></trkpt><trkpt lat="43.020862435898565" lon="12.130236287888268"><ele>328.0</ele><time>2026-05-03T07:13:13Z</time></trkpt><trkpt lat="43.02078731826172" lon="12.130249878492537"><ele>329.8333333333333</ele><time>2026-05-03T07:13:14Z</time></trkpt><trkpt lat="43.02072424681372" lon="12.130256467661278"><ele>331.66666666666663</ele><time>2026-05-03T07:13:15Z</time></trkpt><trkpt lat="43.02063624507512" lon="12.130191676718013"><ele>333.5</ele><time>2026-05-03T07:13:17Z</time></trkpt><trkpt lat="43.020592449537375" lon="12.130120267017176"><ele>335.3333333333333</ele><time>2026-05-03T07:13:18Z</time></trkpt><trkpt lat="43.0205368677995" lon="12.13004056198407"><ele>337.1666666666667</ele><time>2026-05-03T07:13:19Z</time></trkpt><trkpt lat="43.020475070684356" lon="12.12996201418186"><ele>339.0</ele><time>2026-05-03T07:13:20Z</time></trkpt><trkpt lat="43.020416484828374" lon="12.129902760655092"><ele>337.0</ele><time>2026-05-03T07:13:21Z</time></trkpt><trkpt lat="43.02030556443289" lon="12.129859491759627"><ele>335.0</ele><time>2026-05-03T07:13:23Z</time></trkpt><trkpt lat="43.02024286836405" lon="12.129849700455908"><ele>333.0</ele><time>2026-05-03T07:13:24Z</time></trkpt><trkpt lat="43.02011450486185" lon="12.129855637953957"><ele>331.0</ele><time>2026-05-03T07:13:26Z</time></trkpt><trkpt lat="43.02005044518694" lon="12.129850352968827"><ele>329.0</ele><time>2026-05-03T07:13:27Z</time></trkpt><trkpt lat="43.019981217886574" lon="12.12984560023301"><ele>327.0</ele><time>2026-05-03T07:13:28Z</time></trkpt><trkpt lat="43.01990616680167" lon="12.129847142085863"><ele>327.0</ele><time>2026-05-03T07:13:29Z</time></trkpt><trkpt lat="43.019832916582104" lon="12.129857435985748"><ele>327.0</ele><time>2026-05-03T07:13:30Z</time></trkpt><trkpt lat="43.01975496496873" lon="12.12986757237684"><ele>327.0</ele><time>2026-05-03T07:13:31Z</time></trkpt><trkpt lat="43.01963987670208" lon="12.129875625178853"><ele>327.0</ele><time>2026-05-03T07:13:33Z</time></trkpt><trkpt lat="43.01951546656981" lon="12.129927666232561"><ele>327.0</ele><time>2026-05-03T07:13:35Z</time></trkpt><trkpt lat="43.019440332603686" lon="12.129974169237824"><ele>329.6666666666667</ele><time>2026-05-03T07:13:36Z</time></trkpt><trkpt lat="43.01937636056678" lon="12.12999821983089"><ele>332.3333333333333</ele><time>2026-05-03T07:13:37Z</time></trkpt><trkpt lat="43.01930802745341" lon="12.130026604709073"><ele>335.0</ele><time>2026-05-03T07:13:38Z</time></trkpt><trkpt lat="43.01924157548266" lon="12.130059464883596"><ele>337.66666666666663</ele><time>2026-05-03T07:13:39Z</time></trkpt><trkpt lat="43.01918210488" lon="12.130096650912437"><ele>340.3333333333333</ele><time>2026-05-03T07:13:40Z</time></trkpt><trkpt lat="43.01909738720328" lon="12.13016693660126"><ele>343.0</ele><time>2026-05-03T07:13:42Z</time></trkpt><trkpt lat="43.01898829446827" lon="12.130197667832542"><ele>343.0</ele><time>2026-05-03T07:13:44Z</time></trkpt><trkpt lat="43.01887529129931" lon="12.130160378768531"><ele>343.0</ele><time>2026-05-03T07:13:46Z</time></trkpt><trkpt lat="43.01881270826079" lon="12.1301406862057"><ele>343.0</ele><time>2026-05-03T07:13:47Z</time></trkpt><trkpt lat="43.01874959135447" lon="12.130146835014195"><ele>343.0</ele><time>2026-05-03T07:13:48Z</time></trkpt><trkpt lat="43.01867268423479" lon="12.13020916145226"><ele>343.0</ele><time>2026-05-03T07:13:50Z</time></trkpt><trkpt lat="43.018641139814285" lon="12.130286494957199"><ele>343.0</ele><time>2026-05-03T07:13:51Z</time></trkpt><trkpt lat="43.01860934310246" lon="12.130362720568575"><ele>343.0</ele><time>2026-05-03T07:13:52Z</time></trkpt><trkpt lat="43.01858834292185" lon="12.130444825253129"><ele>343.0</ele><time>2026-05-03T07:13:53Z</time></trkpt><trkpt lat="43.0185820490682" lon="12.13053147002019"><ele>343.0</ele><time>2026-05-03T07:13:54Z</time></trkpt><trkpt lat="43.018569541011466" lon="12.130622546309327"><ele>343.0</ele><time>2026-05-03T07:13:55Z</time></trkpt><trkpt lat="43.01855555156435" lon="12.130718960309991"><ele>343.0</ele><time>2026-05-03T07:13:56Z</time></trkpt><trkpt lat="43.01854792726306" lon="12.130821448276663"><ele>343.0</ele><time>2026-05-03T07:13:57Z</time></trkpt><trkpt lat="43.0185496283069" lon="12.130929293871127"><ele>343.0</ele><time>2026-05-03T07:13:58Z</time></trkpt><trkpt lat="43.01855055868863" lon="12.131036994704488"><ele>343.8333333333333</ele><time>2026-05-03T07:13:59Z</time></trkpt><trkpt lat="43.01855716484319" lon="12.131147271976774"><ele>344.66666666666663</ele><time>2026-05-03T07:14:00Z</time></trkpt><trkpt lat="43.01853598764117" lon="12.131243654639524"><ele>345.5</ele><time>2026-05-03T07:14:01Z</time></trkpt><trkpt lat="43.018499552038044" lon="12.131334931194367"><ele>346.3333333333333</ele><time>2026-05-03T07:14:02Z</time></trkpt><trkpt lat="43.01844451060395" lon="12.131414872346518"><ele>347.1666666666667</ele><time>2026-05-03T07:14:03Z</time></trkpt><trkpt lat="43.018394806238376" lon="12.131496881682542"><ele>348.0</ele><time>2026-05-03T07:14:04Z</time></trkpt><trkpt lat="43.01834739591583" lon="12.13157195475425"><ele>347.0</ele><time>2026-05-03T07:14:05Z</time></trkpt><trkpt lat="43.018292150631865" lon="12.131650117146677"><ele>346.0</ele><time>2026-05-03T07:14:06Z</time></trkpt><trkpt lat="43.01823571037361" lon="12.131728589138804"><ele>345.0</ele><time>2026-05-03T07:14:07Z</time></trkpt><trkpt lat="43.01818535698571" lon="12.131797935974223"><ele>344.0</ele><time>2026-05-03T07:14:08Z</time></trkpt><trkpt lat="43.01810262942303" lon="12.131905060648789"><ele>343.0</ele><time>2026-05-03T07:14:10Z</time></trkpt><trkpt lat="43.01802672206038" lon="12.132035388996567"><ele>343.0</ele><time>2026-05-03T07:14:12Z</time></trkpt><trkpt lat="43.01794634662004" lon="12.132153380267807"><ele>343.0</ele><time>2026-05-03T07:14:14Z</time></trkpt><trkpt lat="43.01795310310153" lon="12.132244622547546"><ele>343.0</ele><time>2026-05-03T07:14:15Z</time></trkpt><trkpt lat="43.01799239992175" lon="12.132391119262603"><ele>343.0</ele><time>2026-05-03T07:14:17Z</time></trkpt><trkpt lat="43.018074487576456" lon="12.132500093529837"><ele>343.0</ele><time>2026-05-03T07:14:19Z</time></trkpt><trkpt lat="43.01808481121141" lon="12.132650713270662"><ele>342.66666666666663</ele><time>2026-05-03T07:14:21Z</time></trkpt><trkpt lat="43.01805551723065" lon="12.132730920389765"><ele>342.3333333333333</ele><time>2026-05-03T07:14:22Z</time></trkpt><trkpt lat="43.01803051608051" lon="12.132827299946287"><ele>342.0</ele><time>2026-05-03T07:14:23Z</time></trkpt><trkpt lat="43.018042792327826" lon="12.132984758769329"><ele>341.6666666666667</ele><time>2026-05-03T07:14:25Z</time></trkpt><trkpt lat="43.01807631976038" lon="12.133057650793038"><ele>341.33333333333337</ele><time>2026-05-03T07:14:26Z</time></trkpt><trkpt lat="43.01812101318207" lon="12.133119358694486"><ele>341.0</ele><time>2026-05-03T07:14:27Z</time></trkpt><trkpt lat="43.01818132873784" lon="12.1331684945263"><ele>341.0</ele><time>2026-05-03T07:14:28Z</time></trkpt><trkpt lat="43.018254044228065" lon="12.133201270008588"><ele>341.0</ele><time>2026-05-03T07:14:29Z</time></trkpt><trkpt lat="43.01831716830438" lon="12.133235531467646"><ele>341.0</ele><time>2026-05-03T07:14:30Z</time></trkpt><trkpt lat="43.01837743658802" lon="12.133357799113522"><ele>341.0</ele><time>2026-05-03T07:14:32Z</time></trkpt><trkpt lat="43.01828016144862" lon="12.133451624977853"><ele>341.0</ele><time>2026-05-03T07:14:34Z</time></trkpt><trkpt lat="43.01822359618535" lon="12.133513003296462"><ele>341.0</ele><time>2026-05-03T07:14:35Z</time></trkpt><trkpt lat="43.01816519555809" lon="12.133572896576293"><ele>341.1666666666667</ele><time>2026-05-03T07:14:36Z</time></trkpt><trkpt lat="43.01811659890873" lon="12.133638342908391"><ele>341.33333333333337</ele><time>2026-05-03T07:14:37Z</time></trkpt><trkpt lat="43.018089512406675" lon="12.133719972808962"><ele>341.5</ele><time>2026-05-03T07:14:38Z</time></trkpt><trkpt lat="43.01808533765519" lon="12.13383757241024"><ele>341.6666666666667</ele><time>2026-05-03T07:14:39Z</time></trkpt><trkpt lat="43.018070234904876" lon="12.133979269940875"><ele>341.8333333333333</ele><time>2026-05-03T07:14:40Z</time></trkpt><trkpt lat="43.01808374271708" lon="12.134112056944401"><ele>342.0</ele><time>2026-05-03T07:14:41Z</time></trkpt><trkpt lat="43.01809895563847" lon="12.134232797302415"><ele>344.3333333333333</ele><time>2026-05-03T07:14:42Z</time></trkpt><trkpt lat="43.018131596947384" lon="12.13434624222654"><ele>346.6666666666667</ele><time>2026-05-03T07:14:43Z</time></trkpt><trkpt lat="43.01814259087714" lon="12.134441500737479"><ele>349.0</ele><time>2026-05-03T07:14:44Z</time></trkpt><trkpt lat="43.01811783788607" lon="12.134531565004751"><ele>351.33333333333337</ele><time>2026-05-03T07:14:46Z</time></trkpt><trkpt lat="43.01806055794586" lon="12.134470952754839"><ele>353.6666666666667</ele><time>2026-05-03T07:14:48Z</time></trkpt><trkpt lat="43.01797891646867" lon="12.134443671247219"><ele>356.0</ele><time>2026-05-03T07:14:49Z</time></trkpt><trkpt lat="43.01790488473719" lon="12.13440010315914"><ele>356.0</ele><time>2026-05-03T07:14:50Z</time></trkpt><trkpt lat="43.01783439031078" lon="12.13440059954724"><ele>356.0</ele><time>2026-05-03T07:14:51Z</time></trkpt><trkpt lat="43.017780545762236" lon="12.13444988450512"><ele>356.0</ele><time>2026-05-03T07:14:52Z</time></trkpt><trkpt lat="43.01771071393466" lon="12.134515254335174"><ele>356.0</ele><time>2026-05-03T07:14:53Z</time></trkpt><trkpt lat="43.01762759291642" lon="12.13454368384268"><ele>356.0</ele><time>2026-05-03T07:14:54Z</time></trkpt><trkpt lat="43.01755016660084" lon="12.1344957236481"><ele>356.0</ele><time>2026-05-03T07:14:55Z</time></trkpt><trkpt lat="43.01747757837426" lon="12.134491058980117"><ele>357.33333333333337</ele><time>2026-05-03T07:14:56Z</time></trkpt><trkpt lat="43.01740443298088" lon="12.134458775368937"><ele>358.6666666666667</ele><time>2026-05-03T07:14:57Z</time></trkpt><trkpt lat="43.01733292126295" lon="12.134440573361207"><ele>360.0</ele><time>2026-05-03T07:14:58Z</time></trkpt><trkpt lat="43.01726479625626" lon="12.134431766844715"><ele>361.3333333333333</ele><time>2026-05-03T07:14:59Z</time></trkpt><trkpt lat="43.017196701783" lon="12.134424022771233"><ele>362.66666666666663</ele><time>2026-05-03T07:15:00Z</time></trkpt><trkpt lat="43.01708130416917" lon="12.134403925592606"><ele>364.0</ele><time>2026-05-03T07:15:02Z</time></trkpt><trkpt lat="43.017016101201484" lon="12.134409381278838"><ele>364.0</ele><time>2026-05-03T07:15:03Z</time></trkpt><trkpt lat="43.01695346961449" lon="12.134378738439443"><ele>364.0</ele><time>2026-05-03T07:15:04Z</time></trkpt><trkpt lat="43.01688959765316" lon="12.134355559946467"><ele>364.0</ele><time>2026-05-03T07:15:05Z</time></trkpt><trkpt lat="43.016833580699405" lon="12.134296335939029"><ele>364.0</ele><time>2026-05-03T07:15:06Z</time></trkpt><trkpt lat="43.01676482739" lon="12.1342729918853"><ele>364.0</ele><time>2026-05-03T07:15:07Z</time></trkpt><trkpt lat="43.01669642701731" lon="12.134268815519542"><ele>364.0</ele><time>2026-05-03T07:15:08Z</time></trkpt><trkpt lat="43.01658017259161" lon="12.134271867717501"><ele>364.14285714285717</ele><time>2026-05-03T07:15:10Z</time></trkpt><trkpt lat="43.01650185646925" lon="12.134284242259692"><ele>364.2857142857143</ele><time>2026-05-03T07:15:11Z</time></trkpt><trkpt lat="43.01642637299353" lon="12.134308459797012"><ele>364.42857142857144</ele><time>2026-05-03T07:15:12Z</time></trkpt><trkpt lat="43.01636026623554" lon="12.134336885862355"><ele>364.57142857142856</ele><time>2026-05-03T07:15:13Z</time></trkpt><trkpt lat="43.01629574285842" lon="12.134374300501277"><ele>364.7142857142857</ele><time>2026-05-03T07:15:14Z</time></trkpt><trkpt lat="43.016229409134986" lon="12.134419301761818"><ele>364.8571428571429</ele><time>2026-05-03T07:15:15Z</time></trkpt><trkpt lat="43.016172346012276" lon="12.134480699302104"><ele>365.0</ele><time>2026-05-03T07:15:16Z</time></trkpt><trkpt lat="43.01612695307102" lon="12.134578800028757"><ele>365.00000000000006</ele><time>2026-05-03T07:15:17Z</time></trkpt><trkpt lat="43.01608835097977" lon="12.134649916633064"><ele>365.0</ele><time>2026-05-03T07:15:18Z</time></trkpt><trkpt lat="43.01604831377143" lon="12.134723677193112"><ele>365.0</ele><time>2026-05-03T07:15:19Z</time></trkpt><trkpt lat="43.01600519758938" lon="12.134786606437807"><ele>365.0</ele><time>2026-05-03T07:15:20Z</time></trkpt><trkpt lat="43.015940845944385" lon="12.134830279965302"><ele>365.0</ele><time>2026-05-03T07:15:21Z</time></trkpt><trkpt lat="43.015867802430556" lon="12.134865152716422"><ele>365.00000000000006</ele><time>2026-05-03T07:15:22Z</time></trkpt><trkpt lat="43.015777054560154" lon="12.134900176721812"><ele>365.0</ele><time>2026-05-03T07:15:23Z</time></trkpt><trkpt lat="43.01568117517244" lon="12.134914020026619"><ele>367.83333333333337</ele><time>2026-05-03T07:15:24Z</time></trkpt><trkpt lat="43.01558286612967" lon="12.134936539725105"><ele>370.6666666666667</ele><time>2026-05-03T07:15:25Z</time></trkpt><trkpt lat="43.01548656805792" lon="12.13493331546124"><ele>373.5</ele><time>2026-05-03T07:15:26Z</time></trkpt><trkpt lat="43.01539472905374" lon="12.134933857251692"><ele>376.3333333333333</ele><time>2026-05-03T07:15:27Z</time></trkpt><trkpt lat="43.01530759376267" lon="12.134929320091715"><ele>379.16666666666663</ele><time>2026-05-03T07:15:28Z</time></trkpt><trkpt lat="43.01524044205254" lon="12.134905482829287"><ele>382.0</ele><time>2026-05-03T07:15:29Z</time></trkpt><trkpt lat="43.015176799582406" lon="12.134903349678021"><ele>382.0</ele><time>2026-05-03T07:15:30Z</time></trkpt><trkpt lat="43.01507679777614" lon="12.134935346677432"><ele>382.0</ele><time>2026-05-03T07:15:32Z</time></trkpt><trkpt lat="43.0150049743039" lon="12.135041883049738"><ele>382.0</ele><time>2026-05-03T07:15:34Z</time></trkpt><trkpt lat="43.01497241356335" lon="12.135131131614957"><ele>382.0</ele><time>2026-05-03T07:15:35Z</time></trkpt><trkpt lat="43.01493853733935" lon="12.135233194200566"><ele>382.0</ele><time>2026-05-03T07:15:36Z</time></trkpt><trkpt lat="43.014897294679486" lon="12.135344981198985"><ele>381.0</ele><time>2026-05-03T07:15:37Z</time></trkpt><trkpt lat="43.014855446592776" lon="12.13545094703634"><ele>380.0</ele><time>2026-05-03T07:15:38Z</time></trkpt><trkpt lat="43.01482051007773" lon="12.135546549345804"><ele>379.0</ele><time>2026-05-03T07:15:39Z</time></trkpt><trkpt lat="43.01478745477488" lon="12.135648573705296"><ele>378.0</ele><time>2026-05-03T07:15:40Z</time></trkpt><trkpt lat="43.01475393186724" lon="12.13574505901745"><ele>377.0</ele><time>2026-05-03T07:15:41Z</time></trkpt><trkpt lat="43.014707892168374" lon="12.135821990708312"><ele>376.0</ele><time>2026-05-03T07:15:42Z</time></trkpt><trkpt lat="43.01469975352426" lon="12.13591255170174"><ele>376.0</ele><time>2026-05-03T07:15:43Z</time></trkpt><trkpt lat="43.014691354001265" lon="12.136000783485443"><ele>376.0</ele><time>2026-05-03T07:15:44Z</time></trkpt><trkpt lat="43.01469148809279" lon="12.136169648307892"><ele>376.0</ele><time>2026-05-03T07:15:46Z</time></trkpt><trkpt lat="43.01467023849543" lon="12.136252163929889"><ele>376.0</ele><time>2026-05-03T07:15:47Z</time></trkpt><trkpt lat="43.0145888891673" lon="12.136322999195265"><ele>376.0</ele><time>2026-05-03T07:15:49Z</time></trkpt><trkpt lat="43.01447578723597" lon="12.136270303720293"><ele>376.0</ele><time>2026-05-03T07:15:51Z</time></trkpt><trkpt lat="43.01441829761861" lon="12.136228650019493"><ele>376.0</ele><time>2026-05-03T07:15:52Z</time></trkpt><trkpt lat="43.0142990826189" lon="12.13621200213945"><ele>376.0</ele><time>2026-05-03T07:15:54Z</time></trkpt><trkpt lat="43.01419378062185" lon="12.136312807194052"><ele>376.0</ele><time>2026-05-03T07:15:56Z</time></trkpt><trkpt lat="43.01409064545756" lon="12.136347087006458"><ele>376.0</ele><time>2026-05-03T07:15:58Z</time></trkpt><trkpt lat="43.01402295761816" lon="12.136290117606341"><ele>375.3333333333333</ele><time>2026-05-03T07:15:59Z</time></trkpt><trkpt lat="43.01394801990573" lon="12.13628756868984"><ele>374.66666666666663</ele><time>2026-05-03T07:16:00Z</time></trkpt><trkpt lat="43.01387607557057" lon="12.136266482663087"><ele>374.0</ele><time>2026-05-03T07:16:01Z</time></trkpt><trkpt lat="43.01380066379623" lon="12.136257780086558"><ele>373.3333333333333</ele><time>2026-05-03T07:16:02Z</time></trkpt><trkpt lat="43.013728076174" lon="12.136229442376093"><ele>372.6666666666667</ele><time>2026-05-03T07:16:03Z</time></trkpt><trkpt lat="43.01365040641987" lon="12.13624056183234"><ele>372.0</ele><time>2026-05-03T07:16:04Z</time></trkpt><trkpt lat="43.01357809415526" lon="12.136219081385255"><ele>372.00000000000006</ele><time>2026-05-03T07:16:05Z</time></trkpt><trkpt lat="43.013494271436564" lon="12.136219807470104"><ele>372.0</ele><time>2026-05-03T07:16:06Z</time></trkpt><trkpt lat="43.01341686984717" lon="12.136243147267336"><ele>372.0</ele><time>2026-05-03T07:16:07Z</time></trkpt><trkpt lat="43.01334812188525" lon="12.136213652387182"><ele>372.0</ele><time>2026-05-03T07:16:08Z</time></trkpt><trkpt lat="43.01328310356922" lon="12.136201325095318"><ele>372.0</ele><time>2026-05-03T07:16:09Z</time></trkpt><trkpt lat="43.01321521946162" lon="12.136178646301651"><ele>372.00000000000006</ele><time>2026-05-03T07:16:10Z</time></trkpt><trkpt lat="43.01313878637985" lon="12.136152297707318"><ele>372.0</ele><time>2026-05-03T07:16:11Z</time></trkpt><trkpt lat="43.0130699879121" lon="12.136125058675091"><ele>371.6666666666667</ele><time>2026-05-03T07:16:12Z</time></trkpt><trkpt lat="43.013003727448854" lon="12.136098321141615"><ele>371.3333333333333</ele><time>2026-05-03T07:16:13Z</time></trkpt><trkpt lat="43.012935129006415" lon="12.136074453453864"><ele>371.0</ele><time>2026-05-03T07:16:14Z</time></trkpt><trkpt lat="43.01287131658828" lon="12.13605592516689"><ele>370.66666666666663</ele><time>2026-05-03T07:16:15Z</time></trkpt><trkpt lat="43.0127572312872" lon="12.13602883038016"><ele>370.3333333333333</ele><time>2026-05-03T07:16:17Z</time></trkpt><trkpt lat="43.012644700112666" lon="12.136018190791127"><ele>370.0</ele><time>2026-05-03T07:16:19Z</time></trkpt><trkpt lat="43.012629387966825" lon="12.135913560551542"><ele>370.0</ele><time>2026-05-03T07:16:21Z</time></trkpt><trkpt lat="43.01257888745006" lon="12.135808771929533"><ele>370.0</ele><time>2026-05-03T07:16:23Z</time></trkpt><trkpt lat="43.01249784620347" lon="12.135710979431385"><ele>370.0</ele><time>2026-05-03T07:16:25Z</time></trkpt><trkpt lat="43.01241285739701" lon="12.135640342919437"><ele>370.0</ele><time>2026-05-03T07:16:27Z</time></trkpt><trkpt lat="43.0123205446103" lon="12.135524191802851"><ele>370.0</ele><time>2026-05-03T07:16:29Z</time></trkpt><trkpt lat="43.012218999339304" lon="12.135439813941742"><ele>369.0</ele><time>2026-05-03T07:16:31Z</time></trkpt><trkpt lat="43.01213533472616" lon="12.135358108230472"><ele>368.0</ele><time>2026-05-03T07:16:33Z</time></trkpt><trkpt lat="43.01204973166652" lon="12.135262816545834"><ele>367.0</ele><time>2026-05-03T07:16:35Z</time></trkpt><trkpt lat="43.01194586549806" lon="12.135175832152077"><ele>366.0</ele><time>2026-05-03T07:16:37Z</time></trkpt><trkpt lat="43.01188807372974" lon="12.135131479640712"><ele>365.0</ele><time>2026-05-03T07:16:38Z</time></trkpt><trkpt lat="43.011827116382925" lon="12.135083694996641"><ele>365.0</ele><time>2026-05-03T07:16:39Z</time></trkpt><trkpt lat="43.01175820052208" lon="12.135027429268314"><ele>365.0</ele><time>2026-05-03T07:16:40Z</time></trkpt><trkpt lat="43.01169073358097" lon="12.134966543038907"><ele>365.0</ele><time>2026-05-03T07:16:41Z</time></trkpt><trkpt lat="43.011612395122455" lon="12.134909955519289"><ele>365.0</ele><time>2026-05-03T07:16:42Z</time></trkpt><trkpt lat="43.0115338318197" lon="12.134835746258316"><ele>365.0</ele><time>2026-05-03T07:16:43Z</time></trkpt><trkpt lat="43.01145325159705" lon="12.134764100779945"><ele>365.0</ele><time>2026-05-03T07:16:44Z</time></trkpt><trkpt lat="43.01137113699544" lon="12.134687548485065"><ele>363.6</ele><time>2026-05-03T07:16:45Z</time></trkpt><trkpt lat="43.01129590368042" lon="12.134612255799947"><ele>362.2</ele><time>2026-05-03T07:16:46Z</time></trkpt><trkpt lat="43.011223279461994" lon="12.134536931799872"><ele>360.79999999999995</ele><time>2026-05-03T07:16:47Z</time></trkpt><trkpt lat="43.011156615904326" lon="12.134453268328981"><ele>359.4</ele><time>2026-05-03T07:16:48Z</time></trkpt><trkpt lat="43.011087799051" lon="12.134368687566491"><ele>358.0</ele><time>2026-05-03T07:16:49Z</time></trkpt><trkpt lat="43.011015067789025" lon="12.134287758579235"><ele>358.0</ele><time>2026-05-03T07:16:50Z</time></trkpt><trkpt lat="43.010938275402346" lon="12.134207889880068"><ele>358.0</ele><time>2026-05-03T07:16:51Z</time></trkpt><trkpt lat="43.010863248120586" lon="12.134118008092347"><ele>358.0</ele><time>2026-05-03T07:16:52Z</time></trkpt><trkpt lat="43.010794359912744" lon="12.134029385577678"><ele>358.0</ele><time>2026-05-03T07:16:53Z</time></trkpt><trkpt lat="43.01072949943681" lon="12.13393733872899"><ele>358.0</ele><time>2026-05-03T07:16:54Z</time></trkpt><trkpt lat="43.01066897240742" lon="12.133851637378818"><ele>357.4</ele><time>2026-05-03T07:16:55Z</time></trkpt><trkpt lat="43.01060718432767" lon="12.13375827983829"><ele>356.79999999999995</ele><time>2026-05-03T07:16:56Z</time></trkpt><trkpt lat="43.010539506768595" lon="12.133657684742984"><ele>356.2</ele><time>2026-05-03T07:16:57Z</time></trkpt><trkpt lat="43.010456862582636" lon="12.133559405248716"><ele>355.6</ele><time>2026-05-03T07:16:58Z</time></trkpt><trkpt lat="43.01037198224676" lon="12.133450136165177"><ele>355.0</ele><time>2026-05-03T07:16:59Z</time></trkpt><trkpt lat="43.01029511226839" lon="12.1333397354626"><ele>353.4</ele><time>2026-05-03T07:17:00Z</time></trkpt><trkpt lat="43.01022779070854" lon="12.133208182494302"><ele>351.8</ele><time>2026-05-03T07:17:01Z</time></trkpt><trkpt lat="43.01015808919478" lon="12.133093931164964"><ele>350.20000000000005</ele><time>2026-05-03T07:17:02Z</time></trkpt><trkpt lat="43.010085848995175" lon="12.132984634492992"><ele>348.6</ele><time>2026-05-03T07:17:03Z</time></trkpt><trkpt lat="43.010009342413106" lon="12.132867403785694"><ele>347.0</ele><time>2026-05-03T07:17:04Z</time></trkpt><trkpt lat="43.009926278313905" lon="12.132744907139847"><ele>347.0</ele><time>2026-05-03T07:17:05Z</time></trkpt><trkpt lat="43.00984910643826" lon="12.132629246557002"><ele>347.0</ele><time>2026-05-03T07:17:06Z</time></trkpt><trkpt lat="43.00976618485696" lon="12.132517229098307"><ele>347.0</ele><time>2026-05-03T07:17:07Z</time></trkpt><trkpt lat="43.00969267483252" lon="12.132399944538896"><ele>347.0</ele><time>2026-05-03T07:17:08Z</time></trkpt><trkpt lat="43.00960610139201" lon="12.132298828619042"><ele>346.0</ele><time>2026-05-03T07:17:09Z</time></trkpt><trkpt lat="43.009529269652624" lon="12.132175805369572"><ele>345.0</ele><time>2026-05-03T07:17:10Z</time></trkpt><trkpt lat="43.009448587905105" lon="12.132067513504136"><ele>344.0</ele><time>2026-05-03T07:17:11Z</time></trkpt><trkpt lat="43.009370092461424" lon="12.131963314212282"><ele>343.0</ele><time>2026-05-03T07:17:12Z</time></trkpt><trkpt lat="43.009290540649566" lon="12.131863703983063"><ele>342.0</ele><time>2026-05-03T07:17:13Z</time></trkpt><trkpt lat="43.009214140421065" lon="12.1317670897374"><ele>341.20000000000005</ele><time>2026-05-03T07:17:14Z</time></trkpt><trkpt lat="43.00913596821331" lon="12.131670251178917"><ele>340.4</ele><time>2026-05-03T07:17:15Z</time></trkpt><trkpt lat="43.00906580001149" lon="12.131586535164487"><ele>339.6</ele><time>2026-05-03T07:17:16Z</time></trkpt><trkpt lat="43.009008617158116" lon="12.131495786897398"><ele>338.79999999999995</ele><time>2026-05-03T07:17:17Z</time></trkpt><trkpt lat="43.008941165462126" lon="12.13148854552748"><ele>338.0</ele><time>2026-05-03T07:17:18Z</time></trkpt><trkpt lat="43.00893251867386" lon="12.131279148890915"><ele>337.79999999999995</ele><time>2026-05-03T07:17:19Z</time></trkpt><trkpt lat="43.008852725074455" lon="12.131212007848093"><ele>337.6</ele><time>2026-05-03T07:17:20Z</time></trkpt><trkpt lat="43.008772488194495" lon="12.131154027601749"><ele>337.4</ele><time>2026-05-03T07:17:21Z</time></trkpt><trkpt lat="43.00870255658094" lon="12.131073518032478"><ele>337.20000000000005</ele><time>2026-05-03T07:17:22Z</time></trkpt><trkpt lat="43.00863160986285" lon="12.130992790673877"><ele>337.0</ele><time>2026-05-03T07:17:23Z</time></trkpt><trkpt lat="43.00857921021894" lon="12.130887345734132"><ele>337.0</ele><time>2026-05-03T07:17:24Z</time></trkpt><trkpt lat="43.00852243325697" lon="12.130803551477014"><ele>337.0</ele><time>2026-05-03T07:17:25Z</time></trkpt><trkpt lat="43.008445863800944" lon="12.13073820780733"><ele>337.0</ele><time>2026-05-03T07:17:26Z</time></trkpt><trkpt lat="43.00839954926406" lon="12.130635689150818"><ele>337.0</ele><time>2026-05-03T07:17:27Z</time></trkpt><trkpt lat="43.00835104049161" lon="12.13054658158663"><ele>337.0</ele><time>2026-05-03T07:17:28Z</time></trkpt><trkpt lat="43.00829645643436" lon="12.13046677921242"><ele>337.0</ele><time>2026-05-03T07:17:29Z</time></trkpt><trkpt lat="43.00825735021912" lon="12.130349549250022"><ele>335.6</ele><time>2026-05-03T07:17:30Z</time></trkpt><trkpt lat="43.008209222194886" lon="12.13024086595731"><ele>334.20000000000005</ele><time>2026-05-03T07:17:31Z</time></trkpt><trkpt lat="43.008184965383016" lon="12.130131200926174"><ele>332.8</ele><time>2026-05-03T07:17:32Z</time></trkpt><trkpt lat="43.008133671171834" lon="12.130037195958964"><ele>331.4</ele><time>2026-05-03T07:17:33Z</time></trkpt><trkpt lat="43.008063124019664" lon="12.129948737150299"><ele>330.0</ele><time>2026-05-03T07:17:34Z</time></trkpt><trkpt lat="43.00799368907394" lon="12.129849932746412"><ele>329.2</ele><time>2026-05-03T07:17:35Z</time></trkpt><trkpt lat="43.00791696989038" lon="12.129740646249813"><ele>328.4</ele><time>2026-05-03T07:17:36Z</time></trkpt><trkpt lat="43.00784327405385" lon="12.129635666503832"><ele>327.6</ele><time>2026-05-03T07:17:37Z</time></trkpt><trkpt lat="43.007825494977325" lon="12.129485186261956"><ele>326.8</ele><time>2026-05-03T07:17:38Z</time></trkpt><trkpt lat="43.007777363449925" lon="12.129385244003059"><ele>326.0</ele><time>2026-05-03T07:17:39Z</time></trkpt><trkpt lat="43.00772984981868" lon="12.129282437773254"><ele>326.0</ele><time>2026-05-03T07:17:40Z</time></trkpt><trkpt lat="43.00768066702733" lon="12.129187350761356"><ele>326.0</ele><time>2026-05-03T07:17:41Z</time></trkpt><trkpt lat="43.00763014381291" lon="12.129087738302886"><ele>326.0</ele><time>2026-05-03T07:17:42Z</time></trkpt><trkpt lat="43.007576356435905" lon="12.12897536738949"><ele>326.0</ele><time>2026-05-03T07:17:43Z</time></trkpt><trkpt lat="43.007530558290945" lon="12.128851881106248"><ele>326.0</ele><time>2026-05-03T07:17:44Z</time></trkpt><trkpt lat="43.007489673190136" lon="12.128734257279124"><ele>324.0</ele><time>2026-05-03T07:17:45Z</time></trkpt><trkpt lat="43.00745505600027" lon="12.128619317139337"><ele>322.0</ele><time>2026-05-03T07:17:46Z</time></trkpt><trkpt lat="43.00741189135984" lon="12.128491705255954"><ele>320.0</ele><time>2026-05-03T07:17:47Z</time></trkpt><trkpt lat="43.007371163950815" lon="12.128379935054694"><ele>318.0</ele><time>2026-05-03T07:17:48Z</time></trkpt><trkpt lat="43.00733100582864" lon="12.128254847277928"><ele>316.0</ele><time>2026-05-03T07:17:49Z</time></trkpt><trkpt lat="43.00729969951269" lon="12.128115527892815"><ele>315.40000000000003</ele><time>2026-05-03T07:17:50Z</time></trkpt><trkpt lat="43.00725916945042" lon="12.12798837844523"><ele>314.8</ele><time>2026-05-03T07:17:51Z</time></trkpt><trkpt lat="43.00721840993681" lon="12.12787554334418"><ele>314.20000000000005</ele><time>2026-05-03T07:17:52Z</time></trkpt><trkpt lat="43.007183290911414" lon="12.127758709823823"><ele>313.6</ele><time>2026-05-03T07:17:53Z</time></trkpt><trkpt lat="43.00712987629266" lon="12.127641444509663"><ele>313.0</ele><time>2026-05-03T07:17:54Z</time></trkpt><trkpt lat="43.007059502615" lon="12.127535281805987"><ele>313.0</ele><time>2026-05-03T07:17:55Z</time></trkpt><trkpt lat="43.00698234397521" lon="12.127444328815429"><ele>313.0</ele><time>2026-05-03T07:17:56Z</time></trkpt><trkpt lat="43.006913698628864" lon="12.127361644712163"><ele>313.0</ele><time>2026-05-03T07:17:57Z</time></trkpt><trkpt lat="43.00684992208788" lon="12.127274452288244"><ele>313.0</ele><time>2026-05-03T07:17:58Z</time></trkpt><trkpt lat="43.00679603398487" lon="12.127187520316173"><ele>313.0</ele><time>2026-05-03T07:17:59Z</time></trkpt><trkpt lat="43.006747909898884" lon="12.127085779409901"><ele>312.3333333333333</ele><time>2026-05-03T07:18:00Z</time></trkpt><trkpt lat="43.00669955624615" lon="12.126984118681039"><ele>311.66666666666663</ele><time>2026-05-03T07:18:01Z</time></trkpt><trkpt lat="43.006642070084375" lon="12.12689011274144"><ele>311.0</ele><time>2026-05-03T07:18:02Z</time></trkpt><trkpt lat="43.00658342174315" lon="12.12680143812184"><ele>310.3333333333333</ele><time>2026-05-03T07:18:03Z</time></trkpt><trkpt lat="43.006519004542696" lon="12.126718033951343"><ele>309.6666666666667</ele><time>2026-05-03T07:18:04Z</time></trkpt><trkpt lat="43.006467443352605" lon="12.126633172776447"><ele>309.0</ele><time>2026-05-03T07:18:05Z</time></trkpt><trkpt lat="43.006424102220194" lon="12.12653382452674"><ele>306.5</ele><time>2026-05-03T07:18:06Z</time></trkpt><trkpt lat="43.00638977030213" lon="12.126434569896857"><ele>304.0</ele><time>2026-05-03T07:18:07Z</time></trkpt><trkpt lat="43.00634459928925" lon="12.126355257597806"><ele>301.5</ele><time>2026-05-03T07:18:08Z</time></trkpt><trkpt lat="43.006303774371176" lon="12.1262691076334"><ele>299.0</ele><time>2026-05-03T07:18:09Z</time></trkpt><trkpt lat="43.00627552170969" lon="12.126163541351566"><ele>296.5</ele><time>2026-05-03T07:18:10Z</time></trkpt><trkpt lat="43.00623827738912" lon="12.126056957741442"><ele>294.0</ele><time>2026-05-03T07:18:11Z</time></trkpt><trkpt lat="43.006195107703576" lon="12.125958843402335"><ele>294.0</ele><time>2026-05-03T07:18:12Z</time></trkpt><trkpt lat="43.00615634483986" lon="12.125865346375564"><ele>294.0</ele><time>2026-05-03T07:18:13Z</time></trkpt><trkpt lat="43.00611229097603" lon="12.12576886858625"><ele>294.0</ele><time>2026-05-03T07:18:14Z</time></trkpt><trkpt lat="43.00606858093357" lon="12.125678330023181"><ele>294.0</ele><time>2026-05-03T07:18:15Z</time></trkpt><trkpt lat="43.006026611706965" lon="12.125592313486948"><ele>294.0</ele><time>2026-05-03T07:18:16Z</time></trkpt><trkpt lat="43.00597950108523" lon="12.12551185262137"><ele>294.0</ele><time>2026-05-03T07:18:17Z</time></trkpt><trkpt lat="43.005923976820654" lon="12.125449341569418"><ele>292.3333333333333</ele><time>2026-05-03T07:18:18Z</time></trkpt><trkpt lat="43.00585396165637" lon="12.125398767886697"><ele>290.6666666666667</ele><time>2026-05-03T07:18:19Z</time></trkpt><trkpt lat="43.00578110613473" lon="12.125360913908558"><ele>289.0</ele><time>2026-05-03T07:18:20Z</time></trkpt><trkpt lat="43.00572101139255" lon="12.125324306950217"><ele>287.33333333333337</ele><time>2026-05-03T07:18:21Z</time></trkpt><trkpt lat="43.005613909488204" lon="12.125248836440734"><ele>285.6666666666667</ele><time>2026-05-03T07:18:23Z</time></trkpt><trkpt lat="43.00551210574742" lon="12.125218768229923"><ele>284.0</ele><time>2026-05-03T07:18:25Z</time></trkpt><trkpt lat="43.005514258823624" lon="12.125118717422003"><ele>280.8</ele><time>2026-05-03T07:18:27Z</time></trkpt><trkpt lat="43.00555357369013" lon="12.125046877371817"><ele>277.59999999999997</ele><time>2026-05-03T07:18:28Z</time></trkpt><trkpt lat="43.00559047703411" lon="12.124884879004389"><ele>274.4</ele><time>2026-05-03T07:18:30Z</time></trkpt><trkpt lat="43.00556418112702" lon="12.124730438196128"><ele>271.2</ele><time>2026-05-03T07:18:32Z</time></trkpt><trkpt lat="43.00560582106013" lon="12.124596852424027"><ele>268.0</ele><time>2026-05-03T07:18:34Z</time></trkpt><trkpt lat="43.00564954410019" lon="12.124522073092306"><ele>265.5</ele><time>2026-05-03T07:18:35Z</time></trkpt><trkpt lat="43.00570085895152" lon="12.124463397912328"><ele>263.0</ele><time>2026-05-03T07:18:36Z</time></trkpt><trkpt lat="43.00577265465064" lon="12.124340522507103"><ele>260.5</ele><time>2026-05-03T07:18:38Z</time></trkpt><trkpt lat="43.005805972927426" lon="12.124205581072934"><ele>258.0</ele><time>2026-05-03T07:18:40Z</time></trkpt><trkpt lat="43.00582559999089" lon="12.124093323016442"><ele>255.49999999999997</ele><time>2026-05-03T07:18:42Z</time></trkpt><trkpt lat="43.00581944905037" lon="12.123995363385806"><ele>253.0</ele><time>2026-05-03T07:18:44Z</time></trkpt><trkpt lat="43.0057617802207" lon="12.123892264224915"><ele>252.2</ele><time>2026-05-03T07:18:46Z</time></trkpt><trkpt lat="43.00568165728368" lon="12.123820699634013"><ele>251.4</ele><time>2026-05-03T07:18:48Z</time></trkpt><trkpt lat="43.00565038857784" lon="12.123727419218902"><ele>250.59999999999997</ele><time>2026-05-03T07:18:50Z</time></trkpt><trkpt lat="43.00562709281685" lon="12.123570472754908"><ele>249.79999999999998</ele><time>2026-05-03T07:18:52Z</time></trkpt><trkpt lat="43.005571374919874" lon="12.123478969209273"><ele>249.0</ele><time>2026-05-03T07:18:54Z</time></trkpt><trkpt lat="43.00545087083418" lon="12.12341957322847"><ele>249.0</ele><time>2026-05-03T07:18:56Z</time></trkpt><trkpt lat="43.005395632099564" lon="12.123377609404065"><ele>249.0</ele><time>2026-05-03T07:18:57Z</time></trkpt><trkpt lat="43.00528772538317" lon="12.123372056873379"><ele>249.0</ele><time>2026-05-03T07:18:59Z</time></trkpt><trkpt lat="43.00521274930014" lon="12.12344341945101"><ele>249.0</ele><time>2026-05-03T07:19:01Z</time></trkpt><trkpt lat="43.005135750200914" lon="12.123443786071615"><ele>249.0</ele><time>2026-05-03T07:19:03Z</time></trkpt><trkpt lat="43.005103268003424" lon="12.123321429385449"><ele>249.0</ele><time>2026-05-03T07:19:05Z</time></trkpt><trkpt lat="43.00507744450393" lon="12.123233280165973"><ele>248.42857142857142</ele><time>2026-05-03T07:19:08Z</time></trkpt><trkpt lat="43.00507046032633" lon="12.123147322941353"><ele>247.85714285714283</ele><time>2026-05-03T07:19:16Z</time></trkpt><trkpt lat="43.005118851813265" lon="12.123086348154235"><ele>247.28571428571428</ele><time>2026-05-03T07:19:17Z</time></trkpt><trkpt lat="43.005185224159696" lon="12.123029279896613"><ele>246.71428571428572</ele><time>2026-05-03T07:19:18Z</time></trkpt><trkpt lat="43.00525061312984" lon="12.122984543943362"><ele>246.14285714285714</ele><time>2026-05-03T07:19:19Z</time></trkpt><trkpt lat="43.00530888226949" lon="12.122941152872002"><ele>245.57142857142856</ele><time>2026-05-03T07:19:20Z</time></trkpt><trkpt lat="43.00538176875895" lon="12.122900189069258"><ele>245.0</ele><time>2026-05-03T07:19:21Z</time></trkpt><trkpt lat="43.00546473313936" lon="12.122851325201076"><ele>245.0</ele><time>2026-05-03T07:19:22Z</time></trkpt><trkpt lat="43.00555376632752" lon="12.122796417646606"><ele>245.0</ele><time>2026-05-03T07:19:23Z</time></trkpt><trkpt lat="43.005643822790226" lon="12.122746068584515"><ele>245.0</ele><time>2026-05-03T07:19:24Z</time></trkpt><trkpt lat="43.005730853915885" lon="12.122692781972283"><ele>245.0</ele><time>2026-05-03T07:19:25Z</time></trkpt><trkpt lat="43.00582156953731" lon="12.122632783899935"><ele>245.0</ele><time>2026-05-03T07:19:26Z</time></trkpt><trkpt lat="43.00591648994197" lon="12.122574158819345"><ele>245.25</ele><time>2026-05-03T07:19:27Z</time></trkpt><trkpt lat="43.00601603199574" lon="12.122517546135336"><ele>245.5</ele><time>2026-05-03T07:19:28Z</time></trkpt><trkpt lat="43.00611991454604" lon="12.122453971154249"><ele>245.75</ele><time>2026-05-03T07:19:29Z</time></trkpt><trkpt lat="43.00622730021467" lon="12.122391213195877"><ele>246.0</ele><time>2026-05-03T07:19:30Z</time></trkpt><trkpt lat="43.00633408000707" lon="12.122328275430654"><ele>246.0</ele><time>2026-05-03T07:19:31Z</time></trkpt><trkpt lat="43.00643529291945" lon="12.122269817330757"><ele>246.0</ele><time>2026-05-03T07:19:32Z</time></trkpt><trkpt lat="43.00654002484548" lon="12.122207853022307"><ele>246.0</ele><time>2026-05-03T07:19:33Z</time></trkpt><trkpt lat="43.006646627686095" lon="12.12214999218386"><ele>246.0</ele><time>2026-05-03T07:19:34Z</time></trkpt><trkpt lat="43.00675430522345" lon="12.12209186920199"><ele>245.75</ele><time>2026-05-03T07:19:35Z</time></trkpt><trkpt lat="43.00686483594832" lon="12.122038824889565"><ele>245.5</ele><time>2026-05-03T07:19:36Z</time></trkpt><trkpt lat="43.00697544840259" lon="12.121980113378898"><ele>245.25</ele><time>2026-05-03T07:19:37Z</time></trkpt><trkpt lat="43.00709910667469" lon="12.121918315283198"><ele>245.0</ele><time>2026-05-03T07:19:38Z</time></trkpt><trkpt lat="43.00723613304531" lon="12.121852233688495"><ele>245.0</ele><time>2026-05-03T07:19:39Z</time></trkpt><trkpt lat="43.00738496534253" lon="12.121781983910813"><ele>245.0</ele><time>2026-05-03T07:19:40Z</time></trkpt><trkpt lat="43.00753716684939" lon="12.121711002107093"><ele>245.0</ele><time>2026-05-03T07:19:41Z</time></trkpt><trkpt lat="43.00769048439354" lon="12.121643239506007"><ele>245.0</ele><time>2026-05-03T07:19:42Z</time></trkpt><trkpt lat="43.0078301907229" lon="12.121579802175868"><ele>245.0</ele><time>2026-05-03T07:19:43Z</time></trkpt><trkpt lat="43.00795518268249" lon="12.121519681710964"><ele>245.0</ele><time>2026-05-03T07:19:44Z</time></trkpt><trkpt lat="43.00807170212449" lon="12.121462582850231"><ele>245.0</ele><time>2026-05-03T07:19:45Z</time></trkpt><trkpt lat="43.00818600988644" lon="12.121399778105033"><ele>245.0</ele><time>2026-05-03T07:19:46Z</time></trkpt><trkpt lat="43.00830218551929" lon="12.121325491786264"><ele>245.0</ele><time>2026-05-03T07:19:47Z</time></trkpt><trkpt lat="43.00842222624887" lon="12.121238954726719"><ele>245.0</ele><time>2026-05-03T07:19:48Z</time></trkpt><trkpt lat="43.008549768135175" lon="12.121150342676795"><ele>245.0</ele><time>2026-05-03T07:19:49Z</time></trkpt><trkpt lat="43.00869048183509" lon="12.121051940698974"><ele>245.0</ele><time>2026-05-03T07:19:50Z</time></trkpt><trkpt lat="43.0088171370031" lon="12.120962359893435"><ele>245.0</ele><time>2026-05-03T07:19:51Z</time></trkpt><trkpt lat="43.00893240274779" lon="12.120882162905394"><ele>245.0</ele><time>2026-05-03T07:19:52Z</time></trkpt><trkpt lat="43.00904000052408" lon="12.12080309312777"><ele>245.0</ele><time>2026-05-03T07:19:53Z</time></trkpt><trkpt lat="43.00914129017459" lon="12.120723942862323"><ele>245.4</ele><time>2026-05-03T07:19:54Z</time></trkpt><trkpt lat="43.00923891095767" lon="12.120648761106782"><ele>245.8</ele><time>2026-05-03T07:19:55Z</time></trkpt><trkpt lat="43.00933343971636" lon="12.120583118974118"><ele>246.2</ele><time>2026-05-03T07:19:56Z</time></trkpt><trkpt lat="43.00941557851798" lon="12.120522387809531"><ele>246.6</ele><time>2026-05-03T07:19:57Z</time></trkpt><trkpt lat="43.009494591166145" lon="12.12046900752464"><ele>247.0</ele><time>2026-05-03T07:19:58Z</time></trkpt><trkpt lat="43.00956668601374" lon="12.120416005703154"><ele>247.0</ele><time>2026-05-03T07:19:59Z</time></trkpt><trkpt lat="43.00963169098117" lon="12.120370040138793"><ele>247.0</ele><time>2026-05-03T07:20:00Z</time></trkpt><trkpt lat="43.009734772586356" lon="12.120325559454068"><ele>247.0</ele><time>2026-05-03T07:20:02Z</time></trkpt><trkpt lat="43.00971682732128" lon="12.120139508590315"><ele>247.0</ele><time>2026-05-03T07:20:04Z</time></trkpt><trkpt lat="43.009697870346265" lon="12.120039115665914"><ele>247.0</ele><time>2026-05-03T07:20:05Z</time></trkpt><trkpt lat="43.009661090050855" lon="12.11994506162587"><ele>247.16666666666666</ele><time>2026-05-03T07:20:06Z</time></trkpt><trkpt lat="43.00961216968814" lon="12.119831561213937"><ele>247.33333333333331</ele><time>2026-05-03T07:20:07Z</time></trkpt><trkpt lat="43.009581826714054" lon="12.119737408380136"><ele>247.5</ele><time>2026-05-03T07:20:08Z</time></trkpt><trkpt lat="43.00952600757054" lon="12.11962895425988"><ele>247.66666666666669</ele><time>2026-05-03T07:20:09Z</time></trkpt><trkpt lat="43.00947521650421" lon="12.119524940634356"><ele>247.83333333333334</ele><time>2026-05-03T07:20:10Z</time></trkpt><trkpt lat="43.00942906086798" lon="12.119420421073986"><ele>248.0</ele><time>2026-05-03T07:20:11Z</time></trkpt><trkpt lat="43.00937759332602" lon="12.119301526897312"><ele>248.0</ele><time>2026-05-03T07:20:12Z</time></trkpt><trkpt lat="43.00931862714552" lon="12.119178610411439"><ele>248.0</ele><time>2026-05-03T07:20:13Z</time></trkpt><trkpt lat="43.0092595509652" lon="12.119056601351076"><ele>248.0</ele><time>2026-05-03T07:20:14Z</time></trkpt><trkpt lat="43.00922327723859" lon="12.118934365955052"><ele>248.0</ele><time>2026-05-03T07:20:15Z</time></trkpt><trkpt lat="43.00916542775179" lon="12.118844502655895"><ele>248.0</ele><time>2026-05-03T07:20:16Z</time></trkpt><trkpt lat="43.00912964969652" lon="12.118745510687784"><ele>249.0</ele><time>2026-05-03T07:20:17Z</time></trkpt><trkpt lat="43.009103967985894" lon="12.11866151199475"><ele>250.0</ele><time>2026-05-03T07:20:18Z</time></trkpt><trkpt lat="43.009128118619365" lon="12.118515416517281"><ele>251.0</ele><time>2026-05-03T07:20:20Z</time></trkpt><trkpt lat="43.009307600888256" lon="12.118460636627535"><ele>252.0</ele><time>2026-05-03T07:20:22Z</time></trkpt><trkpt lat="43.0094031861262" lon="12.118443519064646"><ele>252.6</ele><time>2026-05-03T07:20:23Z</time></trkpt><trkpt lat="43.00948456227547" lon="12.11835795576336"><ele>253.2</ele><time>2026-05-03T07:20:24Z</time></trkpt><trkpt lat="43.009556405580106" lon="12.118252687124198"><ele>253.8</ele><time>2026-05-03T07:20:25Z</time></trkpt><trkpt lat="43.009605060756726" lon="12.118122881676763"><ele>254.4</ele><time>2026-05-03T07:20:26Z</time></trkpt><trkpt lat="43.009604017665964" lon="12.117957027173198"><ele>255.0</ele><time>2026-05-03T07:20:27Z</time></trkpt><trkpt lat="43.00957839153007" lon="12.117786573321819"><ele>258.75</ele><time>2026-05-03T07:20:28Z</time></trkpt><trkpt lat="43.00957832106497" lon="12.117609258154669"><ele>262.5</ele><time>2026-05-03T07:20:29Z</time></trkpt><trkpt lat="43.00954837002502" lon="12.117447985136113"><ele>266.25</ele><time>2026-05-03T07:20:30Z</time></trkpt><trkpt lat="43.00955360100919" lon="12.11728511424054"><ele>270.0</ele><time>2026-05-03T07:20:31Z</time></trkpt><trkpt lat="43.009556336025554" lon="12.117130060488101"><ele>272.5</ele><time>2026-05-03T07:20:32Z</time></trkpt><trkpt lat="43.00955049580126" lon="12.116963314301131"><ele>275.0</ele><time>2026-05-03T07:20:33Z</time></trkpt><trkpt lat="43.009568403561936" lon="12.116798358479167"><ele>277.5</ele><time>2026-05-03T07:20:34Z</time></trkpt><trkpt lat="43.009588829744104" lon="12.116620413958385"><ele>280.0</ele><time>2026-05-03T07:20:35Z</time></trkpt><trkpt lat="43.00958596310495" lon="12.116442552606593"><ele>280.25</ele><time>2026-05-03T07:20:36Z</time></trkpt><trkpt lat="43.009565454102045" lon="12.116265712394513"><ele>280.5</ele><time>2026-05-03T07:20:37Z</time></trkpt><trkpt lat="43.0095420966984" lon="12.116095903853298"><ele>280.75</ele><time>2026-05-03T07:20:38Z</time></trkpt><trkpt lat="43.00951577924178" lon="12.115916170302048"><ele>281.0</ele><time>2026-05-03T07:20:39Z</time></trkpt><trkpt lat="43.00947900046297" lon="12.11573306588133"><ele>281.0</ele><time>2026-05-03T07:20:40Z</time></trkpt><trkpt lat="43.009448255388556" lon="12.115548932979344"><ele>281.0</ele><time>2026-05-03T07:20:41Z</time></trkpt><trkpt lat="43.00942278686973" lon="12.115370068467323"><ele>281.0</ele><time>2026-05-03T07:20:42Z</time></trkpt><trkpt lat="43.00939737379623" lon="12.11520682420905"><ele>281.0</ele><time>2026-05-03T07:20:43Z</time></trkpt><trkpt lat="43.00937138276076" lon="12.115039398710186"><ele>281.75</ele><time>2026-05-03T07:20:44Z</time></trkpt><trkpt lat="43.00936412792168" lon="12.114871017883177"><ele>282.5</ele><time>2026-05-03T07:20:45Z</time></trkpt><trkpt lat="43.009381713717545" lon="12.114703421195626"><ele>283.25</ele><time>2026-05-03T07:20:46Z</time></trkpt><trkpt lat="43.00940961148303" lon="12.114549403363721"><ele>284.0</ele><time>2026-05-03T07:20:47Z</time></trkpt><trkpt lat="43.00946022877512" lon="12.114396754046709"><ele>284.0</ele><time>2026-05-03T07:20:48Z</time></trkpt><trkpt lat="43.00952169511667" lon="12.114244822317533"><ele>284.0</ele><time>2026-05-03T07:20:49Z</time></trkpt><trkpt lat="43.00957432147827" lon="12.114086301895439"><ele>284.0</ele><time>2026-05-03T07:20:50Z</time></trkpt><trkpt lat="43.00962735100237" lon="12.113922852092916"><ele>284.0</ele><time>2026-05-03T07:20:51Z</time></trkpt><trkpt lat="43.00967564342563" lon="12.11376290832654"><ele>284.5</ele><time>2026-05-03T07:20:52Z</time></trkpt><trkpt lat="43.00973591310345" lon="12.11361416833667"><ele>285.0</ele><time>2026-05-03T07:20:53Z</time></trkpt><trkpt lat="43.00976875921251" lon="12.11345344288643"><ele>285.5</ele><time>2026-05-03T07:20:54Z</time></trkpt><trkpt lat="43.00982129640026" lon="12.113290174151693"><ele>286.0</ele><time>2026-05-03T07:20:55Z</time></trkpt><trkpt lat="43.009867633182466" lon="12.113121483120377"><ele>286.5</ele><time>2026-05-03T07:20:56Z</time></trkpt><trkpt lat="43.00991338327219" lon="12.112957655794153"><ele>287.0</ele><time>2026-05-03T07:20:57Z</time></trkpt><trkpt lat="43.00996470564911" lon="12.112788059956532"><ele>287.5</ele><time>2026-05-03T07:20:58Z</time></trkpt><trkpt lat="43.010015684209215" lon="12.112626455725561"><ele>288.0</ele><time>2026-05-03T07:20:59Z</time></trkpt><trkpt lat="43.0100720766403" lon="12.112447199478918"><ele>291.5</ele><time>2026-05-03T07:21:00Z</time></trkpt><trkpt lat="43.010142386448734" lon="12.112291040090971"><ele>295.0</ele><time>2026-05-03T07:21:01Z</time></trkpt><trkpt lat="43.01019283570018" lon="12.112145067771737"><ele>298.5</ele><time>2026-05-03T07:21:02Z</time></trkpt><trkpt lat="43.01024723327131" lon="12.111987671238547"><ele>302.0</ele><time>2026-05-03T07:21:03Z</time></trkpt><trkpt lat="43.01029694742387" lon="12.11184024927968"><ele>302.0</ele><time>2026-05-03T07:21:04Z</time></trkpt><trkpt lat="43.01034345250232" lon="12.111693190955322"><ele>302.0</ele><time>2026-05-03T07:21:05Z</time></trkpt><trkpt lat="43.01039011334761" lon="12.111545779339318"><ele>302.0</ele><time>2026-05-03T07:21:06Z</time></trkpt><trkpt lat="43.01042477973477" lon="12.111401026301648"><ele>302.0</ele><time>2026-05-03T07:21:07Z</time></trkpt><trkpt lat="43.01047474922966" lon="12.111305963981348"><ele>302.0</ele><time>2026-05-03T07:21:08Z</time></trkpt><trkpt lat="43.01050934114493" lon="12.111220597677999"><ele>304.0</ele><time>2026-05-03T07:21:09Z</time></trkpt><trkpt lat="43.01054676383729" lon="12.111083151364156"><ele>306.0</ele><time>2026-05-03T07:21:11Z</time></trkpt><trkpt lat="43.010553960043055" lon="12.110957494397535"><ele>308.0</ele><time>2026-05-03T07:21:13Z</time></trkpt><trkpt lat="43.01026146933218" lon="12.110865175156345"><ele>308.0</ele><time>2026-05-03T07:21:15Z</time></trkpt><trkpt lat="43.01021316600609" lon="12.110785098940823"><ele>308.0</ele><time>2026-05-03T07:21:16Z</time></trkpt><trkpt lat="43.01016956806614" lon="12.1106876059268"><ele>308.0</ele><time>2026-05-03T07:21:17Z</time></trkpt><trkpt lat="43.01013311671163" lon="12.110590946269747"><ele>308.0</ele><time>2026-05-03T07:21:18Z</time></trkpt><trkpt lat="43.0100972770678" lon="12.11050208800559"><ele>308.0</ele><time>2026-05-03T07:21:19Z</time></trkpt><trkpt lat="43.01005444067411" lon="12.110435035177742"><ele>308.0</ele><time>2026-05-03T07:21:20Z</time></trkpt><trkpt lat="43.00999231373055" lon="12.11038291241811"><ele>307.0</ele><time>2026-05-03T07:21:21Z</time></trkpt><trkpt lat="43.009899936304535" lon="12.110316313073426"><ele>306.0</ele><time>2026-05-03T07:21:22Z</time></trkpt><trkpt lat="43.009802718372754" lon="12.11023472813058"><ele>305.0</ele><time>2026-05-03T07:21:23Z</time></trkpt><trkpt lat="43.00970546938244" lon="12.110137409446809"><ele>304.0</ele><time>2026-05-03T07:21:24Z</time></trkpt><trkpt lat="43.00961125016102" lon="12.110031198244432"><ele>304.0</ele><time>2026-05-03T07:21:25Z</time></trkpt><trkpt lat="43.009502748487556" lon="12.109922612708862"><ele>304.0</ele><time>2026-05-03T07:21:26Z</time></trkpt><trkpt lat="43.00937458012942" lon="12.10981922311706"><ele>304.0</ele><time>2026-05-03T07:21:27Z</time></trkpt><trkpt lat="43.009236014587295" lon="12.109737979272403"><ele>304.0</ele><time>2026-05-03T07:21:28Z</time></trkpt><trkpt lat="43.00911142214808" lon="12.109654285376704"><ele>302.5</ele><time>2026-05-03T07:21:29Z</time></trkpt><trkpt lat="43.00900285851967" lon="12.109570107921838"><ele>301.0</ele><time>2026-05-03T07:21:30Z</time></trkpt><trkpt lat="43.008898013059586" lon="12.109485562431354"><ele>299.5</ele><time>2026-05-03T07:21:31Z</time></trkpt><trkpt lat="43.00878844157462" lon="12.109395412812093"><ele>298.0</ele><time>2026-05-03T07:21:32Z</time></trkpt><trkpt lat="43.00867486863179" lon="12.109305506640009"><ele>298.0</ele><time>2026-05-03T07:21:33Z</time></trkpt><trkpt lat="43.0085636765475" lon="12.109222280583246"><ele>298.0</ele><time>2026-05-03T07:21:34Z</time></trkpt><trkpt lat="43.00845623529335" lon="12.10915170894149"><ele>298.0</ele><time>2026-05-03T07:21:35Z</time></trkpt><trkpt lat="43.00835245838385" lon="12.109082939126887"><ele>298.0</ele><time>2026-05-03T07:21:36Z</time></trkpt><trkpt lat="43.00825182051553" lon="12.109019999851503"><ele>295.8</ele><time>2026-05-03T07:21:37Z</time></trkpt><trkpt lat="43.008154846455554" lon="12.108954517856578"><ele>293.6</ele><time>2026-05-03T07:21:38Z</time></trkpt><trkpt lat="43.008062254465955" lon="12.108884307742935"><ele>291.4</ele><time>2026-05-03T07:21:39Z</time></trkpt><trkpt lat="43.00797121608849" lon="12.108819063190563"><ele>289.2</ele><time>2026-05-03T07:21:40Z</time></trkpt><trkpt lat="43.00787790595388" lon="12.108770120287902"><ele>287.0</ele><time>2026-05-03T07:21:41Z</time></trkpt><trkpt lat="43.00777506041677" lon="12.108746351320278"><ele>287.0</ele><time>2026-05-03T07:21:42Z</time></trkpt><trkpt lat="43.007690969628776" lon="12.108709366632128"><ele>287.0</ele><time>2026-05-03T07:21:43Z</time></trkpt><trkpt lat="43.007613183453685" lon="12.108642938998255"><ele>287.0</ele><time>2026-05-03T07:21:44Z</time></trkpt><trkpt lat="43.00755885072499" lon="12.108554282523556"><ele>287.0</ele><time>2026-05-03T07:21:45Z</time></trkpt><trkpt lat="43.00751736101373" lon="12.108462412777461"><ele>287.0</ele><time>2026-05-03T07:21:46Z</time></trkpt><trkpt lat="43.00749037196178" lon="12.108367642172592"><ele>287.0</ele><time>2026-05-03T07:21:47Z</time></trkpt><trkpt lat="43.00749945398137" lon="12.108270320761063"><ele>286.1666666666667</ele><time>2026-05-03T07:21:48Z</time></trkpt><trkpt lat="43.007537381015304" lon="12.108187207137956"><ele>285.33333333333337</ele><time>2026-05-03T07:21:49Z</time></trkpt><trkpt lat="43.00760270221938" lon="12.108101921479964"><ele>284.5</ele><time>2026-05-03T07:21:50Z</time></trkpt><trkpt lat="43.00766951264049" lon="12.108011328703755"><ele>283.6666666666667</ele><time>2026-05-03T07:21:51Z</time></trkpt><trkpt lat="43.00772035610255" lon="12.107924661657583"><ele>282.8333333333333</ele><time>2026-05-03T07:21:52Z</time></trkpt><trkpt lat="43.0077669775278" lon="12.107835281371578"><ele>282.0</ele><time>2026-05-03T07:21:53Z</time></trkpt><trkpt lat="43.007780278596435" lon="12.107744978390693"><ele>282.0</ele><time>2026-05-03T07:21:54Z</time></trkpt><trkpt lat="43.00775524391557" lon="12.107648278050991"><ele>282.0</ele><time>2026-05-03T07:21:55Z</time></trkpt><trkpt lat="43.00769528295134" lon="12.107555748867826"><ele>282.0</ele><time>2026-05-03T07:21:56Z</time></trkpt><trkpt lat="43.007613880990625" lon="12.107486102815463"><ele>282.0</ele><time>2026-05-03T07:21:57Z</time></trkpt><trkpt lat="43.00752522599132" lon="12.107420789185188"><ele>282.0</ele><time>2026-05-03T07:21:58Z</time></trkpt><trkpt lat="43.007447527051276" lon="12.107366414222499"><ele>282.0</ele><time>2026-05-03T07:21:59Z</time></trkpt><trkpt lat="43.007373299316114" lon="12.107314998173015"><ele>281.5</ele><time>2026-05-03T07:22:00Z</time></trkpt><trkpt lat="43.00731001883696" lon="12.107284597152576"><ele>281.0</ele><time>2026-05-03T07:22:01Z</time></trkpt><trkpt lat="43.00723740736841" lon="12.107246818864706"><ele>280.5</ele><time>2026-05-03T07:22:03Z</time></trkpt><trkpt lat="43.0072738013643" lon="12.107160733618635"><ele>280.0</ele><time>2026-05-03T07:22:08Z</time></trkpt><trkpt lat="43.00736559180556" lon="12.107066209845481"><ele>279.5</ele><time>2026-05-03T07:22:10Z</time></trkpt><trkpt lat="43.00742205409018" lon="12.106989950439152"><ele>279.0</ele><time>2026-05-03T07:22:11Z</time></trkpt><trkpt lat="43.00749431207724" lon="12.106874041895095"><ele>280.2</ele><time>2026-05-03T07:22:12Z</time></trkpt><trkpt lat="43.00755982749491" lon="12.106774558130383"><ele>281.4</ele><time>2026-05-03T07:22:13Z</time></trkpt><trkpt lat="43.007619238164054" lon="12.106667563402413"><ele>282.6</ele><time>2026-05-03T07:22:14Z</time></trkpt><trkpt lat="43.00765319305143" lon="12.106571576113867"><ele>283.8</ele><time>2026-05-03T07:22:15Z</time></trkpt><trkpt lat="43.00767873689068" lon="12.10645903930832"><ele>285.0</ele><time>2026-05-03T07:22:16Z</time></trkpt><trkpt lat="43.007716278082576" lon="12.106342354774098"><ele>286.0</ele><time>2026-05-03T07:22:17Z</time></trkpt><trkpt lat="43.00776979024987" lon="12.106213837067463"><ele>287.0</ele><time>2026-05-03T07:22:18Z</time></trkpt><trkpt lat="43.007827107645205" lon="12.10607539773544"><ele>288.0</ele><time>2026-05-03T07:22:19Z</time></trkpt><trkpt lat="43.00788508995357" lon="12.105949633149908"><ele>289.0</ele><time>2026-05-03T07:22:20Z</time></trkpt><trkpt lat="43.00793781021507" lon="12.105832925287448"><ele>290.0</ele><time>2026-05-03T07:22:21Z</time></trkpt><trkpt lat="43.0079805487355" lon="12.105711989602433"><ele>290.6</ele><time>2026-05-03T07:22:22Z</time></trkpt><trkpt lat="43.00801523694051" lon="12.105587525128747"><ele>291.2</ele><time>2026-05-03T07:22:23Z</time></trkpt><trkpt lat="43.008037600166624" lon="12.105460596234664"><ele>291.8</ele><time>2026-05-03T07:22:24Z</time></trkpt><trkpt lat="43.008056624231315" lon="12.105320925598901"><ele>292.4</ele><time>2026-05-03T07:22:25Z</time></trkpt><trkpt lat="43.00806626125233" lon="12.10518029306269"><ele>293.0</ele><time>2026-05-03T07:22:26Z</time></trkpt><trkpt lat="43.00805509780437" lon="12.105045258152945"><ele>293.0</ele><time>2026-05-03T07:22:27Z</time></trkpt><trkpt lat="43.008048596388775" lon="12.104931728676197"><ele>293.0</ele><time>2026-05-03T07:22:28Z</time></trkpt><trkpt lat="43.0080679910354" lon="12.104848009476184"><ele>293.0</ele><time>2026-05-03T07:22:29Z</time></trkpt><trkpt lat="43.008171882127435" lon="12.104697265489802"><ele>293.0</ele><time>2026-05-03T07:22:31Z</time></trkpt><trkpt lat="43.00821417374653" lon="12.104583415868058"><ele>293.0</ele><time>2026-05-03T07:22:32Z</time></trkpt><trkpt lat="43.00823199353057" lon="12.10447979201089"><ele>293.5</ele><time>2026-05-03T07:22:33Z</time></trkpt><trkpt lat="43.00825252431152" lon="12.104367136888705"><ele>294.0</ele><time>2026-05-03T07:22:34Z</time></trkpt><trkpt lat="43.008271087176055" lon="12.104263218897108"><ele>294.5</ele><time>2026-05-03T07:22:35Z</time></trkpt><trkpt lat="43.00829430324126" lon="12.104171188706916"><ele>295.0</ele><time>2026-05-03T07:22:36Z</time></trkpt><trkpt lat="43.00833148821067" lon="12.104098477283566"><ele>295.5</ele><time>2026-05-03T07:22:37Z</time></trkpt><trkpt lat="43.008378279247346" lon="12.104028054724118"><ele>296.0</ele><time>2026-05-03T07:22:38Z</time></trkpt><trkpt lat="43.00846042335812" lon="12.103946345394558"><ele>299.0</ele><time>2026-05-03T07:22:40Z</time></trkpt><trkpt lat="43.008518305109256" lon="12.103880049738045"><ele>302.0</ele><time>2026-05-03T07:22:49Z</time></trkpt><trkpt lat="43.00860435959262" lon="12.103708482316213"><ele>305.0</ele><time>2026-05-03T07:22:51Z</time></trkpt><trkpt lat="43.008664336643065" lon="12.10361692700127"><ele>308.0</ele><time>2026-05-03T07:22:52Z</time></trkpt><trkpt lat="43.00872390139222" lon="12.103542248127956"><ele>311.0</ele><time>2026-05-03T07:22:53Z</time></trkpt><trkpt lat="43.00878400064692" lon="12.103481450529852"><ele>311.0</ele><time>2026-05-03T07:22:54Z</time></trkpt><trkpt lat="43.00890427011658" lon="12.103395121161423"><ele>311.0</ele><time>2026-05-03T07:22:56Z</time></trkpt><trkpt lat="43.008991866263486" lon="12.103371867484741"><ele>311.0</ele><time>2026-05-03T07:22:57Z</time></trkpt><trkpt lat="43.009102928720374" lon="12.103350607706725"><ele>311.0</ele><time>2026-05-03T07:22:58Z</time></trkpt><trkpt lat="43.00922167945554" lon="12.103335875592371"><ele>312.40000000000003</ele><time>2026-05-03T07:22:59Z</time></trkpt><trkpt lat="43.00932856504218" lon="12.103315853816296"><ele>313.8</ele><time>2026-05-03T07:23:00Z</time></trkpt><trkpt lat="43.009428628998265" lon="12.103276544008677"><ele>315.20000000000005</ele><time>2026-05-03T07:23:01Z</time></trkpt><trkpt lat="43.00952885872408" lon="12.103204411666974"><ele>316.6</ele><time>2026-05-03T07:23:02Z</time></trkpt><trkpt lat="43.00964138617328" lon="12.103135662497166"><ele>318.0</ele><time>2026-05-03T07:23:03Z</time></trkpt><trkpt lat="43.009752136936534" lon="12.1030653232483"><ele>317.4</ele><time>2026-05-03T07:23:04Z</time></trkpt><trkpt lat="43.00983790615165" lon="12.102990354633567"><ele>316.8</ele><time>2026-05-03T07:23:05Z</time></trkpt><trkpt lat="43.009915188384475" lon="12.102898348406072"><ele>316.2</ele><time>2026-05-03T07:23:06Z</time></trkpt><trkpt lat="43.01002371159615" lon="12.10284875178916"><ele>315.6</ele><time>2026-05-03T07:23:07Z</time></trkpt><trkpt lat="43.010133393865814" lon="12.102796565034792"><ele>315.0</ele><time>2026-05-03T07:23:08Z</time></trkpt><trkpt lat="43.0102025219085" lon="12.102709729234709"><ele>315.0</ele><time>2026-05-03T07:23:09Z</time></trkpt><trkpt lat="43.01022547816108" lon="12.102598246442419"><ele>315.0</ele><time>2026-05-03T07:23:10Z</time></trkpt><trkpt lat="43.0102301223114" lon="12.102454606990342"><ele>315.0</ele><time>2026-05-03T07:23:11Z</time></trkpt><trkpt lat="43.01025878676481" lon="12.102317835426145"><ele>315.0</ele><time>2026-05-03T07:23:12Z</time></trkpt><trkpt lat="43.01029369890732" lon="12.102201644932112"><ele>315.0</ele><time>2026-05-03T07:23:13Z</time></trkpt><trkpt lat="43.01033292673857" lon="12.102126386331818"><ele>314.6666666666667</ele><time>2026-05-03T07:23:14Z</time></trkpt><trkpt lat="43.01041203729471" lon="12.102123485598991"><ele>314.3333333333333</ele><time>2026-05-03T07:23:15Z</time></trkpt><trkpt lat="43.01050563322861" lon="12.102136442663493"><ele>314.0</ele><time>2026-05-03T07:23:16Z</time></trkpt><trkpt lat="43.01059146596554" lon="12.102103740650977"><ele>313.66666666666663</ele><time>2026-05-03T07:23:17Z</time></trkpt><trkpt lat="43.01066890621489" lon="12.102046506036672"><ele>313.3333333333333</ele><time>2026-05-03T07:23:18Z</time></trkpt><trkpt lat="43.01074509441787" lon="12.101986898820838"><ele>313.0</ele><time>2026-05-03T07:23:19Z</time></trkpt><trkpt lat="43.010785267636216" lon="12.101906752521003"><ele>315.6</ele><time>2026-05-03T07:23:20Z</time></trkpt><trkpt lat="43.01083208395784" lon="12.1017563140538"><ele>318.20000000000005</ele><time>2026-05-03T07:23:22Z</time></trkpt><trkpt lat="43.01090065534266" lon="12.101615545703115"><ele>320.8</ele><time>2026-05-03T07:23:24Z</time></trkpt><trkpt lat="43.01093873255404" lon="12.101540790453317"><ele>323.40000000000003</ele><time>2026-05-03T07:23:25Z</time></trkpt><trkpt lat="43.0110244241491" lon="12.101416544666513"><ele>326.0</ele><time>2026-05-03T07:23:27Z</time></trkpt><trkpt lat="43.01109695693133" lon="12.101279833823066"><ele>326.14285714285717</ele><time>2026-05-03T07:23:29Z</time></trkpt><trkpt lat="43.011138800765714" lon="12.101200695294787"><ele>326.2857142857143</ele><time>2026-05-03T07:23:30Z</time></trkpt><trkpt lat="43.01118330325581" lon="12.10113064768282"><ele>326.42857142857144</ele><time>2026-05-03T07:23:31Z</time></trkpt><trkpt lat="43.01123431323261" lon="12.101056546304953"><ele>326.57142857142856</ele><time>2026-05-03T07:23:32Z</time></trkpt><trkpt lat="43.01127869731359" lon="12.100966934078688"><ele>326.7142857142857</ele><time>2026-05-03T07:23:33Z</time></trkpt><trkpt lat="43.01131263049542" lon="12.100870208442826"><ele>326.85714285714283</ele><time>2026-05-03T07:23:34Z</time></trkpt><trkpt lat="43.01133200554686" lon="12.10077066386247"><ele>327.0</ele><time>2026-05-03T07:23:35Z</time></trkpt><trkpt lat="43.01134406619393" lon="12.100669479680814"><ele>327.3333333333333</ele><time>2026-05-03T07:23:36Z</time></trkpt><trkpt lat="43.01135136378667" lon="12.10058046726401"><ele>327.6666666666667</ele><time>2026-05-03T07:23:37Z</time></trkpt><trkpt lat="43.01136785359063" lon="12.100482755082105"><ele>328.0</ele><time>2026-05-03T07:23:38Z</time></trkpt><trkpt lat="43.01139832810766" lon="12.100371295562553"><ele>328.33333333333337</ele><time>2026-05-03T07:23:39Z</time></trkpt><trkpt lat="43.011425596753384" lon="12.100267026030929"><ele>328.6666666666667</ele><time>2026-05-03T07:23:40Z</time></trkpt><trkpt lat="43.01145698466109" lon="12.100173961467963"><ele>329.0</ele><time>2026-05-03T07:23:41Z</time></trkpt><trkpt lat="43.01150565365939" lon="12.100078704660815"><ele>329.0</ele><time>2026-05-03T07:23:42Z</time></trkpt><trkpt lat="43.01156220680486" lon="12.099973709829873"><ele>329.0</ele><time>2026-05-03T07:23:43Z</time></trkpt><trkpt lat="43.01161859963525" lon="12.09985954691256"><ele>329.0</ele><time>2026-05-03T07:23:44Z</time></trkpt><trkpt lat="43.01167567962059" lon="12.09975260569187"><ele>329.0</ele><time>2026-05-03T07:23:45Z</time></trkpt><trkpt lat="43.01173026164995" lon="12.099658297945044"><ele>329.0</ele><time>2026-05-03T07:23:46Z</time></trkpt><trkpt lat="43.01178269075672" lon="12.099570310171108"><ele>331.83333333333337</ele><time>2026-05-03T07:23:47Z</time></trkpt><trkpt lat="43.01182329396086" lon="12.099476140315291"><ele>334.6666666666667</ele><time>2026-05-03T07:23:48Z</time></trkpt><trkpt lat="43.01184884755667" lon="12.099368055249942"><ele>337.5</ele><time>2026-05-03T07:23:49Z</time></trkpt><trkpt lat="43.011866268872076" lon="12.099251407103857"><ele>340.3333333333333</ele><time>2026-05-03T07:23:50Z</time></trkpt><trkpt lat="43.011887391845185" lon="12.099123699704549"><ele>343.16666666666663</ele><time>2026-05-03T07:23:51Z</time></trkpt><trkpt lat="43.011913050267204" lon="12.098997644977963"><ele>346.0</ele><time>2026-05-03T07:23:52Z</time></trkpt><trkpt lat="43.011934609207195" lon="12.098871256368056"><ele>346.8</ele><time>2026-05-03T07:23:53Z</time></trkpt><trkpt lat="43.01194199708956" lon="12.098742713468477"><ele>347.6</ele><time>2026-05-03T07:23:54Z</time></trkpt><trkpt lat="43.011955398220685" lon="12.098611639898856"><ele>348.4</ele><time>2026-05-03T07:23:55Z</time></trkpt><trkpt lat="43.011989329532234" lon="12.098496399685748"><ele>349.2</ele><time>2026-05-03T07:23:56Z</time></trkpt><trkpt lat="43.012024120434354" lon="12.098376401162113"><ele>350.0</ele><time>2026-05-03T07:23:57Z</time></trkpt><trkpt lat="43.012052550599975" lon="12.098266945345589"><ele>351.1666666666667</ele><time>2026-05-03T07:23:58Z</time></trkpt><trkpt lat="43.012071512176824" lon="12.0981557667879"><ele>352.33333333333337</ele><time>2026-05-03T07:23:59Z</time></trkpt><trkpt lat="43.01208784963378" lon="12.098044001590512"><ele>353.5</ele><time>2026-05-03T07:24:00Z</time></trkpt><trkpt lat="43.012096565575696" lon="12.097922149906394"><ele>354.6666666666667</ele><time>2026-05-03T07:24:01Z</time></trkpt><trkpt lat="43.012097751337066" lon="12.09781189330164"><ele>355.8333333333333</ele><time>2026-05-03T07:24:02Z</time></trkpt><trkpt lat="43.01209220555724" lon="12.09766921733109"><ele>357.0</ele><time>2026-05-03T07:24:04Z</time></trkpt><trkpt lat="43.01207057065266" lon="12.09756390253045"><ele>357.0</ele><time>2026-05-03T07:24:07Z</time></trkpt><trkpt lat="43.012006947425" lon="12.09757296107816"><ele>357.0</ele><time>2026-05-03T07:24:28Z</time></trkpt><trkpt lat="43.01207214142365" lon="12.097661345797937"><ele>357.0</ele><time>2026-05-03T07:24:30Z</time></trkpt><trkpt lat="43.012080491650806" lon="12.097791127673707"><ele>357.0</ele><time>2026-05-03T07:24:32Z</time></trkpt><trkpt lat="43.01208141746604" lon="12.09789023832487"><ele>357.0</ele><time>2026-05-03T07:24:33Z</time></trkpt><trkpt lat="43.01197811951118" lon="12.097954743150062"><ele>357.0</ele><time>2026-05-03T07:24:34Z</time></trkpt><trkpt lat="43.01194500172659" lon="12.098127755439025"><ele>357.0</ele><time>2026-05-03T07:24:36Z</time></trkpt><trkpt lat="43.011923493295136" lon="12.098240118712459"><ele>357.0</ele><time>2026-05-03T07:24:37Z</time></trkpt><trkpt lat="43.01201057326443" lon="12.098381760859338"><ele>357.0</ele><time>2026-05-03T07:24:38Z</time></trkpt><trkpt lat="43.0119849964647" lon="12.098485941619984"><ele>357.0</ele><time>2026-05-03T07:24:39Z</time></trkpt><trkpt lat="43.011955003053906" lon="12.09858423306346"><ele>357.0</ele><time>2026-05-03T07:24:40Z</time></trkpt><trkpt lat="43.011932829199246" lon="12.0986840276236"><ele>355.8333333333333</ele><time>2026-05-03T07:24:41Z</time></trkpt><trkpt lat="43.01192526777797" lon="12.098791609959925"><ele>354.6666666666667</ele><time>2026-05-03T07:24:42Z</time></trkpt><trkpt lat="43.01192277935952" lon="12.098903161154707"><ele>353.5</ele><time>2026-05-03T07:24:43Z</time></trkpt><trkpt lat="43.01190872369459" lon="12.099028508339941"><ele>352.33333333333337</ele><time>2026-05-03T07:24:44Z</time></trkpt><trkpt lat="43.01187989838337" lon="12.099155415203315"><ele>351.1666666666667</ele><time>2026-05-03T07:24:45Z</time></trkpt><trkpt lat="43.011849051627145" lon="12.099273245015867"><ele>350.0</ele><time>2026-05-03T07:24:46Z</time></trkpt><trkpt lat="43.01182671505661" lon="12.09937870850092"><ele>349.33333333333337</ele><time>2026-05-03T07:24:47Z</time></trkpt><trkpt lat="43.01180248032303" lon="12.099478931451248"><ele>348.6666666666667</ele><time>2026-05-03T07:24:48Z</time></trkpt><trkpt lat="43.011770564115565" lon="12.099578768867062"><ele>348.0</ele><time>2026-05-03T07:24:49Z</time></trkpt><trkpt lat="43.01172587633405" lon="12.099669506880655"><ele>347.3333333333333</ele><time>2026-05-03T07:24:50Z</time></trkpt><trkpt lat="43.011674178491724" lon="12.099752808172273"><ele>346.66666666666663</ele><time>2026-05-03T07:24:51Z</time></trkpt><trkpt lat="43.01163127185708" lon="12.099825721186399"><ele>346.0</ele><time>2026-05-03T07:24:52Z</time></trkpt><trkpt lat="43.01159139507828" lon="12.09990314007507"><ele>342.6</ele><time>2026-05-03T07:24:53Z</time></trkpt><trkpt lat="43.01154722215708" lon="12.100000813207815"><ele>339.20000000000005</ele><time>2026-05-03T07:24:54Z</time></trkpt><trkpt lat="43.01150535449022" lon="12.100095771765902"><ele>335.79999999999995</ele><time>2026-05-03T07:24:55Z</time></trkpt><trkpt lat="43.01146803999548" lon="12.10017845418408"><ele>332.4</ele><time>2026-05-03T07:24:56Z</time></trkpt><trkpt lat="43.011405069551806" lon="12.100307097249953"><ele>329.0</ele><time>2026-05-03T07:24:58Z</time></trkpt><trkpt lat="43.011374014912455" lon="12.100460669357465"><ele>329.0</ele><time>2026-05-03T07:25:00Z</time></trkpt><trkpt lat="43.01134560384722" lon="12.10060641411051"><ele>329.0</ele><time>2026-05-03T07:25:02Z</time></trkpt><trkpt lat="43.0113377354324" lon="12.100694645125154"><ele>329.0</ele><time>2026-05-03T07:25:04Z</time></trkpt><trkpt lat="43.01135099965472" lon="12.10078785708414"><ele>329.0</ele><time>2026-05-03T07:29:18Z</time></trkpt><trkpt lat="43.011311579048886" lon="12.10086190006561"><ele>329.0</ele><time>2026-05-03T07:34:53.999Z</time></trkpt><trkpt lat="43.01134060381757" lon="12.100701835414094"><ele>329.0</ele><time>2026-05-03T07:35:02.999Z</time></trkpt><trkpt lat="43.011352732931876" lon="12.100600792594829"><ele>329.0</ele><time>2026-05-03T07:35:05Z</time></trkpt><trkpt lat="43.01136679762233" lon="12.100496551587167"><ele>329.0</ele><time>2026-05-03T07:35:07Z</time></trkpt><trkpt lat="43.0113997022301" lon="12.100356779030516"><ele>329.0</ele><time>2026-05-03T07:35:09Z</time></trkpt><trkpt lat="43.011424017758856" lon="12.100276949332988"><ele>329.0</ele><time>2026-05-03T07:35:10Z</time></trkpt><trkpt lat="43.01145081382521" lon="12.100198793627099"><ele>329.0</ele><time>2026-05-03T07:35:11Z</time></trkpt><trkpt lat="43.01150555011548" lon="12.100076851450519"><ele>329.0</ele><time>2026-05-03T07:35:13Z</time></trkpt><trkpt lat="43.011568262379384" lon="12.099958554080454"><ele>330.6</ele><time>2026-05-03T07:35:15Z</time></trkpt><trkpt lat="43.0116384056188" lon="12.099825527491424"><ele>332.2</ele><time>2026-05-03T07:35:17Z</time></trkpt><trkpt lat="43.01169554007704" lon="12.099719758500793"><ele>333.8</ele><time>2026-05-03T07:35:19Z</time></trkpt><trkpt lat="43.01175145963294" lon="12.09960856345633"><ele>335.40000000000003</ele><time>2026-05-03T07:35:21Z</time></trkpt><trkpt lat="43.01180946127005" lon="12.099478280228888"><ele>337.0</ele><time>2026-05-03T07:35:23Z</time></trkpt><trkpt lat="43.01183303372606" lon="12.099393081628559"><ele>338.5</ele><time>2026-05-03T07:35:24Z</time></trkpt><trkpt lat="43.01185036066049" lon="12.099290919719587"><ele>340.0</ele><time>2026-05-03T07:35:25Z</time></trkpt><trkpt lat="43.01187248330358" lon="12.099181843089726"><ele>341.5</ele><time>2026-05-03T07:35:26Z</time></trkpt><trkpt lat="43.01189195079436" lon="12.099084384041962"><ele>343.0</ele><time>2026-05-03T07:35:27Z</time></trkpt><trkpt lat="43.01191449044096" lon="12.09898691924283"><ele>344.5</ele><time>2026-05-03T07:35:28Z</time></trkpt><trkpt lat="43.01193213506064" lon="12.098875908844436"><ele>346.0</ele><time>2026-05-03T07:35:29Z</time></trkpt><trkpt lat="43.01193594889861" lon="12.09877039425203"><ele>346.57142857142856</ele><time>2026-05-03T07:35:30Z</time></trkpt><trkpt lat="43.01194645704364" lon="12.098662891264826"><ele>347.14285714285717</ele><time>2026-05-03T07:35:31Z</time></trkpt><trkpt lat="43.01196798023698" lon="12.098577670663998"><ele>347.7142857142857</ele><time>2026-05-03T07:35:32Z</time></trkpt><trkpt lat="43.011997422546315" lon="12.098486265916263"><ele>348.2857142857143</ele><time>2026-05-03T07:35:33Z</time></trkpt><trkpt lat="43.01202492127113" lon="12.09839926158674"><ele>348.8571428571429</ele><time>2026-05-03T07:35:34Z</time></trkpt><trkpt lat="43.01204148845563" lon="12.098298857222082"><ele>349.42857142857144</ele><time>2026-05-03T07:35:35Z</time></trkpt><trkpt lat="43.012054676346814" lon="12.098189601582574"><ele>350.0</ele><time>2026-05-03T07:35:36Z</time></trkpt><trkpt lat="43.0120754280006" lon="12.098086031128036"><ele>351.0</ele><time>2026-05-03T07:35:37Z</time></trkpt><trkpt lat="43.012088209232665" lon="12.097988021792519"><ele>352.0</ele><time>2026-05-03T07:35:38Z</time></trkpt><trkpt lat="43.01208572571301" lon="12.097876525074794"><ele>353.0</ele><time>2026-05-03T07:35:39Z</time></trkpt><trkpt lat="43.012077875729986" lon="12.09776878991652"><ele>354.0</ele><time>2026-05-03T07:35:40Z</time></trkpt><trkpt lat="43.012071942184534" lon="12.097666077631251"><ele>355.0</ele><time>2026-05-03T07:35:41Z</time></trkpt><trkpt lat="43.01206544946025" lon="12.09757892126753"><ele>356.0</ele><time>2026-05-03T07:35:42Z</time></trkpt><trkpt lat="43.01207329674893" lon="12.097476468173808"><ele>357.0</ele><time>2026-05-03T07:35:43Z</time></trkpt><trkpt lat="43.012096592699706" lon="12.097362829221776"><ele>358.6</ele><time>2026-05-03T07:35:44Z</time></trkpt><trkpt lat="43.012118403909255" lon="12.097250755599816"><ele>360.20000000000005</ele><time>2026-05-03T07:35:45Z</time></trkpt><trkpt lat="43.01213200266018" lon="12.097108580810396"><ele>361.8</ele><time>2026-05-03T07:35:46Z</time></trkpt><trkpt lat="43.01212187156605" lon="12.096962488281044"><ele>363.4</ele><time>2026-05-03T07:35:47Z</time></trkpt><trkpt lat="43.012120503695456" lon="12.096830697766272"><ele>365.0</ele><time>2026-05-03T07:35:48Z</time></trkpt><trkpt lat="43.01213810169532" lon="12.096716489552165"><ele>365.00000000000006</ele><time>2026-05-03T07:35:49Z</time></trkpt><trkpt lat="43.012166879935016" lon="12.096602832246347"><ele>365.0</ele><time>2026-05-03T07:35:50Z</time></trkpt><trkpt lat="43.012178394248096" lon="12.096498043589984"><ele>365.0</ele><time>2026-05-03T07:35:51Z</time></trkpt><trkpt lat="43.01218536110559" lon="12.096407968250462"><ele>365.0</ele><time>2026-05-03T07:35:52Z</time></trkpt><trkpt lat="43.012176501692544" lon="12.096315919972499"><ele>365.0</ele><time>2026-05-03T07:35:53Z</time></trkpt><trkpt lat="43.01217320677177" lon="12.096214348916273"><ele>365.00000000000006</ele><time>2026-05-03T07:35:54Z</time></trkpt><trkpt lat="43.012152695101086" lon="12.096118984878254"><ele>365.0</ele><time>2026-05-03T07:35:55Z</time></trkpt><trkpt lat="43.012126751397545" lon="12.096012677165977"><ele>366.33333333333337</ele><time>2026-05-03T07:35:56Z</time></trkpt><trkpt lat="43.01210185413007" lon="12.095889008664654"><ele>367.6666666666667</ele><time>2026-05-03T07:35:57Z</time></trkpt><trkpt lat="43.01209369113811" lon="12.09577968557851"><ele>369.0</ele><time>2026-05-03T07:35:58Z</time></trkpt><trkpt lat="43.012076800650945" lon="12.095675427479222"><ele>370.3333333333333</ele><time>2026-05-03T07:35:59Z</time></trkpt><trkpt lat="43.01206636177645" lon="12.095587872068494"><ele>371.66666666666663</ele><time>2026-05-03T07:36:00Z</time></trkpt><trkpt lat="43.01204342712106" lon="12.095472423294703"><ele>373.0</ele><time>2026-05-03T07:36:02Z</time></trkpt><trkpt lat="43.01196935540391" lon="12.095449153464628"><ele>376.2</ele><time>2026-05-03T07:36:05Z</time></trkpt><trkpt lat="43.0119046920221" lon="12.0954538270849"><ele>379.4</ele><time>2026-05-03T07:36:07Z</time></trkpt><trkpt lat="43.01176169800805" lon="12.095496311996303"><ele>382.59999999999997</ele><time>2026-05-03T07:36:09Z</time></trkpt><trkpt lat="43.011673063636465" lon="12.09552955658915"><ele>385.79999999999995</ele><time>2026-05-03T07:36:10Z</time></trkpt><trkpt lat="43.01157899007675" lon="12.095568825836088"><ele>389.0</ele><time>2026-05-03T07:36:11Z</time></trkpt><trkpt lat="43.01146802663216" lon="12.095592506152796"><ele>389.0</ele><time>2026-05-03T07:36:12Z</time></trkpt><trkpt lat="43.01138299502012" lon="12.095671352272923"><ele>389.0</ele><time>2026-05-03T07:36:13Z</time></trkpt><trkpt lat="43.01130621848839" lon="12.095740869967221"><ele>389.0</ele><time>2026-05-03T07:36:14Z</time></trkpt><trkpt lat="43.011237015866996" lon="12.09580723249427"><ele>389.0</ele><time>2026-05-03T07:36:15Z</time></trkpt><trkpt lat="43.011158252635525" lon="12.095857812986377"><ele>389.0</ele><time>2026-05-03T07:36:16Z</time></trkpt><trkpt lat="43.01105211179483" lon="12.095886578552467"><ele>387.6</ele><time>2026-05-03T07:36:17Z</time></trkpt><trkpt lat="43.01095207646566" lon="12.095868297815247"><ele>386.2</ele><time>2026-05-03T07:36:18Z</time></trkpt><trkpt lat="43.010856656756275" lon="12.095812947246097"><ele>384.8</ele><time>2026-05-03T07:36:19Z</time></trkpt><trkpt lat="43.010761933864956" lon="12.095742047867489"><ele>383.40000000000003</ele><time>2026-05-03T07:36:20Z</time></trkpt><trkpt lat="43.01066249437341" lon="12.095678121134544"><ele>382.0</ele><time>2026-05-03T07:36:21Z</time></trkpt><trkpt lat="43.01055853690414" lon="12.095649553252535"><ele>382.0</ele><time>2026-05-03T07:36:22Z</time></trkpt><trkpt lat="43.01045305954429" lon="12.095656941598131"><ele>382.0</ele><time>2026-05-03T07:36:23Z</time></trkpt><trkpt lat="43.01035420153878" lon="12.0956879655675"><ele>382.0</ele><time>2026-05-03T07:36:24Z</time></trkpt><trkpt lat="43.010253377007814" lon="12.09572988989627"><ele>382.0</ele><time>2026-05-03T07:36:25Z</time></trkpt><trkpt lat="43.01016429903505" lon="12.095769735444307"><ele>382.0</ele><time>2026-05-03T07:36:26Z</time></trkpt><trkpt lat="43.01007143922518" lon="12.095760703025174"><ele>383.16666666666663</ele><time>2026-05-03T07:36:27Z</time></trkpt><trkpt lat="43.0099772489389" lon="12.095719492487493"><ele>384.3333333333333</ele><time>2026-05-03T07:36:28Z</time></trkpt><trkpt lat="43.009889628482696" lon="12.09569083134975"><ele>385.5</ele><time>2026-05-03T07:36:29Z</time></trkpt><trkpt lat="43.009813008786274" lon="12.095639858682818"><ele>386.66666666666663</ele><time>2026-05-03T07:36:30Z</time></trkpt><trkpt lat="43.00973827654803" lon="12.095668070048863"><ele>387.8333333333333</ele><time>2026-05-03T07:36:31Z</time></trkpt><trkpt lat="43.00967637137981" lon="12.095771559084195"><ele>389.0</ele><time>2026-05-03T07:36:32Z</time></trkpt><trkpt lat="43.009633235982754" lon="12.095901886341087"><ele>384.4</ele><time>2026-05-03T07:36:33Z</time></trkpt><trkpt lat="43.00958962746346" lon="12.096038102083579"><ele>379.79999999999995</ele><time>2026-05-03T07:36:34Z</time></trkpt><trkpt lat="43.009546004958445" lon="12.096172685967032"><ele>375.20000000000005</ele><time>2026-05-03T07:36:35Z</time></trkpt><trkpt lat="43.00948945248687" lon="12.09628659295653"><ele>370.6</ele><time>2026-05-03T07:36:36Z</time></trkpt><trkpt lat="43.00939481020508" lon="12.096338763096687"><ele>366.0</ele><time>2026-05-03T07:36:37Z</time></trkpt><trkpt lat="43.009298262092635" lon="12.096403833185486"><ele>366.0</ele><time>2026-05-03T07:36:38Z</time></trkpt><trkpt lat="43.009187061581514" lon="12.096441594048642"><ele>366.0</ele><time>2026-05-03T07:36:39Z</time></trkpt><trkpt lat="43.00907326403099" lon="12.096476823874294"><ele>366.0</ele><time>2026-05-03T07:36:40Z</time></trkpt><trkpt lat="43.00895616793627" lon="12.096504261842012"><ele>366.0</ele><time>2026-05-03T07:36:41Z</time></trkpt><trkpt lat="43.00884358174527" lon="12.096533152331785"><ele>367.20000000000005</ele><time>2026-05-03T07:36:42Z</time></trkpt><trkpt lat="43.008739325987136" lon="12.096572292295003"><ele>368.40000000000003</ele><time>2026-05-03T07:36:43Z</time></trkpt><trkpt lat="43.008646510155195" lon="12.096624758907238"><ele>369.6</ele><time>2026-05-03T07:36:44Z</time></trkpt><trkpt lat="43.008562926796856" lon="12.096681853145274"><ele>370.8</ele><time>2026-05-03T07:36:45Z</time></trkpt><trkpt lat="43.00848820276218" lon="12.096737993681783"><ele>372.0</ele><time>2026-05-03T07:36:46Z</time></trkpt><trkpt lat="43.00842203202922" lon="12.096788194372744"><ele>372.0</ele><time>2026-05-03T07:36:47Z</time></trkpt><trkpt lat="43.00833173237535" lon="12.096855832492725"><ele>372.0</ele><time>2026-05-03T07:36:49Z</time></trkpt><trkpt lat="43.00830501234679" lon="12.096722480821013"><ele>372.0</ele><time>2026-05-03T07:36:52Z</time></trkpt><trkpt lat="43.008381557850804" lon="12.096659049148615"><ele>372.0</ele><time>2026-05-03T07:36:59Z</time></trkpt><trkpt lat="43.00846114181268" lon="12.096604517909999"><ele>372.0</ele><time>2026-05-03T07:37:00Z</time></trkpt><trkpt lat="43.008546599399374" lon="12.096552864786059"><ele>372.0</ele><time>2026-05-03T07:37:01Z</time></trkpt><trkpt lat="43.008651076904634" lon="12.09648587319589"><ele>372.0</ele><time>2026-05-03T07:37:02Z</time></trkpt><trkpt lat="43.008760026035695" lon="12.096426084888094"><ele>372.0</ele><time>2026-05-03T07:37:03Z</time></trkpt><trkpt lat="43.00886469398784" lon="12.096373190168011"><ele>372.0</ele><time>2026-05-03T07:37:04Z</time></trkpt><trkpt lat="43.008976184259694" lon="12.096313154252108"><ele>372.0</ele><time>2026-05-03T07:37:05Z</time></trkpt><trkpt lat="43.009093470692235" lon="12.09627220415962"><ele>372.0</ele><time>2026-05-03T07:37:06Z</time></trkpt><trkpt lat="43.00919853568295" lon="12.096228734764068"><ele>372.0</ele><time>2026-05-03T07:37:07Z</time></trkpt><trkpt lat="43.00929254383629" lon="12.096167276447154"><ele>372.0</ele><time>2026-05-03T07:37:08Z</time></trkpt><trkpt lat="43.009372259571215" lon="12.096088494746887"><ele>372.0</ele><time>2026-05-03T07:37:09Z</time></trkpt><trkpt lat="43.009439333745" lon="12.095992833856885"><ele>370.8</ele><time>2026-05-03T07:37:10Z</time></trkpt><trkpt lat="43.00949123409195" lon="12.095904368394013"><ele>369.6</ele><time>2026-05-03T07:37:11Z</time></trkpt><trkpt lat="43.00949188152617" lon="12.095761038210393"><ele>368.40000000000003</ele><time>2026-05-03T07:37:13Z</time></trkpt><trkpt lat="43.00939896977172" lon="12.095667126945994"><ele>367.20000000000005</ele><time>2026-05-03T07:37:15Z</time></trkpt><trkpt lat="43.00932747560293" lon="12.09567387888024"><ele>366.0</ele><time>2026-05-03T07:37:16Z</time></trkpt><trkpt lat="43.00925501898062" lon="12.095648081088864"><ele>371.75</ele><time>2026-05-03T07:37:17Z</time></trkpt><trkpt lat="43.00917108842736" lon="12.095587742785497"><ele>377.5</ele><time>2026-05-03T07:37:19Z</time></trkpt><trkpt lat="43.00934359652755" lon="12.095419263178462"><ele>383.25</ele><time>2026-05-03T07:37:23Z</time></trkpt><trkpt lat="43.009402116003294" lon="12.09535403561957"><ele>389.0</ele><time>2026-05-03T07:37:24Z</time></trkpt><trkpt lat="43.009438295087975" lon="12.095268227435843"><ele>389.0</ele><time>2026-05-03T07:37:25Z</time></trkpt><trkpt lat="43.00945676625731" lon="12.09515600291334"><ele>389.0</ele><time>2026-05-03T07:37:26Z</time></trkpt><trkpt lat="43.00947937177512" lon="12.095026983125528"><ele>389.0</ele><time>2026-05-03T07:37:27Z</time></trkpt><trkpt lat="43.0095198913032" lon="12.094890749101113"><ele>389.0</ele><time>2026-05-03T07:37:28Z</time></trkpt><trkpt lat="43.00956976178919" lon="12.09475135475727"><ele>389.0</ele><time>2026-05-03T07:37:29Z</time></trkpt><trkpt lat="43.00962187747011" lon="12.094602724441863"><ele>392.6</ele><time>2026-05-03T07:37:30Z</time></trkpt><trkpt lat="43.00967163482938" lon="12.094468357066475"><ele>396.2</ele><time>2026-05-03T07:37:31Z</time></trkpt><trkpt lat="43.00972368527408" lon="12.094334119870865"><ele>399.8</ele><time>2026-05-03T07:37:32Z</time></trkpt><trkpt lat="43.009779979422504" lon="12.094210601854128"><ele>403.40000000000003</ele><time>2026-05-03T07:37:33Z</time></trkpt><trkpt lat="43.00982809075296" lon="12.094119483528704"><ele>407.0</ele><time>2026-05-03T07:37:34Z</time></trkpt><trkpt lat="43.009931037145535" lon="12.094066638430336"><ele>406.16666666666663</ele><time>2026-05-03T07:37:36Z</time></trkpt><trkpt lat="43.0099930327512" lon="12.094124062426593"><ele>405.3333333333333</ele><time>2026-05-03T07:37:37Z</time></trkpt><trkpt lat="43.01006708214695" lon="12.094212172384797"><ele>404.5</ele><time>2026-05-03T07:37:38Z</time></trkpt><trkpt lat="43.01014876551634" lon="12.094298065144416"><ele>403.66666666666663</ele><time>2026-05-03T07:37:39Z</time></trkpt><trkpt lat="43.01022940303069" lon="12.094345438049979"><ele>402.8333333333333</ele><time>2026-05-03T07:37:40Z</time></trkpt><trkpt lat="43.01030549351145" lon="12.094349766614247"><ele>402.0</ele><time>2026-05-03T07:37:41Z</time></trkpt><trkpt lat="43.01040032885611" lon="12.094319571395333"><ele>402.0</ele><time>2026-05-03T07:37:42Z</time></trkpt><trkpt lat="43.01050402899217" lon="12.094308529420362"><ele>402.0</ele><time>2026-05-03T07:37:43Z</time></trkpt><trkpt lat="43.01061498703339" lon="12.094311112764187"><ele>402.0</ele><time>2026-05-03T07:37:44Z</time></trkpt><trkpt lat="43.01072664369445" lon="12.0943136593235"><ele>402.0</ele><time>2026-05-03T07:37:45Z</time></trkpt><trkpt lat="43.0108470751866" lon="12.09430033739148"><ele>402.0</ele><time>2026-05-03T07:37:46Z</time></trkpt><trkpt lat="43.01096678515969" lon="12.094278529416966"><ele>403.8</ele><time>2026-05-03T07:37:47Z</time></trkpt><trkpt lat="43.011083813945284" lon="12.094252894077679"><ele>405.6</ele><time>2026-05-03T07:37:48Z</time></trkpt><trkpt lat="43.011197780402725" lon="12.094230427228172"><ele>407.40000000000003</ele><time>2026-05-03T07:37:49Z</time></trkpt><trkpt lat="43.01130468322448" lon="12.09421731572288"><ele>409.20000000000005</ele><time>2026-05-03T07:37:50Z</time></trkpt><trkpt lat="43.01140305777048" lon="12.094204667368784"><ele>411.0</ele><time>2026-05-03T07:37:51Z</time></trkpt><trkpt lat="43.011492137855896" lon="12.09416407984826"><ele>411.0</ele><time>2026-05-03T07:37:52Z</time></trkpt><trkpt lat="43.01155888715565" lon="12.09410483502139"><ele>411.0</ele><time>2026-05-03T07:37:53Z</time></trkpt><trkpt lat="43.01160030782713" lon="12.09402985605013"><ele>411.0</ele><time>2026-05-03T07:37:54Z</time></trkpt><trkpt lat="43.01163734468773" lon="12.093871527378694"><ele>411.0</ele><time>2026-05-03T07:37:56Z</time></trkpt><trkpt lat="43.011638331314494" lon="12.093706433963558"><ele>411.0</ele><time>2026-05-03T07:37:58Z</time></trkpt><trkpt lat="43.01162477832017" lon="12.093617208419973"><ele>415.0</ele><time>2026-05-03T07:37:59Z</time></trkpt><trkpt lat="43.011590978718125" lon="12.093499421202473"><ele>419.0</ele><time>2026-05-03T07:38:01Z</time></trkpt><trkpt lat="43.01154119109866" lon="12.093348332117548"><ele>423.0</ele><time>2026-05-03T07:38:03Z</time></trkpt><trkpt lat="43.01151805905975" lon="12.093264994948814"><ele>427.0</ele><time>2026-05-03T07:38:04Z</time></trkpt><trkpt lat="43.01148441443604" lon="12.093154280140633"><ele>431.0</ele><time>2026-05-03T07:38:06Z</time></trkpt><trkpt lat="43.01144330196666" lon="12.092992357869177"><ele>434.6</ele><time>2026-05-03T07:38:08Z</time></trkpt><trkpt lat="43.01141486640342" lon="12.092909515386841"><ele>438.20000000000005</ele><time>2026-05-03T07:38:09Z</time></trkpt><trkpt lat="43.01135649039345" lon="12.092770045881062"><ele>441.79999999999995</ele><time>2026-05-03T07:38:11Z</time></trkpt><trkpt lat="43.011304784551406" lon="12.092643879853192"><ele>445.4</ele><time>2026-05-03T07:38:13Z</time></trkpt><trkpt lat="43.011252718439685" lon="12.092516178662464"><ele>449.0</ele><time>2026-05-03T07:38:15Z</time></trkpt><trkpt lat="43.011196884674796" lon="12.092408805358113"><ele>451.6</ele><time>2026-05-03T07:38:17Z</time></trkpt><trkpt lat="43.01115576962127" lon="12.092336337021852"><ele>454.2</ele><time>2026-05-03T07:38:18Z</time></trkpt><trkpt lat="43.011128267837286" lon="12.09218643518254"><ele>456.80000000000007</ele><time>2026-05-03T07:38:20Z</time></trkpt><trkpt lat="43.011201423202735" lon="12.092092653663444"><ele>459.40000000000003</ele><time>2026-05-03T07:38:22Z</time></trkpt><trkpt lat="43.01129786356241" lon="12.09206044277778"><ele>462.0</ele><time>2026-05-03T07:38:24Z</time></trkpt><trkpt lat="43.01137405672193" lon="12.09194540930477"><ele>462.0</ele><time>2026-05-03T07:38:26Z</time></trkpt><trkpt lat="43.01142434758819" lon="12.091883792511082"><ele>462.0</ele><time>2026-05-03T07:38:27Z</time></trkpt><trkpt lat="43.011514841669836" lon="12.091793805715536"><ele>462.0</ele><time>2026-05-03T07:38:29Z</time></trkpt><trkpt lat="43.01161281899033" lon="12.091695566966756"><ele>462.0</ele><time>2026-05-03T07:38:31Z</time></trkpt><trkpt lat="43.011674051017145" lon="12.09165622317348"><ele>462.0</ele><time>2026-05-03T07:38:32Z</time></trkpt><trkpt lat="43.0117343922654" lon="12.091613542169544"><ele>462.0</ele><time>2026-05-03T07:38:33Z</time></trkpt><trkpt lat="43.01180912770601" lon="12.091516584953544"><ele>464.40000000000003</ele><time>2026-05-03T07:38:35Z</time></trkpt><trkpt lat="43.011838580240386" lon="12.091372134112879"><ele>466.80000000000007</ele><time>2026-05-03T07:38:37Z</time></trkpt><trkpt lat="43.011776068705245" lon="12.091333264484508"><ele>469.2</ele><time>2026-05-03T07:39:16Z</time></trkpt><trkpt lat="43.01165101848586" lon="12.091289065567345"><ele>471.6</ele><time>2026-05-03T07:39:18Z</time></trkpt><trkpt lat="43.01152644881605" lon="12.09127493253079"><ele>474.0</ele><time>2026-05-03T07:39:20Z</time></trkpt><trkpt lat="43.01139340035003" lon="12.091251744493828"><ele>475.3333333333333</ele><time>2026-05-03T07:39:22Z</time></trkpt><trkpt lat="43.011324316936985" lon="12.091247058418386"><ele>476.66666666666663</ele><time>2026-05-03T07:39:23Z</time></trkpt><trkpt lat="43.011198053918086" lon="12.091281191312682"><ele>478.0</ele><time>2026-05-03T07:39:25Z</time></trkpt><trkpt lat="43.01113388767156" lon="12.091294029679398"><ele>479.3333333333333</ele><time>2026-05-03T07:39:26Z</time></trkpt><trkpt lat="43.011066841279685" lon="12.091289621933704"><ele>480.66666666666663</ele><time>2026-05-03T07:39:27Z</time></trkpt><trkpt lat="43.01100161029736" lon="12.091280821228212"><ele>482.0</ele><time>2026-05-03T07:39:28Z</time></trkpt><trkpt lat="43.01092855895609" lon="12.091274936816914"><ele>482.0</ele><time>2026-05-03T07:39:29Z</time></trkpt><trkpt lat="43.01086275398528" lon="12.091269258136045"><ele>482.00000000000006</ele><time>2026-05-03T07:39:30Z</time></trkpt><trkpt lat="43.01079659181408" lon="12.091258118961644"><ele>482.00000000000006</ele><time>2026-05-03T07:39:31Z</time></trkpt><trkpt lat="43.010680240051975" lon="12.091214130307486"><ele>482.0</ele><time>2026-05-03T07:39:33Z</time></trkpt><trkpt lat="43.01057299403373" lon="12.091148982789267"><ele>482.0</ele><time>2026-05-03T07:39:35Z</time></trkpt><trkpt lat="43.01053669959937" lon="12.091008925793234"><ele>482.99999999999994</ele><time>2026-05-03T07:39:37Z</time></trkpt><trkpt lat="43.01051394806442" lon="12.09091401191696"><ele>484.0</ele><time>2026-05-03T07:39:38Z</time></trkpt><trkpt lat="43.01047431645659" lon="12.090827264751175"><ele>485.0</ele><time>2026-05-03T07:39:39Z</time></trkpt><trkpt lat="43.01042813543842" lon="12.090734818558456"><ele>486.0</ele><time>2026-05-03T07:39:40Z</time></trkpt><trkpt lat="43.0103891577286" lon="12.090641301207315"><ele>486.99999999999994</ele><time>2026-05-03T07:39:41Z</time></trkpt><trkpt lat="43.01034225809575" lon="12.090549025760273"><ele>488.0</ele><time>2026-05-03T07:39:42Z</time></trkpt><trkpt lat="43.01029468584202" lon="12.09045061452932"><ele>487.99999999999994</ele><time>2026-05-03T07:39:43Z</time></trkpt><trkpt lat="43.01024512783719" lon="12.09036460284337"><ele>488.0</ele><time>2026-05-03T07:39:44Z</time></trkpt><trkpt lat="43.01020378177593" lon="12.090295489218049"><ele>488.0</ele><time>2026-05-03T07:39:45Z</time></trkpt><trkpt lat="43.010124042297775" lon="12.090179605589316"><ele>488.0</ele><time>2026-05-03T07:39:47Z</time></trkpt><trkpt lat="43.01007793960753" lon="12.09011600850305"><ele>487.99999999999994</ele><time>2026-05-03T07:39:48Z</time></trkpt><trkpt lat="43.01003052642264" lon="12.09005367760984"><ele>488.0</ele><time>2026-05-03T07:39:49Z</time></trkpt><trkpt lat="43.00998106882929" lon="12.089991725555754"><ele>490.16666666666663</ele><time>2026-05-03T07:39:50Z</time></trkpt><trkpt lat="43.00992903192454" lon="12.089921254654302"><ele>492.3333333333333</ele><time>2026-05-03T07:39:51Z</time></trkpt><trkpt lat="43.009873152046445" lon="12.089856249148712"><ele>494.5</ele><time>2026-05-03T07:39:52Z</time></trkpt><trkpt lat="43.00982143208361" lon="12.089799108722366"><ele>496.66666666666663</ele><time>2026-05-03T07:39:53Z</time></trkpt><trkpt lat="43.009738261646945" lon="12.089699256987217"><ele>498.8333333333333</ele><time>2026-05-03T07:39:55Z</time></trkpt><trkpt lat="43.00968063589306" lon="12.089651456405088"><ele>501.0</ele><time>2026-05-03T07:39:56Z</time></trkpt><trkpt lat="43.00962273205664" lon="12.089613718207751"><ele>501.0</ele><time>2026-05-03T07:39:57Z</time></trkpt><trkpt lat="43.00952215213629" lon="12.089553134016747"><ele>501.0</ele><time>2026-05-03T07:39:59Z</time></trkpt><trkpt lat="43.009395243905665" lon="12.089510220577612"><ele>501.0</ele><time>2026-05-03T07:40:01Z</time></trkpt><trkpt lat="43.00932031499295" lon="12.089496563538793"><ele>501.0</ele><time>2026-05-03T07:40:02Z</time></trkpt><trkpt lat="43.009245281150214" lon="12.089473778871136"><ele>501.0</ele><time>2026-05-03T07:40:03Z</time></trkpt><trkpt lat="43.00918124088377" lon="12.089439220886238"><ele>500.5</ele><time>2026-05-03T07:40:04Z</time></trkpt><trkpt lat="43.009120322932475" lon="12.089389750498961"><ele>500.0</ele><time>2026-05-03T07:40:05Z</time></trkpt><trkpt lat="43.00905829936966" lon="12.089339950801323"><ele>499.5</ele><time>2026-05-03T07:40:06Z</time></trkpt><trkpt lat="43.00900297342792" lon="12.08929284329165"><ele>499.0</ele><time>2026-05-03T07:40:07Z</time></trkpt><trkpt lat="43.008916715573534" lon="12.089210303275324"><ele>498.5</ele><time>2026-05-03T07:40:09Z</time></trkpt><trkpt lat="43.00883101047308" lon="12.08909544926023"><ele>498.0</ele><time>2026-05-03T07:40:11Z</time></trkpt><trkpt lat="43.008759681762676" lon="12.088966858815771"><ele>498.0</ele><time>2026-05-03T07:40:13Z</time></trkpt><trkpt lat="43.00874974272958" lon="12.088811145907902"><ele>497.99999999999994</ele><time>2026-05-03T07:40:15Z</time></trkpt><trkpt lat="43.00874049885666" lon="12.088638275157196"><ele>497.99999999999994</ele><time>2026-05-03T07:40:17Z</time></trkpt><trkpt lat="43.008750861274144" lon="12.088511151263665"><ele>498.0</ele><time>2026-05-03T07:40:19Z</time></trkpt><trkpt lat="43.00877930867325" lon="12.088431864697382"><ele>498.0</ele><time>2026-05-03T07:40:22Z</time></trkpt><trkpt lat="43.008891982663485" lon="12.088408419202011"><ele>498.0</ele><time>2026-05-03T07:42:49Z</time></trkpt><trkpt lat="43.008967873625366" lon="12.088383624203253"><ele>498.0</ele><time>2026-05-03T07:42:50Z</time></trkpt><trkpt lat="43.009061692930516" lon="12.088344726043259"><ele>498.0</ele><time>2026-05-03T07:42:51Z</time></trkpt><trkpt lat="43.00914524911904" lon="12.088302604726735"><ele>498.0</ele><time>2026-05-03T07:42:52Z</time></trkpt><trkpt lat="43.009208581715065" lon="12.088268281802627"><ele>498.0</ele><time>2026-05-03T07:42:53Z</time></trkpt><trkpt lat="43.00926812343849" lon="12.088226026737072"><ele>498.0</ele><time>2026-05-03T07:42:54Z</time></trkpt><trkpt lat="43.00934154202018" lon="12.088214798948918"><ele>499.0</ele><time>2026-05-03T07:42:55Z</time></trkpt><trkpt lat="43.00942672757716" lon="12.088155573290036"><ele>499.99999999999994</ele><time>2026-05-03T07:42:57Z</time></trkpt><trkpt lat="43.00946740106088" lon="12.08808829966686"><ele>500.99999999999994</ele><time>2026-05-03T07:42:58Z</time></trkpt><trkpt lat="43.0095679565615" lon="12.087998275615288"><ele>502.0</ele><time>2026-05-03T07:43:00Z</time></trkpt><trkpt lat="43.009631891068835" lon="12.087974408669721"><ele>503.0</ele><time>2026-05-03T07:43:01Z</time></trkpt><trkpt lat="43.00974839465583" lon="12.087999818438576"><ele>503.0</ele><time>2026-05-03T07:43:03Z</time></trkpt><trkpt lat="43.009848198690705" lon="12.088053428722967"><ele>502.99999999999994</ele><time>2026-05-03T07:43:05Z</time></trkpt><trkpt lat="43.00994742960929" lon="12.088100415427725"><ele>502.99999999999994</ele><time>2026-05-03T07:43:07Z</time></trkpt><trkpt lat="43.01002969549558" lon="12.088156654772442"><ele>503.0</ele><time>2026-05-03T07:43:09Z</time></trkpt><trkpt lat="43.01011121544226" lon="12.088215327242018"><ele>503.0</ele><time>2026-05-03T07:43:11Z</time></trkpt><trkpt lat="43.01020625187004" lon="12.088283889645819"><ele>507.0</ele><time>2026-05-03T07:43:13Z</time></trkpt><trkpt lat="43.01028511583751" lon="12.088361818281756"><ele>510.99999999999994</ele><time>2026-05-03T07:43:15Z</time></trkpt><trkpt lat="43.0103859953766" lon="12.088402852369041"><ele>515.0</ele><time>2026-05-03T07:43:17Z</time></trkpt><trkpt lat="43.01049285734934" lon="12.088458147416866"><ele>519.0</ele><time>2026-05-03T07:43:19Z</time></trkpt><trkpt lat="43.01057993548177" lon="12.088536392924237"><ele>523.0</ele><time>2026-05-03T07:43:21Z</time></trkpt><trkpt lat="43.010671871283925" lon="12.088581144701184"><ele>523.0</ele><time>2026-05-03T07:43:23Z</time></trkpt><trkpt lat="43.010770119056346" lon="12.088581005283503"><ele>523.0</ele><time>2026-05-03T07:43:25Z</time></trkpt><trkpt lat="43.0108507747779" lon="12.088576500706946"><ele>523.0</ele><time>2026-05-03T07:43:26Z</time></trkpt><trkpt lat="43.01092765348767" lon="12.088559193782276"><ele>523.0</ele><time>2026-05-03T07:43:27Z</time></trkpt><trkpt lat="43.01101190706733" lon="12.088441175818852"><ele>523.0</ele><time>2026-05-03T07:43:29Z</time></trkpt><trkpt lat="43.011063100596836" lon="12.088378194465848"><ele>523.0</ele><time>2026-05-03T07:43:30Z</time></trkpt><trkpt lat="43.01112278422581" lon="12.088329425864334"><ele>525.0</ele><time>2026-05-03T07:43:31Z</time></trkpt><trkpt lat="43.01118354225979" lon="12.088262932946822"><ele>527.0</ele><time>2026-05-03T07:43:32Z</time></trkpt><trkpt lat="43.011244106299245" lon="12.088185378303772"><ele>529.0</ele><time>2026-05-03T07:43:33Z</time></trkpt><trkpt lat="43.01130345380281" lon="12.088104272701836"><ele>531.0</ele><time>2026-05-03T07:43:34Z</time></trkpt><trkpt lat="43.01136552419052" lon="12.088023907087777"><ele>533.0</ele><time>2026-05-03T07:43:35Z</time></trkpt><trkpt lat="43.01141660726294" lon="12.087941832135263"><ele>535.0</ele><time>2026-05-03T07:43:36Z</time></trkpt><trkpt lat="43.011466374710146" lon="12.08787447319868"><ele>536.2857142857142</ele><time>2026-05-03T07:43:37Z</time></trkpt><trkpt lat="43.01152266107788" lon="12.0878091344963"><ele>537.5714285714286</ele><time>2026-05-03T07:43:38Z</time></trkpt><trkpt lat="43.0115777811087" lon="12.08774816049817"><ele>538.8571428571429</ele><time>2026-05-03T07:43:39Z</time></trkpt><trkpt lat="43.01162490025566" lon="12.08767833597973"><ele>540.1428571428571</ele><time>2026-05-03T07:43:40Z</time></trkpt><trkpt lat="43.011678144087035" lon="12.087611424574115"><ele>541.4285714285714</ele><time>2026-05-03T07:43:41Z</time></trkpt><trkpt lat="43.01173650515121" lon="12.087544274982923"><ele>542.7142857142857</ele><time>2026-05-03T07:43:42Z</time></trkpt><trkpt lat="43.011792276534806" lon="12.087479063624158"><ele>544.0</ele><time>2026-05-03T07:43:43Z</time></trkpt><trkpt lat="43.01184390542633" lon="12.087414023297981"><ele>545.1666666666667</ele><time>2026-05-03T07:43:44Z</time></trkpt><trkpt lat="43.01188915733634" lon="12.087344394803292"><ele>546.3333333333334</ele><time>2026-05-03T07:43:45Z</time></trkpt><trkpt lat="43.011933127199285" lon="12.087279299148312"><ele>547.5</ele><time>2026-05-03T07:43:46Z</time></trkpt><trkpt lat="43.01201565841327" lon="12.087161865937482"><ele>548.6666666666666</ele><time>2026-05-03T07:43:48Z</time></trkpt><trkpt lat="43.012100338760355" lon="12.087033296990894"><ele>549.8333333333333</ele><time>2026-05-03T07:43:50Z</time></trkpt><trkpt lat="43.01215136818355" lon="12.086972929993651"><ele>551.0</ele><time>2026-05-03T07:43:51Z</time></trkpt><trkpt lat="43.01223099534746" lon="12.086856160613193"><ele>551.0</ele><time>2026-05-03T07:43:53Z</time></trkpt><trkpt lat="43.01230486667936" lon="12.08674775860877"><ele>551.0</ele><time>2026-05-03T07:43:55Z</time></trkpt><trkpt lat="43.01236342374284" lon="12.086686538443331"><ele>551.0</ele><time>2026-05-03T07:43:57Z</time></trkpt><trkpt lat="43.01242504524109" lon="12.086598937677286"><ele>551.0</ele><time>2026-05-03T07:43:59Z</time></trkpt><trkpt lat="43.01250849468388" lon="12.086510828045768"><ele>551.0</ele><time>2026-05-03T07:44:01Z</time></trkpt><trkpt lat="43.012563344699934" lon="12.08645331299778"><ele>551.0</ele><time>2026-05-03T07:44:02Z</time></trkpt><trkpt lat="43.01265966295405" lon="12.086356062233769"><ele>549.8333333333333</ele><time>2026-05-03T07:44:04Z</time></trkpt><trkpt lat="43.01273961328791" lon="12.086257460325895"><ele>548.6666666666666</ele><time>2026-05-03T07:44:06Z</time></trkpt><trkpt lat="43.012807222797605" lon="12.086150611196642"><ele>547.5</ele><time>2026-05-03T07:44:08Z</time></trkpt><trkpt lat="43.01286061372674" lon="12.08607141715499"><ele>546.3333333333334</ele><time>2026-05-03T07:44:10Z</time></trkpt><trkpt lat="43.01291676968276" lon="12.08599361338498"><ele>545.1666666666667</ele><time>2026-05-03T07:44:13Z</time></trkpt><trkpt lat="43.01297439617319" lon="12.085958908698826"><ele>544.0</ele><time>2026-05-03T07:44:21Z</time></trkpt><trkpt lat="43.01304753016292" lon="12.085922924497195"><ele>544.0</ele><time>2026-05-03T07:44:22Z</time></trkpt><trkpt lat="43.01313469054531" lon="12.085860274961563"><ele>544.0</ele><time>2026-05-03T07:44:24Z</time></trkpt><trkpt lat="43.01321417283564" lon="12.08580094354523"><ele>544.0</ele><time>2026-05-03T07:44:26Z</time></trkpt><trkpt lat="43.0133075336947" lon="12.085794898001584"><ele>544.0</ele><time>2026-05-03T07:44:28Z</time></trkpt><trkpt lat="43.013430562999844" lon="12.085752479577065"><ele>544.0</ele><time>2026-05-03T07:44:30Z</time></trkpt><trkpt lat="43.013496835258216" lon="12.085712118821442"><ele>543.6666666666667</ele><time>2026-05-03T07:44:31Z</time></trkpt><trkpt lat="43.01360579607518" lon="12.085674378354451"><ele>543.3333333333334</ele><time>2026-05-03T07:44:33Z</time></trkpt><trkpt lat="43.01373423603028" lon="12.085683269098789"><ele>543.0</ele><time>2026-05-03T07:44:35Z</time></trkpt><trkpt lat="43.01380154358301" lon="12.085676993536458"><ele>542.6666666666666</ele><time>2026-05-03T07:44:36Z</time></trkpt><trkpt lat="43.01386625036598" lon="12.08567337897564"><ele>542.3333333333333</ele><time>2026-05-03T07:44:37Z</time></trkpt><trkpt lat="43.01392594999419" lon="12.085710299430664"><ele>542.0</ele><time>2026-05-03T07:44:38Z</time></trkpt><trkpt lat="43.01398488384737" lon="12.085770088706452"><ele>542.0</ele><time>2026-05-03T07:44:39Z</time></trkpt><trkpt lat="43.01404702616996" lon="12.085855698461993"><ele>542.0</ele><time>2026-05-03T07:44:40Z</time></trkpt><trkpt lat="43.01410272460495" lon="12.085970791663682"><ele>542.0</ele><time>2026-05-03T07:44:41Z</time></trkpt><trkpt lat="43.01415529468689" lon="12.086069020742679"><ele>542.0</ele><time>2026-05-03T07:44:42Z</time></trkpt><trkpt lat="43.01420356559014" lon="12.086131929620398"><ele>542.0</ele><time>2026-05-03T07:44:43Z</time></trkpt><trkpt lat="43.0142562421324" lon="12.086186133303762"><ele>542.0</ele><time>2026-05-03T07:44:44Z</time></trkpt><trkpt lat="43.014311090102076" lon="12.086258885259094"><ele>543.5</ele><time>2026-05-03T07:44:45Z</time></trkpt><trkpt lat="43.014370919241564" lon="12.086335164614008"><ele>545.0</ele><time>2026-05-03T07:44:46Z</time></trkpt><trkpt lat="43.014445217274535" lon="12.086378275543728"><ele>546.5</ele><time>2026-05-03T07:44:47Z</time></trkpt><trkpt lat="43.014526184291356" lon="12.086427015881712"><ele>548.0</ele><time>2026-05-03T07:44:48Z</time></trkpt><trkpt lat="43.01460308499479" lon="12.086480443236454"><ele>549.5</ele><time>2026-05-03T07:44:49Z</time></trkpt><trkpt lat="43.01468157392722" lon="12.08651573449924"><ele>551.0</ele><time>2026-05-03T07:44:50Z</time></trkpt><trkpt lat="43.01476171888674" lon="12.086528446767469"><ele>551.0</ele><time>2026-05-03T07:44:51Z</time></trkpt><trkpt lat="43.014837072415254" lon="12.086522786498994"><ele>551.0</ele><time>2026-05-03T07:44:52Z</time></trkpt><trkpt lat="43.014907121972236" lon="12.086492122956104"><ele>551.0</ele><time>2026-05-03T07:44:53Z</time></trkpt><trkpt lat="43.01497664984434" lon="12.086434481532986"><ele>551.0</ele><time>2026-05-03T07:44:54Z</time></trkpt><trkpt lat="43.01503824123002" lon="12.086388835264586"><ele>551.0</ele><time>2026-05-03T07:44:55Z</time></trkpt><trkpt lat="43.01515393985628" lon="12.086337122557467"><ele>551.0</ele><time>2026-05-03T07:44:57Z</time></trkpt><trkpt lat="43.01527799057465" lon="12.08628559598299"><ele>553.0</ele><time>2026-05-03T07:44:59Z</time></trkpt><trkpt lat="43.01536188433032" lon="12.086187038385402"><ele>555.0</ele><time>2026-05-03T07:45:01Z</time></trkpt><trkpt lat="43.01542986505029" lon="12.086118804012584"><ele>557.0</ele><time>2026-05-03T07:45:03Z</time></trkpt><trkpt lat="43.01553343664629" lon="12.086101676388438"><ele>559.0</ele><time>2026-05-03T07:45:05Z</time></trkpt><trkpt lat="43.01564583673752" lon="12.086154972857216"><ele>561.0</ele><time>2026-05-03T07:45:07Z</time></trkpt><trkpt lat="43.0157772940456" lon="12.08621510871383"><ele>560.2</ele><time>2026-05-03T07:45:09Z</time></trkpt><trkpt lat="43.01583864410265" lon="12.086254657475154"><ele>559.4000000000001</ele><time>2026-05-03T07:45:10Z</time></trkpt><trkpt lat="43.01595935603307" lon="12.086285979086888"><ele>558.6</ele><time>2026-05-03T07:45:12Z</time></trkpt><trkpt lat="43.01604393557216" lon="12.086211930797354"><ele>557.8000000000001</ele><time>2026-05-03T07:45:14Z</time></trkpt><trkpt lat="43.016111478910844" lon="12.086045705810012"><ele>557.0</ele><time>2026-05-03T07:45:16Z</time></trkpt><trkpt lat="43.016158270661805" lon="12.085971851994563"><ele>557.0</ele><time>2026-05-03T07:45:17Z</time></trkpt><trkpt lat="43.01621601542593" lon="12.085924959187059"><ele>557.0</ele><time>2026-05-03T07:45:18Z</time></trkpt><trkpt lat="43.016282057220785" lon="12.085892819472333"><ele>557.0</ele><time>2026-05-03T07:45:19.001Z</time></trkpt><trkpt lat="43.01636008297064" lon="12.0858577120728"><ele>557.0</ele><time>2026-05-03T07:45:20.001Z</time></trkpt><trkpt lat="43.01642702103956" lon="12.085799414335495"><ele>557.0</ele><time>2026-05-03T07:45:21Z</time></trkpt><trkpt lat="43.01648374196783" lon="12.085759566143132"><ele>557.0</ele><time>2026-05-03T07:45:22Z</time></trkpt><trkpt lat="43.01658632757056" lon="12.085699802534508"><ele>561.2</ele><time>2026-05-03T07:45:24Z</time></trkpt><trkpt lat="43.01670311458074" lon="12.08566515575148"><ele>565.4000000000001</ele><time>2026-05-03T07:45:26Z</time></trkpt><trkpt lat="43.01676453574357" lon="12.085640417221464"><ele>569.5999999999999</ele><time>2026-05-03T07:45:27Z</time></trkpt><trkpt lat="43.01687658525728" lon="12.085621759044209"><ele>573.8</ele><time>2026-05-03T07:45:29Z</time></trkpt><trkpt lat="43.01699553898703" lon="12.085627656124581"><ele>578.0</ele><time>2026-05-03T07:45:31Z</time></trkpt><trkpt lat="43.017059205551945" lon="12.08564771241402"><ele>578.0</ele><time>2026-05-03T07:45:32Z</time></trkpt><trkpt lat="43.01711792314654" lon="12.085729340309157"><ele>578.0</ele><time>2026-05-03T07:45:34Z</time></trkpt><trkpt lat="43.01717616400268" lon="12.085819456683161"><ele>578.0</ele><time>2026-05-03T07:45:36Z</time></trkpt><trkpt lat="43.01724568487602" lon="12.085881966333547"><ele>578.0</ele><time>2026-05-03T07:45:37Z</time></trkpt><trkpt lat="43.01731797829919" lon="12.085959070078703"><ele>578.0</ele><time>2026-05-03T07:45:38Z</time></trkpt><trkpt lat="43.01737690776842" lon="12.086000674758786"><ele>578.0</ele><time>2026-05-03T07:45:39Z</time></trkpt><trkpt lat="43.01747395455341" lon="12.085986000383055"><ele>570.6</ele><time>2026-05-03T07:45:41Z</time></trkpt><trkpt lat="43.017565248154995" lon="12.085945116492923"><ele>563.1999999999999</ele><time>2026-05-03T07:45:43Z</time></trkpt><trkpt lat="43.01766890007082" lon="12.085907820291846"><ele>555.8</ele><time>2026-05-03T07:45:45Z</time></trkpt><trkpt lat="43.01775018405789" lon="12.085880591934828"><ele>548.4</ele><time>2026-05-03T07:45:47Z</time></trkpt><trkpt lat="43.01782583479596" lon="12.085876059653197"><ele>541.0</ele><time>2026-05-03T07:45:49Z</time></trkpt><trkpt lat="43.01794171873181" lon="12.085851448654568"><ele>541.0</ele><time>2026-05-03T07:45:52Z</time></trkpt><trkpt lat="43.018016697681865" lon="12.085862674906393"><ele>541.0</ele><time>2026-05-03T07:46:50Z</time></trkpt><trkpt lat="43.01807536512988" lon="12.085826900567639"><ele>541.0</ele><time>2026-05-03T07:46:52Z</time></trkpt><trkpt lat="43.018180602761994" lon="12.085807586573237"><ele>541.0</ele><time>2026-05-03T07:46:55Z</time></trkpt><trkpt lat="43.0182551723421" lon="12.085824874900473"><ele>541.0</ele><time>2026-05-03T07:46:57Z</time></trkpt><trkpt lat="43.01831990476411" lon="12.085874468070754"><ele>541.0</ele><time>2026-05-03T07:46:59Z</time></trkpt><trkpt lat="43.01835443480398" lon="12.085951514626098"><ele>541.8333333333334</ele><time>2026-05-03T07:47:02Z</time></trkpt><trkpt lat="43.0183585073639" lon="12.086048415394679"><ele>542.6666666666667</ele><time>2026-05-03T07:47:04Z</time></trkpt><trkpt lat="43.01834449761941" lon="12.086150514778582"><ele>543.5</ele><time>2026-05-03T07:47:06Z</time></trkpt><trkpt lat="43.01834073943981" lon="12.086282639780407"><ele>544.3333333333334</ele><time>2026-05-03T07:47:08Z</time></trkpt><trkpt lat="43.01836044033667" lon="12.086415384156863"><ele>545.1666666666666</ele><time>2026-05-03T07:47:10Z</time></trkpt><trkpt lat="43.018393783658254" lon="12.086545462791912"><ele>546.0</ele><time>2026-05-03T07:47:12Z</time></trkpt><trkpt lat="43.018448759358144" lon="12.08665602981961"><ele>546.0</ele><time>2026-05-03T07:47:14Z</time></trkpt><trkpt lat="43.01847578702243" lon="12.086798246851323"><ele>546.0</ele><time>2026-05-03T07:47:16Z</time></trkpt><trkpt lat="43.01845431226564" lon="12.086950420409273"><ele>546.0</ele><time>2026-05-03T07:47:18Z</time></trkpt><trkpt lat="43.01846456585809" lon="12.087092049546944"><ele>546.0</ele><time>2026-05-03T07:47:20Z</time></trkpt><trkpt lat="43.01851496976297" lon="12.08717960570818"><ele>546.0</ele><time>2026-05-03T07:47:22Z</time></trkpt><trkpt lat="43.018589082553895" lon="12.087236712858209"><ele>546.0</ele><time>2026-05-03T07:47:24Z</time></trkpt><trkpt lat="43.01866031403948" lon="12.087299020779488"><ele>546.0</ele><time>2026-05-03T07:47:26Z</time></trkpt><trkpt lat="43.018728690837456" lon="12.087364967320624"><ele>546.0</ele><time>2026-05-03T07:47:28Z</time></trkpt><trkpt lat="43.018793975982305" lon="12.087420760015304"><ele>546.0</ele><time>2026-05-03T07:47:30Z</time></trkpt><trkpt lat="43.018873895132614" lon="12.087431379539757"><ele>546.0</ele><time>2026-05-03T07:47:32Z</time></trkpt><trkpt lat="43.018991652443134" lon="12.087476615508722"><ele>546.0</ele><time>2026-05-03T07:47:34Z</time></trkpt><trkpt lat="43.01905378315946" lon="12.087519477907518"><ele>544.3333333333334</ele><time>2026-05-03T07:47:35Z</time></trkpt><trkpt lat="43.01911466400035" lon="12.08755961261445"><ele>542.6666666666666</ele><time>2026-05-03T07:47:36Z</time></trkpt><trkpt lat="43.01918547491866" lon="12.087620209544518"><ele>541.0</ele><time>2026-05-03T07:47:38Z</time></trkpt><trkpt lat="43.01922911066049" lon="12.087725032549677"><ele>539.3333333333333</ele><time>2026-05-03T07:47:40Z</time></trkpt><trkpt lat="43.019262533500765" lon="12.087851030143336"><ele>537.6666666666666</ele><time>2026-05-03T07:47:42Z</time></trkpt><trkpt lat="43.01929335074129" lon="12.087949500283866"><ele>536.0</ele><time>2026-05-03T07:47:44Z</time></trkpt><trkpt lat="43.01933572990734" lon="12.088044425712903"><ele>539.3333333333333</ele><time>2026-05-03T07:47:46Z</time></trkpt><trkpt lat="43.01938652941832" lon="12.088137373123251"><ele>542.6666666666666</ele><time>2026-05-03T07:47:48Z</time></trkpt><trkpt lat="43.01945593168385" lon="12.088209356282567"><ele>546.0</ele><time>2026-05-03T07:47:50Z</time></trkpt><trkpt lat="43.01952443685723" lon="12.088256106755523"><ele>549.3333333333334</ele><time>2026-05-03T07:47:52Z</time></trkpt><trkpt lat="43.019587099087204" lon="12.088288671027103"><ele>552.6666666666667</ele><time>2026-05-03T07:47:55Z</time></trkpt><trkpt lat="43.019673894377625" lon="12.08830084256782"><ele>556.0</ele><time>2026-05-03T07:47:59Z</time></trkpt><trkpt lat="43.01974361958867" lon="12.088318067634981"><ele>556.0</ele><time>2026-05-03T07:48:01Z</time></trkpt><trkpt lat="43.01983003923414" lon="12.088364774825324"><ele>556.0</ele><time>2026-05-03T07:48:03Z</time></trkpt><trkpt lat="43.01992859434345" lon="12.088409566344218"><ele>556.0</ele><time>2026-05-03T07:48:05Z</time></trkpt><trkpt lat="43.02003685959563" lon="12.088467081662257"><ele>556.0</ele><time>2026-05-03T07:48:07Z</time></trkpt><trkpt lat="43.02009987035187" lon="12.088503345150057"><ele>556.0</ele><time>2026-05-03T07:48:08Z</time></trkpt><trkpt lat="43.02020716135666" lon="12.0885398396129"><ele>558.75</ele><time>2026-05-03T07:48:10Z</time></trkpt><trkpt lat="43.02031339009723" lon="12.088587206404709"><ele>561.5</ele><time>2026-05-03T07:48:12Z</time></trkpt><trkpt lat="43.02047812712578" lon="12.088444330174843"><ele>564.25</ele><time>2026-05-03T07:48:14Z</time></trkpt><trkpt lat="43.02058815503715" lon="12.088493869015377"><ele>567.0</ele><time>2026-05-03T07:48:16Z</time></trkpt><trkpt lat="43.02070960163141" lon="12.088513470396245"><ele>567.0</ele><time>2026-05-03T07:48:18Z</time></trkpt><trkpt lat="43.02079798833213" lon="12.088590125598161"><ele>567.0</ele><time>2026-05-03T07:48:20Z</time></trkpt><trkpt lat="43.020875971642646" lon="12.088581390298492"><ele>567.0</ele><time>2026-05-03T07:48:22Z</time></trkpt><trkpt lat="43.020978083015095" lon="12.088620993772375"><ele>567.0</ele><time>2026-05-03T07:48:24Z</time></trkpt><trkpt lat="43.02106355654879" lon="12.08868406699378"><ele>567.0</ele><time>2026-05-03T07:48:26Z</time></trkpt><trkpt lat="43.02115003232442" lon="12.08873858751428"><ele>566.2857142857143</ele><time>2026-05-03T07:48:37Z</time></trkpt><trkpt lat="43.02120351654981" lon="12.08880022990444"><ele>565.5714285714286</ele><time>2026-05-03T07:48:38Z</time></trkpt><trkpt lat="43.02125534063717" lon="12.088856609403337"><ele>564.8571428571429</ele><time>2026-05-03T07:48:39Z</time></trkpt><trkpt lat="43.02130608119094" lon="12.08891409702894"><ele>564.1428571428571</ele><time>2026-05-03T07:48:40Z</time></trkpt><trkpt lat="43.0213599240808" lon="12.088988016013175"><ele>563.4285714285714</ele><time>2026-05-03T07:48:41Z</time></trkpt><trkpt lat="43.02141655649229" lon="12.089058431381288"><ele>562.7142857142858</ele><time>2026-05-03T07:48:42Z</time></trkpt><trkpt lat="43.02146533988391" lon="12.089135044960006"><ele>562.0</ele><time>2026-05-03T07:48:43Z</time></trkpt><trkpt lat="43.021512113924025" lon="12.08920875299991"><ele>559.1428571428572</ele><time>2026-05-03T07:48:44Z</time></trkpt><trkpt lat="43.021559365872115" lon="12.089284953858451"><ele>556.2857142857143</ele><time>2026-05-03T07:48:45Z</time></trkpt><trkpt lat="43.02160415678037" lon="12.08937467560811"><ele>553.4285714285714</ele><time>2026-05-03T07:48:46Z</time></trkpt><trkpt lat="43.02164920196264" lon="12.089449558234245"><ele>550.5714285714287</ele><time>2026-05-03T07:48:47Z</time></trkpt><trkpt lat="43.021687144571416" lon="12.08952059674403"><ele>547.7142857142858</ele><time>2026-05-03T07:48:48Z</time></trkpt><trkpt lat="43.02174164345657" lon="12.089594194159426"><ele>544.8571428571429</ele><time>2026-05-03T07:48:49Z</time></trkpt><trkpt lat="43.02179923321738" lon="12.089648316156273"><ele>542.0</ele><time>2026-05-03T07:48:50Z</time></trkpt><trkpt lat="43.02189376417583" lon="12.089741175274684"><ele>541.6</ele><time>2026-05-03T07:48:52Z</time></trkpt><trkpt lat="43.022000319568455" lon="12.089841561665626"><ele>541.2</ele><time>2026-05-03T07:48:54Z</time></trkpt><trkpt lat="43.02208043746853" lon="12.08989151814119"><ele>540.8</ele><time>2026-05-03T07:48:55Z</time></trkpt><trkpt lat="43.02215723206377" lon="12.089944642003905"><ele>540.4</ele><time>2026-05-03T07:48:56Z</time></trkpt><trkpt lat="43.02223910938111" lon="12.08999115315118"><ele>540.0</ele><time>2026-05-03T07:48:57Z</time></trkpt><trkpt lat="43.02233551280476" lon="12.090064018590878"><ele>537.4</ele><time>2026-05-03T07:48:58Z</time></trkpt><trkpt lat="43.022413477361646" lon="12.090143284095063"><ele>534.8</ele><time>2026-05-03T07:48:59Z</time></trkpt><trkpt lat="43.02249054143179" lon="12.090241269958184"><ele>532.2</ele><time>2026-05-03T07:49:00Z</time></trkpt><trkpt lat="43.02256998439932" lon="12.0903472986118"><ele>529.6</ele><time>2026-05-03T07:49:01Z</time></trkpt><trkpt lat="43.02264351393027" lon="12.090446468872623"><ele>527.0</ele><time>2026-05-03T07:49:02Z</time></trkpt><trkpt lat="43.02272047914351" lon="12.090533507597343"><ele>525.6666666666666</ele><time>2026-05-03T07:49:03Z</time></trkpt><trkpt lat="43.02279972054456" lon="12.090604129982662"><ele>524.3333333333333</ele><time>2026-05-03T07:49:04Z</time></trkpt><trkpt lat="43.02287375705076" lon="12.09066328452722"><ele>523.0</ele><time>2026-05-03T07:49:05Z</time></trkpt><trkpt lat="43.02294232981618" lon="12.090716818933375"><ele>521.6666666666666</ele><time>2026-05-03T07:49:06Z</time></trkpt><trkpt lat="43.02301673350708" lon="12.090764744658152"><ele>520.3333333333334</ele><time>2026-05-03T07:49:07Z</time></trkpt><trkpt lat="43.0230977668554" lon="12.090791389345961"><ele>519.0</ele><time>2026-05-03T07:49:08Z</time></trkpt><trkpt lat="43.02317586223261" lon="12.090807663848055"><ele>517.0</ele><time>2026-05-03T07:49:09Z</time></trkpt><trkpt lat="43.02325263395089" lon="12.090839627920046"><ele>515.0</ele><time>2026-05-03T07:49:10Z</time></trkpt><trkpt lat="43.02333121873405" lon="12.090878659584178"><ele>513.0</ele><time>2026-05-03T07:49:11Z</time></trkpt><trkpt lat="43.0234060151911" lon="12.090913501406634"><ele>511.0</ele><time>2026-05-03T07:49:12Z</time></trkpt><trkpt lat="43.02349672184534" lon="12.090950300322582"><ele>509.0</ele><time>2026-05-03T07:49:13Z</time></trkpt><trkpt lat="43.023580791705385" lon="12.0909890860375"><ele>507.0</ele><time>2026-05-03T07:49:14Z</time></trkpt><trkpt lat="43.023653556237655" lon="12.09102732147845"><ele>507.0</ele><time>2026-05-03T07:49:15Z</time></trkpt><trkpt lat="43.02372045878288" lon="12.091075081900998"><ele>507.0</ele><time>2026-05-03T07:49:16Z</time></trkpt><trkpt lat="43.02378548067255" lon="12.091136311588592"><ele>507.0</ele><time>2026-05-03T07:49:17Z</time></trkpt><trkpt lat="43.02384623258982" lon="12.091204343647714"><ele>507.0</ele><time>2026-05-03T07:49:18Z</time></trkpt><trkpt lat="43.0239069792275" lon="12.09127131997138"><ele>507.0</ele><time>2026-05-03T07:49:19Z</time></trkpt><trkpt lat="43.02396418430084" lon="12.091340673583325"><ele>507.0</ele><time>2026-05-03T07:49:20Z</time></trkpt><trkpt lat="43.02402275761974" lon="12.091403739973021"><ele>507.0</ele><time>2026-05-03T07:49:21Z</time></trkpt><trkpt lat="43.024081278026244" lon="12.091467636792922"><ele>507.0</ele><time>2026-05-03T07:49:22Z</time></trkpt><trkpt lat="43.02413599379103" lon="12.091528468503359"><ele>507.0</ele><time>2026-05-03T07:49:23Z</time></trkpt><trkpt lat="43.02418546727165" lon="12.09159674404195"><ele>507.0</ele><time>2026-05-03T07:49:24Z</time></trkpt><trkpt lat="43.024245249924356" lon="12.091657751130233"><ele>507.0</ele><time>2026-05-03T07:49:25Z</time></trkpt><trkpt lat="43.02430460940621" lon="12.091730263982365"><ele>507.0</ele><time>2026-05-03T07:49:26Z</time></trkpt><trkpt lat="43.02436079073783" lon="12.091798894431353"><ele>507.0</ele><time>2026-05-03T07:49:27Z</time></trkpt><trkpt lat="43.02440975501838" lon="12.091870145455925"><ele>506.1666666666667</ele><time>2026-05-03T07:49:28Z</time></trkpt><trkpt lat="43.02446071576553" lon="12.091929147962032"><ele>505.33333333333337</ele><time>2026-05-03T07:49:29Z</time></trkpt><trkpt lat="43.02451067429802" lon="12.09198595558451"><ele>504.5</ele><time>2026-05-03T07:49:30Z</time></trkpt><trkpt lat="43.024561318524185" lon="12.092038296057993"><ele>503.6666666666667</ele><time>2026-05-03T07:49:31Z</time></trkpt><trkpt lat="43.02465334459897" lon="12.092136532810642"><ele>502.83333333333337</ele><time>2026-05-03T07:49:33Z</time></trkpt><trkpt lat="43.02474737222013" lon="12.09223198075889"><ele>502.0</ele><time>2026-05-03T07:49:35Z</time></trkpt><trkpt lat="43.02483780323935" lon="12.092319002426937"><ele>502.0</ele><time>2026-05-03T07:49:37Z</time></trkpt><trkpt lat="43.02492659254724" lon="12.092416895402929"><ele>502.00000000000006</ele><time>2026-05-03T07:49:39Z</time></trkpt><trkpt lat="43.02500049396561" lon="12.092527313375204"><ele>502.00000000000006</ele><time>2026-05-03T07:49:41Z</time></trkpt><trkpt lat="43.02507142602395" lon="12.092631345115413"><ele>502.0</ele><time>2026-05-03T07:49:43Z</time></trkpt><trkpt lat="43.0251452907548" lon="12.092730542954348"><ele>502.0</ele><time>2026-05-03T07:49:45Z</time></trkpt><trkpt lat="43.02523573042114" lon="12.092835599322193"><ele>501.0</ele><time>2026-05-03T07:49:47Z</time></trkpt><trkpt lat="43.025316711118165" lon="12.092957961765924"><ele>500.00000000000006</ele><time>2026-05-03T07:49:49Z</time></trkpt><trkpt lat="43.02539149563773" lon="12.093090479099853"><ele>499.00000000000006</ele><time>2026-05-03T07:49:51Z</time></trkpt><trkpt lat="43.02544590792396" lon="12.09313755820003"><ele>498.0</ele><time>2026-05-03T07:49:52Z</time></trkpt><trkpt lat="43.02551874423661" lon="12.093260979613387"><ele>497.0</ele><time>2026-05-03T07:49:54Z</time></trkpt><trkpt lat="43.02559826335579" lon="12.093367308355061"><ele>495.20000000000005</ele><time>2026-05-03T07:49:56Z</time></trkpt><trkpt lat="43.025677301222146" lon="12.093463233244565"><ele>493.40000000000003</ele><time>2026-05-03T07:49:58Z</time></trkpt><trkpt lat="43.025743069366825" lon="12.093555854666011"><ele>491.59999999999997</ele><time>2026-05-03T07:50:00Z</time></trkpt><trkpt lat="43.025799177566014" lon="12.093637642306064"><ele>489.79999999999995</ele><time>2026-05-03T07:50:02Z</time></trkpt><trkpt lat="43.02584390359485" lon="12.093716250606299"><ele>488.0</ele><time>2026-05-03T07:50:04Z</time></trkpt><trkpt lat="43.025901385259004" lon="12.09383744025704"><ele>487.99999999999994</ele><time>2026-05-03T07:50:06Z</time></trkpt><trkpt lat="43.02593551915482" lon="12.093911587330258"><ele>488.0</ele><time>2026-05-03T07:50:07Z</time></trkpt><trkpt lat="43.02599383554778" lon="12.09402225220487"><ele>488.0</ele><time>2026-05-03T07:50:08Z</time></trkpt><trkpt lat="43.02606019014998" lon="12.094137110146034"><ele>488.0</ele><time>2026-05-03T07:50:09Z</time></trkpt><trkpt lat="43.02611254602037" lon="12.094210388935705"><ele>487.99999999999994</ele><time>2026-05-03T07:50:10Z</time></trkpt><trkpt lat="43.02616473892008" lon="12.094262448460002"><ele>488.0</ele><time>2026-05-03T07:50:11Z</time></trkpt><trkpt lat="43.026241382904395" lon="12.09434773136668"><ele>487.3333333333333</ele><time>2026-05-03T07:50:13Z</time></trkpt><trkpt lat="43.02631790254126" lon="12.094431976954356"><ele>486.66666666666663</ele><time>2026-05-03T07:50:15Z</time></trkpt><trkpt lat="43.0264132546969" lon="12.094549300546404"><ele>486.0</ele><time>2026-05-03T07:50:17Z</time></trkpt><trkpt lat="43.0264596856688" lon="12.094616139352391"><ele>485.33333333333337</ele><time>2026-05-03T07:50:18Z</time></trkpt><trkpt lat="43.026505692272934" lon="12.094682864971487"><ele>484.6666666666667</ele><time>2026-05-03T07:50:19Z</time></trkpt><trkpt lat="43.02654306675594" lon="12.094755728479628"><ele>484.0</ele><time>2026-05-03T07:50:20Z</time></trkpt><trkpt lat="43.02657426567656" lon="12.094835693064885"><ele>484.0</ele><time>2026-05-03T07:50:21Z</time></trkpt><trkpt lat="43.026607859889346" lon="12.094911723721138"><ele>483.99999999999994</ele><time>2026-05-03T07:50:22Z</time></trkpt><trkpt lat="43.02665081529616" lon="12.094991050987172"><ele>484.0</ele><time>2026-05-03T07:50:23Z</time></trkpt><trkpt lat="43.02668825583847" lon="12.095077875808276"><ele>484.0</ele><time>2026-05-03T07:50:24Z</time></trkpt><trkpt lat="43.02671925966678" lon="12.095176315586087"><ele>483.99999999999994</ele><time>2026-05-03T07:50:25Z</time></trkpt><trkpt lat="43.02675666547844" lon="12.095272312001791"><ele>484.0</ele><time>2026-05-03T07:50:26Z</time></trkpt><trkpt lat="43.0268044292345" lon="12.09535948274247"><ele>484.0</ele><time>2026-05-03T07:50:27Z</time></trkpt><trkpt lat="43.026853977982434" lon="12.095443334994812"><ele>483.33333333333337</ele><time>2026-05-03T07:50:28Z</time></trkpt><trkpt lat="43.026905975384885" lon="12.095511781942449"><ele>482.6666666666667</ele><time>2026-05-03T07:50:29Z</time></trkpt><trkpt lat="43.026965888416576" lon="12.095571374678066"><ele>482.0</ele><time>2026-05-03T07:50:30Z</time></trkpt><trkpt lat="43.02703442084821" lon="12.095616696556284"><ele>481.33333333333337</ele><time>2026-05-03T07:50:31Z</time></trkpt><trkpt lat="43.027103709101276" lon="12.095652278283191"><ele>480.6666666666667</ele><time>2026-05-03T07:50:32Z</time></trkpt><trkpt lat="43.02718844700175" lon="12.095680970351856"><ele>480.0</ele><time>2026-05-03T07:50:33Z</time></trkpt><trkpt lat="43.0272853647732" lon="12.095696576366011"><ele>480.0</ele><time>2026-05-03T07:50:34Z</time></trkpt><trkpt lat="43.027402756327696" lon="12.095726604524698"><ele>480.0</ele><time>2026-05-03T07:50:35Z</time></trkpt><trkpt lat="43.027520479844476" lon="12.095774765539835"><ele>480.0</ele><time>2026-05-03T07:50:36Z</time></trkpt><trkpt lat="43.02763471647188" lon="12.095813721785277"><ele>480.0</ele><time>2026-05-03T07:50:37Z</time></trkpt><trkpt lat="43.02774362698931" lon="12.095851004780858"><ele>476.8333333333333</ele><time>2026-05-03T07:50:38Z</time></trkpt><trkpt lat="43.02782897694412" lon="12.095888147399744"><ele>473.66666666666663</ele><time>2026-05-03T07:50:39Z</time></trkpt><trkpt lat="43.02790988594943" lon="12.095930426475562"><ele>470.5</ele><time>2026-05-03T07:50:40Z</time></trkpt><trkpt lat="43.02798246215681" lon="12.09596065561496"><ele>467.3333333333333</ele><time>2026-05-03T07:50:41Z</time></trkpt><trkpt lat="43.02803627859123" lon="12.096006188922289"><ele>464.16666666666663</ele><time>2026-05-03T07:50:42Z</time></trkpt><trkpt lat="43.02809497657782" lon="12.09605421663404"><ele>461.0</ele><time>2026-05-03T07:50:43Z</time></trkpt><trkpt lat="43.02815349485612" lon="12.096125380176147"><ele>460.99999999999994</ele><time>2026-05-03T07:50:44Z</time></trkpt><trkpt lat="43.02822773712164" lon="12.096166874989052"><ele>461.0</ele><time>2026-05-03T07:50:45Z</time></trkpt><trkpt lat="43.02828558759376" lon="12.0962183359003"><ele>461.0</ele><time>2026-05-03T07:50:46Z</time></trkpt><trkpt lat="43.02838248942988" lon="12.09630689951887"><ele>461.0</ele><time>2026-05-03T07:50:48Z</time></trkpt><trkpt lat="43.028445148677754" lon="12.096384234371259"><ele>460.99999999999994</ele><time>2026-05-03T07:50:50Z</time></trkpt><trkpt lat="43.02846886667793" lon="12.096477372291753"><ele>461.0</ele><time>2026-05-03T07:50:52Z</time></trkpt><trkpt lat="43.02842768821812" lon="12.096589950740569"><ele>456.99999999999994</ele><time>2026-05-03T07:50:54Z</time></trkpt><trkpt lat="43.02834540297659" lon="12.096663058168371"><ele>453.0</ele><time>2026-05-03T07:50:56Z</time></trkpt><trkpt lat="43.028295326559196" lon="12.096716071657386"><ele>449.0</ele><time>2026-05-03T07:50:58Z</time></trkpt><trkpt lat="43.028282850357755" lon="12.096842907288028"><ele>445.0</ele><time>2026-05-03T07:51:00Z</time></trkpt><trkpt lat="43.02832672342077" lon="12.096906314760911"><ele>440.99999999999994</ele><time>2026-05-03T07:51:01Z</time></trkpt><trkpt lat="43.028363715820966" lon="12.0970142876536"><ele>437.0</ele><time>2026-05-03T07:51:03Z</time></trkpt><trkpt lat="43.02834888350788" lon="12.097098728133242"><ele>436.99999999999994</ele><time>2026-05-03T07:51:04Z</time></trkpt><trkpt lat="43.02835695390053" lon="12.097227256653888"><ele>437.0</ele><time>2026-05-03T07:51:06Z</time></trkpt><trkpt lat="43.02845106371071" lon="12.09730681143137"><ele>437.0</ele><time>2026-05-03T07:51:08Z</time></trkpt><trkpt lat="43.02851648569046" lon="12.097346565010492"><ele>437.0</ele><time>2026-05-03T07:51:10Z</time></trkpt><trkpt lat="43.02857965760047" lon="12.09740582079664"><ele>436.99999999999994</ele><time>2026-05-03T07:51:13Z</time></trkpt><trkpt lat="43.02855847216506" lon="12.097516808414705"><ele>437.0</ele><time>2026-05-03T07:51:16Z</time></trkpt><trkpt lat="43.028508463344785" lon="12.097649345977263"><ele>434.99999999999994</ele><time>2026-05-03T07:51:18Z</time></trkpt><trkpt lat="43.02847290674425" lon="12.097728040978792"><ele>433.0</ele><time>2026-05-03T07:51:19Z</time></trkpt><trkpt lat="43.028436913055565" lon="12.097809390329035"><ele>431.0</ele><time>2026-05-03T07:51:20Z</time></trkpt><trkpt lat="43.02840000626892" lon="12.097900074045505"><ele>429.0</ele><time>2026-05-03T07:51:21Z</time></trkpt><trkpt lat="43.02835446992381" lon="12.097998926205424"><ele>426.99999999999994</ele><time>2026-05-03T07:51:22Z</time></trkpt><trkpt lat="43.028324529687765" lon="12.09810477074154"><ele>425.0</ele><time>2026-05-03T07:51:23Z</time></trkpt><trkpt lat="43.028296244111715" lon="12.09821674729387"><ele>420.49999999999994</ele><time>2026-05-03T07:51:24Z</time></trkpt><trkpt lat="43.028272722220514" lon="12.098321665786651"><ele>416.0</ele><time>2026-05-03T07:51:25Z</time></trkpt><trkpt lat="43.028260952850275" lon="12.098426587233547"><ele>411.5</ele><time>2026-05-03T07:51:26Z</time></trkpt><trkpt lat="43.028252357475644" lon="12.09852907836464"><ele>407.0</ele><time>2026-05-03T07:51:27Z</time></trkpt><trkpt lat="43.028242672647" lon="12.098629278791432"><ele>402.49999999999994</ele><time>2026-05-03T07:51:28Z</time></trkpt><trkpt lat="43.02824245086732" lon="12.098733540710798"><ele>398.0</ele><time>2026-05-03T07:51:29Z</time></trkpt><trkpt lat="43.028249873441055" lon="12.098841830139573"><ele>397.99999999999994</ele><time>2026-05-03T07:51:30Z</time></trkpt><trkpt lat="43.02826906957912" lon="12.098945618001766"><ele>398.0</ele><time>2026-05-03T07:51:31Z</time></trkpt><trkpt lat="43.02830318939371" lon="12.099046973720476"><ele>398.0</ele><time>2026-05-03T07:51:32Z</time></trkpt><trkpt lat="43.02835641036884" lon="12.099141413441949"><ele>398.0</ele><time>2026-05-03T07:51:33Z</time></trkpt><trkpt lat="43.0284106609827" lon="12.099226049044457"><ele>397.99999999999994</ele><time>2026-05-03T07:51:34Z</time></trkpt><trkpt lat="43.02847113954585" lon="12.09930218445833"><ele>398.0</ele><time>2026-05-03T07:51:35Z</time></trkpt><trkpt lat="43.02854042272625" lon="12.099371128739271"><ele>403.0</ele><time>2026-05-03T07:51:36Z</time></trkpt><trkpt lat="43.02861469424162" lon="12.099434992368888"><ele>408.0</ele><time>2026-05-03T07:51:37Z</time></trkpt><trkpt lat="43.028690085042285" lon="12.099503444263194"><ele>413.0</ele><time>2026-05-03T07:51:38Z</time></trkpt><trkpt lat="43.0287675664904" lon="12.09957678813804"><ele>418.0</ele><time>2026-05-03T07:51:39Z</time></trkpt><trkpt lat="43.028847697609834" lon="12.09964599626609"><ele>423.0</ele><time>2026-05-03T07:51:40Z</time></trkpt><trkpt lat="43.028940346656405" lon="12.099736077033686"><ele>423.0</ele><time>2026-05-03T07:51:41Z</time></trkpt><trkpt lat="43.0290141497773" lon="12.09980858169512"><ele>423.0</ele><time>2026-05-03T07:51:42Z</time></trkpt><trkpt lat="43.02907636802472" lon="12.099862511616381"><ele>423.0</ele><time>2026-05-03T07:51:43Z</time></trkpt><trkpt lat="43.029119567424225" lon="12.09993083505535"><ele>423.0</ele><time>2026-05-03T07:51:44Z</time></trkpt><trkpt lat="43.029154016129006" lon="12.100033934482232"><ele>423.0</ele><time>2026-05-03T07:51:46Z</time></trkpt><trkpt lat="43.02922379147287" lon="12.100062985409393"><ele>423.0</ele><time>2026-05-03T07:51:48Z</time></trkpt><trkpt lat="43.0292801986415" lon="12.0999854470486"><ele>423.0</ele><time>2026-05-03T07:51:50Z</time></trkpt><trkpt lat="43.02931321979775" lon="12.099908092577357"><ele>423.0</ele><time>2026-05-03T07:52:15Z</time></trkpt><trkpt lat="43.02925829612107" lon="12.099858878236299"><ele>423.0</ele><time>2026-05-03T07:53:09Z</time></trkpt><trkpt lat="43.02930053922472" lon="12.099761724251866"><ele>423.0</ele><time>2026-05-03T07:54:03Z</time></trkpt><trkpt lat="43.02927847528332" lon="12.099679377440763"><ele>423.0</ele><time>2026-05-03T07:54:10Z</time></trkpt><trkpt lat="43.02923472961312" lon="12.099572584037995"><ele>423.0</ele><time>2026-05-03T07:54:40Z</time></trkpt><trkpt lat="43.02918746767792" lon="12.099644308456124"><ele>423.0</ele><time>2026-05-03T07:54:45Z</time></trkpt><trkpt lat="43.02912546069985" lon="12.099681325056867"><ele>423.2</ele><time>2026-05-03T07:55:29Z</time></trkpt><trkpt lat="43.02917880027244" lon="12.099609584783153"><ele>423.4</ele><time>2026-05-03T07:55:33.001Z</time></trkpt><trkpt lat="43.02929382136459" lon="12.09959597110099"><ele>423.59999999999997</ele><time>2026-05-03T08:04:31.001Z</time></trkpt><trkpt lat="43.029329625752695" lon="12.099758492972494"><ele>423.79999999999995</ele><time>2026-05-03T08:11:47Z</time></trkpt><trkpt lat="43.02927977649225" lon="12.099830113371985"><ele>424.0</ele><time>2026-05-03T08:11:49Z</time></trkpt><trkpt lat="43.029255291644546" lon="12.09993275586345"><ele>424.00000000000006</ele><time>2026-05-03T08:14:43Z</time></trkpt><trkpt lat="43.02929207408664" lon="12.100079332227585"><ele>424.0</ele><time>2026-05-03T08:14:45Z</time></trkpt><trkpt lat="43.029313527628176" lon="12.100161003951994"><ele>424.0</ele><time>2026-05-03T08:14:46Z</time></trkpt><trkpt lat="43.02933257663954" lon="12.100265550051432"><ele>424.0</ele><time>2026-05-03T08:14:47Z</time></trkpt><trkpt lat="43.02935457962734" lon="12.10037017910082"><ele>424.00000000000006</ele><time>2026-05-03T08:14:48Z</time></trkpt><trkpt lat="43.02937354483429" lon="12.100488969092718"><ele>424.0</ele><time>2026-05-03T08:14:49Z</time></trkpt><trkpt lat="43.029381559741914" lon="12.100628591261332"><ele>424.0</ele><time>2026-05-03T08:14:50Z</time></trkpt><trkpt lat="43.02935955407168" lon="12.100731693633257"><ele>424.0</ele><time>2026-05-03T08:14:51Z</time></trkpt><trkpt lat="43.02935611301699" lon="12.100833343617865"><ele>424.0</ele><time>2026-05-03T08:14:52Z</time></trkpt><trkpt lat="43.02936469435039" lon="12.100937324822919"><ele>424.0</ele><time>2026-05-03T08:14:53Z</time></trkpt><trkpt lat="43.02938744876745" lon="12.101134531155592"><ele>424.0</ele><time>2026-05-03T08:14:55Z</time></trkpt><trkpt lat="43.02939762246506" lon="12.101242316489486"><ele>423.4</ele><time>2026-05-03T08:14:56Z</time></trkpt><trkpt lat="43.02940909710646" lon="12.10135168998808"><ele>422.79999999999995</ele><time>2026-05-03T08:14:57Z</time></trkpt><trkpt lat="43.02942220824285" lon="12.10144481593365"><ele>422.20000000000005</ele><time>2026-05-03T08:14:58Z</time></trkpt><trkpt lat="43.02942093994734" lon="12.101547299260018"><ele>421.6</ele><time>2026-05-03T08:14:59Z</time></trkpt><trkpt lat="43.02947889106379" lon="12.101700119367358"><ele>421.0</ele><time>2026-05-03T08:15:01Z</time></trkpt><trkpt lat="43.029517518962" lon="12.101849720406307"><ele>420.6666666666667</ele><time>2026-05-03T08:15:03Z</time></trkpt><trkpt lat="43.02960089525195" lon="12.10188243546573"><ele>420.33333333333337</ele><time>2026-05-03T08:15:04Z</time></trkpt><trkpt lat="43.02966760487394" lon="12.10193928296989"><ele>420.0</ele><time>2026-05-03T08:15:05Z</time></trkpt><trkpt lat="43.029729388412115" lon="12.102022979819425"><ele>419.66666666666663</ele><time>2026-05-03T08:15:06Z</time></trkpt><trkpt lat="43.02980228979775" lon="12.102067975774338"><ele>419.3333333333333</ele><time>2026-05-03T08:15:07Z</time></trkpt><trkpt lat="43.02987318989199" lon="12.102123693227636"><ele>419.0</ele><time>2026-05-03T08:15:08Z</time></trkpt><trkpt lat="43.02994949584494" lon="12.102174614916498"><ele>418.99999999999994</ele><time>2026-05-03T08:15:09Z</time></trkpt><trkpt lat="43.03002741733186" lon="12.102224432918087"><ele>419.0</ele><time>2026-05-03T08:15:10Z</time></trkpt><trkpt lat="43.03009999950994" lon="12.102301930705057"><ele>419.0</ele><time>2026-05-03T08:15:11Z</time></trkpt><trkpt lat="43.03017999060661" lon="12.102350777482771"><ele>419.0</ele><time>2026-05-03T08:15:12Z</time></trkpt><trkpt lat="43.03024792777797" lon="12.10243003144644"><ele>418.99999999999994</ele><time>2026-05-03T08:15:13Z</time></trkpt><trkpt lat="43.030309591957334" lon="12.10252356430237"><ele>419.0</ele><time>2026-05-03T08:15:14Z</time></trkpt><trkpt lat="43.03036312345007" lon="12.102615637797792"><ele>419.0</ele><time>2026-05-03T08:15:15Z</time></trkpt><trkpt lat="43.030414266092826" lon="12.10270609354229"><ele>419.0</ele><time>2026-05-03T08:15:16Z</time></trkpt><trkpt lat="43.03046604259037" lon="12.102818610410035"><ele>419.0</ele><time>2026-05-03T08:15:17Z</time></trkpt><trkpt lat="43.03051671255323" lon="12.102925890413536"><ele>419.0</ele><time>2026-05-03T08:15:18Z</time></trkpt><trkpt lat="43.03056078700459" lon="12.103031805786681"><ele>419.0</ele><time>2026-05-03T08:15:19Z</time></trkpt><trkpt lat="43.03058881708545" lon="12.103143653135378"><ele>418.49999999999994</ele><time>2026-05-03T08:15:20Z</time></trkpt><trkpt lat="43.03059546208786" lon="12.103256087925837"><ele>418.0</ele><time>2026-05-03T08:15:21Z</time></trkpt><trkpt lat="43.030575004599285" lon="12.103381509042803"><ele>417.5</ele><time>2026-05-03T08:15:22Z</time></trkpt><trkpt lat="43.03052413650278" lon="12.103484624170168"><ele>417.0</ele><time>2026-05-03T08:15:23Z</time></trkpt><trkpt lat="43.03046208416176" lon="12.103567540713678"><ele>416.49999999999994</ele><time>2026-05-03T08:15:24Z</time></trkpt><trkpt lat="43.030390939380084" lon="12.103646947106064"><ele>416.0</ele><time>2026-05-03T08:15:25Z</time></trkpt><trkpt lat="43.03033253862712" lon="12.103744474459726"><ele>416.0</ele><time>2026-05-03T08:15:26Z</time></trkpt><trkpt lat="43.03029740539214" lon="12.103863436074887"><ele>416.0</ele><time>2026-05-03T08:15:27Z</time></trkpt><trkpt lat="43.030279963820966" lon="12.10398157984897"><ele>416.0</ele><time>2026-05-03T08:15:28Z</time></trkpt><trkpt lat="43.03028615807511" lon="12.104112859484454"><ele>416.0</ele><time>2026-05-03T08:15:29Z</time></trkpt><trkpt lat="43.030268208944825" lon="12.104230699303645"><ele>416.0</ele><time>2026-05-03T08:15:30Z</time></trkpt><trkpt lat="43.03024142101054" lon="12.10435278111651"><ele>412.0</ele><time>2026-05-03T08:15:31Z</time></trkpt><trkpt lat="43.03021245630835" lon="12.104472965901945"><ele>408.0</ele><time>2026-05-03T08:15:32Z</time></trkpt><trkpt lat="43.030170528636255" lon="12.104581375905894"><ele>404.0</ele><time>2026-05-03T08:15:33Z</time></trkpt><trkpt lat="43.03014140882068" lon="12.104703067723898"><ele>400.0</ele><time>2026-05-03T08:15:34Z</time></trkpt><trkpt lat="43.03010571886268" lon="12.104825063971958"><ele>396.0</ele><time>2026-05-03T08:15:35Z</time></trkpt><trkpt lat="43.03006089460818" lon="12.104937204375702"><ele>395.0</ele><time>2026-05-03T08:15:36Z</time></trkpt><trkpt lat="43.03000780954978" lon="12.105045285031109"><ele>394.0</ele><time>2026-05-03T08:15:37Z</time></trkpt><trkpt lat="43.02994349469799" lon="12.105150837111662"><ele>393.0</ele><time>2026-05-03T08:15:38Z</time></trkpt><trkpt lat="43.02988709937499" lon="12.105268428236066"><ele>392.0</ele><time>2026-05-03T08:15:39Z</time></trkpt><trkpt lat="43.029851502092725" lon="12.105408127498743"><ele>391.0</ele><time>2026-05-03T08:15:40Z</time></trkpt><trkpt lat="43.02983090238141" lon="12.105551141531265"><ele>391.0</ele><time>2026-05-03T08:15:41Z</time></trkpt><trkpt lat="43.029801720194676" lon="12.105690362197274"><ele>391.0</ele><time>2026-05-03T08:15:42Z</time></trkpt><trkpt lat="43.02976653606278" lon="12.10583254277679"><ele>391.0</ele><time>2026-05-03T08:15:43Z</time></trkpt><trkpt lat="43.02973510549282" lon="12.105983048320601"><ele>391.0</ele><time>2026-05-03T08:15:44Z</time></trkpt><trkpt lat="43.02970465018649" lon="12.10613003107404"><ele>391.0</ele><time>2026-05-03T08:15:45Z</time></trkpt><trkpt lat="43.02967013319251" lon="12.106268016316418"><ele>388.0</ele><time>2026-05-03T08:15:46Z</time></trkpt><trkpt lat="43.029651455334395" lon="12.10641453666064"><ele>385.0</ele><time>2026-05-03T08:15:47Z</time></trkpt><trkpt lat="43.029649175931176" lon="12.106561036561894"><ele>382.0</ele><time>2026-05-03T08:15:48Z</time></trkpt><trkpt lat="43.0296529801096" lon="12.106710850296029"><ele>379.0</ele><time>2026-05-03T08:15:49Z</time></trkpt><trkpt lat="43.029678728447145" lon="12.106851480739495"><ele>376.0</ele><time>2026-05-03T08:15:50Z</time></trkpt><trkpt lat="43.029721682176074" lon="12.106981084715917"><ele>374.16666666666663</ele><time>2026-05-03T08:15:51Z</time></trkpt><trkpt lat="43.029760242030385" lon="12.107100375227514"><ele>372.3333333333333</ele><time>2026-05-03T08:15:52Z</time></trkpt><trkpt lat="43.02978787716485" lon="12.107215281522597"><ele>370.5</ele><time>2026-05-03T08:15:53Z</time></trkpt><trkpt lat="43.02980429257434" lon="12.107320271780697"><ele>368.6666666666667</ele><time>2026-05-03T08:15:54Z</time></trkpt><trkpt lat="43.029833582127054" lon="12.107407249569494"><ele>366.83333333333337</ele><time>2026-05-03T08:15:55Z</time></trkpt><trkpt lat="43.02987991603135" lon="12.107528418473311"><ele>365.0</ele><time>2026-05-03T08:15:57Z</time></trkpt><trkpt lat="43.02988623807688" lon="12.107626544477238"><ele>363.5</ele><time>2026-05-03T08:16:00Z</time></trkpt><trkpt lat="43.029886700679626" lon="12.107713606031572"><ele>362.0</ele><time>2026-05-03T08:16:02Z</time></trkpt><trkpt lat="43.02991548283233" lon="12.107859169573983"><ele>360.5</ele><time>2026-05-03T08:16:03.999Z</time></trkpt><trkpt lat="43.02998059908553" lon="12.107898234464608"><ele>359.0</ele><time>2026-05-03T08:16:04.999Z</time></trkpt><trkpt lat="43.03004573896348" lon="12.107933792401695"><ele>357.5</ele><time>2026-05-03T08:16:05.999Z</time></trkpt><trkpt lat="43.03012221944721" lon="12.107955403620862"><ele>356.0</ele><time>2026-05-03T08:16:06.999Z</time></trkpt><trkpt lat="43.030207921311806" lon="12.108000280690545"><ele>356.0</ele><time>2026-05-03T08:16:07.999Z</time></trkpt><trkpt lat="43.030288621641326" lon="12.108080046528919"><ele>356.0</ele><time>2026-05-03T08:16:08.998Z</time></trkpt><trkpt lat="43.03036073412044" lon="12.108181207304375"><ele>356.0</ele><time>2026-05-03T08:16:09.998Z</time></trkpt><trkpt lat="43.030430354507004" lon="12.108282620956228"><ele>356.0</ele><time>2026-05-03T08:16:10.998Z</time></trkpt><trkpt lat="43.030502998032546" lon="12.108385170964048"><ele>356.0</ele><time>2026-05-03T08:16:11.998Z</time></trkpt><trkpt lat="43.030569557622904" lon="12.108493233015867"><ele>356.8</ele><time>2026-05-03T08:16:12.998Z</time></trkpt><trkpt lat="43.03062902691722" lon="12.108595938169302"><ele>357.6</ele><time>2026-05-03T08:16:13.998Z</time></trkpt><trkpt lat="43.03069162205437" lon="12.108697275730611"><ele>358.4</ele><time>2026-05-03T08:16:14.998Z</time></trkpt><trkpt lat="43.0307644028896" lon="12.108792041941667"><ele>359.2</ele><time>2026-05-03T08:16:15.998Z</time></trkpt><trkpt lat="43.030858098383895" lon="12.108883863763559"><ele>360.0</ele><time>2026-05-03T08:16:16.998Z</time></trkpt><trkpt lat="43.030957886492395" lon="12.108952008182435"><ele>361.0</ele><time>2026-05-03T08:16:17.998Z</time></trkpt><trkpt lat="43.03104786090258" lon="12.109007046616355"><ele>362.0</ele><time>2026-05-03T08:16:18.997Z</time></trkpt><trkpt lat="43.03113322238075" lon="12.109088931978114"><ele>363.0</ele><time>2026-05-03T08:16:19.997Z</time></trkpt><trkpt lat="43.03121065140248" lon="12.109178607052275"><ele>364.0</ele><time>2026-05-03T08:16:20.997Z</time></trkpt><trkpt lat="43.03128128394739" lon="12.109276768231439"><ele>365.0</ele><time>2026-05-03T08:16:21.997Z</time></trkpt><trkpt lat="43.031347545824126" lon="12.109378243967111"><ele>365.8</ele><time>2026-05-03T08:16:22.997Z</time></trkpt><trkpt lat="43.03140872903336" lon="12.109474183524158"><ele>366.6</ele><time>2026-05-03T08:16:23.997Z</time></trkpt><trkpt lat="43.031471983037726" lon="12.109575256156553"><ele>367.4</ele><time>2026-05-03T08:16:24.997Z</time></trkpt><trkpt lat="43.031537379570594" lon="12.109687734335822"><ele>368.2</ele><time>2026-05-03T08:16:25.997Z</time></trkpt><trkpt lat="43.031596671072904" lon="12.109801881261706"><ele>369.0</ele><time>2026-05-03T08:16:26.997Z</time></trkpt><trkpt lat="43.0316452106948" lon="12.109917387915628"><ele>372.0</ele><time>2026-05-03T08:16:27.997Z</time></trkpt><trkpt lat="43.03168710822148" lon="12.110042108013277"><ele>375.0</ele><time>2026-05-03T08:16:28.997Z</time></trkpt><trkpt lat="43.03171335319064" lon="12.11016560914501"><ele>378.0</ele><time>2026-05-03T08:16:29.997Z</time></trkpt><trkpt lat="43.031725244301" lon="12.110287476634834"><ele>381.0</ele><time>2026-05-03T08:16:30.997Z</time></trkpt><trkpt lat="43.03169241865696" lon="12.110381497241494"><ele>384.0</ele><time>2026-05-03T08:16:31.997Z</time></trkpt><trkpt lat="43.0316756591655" lon="12.110472436207093"><ele>387.0</ele><time>2026-05-03T08:16:32.997Z</time></trkpt><trkpt lat="43.03165326432236" lon="12.110572590756362"><ele>387.0</ele><time>2026-05-03T08:16:33.997Z</time></trkpt><trkpt lat="43.03166172316326" lon="12.110687346054494"><ele>387.0</ele><time>2026-05-03T08:16:34.997Z</time></trkpt><trkpt lat="43.03163906948166" lon="12.110776664674042"><ele>387.0</ele><time>2026-05-03T08:16:35.997Z</time></trkpt><trkpt lat="43.031706683238134" lon="12.110876773567309"><ele>387.0</ele><time>2026-05-03T08:16:36.997Z</time></trkpt><trkpt lat="43.03176732579896" lon="12.110986962834193"><ele>387.0</ele><time>2026-05-03T08:16:37.997Z</time></trkpt><trkpt lat="43.03184082898949" lon="12.111100196772927"><ele>386.8</ele><time>2026-05-03T08:16:38.997Z</time></trkpt><trkpt lat="43.031904024316766" lon="12.111186184403495"><ele>386.6</ele><time>2026-05-03T08:16:39.997Z</time></trkpt><trkpt lat="43.03196106852513" lon="12.111297133920287"><ele>386.40000000000003</ele><time>2026-05-03T08:16:40.997Z</time></trkpt><trkpt lat="43.03199647609091" lon="12.111433737126278"><ele>386.20000000000005</ele><time>2026-05-03T08:16:41.997Z</time></trkpt><trkpt lat="43.032016936770724" lon="12.111575460648416"><ele>386.0</ele><time>2026-05-03T08:16:42.997Z</time></trkpt><trkpt lat="43.03204443921159" lon="12.11170312196563"><ele>384.4</ele><time>2026-05-03T08:16:43.997Z</time></trkpt><trkpt lat="43.03210049376285" lon="12.111821308548185"><ele>382.8</ele><time>2026-05-03T08:16:44.997Z</time></trkpt><trkpt lat="43.032163129660866" lon="12.111952640180744"><ele>381.2</ele><time>2026-05-03T08:16:45.997Z</time></trkpt><trkpt lat="43.03222460673745" lon="12.11207225773007"><ele>379.59999999999997</ele><time>2026-05-03T08:16:46.997Z</time></trkpt><trkpt lat="43.032280254277126" lon="12.112188328573186"><ele>378.0</ele><time>2026-05-03T08:16:47.997Z</time></trkpt><trkpt lat="43.032327295297236" lon="12.1123040958468"><ele>378.4</ele><time>2026-05-03T08:16:48.996Z</time></trkpt><trkpt lat="43.03237232262322" lon="12.11243469690195"><ele>378.79999999999995</ele><time>2026-05-03T08:16:49.996Z</time></trkpt><trkpt lat="43.03241239480768" lon="12.112577020194925"><ele>379.2</ele><time>2026-05-03T08:16:50.997Z</time></trkpt><trkpt lat="43.03244522911276" lon="12.112711617253687"><ele>379.6</ele><time>2026-05-03T08:16:51.997Z</time></trkpt><trkpt lat="43.0324817935854" lon="12.112836606405555"><ele>380.0</ele><time>2026-05-03T08:16:52.997Z</time></trkpt><trkpt lat="43.03252585591477" lon="12.112957206898436"><ele>380.0</ele><time>2026-05-03T08:16:53.997Z</time></trkpt><trkpt lat="43.03257657094663" lon="12.113089487850418"><ele>380.0</ele><time>2026-05-03T08:16:54.998Z</time></trkpt><trkpt lat="43.03262341305415" lon="12.113209644976921"><ele>380.0</ele><time>2026-05-03T08:16:55.998Z</time></trkpt><trkpt lat="43.03267414155309" lon="12.113320426624156"><ele>380.0</ele><time>2026-05-03T08:16:56.998Z</time></trkpt><trkpt lat="43.03272299544343" lon="12.11343058509069"><ele>380.0</ele><time>2026-05-03T08:16:57.998Z</time></trkpt><trkpt lat="43.032764916019914" lon="12.113541597461587"><ele>378.4</ele><time>2026-05-03T08:16:58.998Z</time></trkpt><trkpt lat="43.032797868166696" lon="12.11365157833604"><ele>376.8</ele><time>2026-05-03T08:16:59.998Z</time></trkpt><trkpt lat="43.03283194935507" lon="12.113753357289758"><ele>375.20000000000005</ele><time>2026-05-03T08:17:00.998Z</time></trkpt><trkpt lat="43.032865774840324" lon="12.113837773349966"><ele>373.6</ele><time>2026-05-03T08:17:01.998Z</time></trkpt><trkpt lat="43.03290790892718" lon="12.113969008500993"><ele>372.0</ele><time>2026-05-03T08:17:03.999Z</time></trkpt><trkpt lat="43.03302659401683" lon="12.113943390738783"><ele>372.0</ele><time>2026-05-03T08:17:04.999Z</time></trkpt><trkpt lat="43.03309287970423" lon="12.11393767773039"><ele>372.0</ele><time>2026-05-03T08:17:05.999Z</time></trkpt><trkpt lat="43.033164592505315" lon="12.11390858086599"><ele>372.0</ele><time>2026-05-03T08:17:06.999Z</time></trkpt><trkpt lat="43.0332379070053" lon="12.11387845965509"><ele>372.0</ele><time>2026-05-03T08:17:07.999Z</time></trkpt><trkpt lat="43.033311317938725" lon="12.113855696873694"><ele>372.0</ele><time>2026-05-03T08:17:08.999Z</time></trkpt><trkpt lat="43.03339481412345" lon="12.113828037107163"><ele>372.0</ele><time>2026-05-03T08:17:09.999Z</time></trkpt><trkpt lat="43.03348033824893" lon="12.113827960315339"><ele>372.0</ele><time>2026-05-03T08:17:10.999Z</time></trkpt><trkpt lat="43.033567299918516" lon="12.11385915640008"><ele>372.0</ele><time>2026-05-03T08:17:11.999Z</time></trkpt><trkpt lat="43.033665982376334" lon="12.11390267648477"><ele>372.0</ele><time>2026-05-03T08:17:12.999Z</time></trkpt><trkpt lat="43.033760702383944" lon="12.11394526454122"><ele>372.0</ele><time>2026-05-03T08:17:13.999Z</time></trkpt><trkpt lat="43.033855334338554" lon="12.113978861071168"><ele>372.0</ele><time>2026-05-03T08:17:14.999Z</time></trkpt><trkpt lat="43.03394971020971" lon="12.113993870276518"><ele>372.0</ele><time>2026-05-03T08:17:15.999Z</time></trkpt><trkpt lat="43.034030333010016" lon="12.114026956205876"><ele>372.0</ele><time>2026-05-03T08:17:16.999Z</time></trkpt><trkpt lat="43.034110744698104" lon="12.114052504636444"><ele>372.0</ele><time>2026-05-03T08:17:18Z</time></trkpt><trkpt lat="43.034190940304725" lon="12.114095471192236"><ele>372.0</ele><time>2026-05-03T08:17:19Z</time></trkpt><trkpt lat="43.03426185539775" lon="12.114159956603984"><ele>372.0</ele><time>2026-05-03T08:17:20Z</time></trkpt><trkpt lat="43.03432998491678" lon="12.114205948106857"><ele>372.0</ele><time>2026-05-03T08:17:21Z</time></trkpt><trkpt lat="43.03438515513202" lon="12.114259523336154"><ele>369.1666666666667</ele><time>2026-05-03T08:17:22Z</time></trkpt><trkpt lat="43.03441713143433" lon="12.114342191602304"><ele>366.3333333333333</ele><time>2026-05-03T08:17:23Z</time></trkpt><trkpt lat="43.03442353478768" lon="12.114428080841076"><ele>363.5</ele><time>2026-05-03T08:17:24Z</time></trkpt><trkpt lat="43.03441553744355" lon="12.114520808485555"><ele>360.66666666666663</ele><time>2026-05-03T08:17:25Z</time></trkpt><trkpt lat="43.03439743526074" lon="12.114612880898129"><ele>357.8333333333333</ele><time>2026-05-03T08:17:26Z</time></trkpt><trkpt lat="43.034441505567614" lon="12.114752342038132"><ele>355.0</ele><time>2026-05-03T08:17:28Z</time></trkpt><trkpt lat="43.034523735609035" lon="12.114781725002262"><ele>355.0</ele><time>2026-05-03T08:17:29Z</time></trkpt><trkpt lat="43.034626946961254" lon="12.11479961964236"><ele>355.0</ele><time>2026-05-03T08:17:30Z</time></trkpt><trkpt lat="43.03471300973891" lon="12.11485838103615"><ele>355.0</ele><time>2026-05-03T08:17:31Z</time></trkpt><trkpt lat="43.03480106294834" lon="12.114886931599482"><ele>355.0</ele><time>2026-05-03T08:17:32Z</time></trkpt><trkpt lat="43.03487306896829" lon="12.114916123051696"><ele>355.0</ele><time>2026-05-03T08:17:33Z</time></trkpt><trkpt lat="43.03493860884907" lon="12.11487815584788"><ele>355.0</ele><time>2026-05-03T08:17:34Z</time></trkpt><trkpt lat="43.03500319119902" lon="12.114783958295527"><ele>352.0</ele><time>2026-05-03T08:17:35Z</time></trkpt><trkpt lat="43.035062481156785" lon="12.114721831006795"><ele>349.0</ele><time>2026-05-03T08:17:36Z</time></trkpt><trkpt lat="43.03513536357661" lon="12.114686293484041"><ele>346.0</ele><time>2026-05-03T08:17:37Z</time></trkpt><trkpt lat="43.03520263360339" lon="12.114633296828936"><ele>343.0</ele><time>2026-05-03T08:17:38Z</time></trkpt><trkpt lat="43.03527851765424" lon="12.114593454173596"><ele>340.0</ele><time>2026-05-03T08:17:39Z</time></trkpt><trkpt lat="43.03535210279285" lon="12.114581343008519"><ele>337.0</ele><time>2026-05-03T08:17:40Z</time></trkpt><trkpt lat="43.03542556641436" lon="12.114566731018419"><ele>337.00000000000006</ele><time>2026-05-03T08:17:41Z</time></trkpt><trkpt lat="43.035503630290485" lon="12.114554411239402"><ele>337.0</ele><time>2026-05-03T08:17:42Z</time></trkpt><trkpt lat="43.03557439608777" lon="12.114549951127108"><ele>337.0</ele><time>2026-05-03T08:17:43Z</time></trkpt><trkpt lat="43.035649101901356" lon="12.114550380478411"><ele>337.0</ele><time>2026-05-03T08:17:44Z</time></trkpt><trkpt lat="43.035720062704435" lon="12.114539753402331"><ele>337.0</ele><time>2026-05-03T08:17:45Z</time></trkpt><trkpt lat="43.035790268642614" lon="12.114530291321973"><ele>337.00000000000006</ele><time>2026-05-03T08:17:46Z</time></trkpt><trkpt lat="43.035859165735125" lon="12.114525066796139"><ele>337.0</ele><time>2026-05-03T08:17:47Z</time></trkpt><trkpt lat="43.03592902940329" lon="12.114512546953351"><ele>334.8333333333333</ele><time>2026-05-03T08:17:48Z</time></trkpt><trkpt lat="43.03604932733982" lon="12.114498773631352"><ele>332.66666666666663</ele><time>2026-05-03T08:17:50Z</time></trkpt><trkpt lat="43.03611439675745" lon="12.11448363718864"><ele>330.5</ele><time>2026-05-03T08:17:51Z</time></trkpt><trkpt lat="43.03617963892705" lon="12.114465428337192"><ele>328.3333333333333</ele><time>2026-05-03T08:17:52Z</time></trkpt><trkpt lat="43.036243256668705" lon="12.114458696328128"><ele>326.1666666666667</ele><time>2026-05-03T08:17:53Z</time></trkpt><trkpt lat="43.03636548469087" lon="12.114440518162011"><ele>324.0</ele><time>2026-05-03T08:17:55Z</time></trkpt><trkpt lat="43.03645897633849" lon="12.114424686008633"><ele>324.0</ele><time>2026-05-03T08:17:57Z</time></trkpt><trkpt lat="43.03651489488592" lon="12.114601371734107"><ele>324.0</ele><time>2026-05-03T08:18:18Z</time></trkpt><trkpt lat="43.03654628806526" lon="12.114694922261243"><ele>324.0</ele><time>2026-05-03T08:18:19Z</time></trkpt><trkpt lat="43.03658488687489" lon="12.114791227443503"><ele>324.0</ele><time>2026-05-03T08:18:20Z</time></trkpt><trkpt lat="43.036609557161675" lon="12.114916615306594"><ele>324.0</ele><time>2026-05-03T08:18:22Z</time></trkpt><trkpt lat="43.03658414050681" lon="12.11506949879345"><ele>326.6</ele><time>2026-05-03T08:18:24Z</time></trkpt><trkpt lat="43.036581593572855" lon="12.115217429582438"><ele>329.2</ele><time>2026-05-03T08:18:26Z</time></trkpt><trkpt lat="43.03657943507778" lon="12.1153585190166"><ele>331.8</ele><time>2026-05-03T08:18:28Z</time></trkpt><trkpt lat="43.0365688317801" lon="12.115485362420921"><ele>334.40000000000003</ele><time>2026-05-03T08:18:30Z</time></trkpt><trkpt lat="43.03657628650586" lon="12.115641484721497"><ele>337.0</ele><time>2026-05-03T08:18:32Z</time></trkpt><trkpt lat="43.036572751940355" lon="12.115738238286474"><ele>337.6</ele><time>2026-05-03T08:18:33Z</time></trkpt><trkpt lat="43.03659383019922" lon="12.115912506797478"><ele>338.20000000000005</ele><time>2026-05-03T08:18:35Z</time></trkpt><trkpt lat="43.03659800409032" lon="12.116001765898863"><ele>338.8</ele><time>2026-05-03T08:18:36Z</time></trkpt><trkpt lat="43.03659713618929" lon="12.116171672465903"><ele>339.4</ele><time>2026-05-03T08:18:38Z</time></trkpt><trkpt lat="43.03659064276379" lon="12.11633263137198"><ele>340.0</ele><time>2026-05-03T08:18:40Z</time></trkpt><trkpt lat="43.03658826473705" lon="12.11649386191172"><ele>339.5</ele><time>2026-05-03T08:18:42Z</time></trkpt><trkpt lat="43.036583406217964" lon="12.116589522960949"><ele>339.0</ele><time>2026-05-03T08:18:43Z</time></trkpt><trkpt lat="43.036568711174155" lon="12.116726897009741"><ele>338.5</ele><time>2026-05-03T08:18:45Z</time></trkpt><trkpt lat="43.03660321607705" lon="12.116816720844495"><ele>338.0</ele><time>2026-05-03T08:18:47Z</time></trkpt><trkpt lat="43.03670221132273" lon="12.11689043679389"><ele>337.5</ele><time>2026-05-03T08:18:49Z</time></trkpt><trkpt lat="43.036759049262415" lon="12.116948036807026"><ele>337.0</ele><time>2026-05-03T08:18:51Z</time></trkpt><trkpt lat="43.03680815593002" lon="12.117024770802287"><ele>334.20000000000005</ele><time>2026-05-03T08:18:53Z</time></trkpt><trkpt lat="43.03687583731996" lon="12.11714563211663"><ele>331.4</ele><time>2026-05-03T08:18:55Z</time></trkpt><trkpt lat="43.03690575494395" lon="12.117230830009415"><ele>328.6</ele><time>2026-05-03T08:18:56Z</time></trkpt><trkpt lat="43.03692746116048" lon="12.11737425086548"><ele>325.79999999999995</ele><time>2026-05-03T08:18:58Z</time></trkpt><trkpt lat="43.03696359188636" lon="12.11750500302886"><ele>323.0</ele><time>2026-05-03T08:19:00Z</time></trkpt><trkpt lat="43.037028715494614" lon="12.117621233943433"><ele>323.0</ele><time>2026-05-03T08:19:02Z</time></trkpt><trkpt lat="43.037122214250296" lon="12.117725616086947"><ele>323.0</ele><time>2026-05-03T08:19:04Z</time></trkpt><trkpt lat="43.037154417923034" lon="12.11780224048751"><ele>323.0</ele><time>2026-05-03T08:19:05Z</time></trkpt><trkpt lat="43.03718006594007" lon="12.117882556653056"><ele>323.0</ele><time>2026-05-03T08:19:06Z</time></trkpt><trkpt lat="43.037229052123465" lon="12.117998081377385"><ele>323.0</ele><time>2026-05-03T08:19:08Z</time></trkpt><trkpt lat="43.03732633194431" lon="12.118087164583748"><ele>323.0</ele><time>2026-05-03T08:19:10Z</time></trkpt><trkpt lat="43.03738648424098" lon="12.118193338206016"><ele>323.0</ele><time>2026-05-03T08:19:12Z</time></trkpt><trkpt lat="43.037420406338924" lon="12.11827450520231"><ele>323.0</ele><time>2026-05-03T08:19:13Z</time></trkpt><trkpt lat="43.03746607381063" lon="12.118348726922422"><ele>323.0</ele><time>2026-05-03T08:19:14Z</time></trkpt><trkpt lat="43.037571832802946" lon="12.118426580828023"><ele>323.0</ele><time>2026-05-03T08:19:16Z</time></trkpt><trkpt lat="43.03765214048134" lon="12.118553383793463"><ele>320.79999999999995</ele><time>2026-05-03T08:19:18Z</time></trkpt><trkpt lat="43.03774313982417" lon="12.118650441459156"><ele>318.59999999999997</ele><time>2026-05-03T08:19:20Z</time></trkpt><trkpt lat="43.037822260745834" lon="12.118754283520786"><ele>316.4</ele><time>2026-05-03T08:19:22Z</time></trkpt><trkpt lat="43.037894494969535" lon="12.118826887315787"><ele>314.2</ele><time>2026-05-03T08:19:24Z</time></trkpt><trkpt lat="43.03797507482815" lon="12.118947254847447"><ele>312.0</ele><time>2026-05-03T08:19:26Z</time></trkpt><trkpt lat="43.038075393298286" lon="12.119053116474298"><ele>312.0</ele><time>2026-05-03T08:19:28Z</time></trkpt><trkpt lat="43.03816812688244" lon="12.119139816459528"><ele>312.0</ele><time>2026-05-03T08:19:30Z</time></trkpt><trkpt lat="43.03826232204531" lon="12.119218498368564"><ele>312.0</ele><time>2026-05-03T08:19:32Z</time></trkpt><trkpt lat="43.03835621474231" lon="12.119326971256813"><ele>312.0</ele><time>2026-05-03T08:19:34Z</time></trkpt><trkpt lat="43.038403748212225" lon="12.11938586143429"><ele>312.0</ele><time>2026-05-03T08:19:35Z</time></trkpt><trkpt lat="43.038511668873" lon="12.119467290697733"><ele>310.5</ele><time>2026-05-03T08:19:37Z</time></trkpt><trkpt lat="43.03856851484026" lon="12.119518898712583"><ele>309.0</ele><time>2026-05-03T08:19:38Z</time></trkpt><trkpt lat="43.038622662363565" lon="12.11957036125024"><ele>307.5</ele><time>2026-05-03T08:19:39Z</time></trkpt><trkpt lat="43.03872860448982" lon="12.119673951563012"><ele>306.0</ele><time>2026-05-03T08:19:41Z</time></trkpt><trkpt lat="43.038788443584494" lon="12.119738477251147"><ele>304.5</ele><time>2026-05-03T08:19:42Z</time></trkpt><trkpt lat="43.038841783332934" lon="12.119802594048009"><ele>303.0</ele><time>2026-05-03T08:19:43Z</time></trkpt><trkpt lat="43.03888706693184" lon="12.11986959054082"><ele>302.0</ele><time>2026-05-03T08:19:44Z</time></trkpt><trkpt lat="43.038966553853605" lon="12.12000407843469"><ele>301.0</ele><time>2026-05-03T08:19:46Z</time></trkpt><trkpt lat="43.03900894193045" lon="12.120074311716964"><ele>300.0</ele><time>2026-05-03T08:19:47Z</time></trkpt><trkpt lat="43.03906523570654" lon="12.120225786207529"><ele>299.0</ele><time>2026-05-03T08:19:49Z</time></trkpt><trkpt lat="43.039087866901205" lon="12.120310291244282"><ele>298.0</ele><time>2026-05-03T08:19:50Z</time></trkpt><trkpt lat="43.03912370513735" lon="12.120481628835401"><ele>298.0</ele><time>2026-05-03T08:19:52Z</time></trkpt><trkpt lat="43.03913083488157" lon="12.120568762883357"><ele>298.0</ele><time>2026-05-03T08:19:53Z</time></trkpt><trkpt lat="43.03913033661415" lon="12.12065814214345"><ele>298.0</ele><time>2026-05-03T08:19:54Z</time></trkpt><trkpt lat="43.03909341688773" lon="12.120803025432972"><ele>298.0</ele><time>2026-05-03T08:19:56Z</time></trkpt><trkpt lat="43.03906089849028" lon="12.120878180112264"><ele>298.0</ele><time>2026-05-03T08:19:57Z</time></trkpt><trkpt lat="43.039021042788264" lon="12.120952849181217"><ele>298.0</ele><time>2026-05-03T08:19:58Z</time></trkpt><trkpt lat="43.03893618191126" lon="12.12104834304005"><ele>298.16666666666663</ele><time>2026-05-03T08:20:00Z</time></trkpt><trkpt lat="43.03894929046439" lon="12.12114416457201"><ele>298.3333333333333</ele><time>2026-05-03T08:20:03Z</time></trkpt><trkpt lat="43.03905246176694" lon="12.121097303211918"><ele>298.5</ele><time>2026-05-03T08:20:05Z</time></trkpt><trkpt lat="43.03909637155326" lon="12.121034415899445"><ele>298.6666666666667</ele><time>2026-05-03T08:20:06Z</time></trkpt><trkpt lat="43.03917938060896" lon="12.120910366680295"><ele>298.83333333333337</ele><time>2026-05-03T08:20:08Z</time></trkpt><trkpt lat="43.03921436934209" lon="12.120837184669014"><ele>299.0</ele><time>2026-05-03T08:20:09Z</time></trkpt><trkpt lat="43.03924450010715" lon="12.120707569155106"><ele>298.0</ele><time>2026-05-03T08:20:11Z</time></trkpt><trkpt lat="43.03927373113376" lon="12.12057777185096"><ele>297.0</ele><time>2026-05-03T08:20:13Z</time></trkpt><trkpt lat="43.03932372681358" lon="12.120426394903303"><ele>296.0</ele><time>2026-05-03T08:20:15Z</time></trkpt><trkpt lat="43.03936482973552" lon="12.120359945075899"><ele>295.0</ele><time>2026-05-03T08:20:16Z</time></trkpt><trkpt lat="43.03941322180992" lon="12.120304292142588"><ele>294.0</ele><time>2026-05-03T08:20:17Z</time></trkpt><trkpt lat="43.0394658816207" lon="12.120249328006254"><ele>293.0</ele><time>2026-05-03T08:20:18Z</time></trkpt><trkpt lat="43.039522197741" lon="12.120195745262297"><ele>293.0</ele><time>2026-05-03T08:20:19Z</time></trkpt><trkpt lat="43.03957688365916" lon="12.120144147952358"><ele>293.0</ele><time>2026-05-03T08:20:20Z</time></trkpt><trkpt lat="43.03964346841153" lon="12.120078513647044"><ele>293.0</ele><time>2026-05-03T08:20:21Z</time></trkpt><trkpt lat="43.03971079144403" lon="12.120004406739222"><ele>293.0</ele><time>2026-05-03T08:20:22Z</time></trkpt><trkpt lat="43.03978157036969" lon="12.11993027410394"><ele>293.0</ele><time>2026-05-03T08:20:23Z</time></trkpt><trkpt lat="43.0398474578521" lon="12.119852525599411"><ele>293.0</ele><time>2026-05-03T08:20:24Z</time></trkpt><trkpt lat="43.03990844405035" lon="12.119772475825323"><ele>292.6</ele><time>2026-05-03T08:20:25Z</time></trkpt><trkpt lat="43.0399806786755" lon="12.119692497864019"><ele>292.20000000000005</ele><time>2026-05-03T08:20:26Z</time></trkpt><trkpt lat="43.040051508742614" lon="12.119613169235837"><ele>291.8</ele><time>2026-05-03T08:20:27Z</time></trkpt><trkpt lat="43.040123960614515" lon="12.11953653459554"><ele>291.40000000000003</ele><time>2026-05-03T08:20:28Z</time></trkpt><trkpt lat="43.04019451815223" lon="12.119457191236629"><ele>291.0</ele><time>2026-05-03T08:20:29Z</time></trkpt><trkpt lat="43.040266979697826" lon="12.119375688227095"><ele>291.0</ele><time>2026-05-03T08:20:30Z</time></trkpt><trkpt lat="43.040328641893296" lon="12.119305804219888"><ele>291.0</ele><time>2026-05-03T08:20:31Z</time></trkpt><trkpt lat="43.04038735796256" lon="12.119242620697188"><ele>291.0</ele><time>2026-05-03T08:20:32Z</time></trkpt><trkpt lat="43.040453043262204" lon="12.119180049853032"><ele>291.0</ele><time>2026-05-03T08:20:33Z</time></trkpt><trkpt lat="43.04051673498325" lon="12.119119990727656"><ele>291.0</ele><time>2026-05-03T08:20:34Z</time></trkpt><trkpt lat="43.040581418624065" lon="12.119043765473325"><ele>291.0</ele><time>2026-05-03T08:20:35Z</time></trkpt><trkpt lat="43.04064307959454" lon="12.118980835410673"><ele>290.8333333333333</ele><time>2026-05-03T08:20:36Z</time></trkpt><trkpt lat="43.040706692420414" lon="12.11891354680375"><ele>290.6666666666667</ele><time>2026-05-03T08:20:37Z</time></trkpt><trkpt lat="43.04076727720935" lon="12.118858340153237"><ele>290.5</ele><time>2026-05-03T08:20:38Z</time></trkpt><trkpt lat="43.04082995608934" lon="12.118791345963823"><ele>290.33333333333337</ele><time>2026-05-03T08:20:39Z</time></trkpt><trkpt lat="43.0408918343457" lon="12.118728703238693"><ele>290.1666666666667</ele><time>2026-05-03T08:20:40Z</time></trkpt><trkpt lat="43.040947155037095" lon="12.118668902654129"><ele>290.0</ele><time>2026-05-03T08:20:41Z</time></trkpt><trkpt lat="43.0410094568529" lon="12.118596909233752"><ele>289.42857142857144</ele><time>2026-05-03T08:20:42Z</time></trkpt><trkpt lat="43.041065887212454" lon="12.118530692625619"><ele>288.8571428571429</ele><time>2026-05-03T08:20:43Z</time></trkpt><trkpt lat="43.041123367475855" lon="12.118461748903334"><ele>288.2857142857143</ele><time>2026-05-03T08:20:44Z</time></trkpt><trkpt lat="43.041180509980826" lon="12.118388661022164"><ele>287.7142857142857</ele><time>2026-05-03T08:20:45Z</time></trkpt><trkpt lat="43.041238866527614" lon="12.118328013416207"><ele>287.1428571428571</ele><time>2026-05-03T08:20:46Z</time></trkpt><trkpt lat="43.04129048237963" lon="12.118272595740246"><ele>286.57142857142856</ele><time>2026-05-03T08:20:47Z</time></trkpt><trkpt lat="43.04133741355071" lon="12.11821444504044"><ele>286.0</ele><time>2026-05-03T08:20:48Z</time></trkpt><trkpt lat="43.04142106309054" lon="12.118138587526438"><ele>286.0</ele><time>2026-05-03T08:20:50Z</time></trkpt><trkpt lat="43.041476361683785" lon="12.118087971723325"><ele>286.0</ele><time>2026-05-03T08:20:53Z</time></trkpt><trkpt lat="43.04156475915281" lon="12.118216616609097"><ele>286.0</ele><time>2026-05-03T08:20:54Z</time></trkpt><trkpt lat="43.04162868282435" lon="12.118309874512738"><ele>286.0</ele><time>2026-05-03T08:20:56Z</time></trkpt><trkpt lat="43.04171019916353" lon="12.118395479306903"><ele>286.0</ele><time>2026-05-03T08:20:58Z</time></trkpt><trkpt lat="43.04179135814715" lon="12.118496929127728"><ele>285.8</ele><time>2026-05-03T08:21:00Z</time></trkpt><trkpt lat="43.041882656714336" lon="12.11860614822261"><ele>285.6</ele><time>2026-05-03T08:21:02Z</time></trkpt><trkpt lat="43.04193374702946" lon="12.11866363902382"><ele>285.4</ele><time>2026-05-03T08:21:03Z</time></trkpt><trkpt lat="43.041986029682924" lon="12.11871241893153"><ele>285.2</ele><time>2026-05-03T08:21:04Z</time></trkpt><trkpt lat="43.04208914465467" lon="12.118821023827099"><ele>285.0</ele><time>2026-05-03T08:21:06Z</time></trkpt><trkpt lat="43.0421489553618" lon="12.118872041299594"><ele>285.0</ele><time>2026-05-03T08:21:07Z</time></trkpt><trkpt lat="43.04225910512747" lon="12.118929789840028"><ele>285.0</ele><time>2026-05-03T08:21:09Z</time></trkpt><trkpt lat="43.042328673904976" lon="12.11894040546047"><ele>285.0</ele><time>2026-05-03T08:21:10Z</time></trkpt><trkpt lat="43.04241035999693" lon="12.118935838131792"><ele>285.0</ele><time>2026-05-03T08:21:11Z</time></trkpt><trkpt lat="43.04248912849428" lon="12.118930294862952"><ele>285.0</ele><time>2026-05-03T08:21:12Z</time></trkpt><trkpt lat="43.042563252306856" lon="12.118923833371076"><ele>285.0</ele><time>2026-05-03T08:21:13Z</time></trkpt><trkpt lat="43.04263942246584" lon="12.118923112802932"><ele>284.8333333333333</ele><time>2026-05-03T08:21:14Z</time></trkpt><trkpt lat="43.04271905814984" lon="12.118923527338895"><ele>284.6666666666667</ele><time>2026-05-03T08:21:15Z</time></trkpt><trkpt lat="43.0428011186992" lon="12.118918994908586"><ele>284.5</ele><time>2026-05-03T08:21:16Z</time></trkpt><trkpt lat="43.04288337374151" lon="12.118919226155741"><ele>284.33333333333337</ele><time>2026-05-03T08:21:17Z</time></trkpt><trkpt lat="43.04296316785472" lon="12.118917393127015"><ele>284.1666666666667</ele><time>2026-05-03T08:21:18Z</time></trkpt><trkpt lat="43.04304400661045" lon="12.118918272544557"><ele>284.0</ele><time>2026-05-03T08:21:19Z</time></trkpt><trkpt lat="43.043121137882245" lon="12.118912601283924"><ele>284.0</ele><time>2026-05-03T08:21:20Z</time></trkpt><trkpt lat="43.04319542354379" lon="12.118901395750253"><ele>284.0</ele><time>2026-05-03T08:21:21Z</time></trkpt><trkpt lat="43.04327286881872" lon="12.118889793674922"><ele>284.0</ele><time>2026-05-03T08:21:22Z</time></trkpt><trkpt lat="43.04335078538114" lon="12.118888452602263"><ele>284.0</ele><time>2026-05-03T08:21:23Z</time></trkpt><trkpt lat="43.04341955119942" lon="12.118889293423917"><ele>284.0</ele><time>2026-05-03T08:21:24Z</time></trkpt><trkpt lat="43.04349133846386" lon="12.11889760700276"><ele>284.0</ele><time>2026-05-03T08:21:25Z</time></trkpt><trkpt lat="43.04356640651205" lon="12.11889626341008"><ele>284.0</ele><time>2026-05-03T08:21:26Z</time></trkpt><trkpt lat="43.04364125831981" lon="12.118905469366876"><ele>283.83333333333337</ele><time>2026-05-03T08:21:27Z</time></trkpt><trkpt lat="43.043714905416664" lon="12.118916198257992"><ele>283.6666666666667</ele><time>2026-05-03T08:21:28Z</time></trkpt><trkpt lat="43.043788524113104" lon="12.118927358589962"><ele>283.5</ele><time>2026-05-03T08:21:29Z</time></trkpt><trkpt lat="43.043861740962654" lon="12.118942172530613"><ele>283.3333333333333</ele><time>2026-05-03T08:21:30Z</time></trkpt><trkpt lat="43.04394117596778" lon="12.118960377580239"><ele>283.16666666666663</ele><time>2026-05-03T08:21:31Z</time></trkpt><trkpt lat="43.044024143931615" lon="12.118978349709833"><ele>283.0</ele><time>2026-05-03T08:21:32Z</time></trkpt><trkpt lat="43.04411138563708" lon="12.119007256367883"><ele>283.0</ele><time>2026-05-03T08:21:33Z</time></trkpt><trkpt lat="43.044202497266696" lon="12.119032937118641"><ele>283.0</ele><time>2026-05-03T08:21:34Z</time></trkpt><trkpt lat="43.044295690152815" lon="12.119060837052759"><ele>283.0</ele><time>2026-05-03T08:21:35Z</time></trkpt><trkpt lat="43.04440140196302" lon="12.119090944126828"><ele>283.0</ele><time>2026-05-03T08:21:36Z</time></trkpt><trkpt lat="43.04452091089281" lon="12.119127546445474"><ele>283.0</ele><time>2026-05-03T08:21:37Z</time></trkpt><trkpt lat="43.044625654194384" lon="12.119159083974951"><ele>282.8</ele><time>2026-05-03T08:21:38Z</time></trkpt><trkpt lat="43.04471822849937" lon="12.119184718219698"><ele>282.6</ele><time>2026-05-03T08:21:39Z</time></trkpt><trkpt lat="43.04480352779647" lon="12.119210233133591"><ele>282.4</ele><time>2026-05-03T08:21:40Z</time></trkpt><trkpt lat="43.0448821980887" lon="12.119234876124057"><ele>282.2</ele><time>2026-05-03T08:21:41Z</time></trkpt><trkpt lat="43.04495170216017" lon="12.119255607092155"><ele>282.0</ele><time>2026-05-03T08:21:42Z</time></trkpt><trkpt lat="43.04507402629659" lon="12.119288239691736"><ele>282.0</ele><time>2026-05-03T08:21:44Z</time></trkpt><trkpt lat="43.045136450534585" lon="12.119271065037777"><ele>282.0</ele><time>2026-05-03T08:21:45Z</time></trkpt><trkpt lat="43.04519092246708" lon="12.119219426389664"><ele>282.0</ele><time>2026-05-03T08:21:46Z</time></trkpt><trkpt lat="43.045240684985785" lon="12.119160599766674"><ele>282.0</ele><time>2026-05-03T08:21:47Z</time></trkpt><trkpt lat="43.045294149728704" lon="12.119101542827902"><ele>282.0</ele><time>2026-05-03T08:21:48Z</time></trkpt><trkpt lat="43.045349254997966" lon="12.119053547812142"><ele>282.0</ele><time>2026-05-03T08:21:49Z</time></trkpt><trkpt lat="43.04543648453088" lon="12.11896616635709"><ele>282.0</ele><time>2026-05-03T08:21:51Z</time></trkpt><trkpt lat="43.04549883518932" lon="12.118883983872582"><ele>282.0</ele><time>2026-05-03T08:21:53Z</time></trkpt><trkpt lat="43.045574363615785" lon="12.118881066827033"><ele>282.0</ele><time>2026-05-03T08:21:56Z</time></trkpt><trkpt lat="43.04562392577696" lon="12.119003980824221"><ele>282.0</ele><time>2026-05-03T08:21:58Z</time></trkpt><trkpt lat="43.0456535742642" lon="12.119081549494279"><ele>282.0</ele><time>2026-05-03T08:21:59Z</time></trkpt><trkpt lat="43.04572677901627" lon="12.11922463856865"><ele>282.0</ele><time>2026-05-03T08:22:01Z</time></trkpt><trkpt lat="43.04577177786071" lon="12.119311600265494"><ele>282.0</ele><time>2026-05-03T08:22:02Z</time></trkpt><trkpt lat="43.04582290311475" lon="12.11941189769271"><ele>281.8</ele><time>2026-05-03T08:22:03Z</time></trkpt><trkpt lat="43.045872862777834" lon="12.119514779571471"><ele>281.6</ele><time>2026-05-03T08:22:04Z</time></trkpt><trkpt lat="43.04593115378896" lon="12.119618503596394"><ele>281.40000000000003</ele><time>2026-05-03T08:22:05Z</time></trkpt><trkpt lat="43.045988467915016" lon="12.11972530754784"><ele>281.2</ele><time>2026-05-03T08:22:06Z</time></trkpt><trkpt lat="43.04604458609977" lon="12.119829506467044"><ele>281.0</ele><time>2026-05-03T08:22:07Z</time></trkpt><trkpt lat="43.0461025613369" lon="12.11993533845659"><ele>281.0</ele><time>2026-05-03T08:22:08Z</time></trkpt><trkpt lat="43.046162551604155" lon="12.120042737606468"><ele>281.0</ele><time>2026-05-03T08:22:09Z</time></trkpt><trkpt lat="43.04622574022348" lon="12.1201519036789"><ele>281.0</ele><time>2026-05-03T08:22:10Z</time></trkpt><trkpt lat="43.04629071626284" lon="12.120259523600009"><ele>281.0</ele><time>2026-05-03T08:22:11Z</time></trkpt><trkpt lat="43.04635711405727" lon="12.12037488741269"><ele>281.0</ele><time>2026-05-03T08:22:12Z</time></trkpt><trkpt lat="43.04642507526283" lon="12.120492685606772"><ele>281.0</ele><time>2026-05-03T08:22:13Z</time></trkpt><trkpt lat="43.04649957649309" lon="12.120610308181728"><ele>281.0</ele><time>2026-05-03T08:22:14Z</time></trkpt><trkpt lat="43.04656928345941" lon="12.120721677470682"><ele>281.0</ele><time>2026-05-03T08:22:15Z</time></trkpt><trkpt lat="43.04663939545507" lon="12.120828624611642"><ele>281.0</ele><time>2026-05-03T08:22:16Z</time></trkpt><trkpt lat="43.04671446164037" lon="12.120949890545273"><ele>281.0</ele><time>2026-05-03T08:22:17Z</time></trkpt><trkpt lat="43.04678544073312" lon="12.121065100887119"><ele>280.75</ele><time>2026-05-03T08:22:18Z</time></trkpt><trkpt lat="43.04686188224394" lon="12.121174730067015"><ele>280.5</ele><time>2026-05-03T08:22:19Z</time></trkpt><trkpt lat="43.04693340030154" lon="12.121291090327034"><ele>280.25</ele><time>2026-05-03T08:22:20Z</time></trkpt><trkpt lat="43.04701076836189" lon="12.12141032248662"><ele>280.0</ele><time>2026-05-03T08:22:21Z</time></trkpt><trkpt lat="43.047090120772246" lon="12.12153100118852"><ele>280.75</ele><time>2026-05-03T08:22:22Z</time></trkpt><trkpt lat="43.04717035471864" lon="12.12165458014078"><ele>281.5</ele><time>2026-05-03T08:22:23Z</time></trkpt><trkpt lat="43.04725390054179" lon="12.121780483645464"><ele>282.25</ele><time>2026-05-03T08:22:24Z</time></trkpt><trkpt lat="43.047335305256105" lon="12.121912438680395"><ele>283.0</ele><time>2026-05-03T08:22:25Z</time></trkpt><trkpt lat="43.047414300062506" lon="12.122035388773993"><ele>283.0</ele><time>2026-05-03T08:22:26Z</time></trkpt><trkpt lat="43.04749630020174" lon="12.122159606866793"><ele>283.0</ele><time>2026-05-03T08:22:27Z</time></trkpt><trkpt lat="43.04757531454283" lon="12.122285580195792"><ele>283.0</ele><time>2026-05-03T08:22:28Z</time></trkpt><trkpt lat="43.047664086988256" lon="12.122423382476407"><ele>283.0</ele><time>2026-05-03T08:22:29Z</time></trkpt><trkpt lat="43.04775481246548" lon="12.122560848076134"><ele>284.0</ele><time>2026-05-03T08:22:30Z</time></trkpt><trkpt lat="43.04784278337487" lon="12.12269794867607"><ele>285.0</ele><time>2026-05-03T08:22:31Z</time></trkpt><trkpt lat="43.04792561011519" lon="12.122830214509428"><ele>286.0</ele><time>2026-05-03T08:22:32Z</time></trkpt><trkpt lat="43.04799845533692" lon="12.12295999192726"><ele>287.0</ele><time>2026-05-03T08:22:33Z</time></trkpt><trkpt lat="43.04805767116" lon="12.123094750712173"><ele>287.75</ele><time>2026-05-03T08:22:34Z</time></trkpt><trkpt lat="43.04810364583423" lon="12.123242752948652"><ele>288.5</ele><time>2026-05-03T08:22:35Z</time></trkpt><trkpt lat="43.04813757233854" lon="12.123405206536994"><ele>289.25</ele><time>2026-05-03T08:22:36Z</time></trkpt><trkpt lat="43.048168429354405" lon="12.123570216443007"><ele>290.0</ele><time>2026-05-03T08:22:37Z</time></trkpt><trkpt lat="43.048200771164986" lon="12.123734885901424"><ele>290.0</ele><time>2026-05-03T08:22:38Z</time></trkpt><trkpt lat="43.04823409044826" lon="12.123901869686634"><ele>290.0</ele><time>2026-05-03T08:22:39Z</time></trkpt><trkpt lat="43.048267842913326" lon="12.124073502687107"><ele>290.0</ele><time>2026-05-03T08:22:40Z</time></trkpt><trkpt lat="43.04830134573027" lon="12.124248876875159"><ele>290.0</ele><time>2026-05-03T08:22:41Z</time></trkpt><trkpt lat="43.04833426137645" lon="12.124423888582221"><ele>289.25</ele><time>2026-05-03T08:22:42Z</time></trkpt><trkpt lat="43.04836878289682" lon="12.124597392222235"><ele>288.5</ele><time>2026-05-03T08:22:43Z</time></trkpt><trkpt lat="43.04840303379893" lon="12.124765042946233"><ele>287.75</ele><time>2026-05-03T08:22:44Z</time></trkpt><trkpt lat="43.048438306998115" lon="12.124932725362576"><ele>287.0</ele><time>2026-05-03T08:22:45Z</time></trkpt><trkpt lat="43.048473330583725" lon="12.12510053439133"><ele>287.0</ele><time>2026-05-03T08:22:46Z</time></trkpt><trkpt lat="43.048506306560355" lon="12.125267372186961"><ele>287.0</ele><time>2026-05-03T08:22:47Z</time></trkpt><trkpt lat="43.04853973559107" lon="12.125434134574531"><ele>287.0</ele><time>2026-05-03T08:22:48Z</time></trkpt><trkpt lat="43.04857437513983" lon="12.125611009117698"><ele>287.0</ele><time>2026-05-03T08:22:49Z</time></trkpt><trkpt lat="43.04860541920955" lon="12.125777851161276"><ele>287.4</ele><time>2026-05-03T08:22:50Z</time></trkpt><trkpt lat="43.048634673633785" lon="12.125933367922057"><ele>287.79999999999995</ele><time>2026-05-03T08:22:51Z</time></trkpt><trkpt lat="43.048663692727004" lon="12.12608075775496"><ele>288.2</ele><time>2026-05-03T08:22:52Z</time></trkpt><trkpt lat="43.04869113878019" lon="12.126214149723836"><ele>288.59999999999997</ele><time>2026-05-03T08:22:53Z</time></trkpt><trkpt lat="43.048718983749765" lon="12.126347310333674"><ele>289.0</ele><time>2026-05-03T08:22:54Z</time></trkpt><trkpt lat="43.04875182302153" lon="12.126493301959899"><ele>289.0</ele><time>2026-05-03T08:22:55Z</time></trkpt><trkpt lat="43.04878220220678" lon="12.126648678477107"><ele>289.0</ele><time>2026-05-03T08:22:56Z</time></trkpt><trkpt lat="43.048813459072434" lon="12.12679954235586"><ele>289.0</ele><time>2026-05-03T08:22:57Z</time></trkpt><trkpt lat="43.04884631838619" lon="12.126955576544757"><ele>289.0</ele><time>2026-05-03T08:22:58Z</time></trkpt><trkpt lat="43.04887509468393" lon="12.12709877665945"><ele>289.0</ele><time>2026-05-03T08:22:59Z</time></trkpt><trkpt lat="43.04890044644746" lon="12.127233241336139"><ele>289.0</ele><time>2026-05-03T08:23:00Z</time></trkpt><trkpt lat="43.048930525962945" lon="12.127365494188716"><ele>289.0</ele><time>2026-05-03T08:23:01Z</time></trkpt><trkpt lat="43.04896227349088" lon="12.127514224018887"><ele>289.0</ele><time>2026-05-03T08:23:02Z</time></trkpt><trkpt lat="43.04899476539546" lon="12.12766349043373"><ele>289.0</ele><time>2026-05-03T08:23:03Z</time></trkpt><trkpt lat="43.049023715412396" lon="12.12779755983701"><ele>289.0</ele><time>2026-05-03T08:23:04Z</time></trkpt><trkpt lat="43.049053189803274" lon="12.12793089302506"><ele>289.0</ele><time>2026-05-03T08:23:05Z</time></trkpt><trkpt lat="43.04908373523237" lon="12.128065116743597"><ele>289.0</ele><time>2026-05-03T08:23:06Z</time></trkpt><trkpt lat="43.049120019734936" lon="12.128201072338944"><ele>289.0</ele><time>2026-05-03T08:23:07Z</time></trkpt><trkpt lat="43.049158281999865" lon="12.128328353917068"><ele>289.0</ele><time>2026-05-03T08:23:08Z</time></trkpt><trkpt lat="43.04919397263284" lon="12.128442196269903"><ele>288.3333333333333</ele><time>2026-05-03T08:23:09Z</time></trkpt><trkpt lat="43.04923237537102" lon="12.128550027035605"><ele>287.66666666666663</ele><time>2026-05-03T08:23:10Z</time></trkpt><trkpt lat="43.04927301044378" lon="12.128661260259271"><ele>287.0</ele><time>2026-05-03T08:23:11Z</time></trkpt><trkpt lat="43.049311234550565" lon="12.128772457862237"><ele>286.3333333333333</ele><time>2026-05-03T08:23:12Z</time></trkpt><trkpt lat="43.04935232825212" lon="12.12887804803198"><ele>285.6666666666667</ele><time>2026-05-03T08:23:13Z</time></trkpt><trkpt lat="43.04939364359535" lon="12.128981930147088"><ele>285.0</ele><time>2026-05-03T08:23:14Z</time></trkpt><trkpt lat="43.04943131575631" lon="12.129078361593876"><ele>285.0</ele><time>2026-05-03T08:23:15Z</time></trkpt><trkpt lat="43.04948481085579" lon="12.129227570439847"><ele>285.0</ele><time>2026-05-03T08:23:17Z</time></trkpt><trkpt lat="43.04954408528679" lon="12.129402555827598"><ele>285.0</ele><time>2026-05-03T08:23:19Z</time></trkpt><trkpt lat="43.04957696533991" lon="12.12949638567982"><ele>285.0</ele><time>2026-05-03T08:23:20Z</time></trkpt><trkpt lat="43.049610423097015" lon="12.129598416773108"><ele>285.0</ele><time>2026-05-03T08:23:21Z</time></trkpt><trkpt lat="43.049641420702706" lon="12.129702362929818"><ele>285.0</ele><time>2026-05-03T08:23:22Z</time></trkpt><trkpt lat="43.049672650728986" lon="12.129812381149844"><ele>285.0</ele><time>2026-05-03T08:23:23Z</time></trkpt><trkpt lat="43.04970047136767" lon="12.129918858567128"><ele>285.0</ele><time>2026-05-03T08:23:24Z</time></trkpt><trkpt lat="43.049736251595434" lon="12.130042293457416"><ele>285.0</ele><time>2026-05-03T08:23:25Z</time></trkpt><trkpt lat="43.04975682632569" lon="12.13019572354923"><ele>285.0</ele><time>2026-05-03T08:23:26Z</time></trkpt><trkpt lat="43.04978871343706" lon="12.130364972865475"><ele>285.3333333333333</ele><time>2026-05-03T08:23:27Z</time></trkpt><trkpt lat="43.04982373198078" lon="12.13055084306168"><ele>285.66666666666663</ele><time>2026-05-03T08:23:28Z</time></trkpt><trkpt lat="43.0498627888136" lon="12.13075918604377"><ele>286.0</ele><time>2026-05-03T08:23:29Z</time></trkpt><trkpt lat="43.049905842213086" lon="12.130996761778778"><ele>286.3333333333333</ele><time>2026-05-03T08:23:30Z</time></trkpt><trkpt lat="43.04996920871189" lon="12.131253877579843"><ele>286.6666666666667</ele><time>2026-05-03T08:23:31Z</time></trkpt><trkpt lat="43.05000210432479" lon="12.131535397910898"><ele>287.0</ele><time>2026-05-03T08:23:32Z</time></trkpt><trkpt lat="43.05003882900954" lon="12.131780328510736"><ele>287.6666666666667</ele><time>2026-05-03T08:23:33Z</time></trkpt><trkpt lat="43.05008116890707" lon="12.13200011064674"><ele>288.3333333333333</ele><time>2026-05-03T08:23:34Z</time></trkpt><trkpt lat="43.05012123532784" lon="12.132225501559212"><ele>289.0</ele><time>2026-05-03T08:23:35Z</time></trkpt><trkpt lat="43.05015774087564" lon="12.132426496522232"><ele>289.25</ele><time>2026-05-03T08:23:36Z</time></trkpt><trkpt lat="43.05019842920219" lon="12.132625537539662"><ele>289.5</ele><time>2026-05-03T08:23:37Z</time></trkpt><trkpt lat="43.05023693538833" lon="12.132819532639637"><ele>289.75</ele><time>2026-05-03T08:23:38Z</time></trkpt><trkpt lat="43.05027348408154" lon="12.133015689325559"><ele>290.0</ele><time>2026-05-03T08:23:39Z</time></trkpt><trkpt lat="43.050309489482935" lon="12.133212637578861"><ele>291.33333333333337</ele><time>2026-05-03T08:23:40Z</time></trkpt><trkpt lat="43.05034776222624" lon="12.133424579522707"><ele>292.6666666666667</ele><time>2026-05-03T08:23:41Z</time></trkpt><trkpt lat="43.05039340164166" lon="12.133639133635342"><ele>294.0</ele><time>2026-05-03T08:23:42Z</time></trkpt><trkpt lat="43.050438997426255" lon="12.133846773565775"><ele>296.6666666666667</ele><time>2026-05-03T08:23:43Z</time></trkpt><trkpt lat="43.05048797546276" lon="12.134061730764724"><ele>299.33333333333337</ele><time>2026-05-03T08:23:44Z</time></trkpt><trkpt lat="43.05054048672154" lon="12.134271458139825"><ele>302.0</ele><time>2026-05-03T08:23:45Z</time></trkpt><trkpt lat="43.050601981873456" lon="12.13447752566246"><ele>302.0</ele><time>2026-05-03T08:23:46Z</time></trkpt><trkpt lat="43.050663830360364" lon="12.134671954584448"><ele>302.0</ele><time>2026-05-03T08:23:47Z</time></trkpt><trkpt lat="43.05071923043387" lon="12.134858196244558"><ele>302.0</ele><time>2026-05-03T08:23:48Z</time></trkpt><trkpt lat="43.05076012414281" lon="12.135050825009323"><ele>302.0</ele><time>2026-05-03T08:23:49Z</time></trkpt><trkpt lat="43.050803055469125" lon="12.135232126539735"><ele>302.0</ele><time>2026-05-03T08:23:50Z</time></trkpt><trkpt lat="43.050857647420884" lon="12.135420505258988"><ele>302.0</ele><time>2026-05-03T08:23:51Z</time></trkpt><trkpt lat="43.050890837910394" lon="12.135623321958818"><ele>302.0</ele><time>2026-05-03T08:23:52Z</time></trkpt><trkpt lat="43.05091608890582" lon="12.135823913702636"><ele>302.0</ele><time>2026-05-03T08:23:53Z</time></trkpt><trkpt lat="43.05094911764778" lon="12.13603092750753"><ele>302.0</ele><time>2026-05-03T08:23:54Z</time></trkpt><trkpt lat="43.050981883270744" lon="12.136222337681867"><ele>302.0</ele><time>2026-05-03T08:23:55Z</time></trkpt><trkpt lat="43.05101879424412" lon="12.136421235904411"><ele>302.0</ele><time>2026-05-03T08:23:56Z</time></trkpt><trkpt lat="43.05105618186474" lon="12.136628599738714"><ele>302.33333333333337</ele><time>2026-05-03T08:23:57Z</time></trkpt><trkpt lat="43.05108532753133" lon="12.136829874605008"><ele>302.6666666666667</ele><time>2026-05-03T08:23:58Z</time></trkpt><trkpt lat="43.05111544698354" lon="12.137026624610034"><ele>303.0</ele><time>2026-05-03T08:23:59Z</time></trkpt><trkpt lat="43.05114619412712" lon="12.137236286032485"><ele>303.3333333333333</ele><time>2026-05-03T08:24:00Z</time></trkpt><trkpt lat="43.051171958233574" lon="12.137442797499443"><ele>303.66666666666663</ele><time>2026-05-03T08:24:01Z</time></trkpt><trkpt lat="43.051209335962035" lon="12.137648184791395"><ele>304.0</ele><time>2026-05-03T08:24:02Z</time></trkpt><trkpt lat="43.051251071399676" lon="12.137846905222844"><ele>304.0</ele><time>2026-05-03T08:24:03Z</time></trkpt><trkpt lat="43.051286853668465" lon="12.138031371481935"><ele>304.0</ele><time>2026-05-03T08:24:04Z</time></trkpt><trkpt lat="43.05133572432151" lon="12.138215852793525"><ele>304.0</ele><time>2026-05-03T08:24:05Z</time></trkpt><trkpt lat="43.05139029848396" lon="12.138397982738457"><ele>304.0</ele><time>2026-05-03T08:24:06Z</time></trkpt><trkpt lat="43.05145631873525" lon="12.138579972095185"><ele>304.25</ele><time>2026-05-03T08:24:07Z</time></trkpt><trkpt lat="43.051525401261955" lon="12.138733919928434"><ele>304.5</ele><time>2026-05-03T08:24:08Z</time></trkpt><trkpt lat="43.05158983107795" lon="12.138892538321704"><ele>304.75</ele><time>2026-05-03T08:24:09Z</time></trkpt><trkpt lat="43.05165624637291" lon="12.139048317729078"><ele>305.0</ele><time>2026-05-03T08:24:10Z</time></trkpt><trkpt lat="43.05172479372158" lon="12.139204732382655"><ele>303.25</ele><time>2026-05-03T08:24:11Z</time></trkpt><trkpt lat="43.05179132473784" lon="12.139348688827118"><ele>301.5</ele><time>2026-05-03T08:24:12Z</time></trkpt><trkpt lat="43.05184920128547" lon="12.13947920943452"><ele>299.75</ele><time>2026-05-03T08:24:13Z</time></trkpt><trkpt lat="43.0519084478476" lon="12.139610697712971"><ele>298.0</ele><time>2026-05-03T08:24:14Z</time></trkpt><trkpt lat="43.05196018649637" lon="12.139737842000756"><ele>298.0</ele><time>2026-05-03T08:24:15Z</time></trkpt><trkpt lat="43.052010969038605" lon="12.139854094451865"><ele>298.0</ele><time>2026-05-03T08:24:16Z</time></trkpt><trkpt lat="43.05206913428376" lon="12.139953934354192"><ele>298.0</ele><time>2026-05-03T08:24:17Z</time></trkpt><trkpt lat="43.052128958906614" lon="12.140042971776635"><ele>298.0</ele><time>2026-05-03T08:24:18Z</time></trkpt><trkpt lat="43.05221289370303" lon="12.14013707250408"><ele>298.0</ele><time>2026-05-03T08:24:19Z</time></trkpt><trkpt lat="43.05230452436489" lon="12.140234109261897"><ele>298.25</ele><time>2026-05-03T08:24:20Z</time></trkpt><trkpt lat="43.05240437627756" lon="12.14033718564062"><ele>298.5</ele><time>2026-05-03T08:24:21Z</time></trkpt><trkpt lat="43.05250685957006" lon="12.14045610487631"><ele>298.75</ele><time>2026-05-03T08:24:22Z</time></trkpt><trkpt lat="43.05259902554206" lon="12.140584022082741"><ele>299.0</ele><time>2026-05-03T08:24:23Z</time></trkpt><trkpt lat="43.05267144664347" lon="12.140719621232888"><ele>298.59999999999997</ele><time>2026-05-03T08:24:24Z</time></trkpt><trkpt lat="43.05272051587742" lon="12.140860926769976"><ele>298.2</ele><time>2026-05-03T08:24:25Z</time></trkpt><trkpt lat="43.05274890320412" lon="12.140998839661359"><ele>297.79999999999995</ele><time>2026-05-03T08:24:26Z</time></trkpt><trkpt lat="43.0527686883942" lon="12.14113827570385"><ele>297.4</ele><time>2026-05-03T08:24:27Z</time></trkpt><trkpt lat="43.052783862115746" lon="12.14127886513749"><ele>297.0</ele><time>2026-05-03T08:24:28Z</time></trkpt><trkpt lat="43.0527868481812" lon="12.141421931310392"><ele>297.2</ele><time>2026-05-03T08:24:29Z</time></trkpt><trkpt lat="43.05283230251487" lon="12.141561169357182"><ele>297.4</ele><time>2026-05-03T08:24:30Z</time></trkpt><trkpt lat="43.05286810809922" lon="12.141702197033625"><ele>297.6</ele><time>2026-05-03T08:24:31Z</time></trkpt><trkpt lat="43.05290313636239" lon="12.141846504044947"><ele>297.8</ele><time>2026-05-03T08:24:32Z</time></trkpt><trkpt lat="43.05293420155215" lon="12.141994272276373"><ele>298.0</ele><time>2026-05-03T08:24:33Z</time></trkpt><trkpt lat="43.05296373813307" lon="12.142135489639463"><ele>298.0</ele><time>2026-05-03T08:24:34Z</time></trkpt><trkpt lat="43.052997718226585" lon="12.142274351436013"><ele>298.0</ele><time>2026-05-03T08:24:35Z</time></trkpt><trkpt lat="43.05303177764729" lon="12.142411813490076"><ele>298.0</ele><time>2026-05-03T08:24:36Z</time></trkpt><trkpt lat="43.05306537884313" lon="12.142547501096148"><ele>298.0</ele><time>2026-05-03T08:24:37Z</time></trkpt><trkpt lat="43.05309463562447" lon="12.14267253647835"><ele>298.0</ele><time>2026-05-03T08:24:38Z</time></trkpt><trkpt lat="43.053120848829" lon="12.142787833840575"><ele>298.4</ele><time>2026-05-03T08:24:39Z</time></trkpt><trkpt lat="43.05315047455536" lon="12.142904604610743"><ele>298.8</ele><time>2026-05-03T08:24:40Z</time></trkpt><trkpt lat="43.053183017939965" lon="12.14302506557494"><ele>299.2</ele><time>2026-05-03T08:24:41Z</time></trkpt><trkpt lat="43.05321439327245" lon="12.143155539141476"><ele>299.6</ele><time>2026-05-03T08:24:42Z</time></trkpt><trkpt lat="43.05324918253992" lon="12.143287473447373"><ele>300.0</ele><time>2026-05-03T08:24:43Z</time></trkpt><trkpt lat="43.05328288766012" lon="12.14341536005977"><ele>299.5</ele><time>2026-05-03T08:24:44Z</time></trkpt><trkpt lat="43.05332454396467" lon="12.143525026837914"><ele>299.0</ele><time>2026-05-03T08:24:45Z</time></trkpt><trkpt lat="43.053360956220395" lon="12.143621195098314"><ele>298.5</ele><time>2026-05-03T08:24:46Z</time></trkpt><trkpt lat="43.05340099847263" lon="12.143714909155225"><ele>298.0</ele><time>2026-05-03T08:24:47Z</time></trkpt><trkpt lat="43.05345331200143" lon="12.143790597976432"><ele>297.5</ele><time>2026-05-03T08:24:48Z</time></trkpt><trkpt lat="43.053538702507765" lon="12.143868692534062"><ele>297.0</ele><time>2026-05-03T08:24:50Z</time></trkpt><trkpt lat="43.053628611001756" lon="12.143819895478469"><ele>297.0</ele><time>2026-05-03T08:24:51Z</time></trkpt><trkpt lat="43.05370033771148" lon="12.143801039488402"><ele>297.0</ele><time>2026-05-03T08:24:52Z</time></trkpt><trkpt lat="43.05377833022788" lon="12.143777426507816"><ele>297.0</ele><time>2026-05-03T08:24:53Z</time></trkpt><trkpt lat="43.053854391436545" lon="12.14374715091325"><ele>297.0</ele><time>2026-05-03T08:24:54Z</time></trkpt><trkpt lat="43.05393221309965" lon="12.143692868515448"><ele>297.0</ele><time>2026-05-03T08:24:55Z</time></trkpt><trkpt lat="43.054020658259745" lon="12.143666351304768"><ele>297.0</ele><time>2026-05-03T08:24:56Z</time></trkpt><trkpt lat="43.05409668939953" lon="12.143644656562984"><ele>296.6666666666667</ele><time>2026-05-03T08:24:57Z</time></trkpt><trkpt lat="43.05417053960258" lon="12.143623926492149"><ele>296.3333333333333</ele><time>2026-05-03T08:24:58Z</time></trkpt><trkpt lat="43.05424238371861" lon="12.143613442960557"><ele>296.0</ele><time>2026-05-03T08:24:59Z</time></trkpt><trkpt lat="43.05430610494759" lon="12.143613820038587"><ele>295.66666666666663</ele><time>2026-05-03T08:25:00Z</time></trkpt><trkpt lat="43.05442070300909" lon="12.14367939230356"><ele>295.3333333333333</ele><time>2026-05-03T08:25:02Z</time></trkpt><trkpt lat="43.054478505763996" lon="12.143735617133084"><ele>295.0</ele><time>2026-05-03T08:25:03Z</time></trkpt><trkpt lat="43.05455227220807" lon="12.143770915740596"><ele>295.0</ele><time>2026-05-03T08:25:04Z</time></trkpt><trkpt lat="43.05462876082948" lon="12.14378883125853"><ele>295.0</ele><time>2026-05-03T08:25:05Z</time></trkpt><trkpt lat="43.05470724891505" lon="12.143767883335286"><ele>295.0</ele><time>2026-05-03T08:25:06Z</time></trkpt><trkpt lat="43.054790671378065" lon="12.143749670185219"><ele>295.0</ele><time>2026-05-03T08:25:07Z</time></trkpt><trkpt lat="43.05487860059437" lon="12.143755749450689"><ele>295.0</ele><time>2026-05-03T08:25:08Z</time></trkpt><trkpt lat="43.054966795423724" lon="12.143734460041834"><ele>295.0</ele><time>2026-05-03T08:25:09Z</time></trkpt><trkpt lat="43.05505332328143" lon="12.143695394904011"><ele>294.6</ele><time>2026-05-03T08:25:10Z</time></trkpt><trkpt lat="43.05514411369743" lon="12.143677767137893"><ele>294.2</ele><time>2026-05-03T08:25:11Z</time></trkpt><trkpt lat="43.05524426915484" lon="12.143648278562916"><ele>293.8</ele><time>2026-05-03T08:25:12Z</time></trkpt><trkpt lat="43.05534040256013" lon="12.143620693415274"><ele>293.4</ele><time>2026-05-03T08:25:13Z</time></trkpt><trkpt lat="43.05543526138079" lon="12.143593469265001"><ele>293.0</ele><time>2026-05-03T08:25:14Z</time></trkpt><trkpt lat="43.05552788874422" lon="12.143567527862986"><ele>293.0</ele><time>2026-05-03T08:25:15Z</time></trkpt><trkpt lat="43.05562463632189" lon="12.143537452597531"><ele>293.0</ele><time>2026-05-03T08:25:16Z</time></trkpt><trkpt lat="43.05571802188292" lon="12.143511760299415"><ele>293.0</ele><time>2026-05-03T08:25:17Z</time></trkpt><trkpt lat="43.055809576854436" lon="12.143482127901544"><ele>293.0</ele><time>2026-05-03T08:25:18Z</time></trkpt><trkpt lat="43.05590270426001" lon="12.143459496248356"><ele>293.0</ele><time>2026-05-03T08:25:19Z</time></trkpt><trkpt lat="43.05598104724859" lon="12.14341855736953"><ele>293.6666666666667</ele><time>2026-05-03T08:25:20Z</time></trkpt><trkpt lat="43.05604072800333" lon="12.143344139179478"><ele>294.33333333333337</ele><time>2026-05-03T08:25:21Z</time></trkpt><trkpt lat="43.05608133615385" lon="12.143246070788448"><ele>295.0</ele><time>2026-05-03T08:25:22Z</time></trkpt><trkpt lat="43.056102045090256" lon="12.143128319709453"><ele>295.6666666666667</ele><time>2026-05-03T08:25:23Z</time></trkpt><trkpt lat="43.056096340030486" lon="12.143015257109022"><ele>296.3333333333333</ele><time>2026-05-03T08:25:24Z</time></trkpt><trkpt lat="43.05608342190637" lon="12.14289654394104"><ele>297.0</ele><time>2026-05-03T08:25:25Z</time></trkpt><trkpt lat="43.056093476009536" lon="12.142792080691006"><ele>297.0</ele><time>2026-05-03T08:25:26Z</time></trkpt><trkpt lat="43.056104963483506" lon="12.142667678450046"><ele>297.0</ele><time>2026-05-03T08:25:28Z</time></trkpt><trkpt lat="43.056162804801495" lon="12.142602989483898"><ele>297.0</ele><time>2026-05-03T08:25:30Z</time></trkpt><trkpt lat="43.05626464850314" lon="12.142787979073137"><ele>297.0</ele><time>2026-05-03T08:25:31Z</time></trkpt><trkpt lat="43.05633990981493" lon="12.142875461789755"><ele>297.0</ele><time>2026-05-03T08:25:32Z</time></trkpt><trkpt lat="43.056429294158136" lon="12.142997332782526"><ele>297.0</ele><time>2026-05-03T08:25:33Z</time></trkpt><trkpt lat="43.05654315871751" lon="12.143136538582704"><ele>297.0</ele><time>2026-05-03T08:25:34Z</time></trkpt><trkpt lat="43.05665762489706" lon="12.143314249937811"><ele>297.0</ele><time>2026-05-03T08:25:35Z</time></trkpt><trkpt lat="43.056815437189364" lon="12.143499052459656"><ele>300.0</ele><time>2026-05-03T08:25:36Z</time></trkpt><trkpt lat="43.05697515326408" lon="12.143708087529612"><ele>303.0</ele><time>2026-05-03T08:25:37Z</time></trkpt><trkpt lat="43.057124135111884" lon="12.143922231316786"><ele>306.0</ele><time>2026-05-03T08:25:38Z</time></trkpt><trkpt lat="43.05729275826338" lon="12.144148402044685"><ele>306.6666666666667</ele><time>2026-05-03T08:25:39Z</time></trkpt><trkpt lat="43.057445216261044" lon="12.144352890717956"><ele>307.33333333333337</ele><time>2026-05-03T08:25:40Z</time></trkpt><trkpt lat="43.057582228139125" lon="12.144486138895564"><ele>308.0</ele><time>2026-05-03T08:25:41Z</time></trkpt><trkpt lat="43.05768164952689" lon="12.144630639822502"><ele>309.25</ele><time>2026-05-03T08:25:42Z</time></trkpt><trkpt lat="43.05777386929255" lon="12.144753169285915"><ele>310.5</ele><time>2026-05-03T08:25:43Z</time></trkpt><trkpt lat="43.05785782728614" lon="12.144869272558223"><ele>311.75</ele><time>2026-05-03T08:25:44Z</time></trkpt><trkpt lat="43.05793265130637" lon="12.144978285270081"><ele>313.0</ele><time>2026-05-03T08:25:45Z</time></trkpt><trkpt lat="43.05800280892023" lon="12.1450629281831"><ele>313.66666666666663</ele><time>2026-05-03T08:25:46Z</time></trkpt><trkpt lat="43.0580648173172" lon="12.145138479659604"><ele>314.3333333333333</ele><time>2026-05-03T08:25:47Z</time></trkpt><trkpt lat="43.05812317187381" lon="12.14521531165074"><ele>315.0</ele><time>2026-05-03T08:25:48Z</time></trkpt><trkpt lat="43.05817531795059" lon="12.14528373838177"><ele>315.6666666666667</ele><time>2026-05-03T08:25:49Z</time></trkpt><trkpt lat="43.058292907117526" lon="12.145340009837707"><ele>316.33333333333337</ele><time>2026-05-03T08:25:51Z</time></trkpt><trkpt lat="43.05836250330051" lon="12.145323801982945"><ele>317.0</ele><time>2026-05-03T08:25:52Z</time></trkpt><trkpt lat="43.05843425965821" lon="12.145296993599233"><ele>318.1666666666667</ele><time>2026-05-03T08:25:53Z</time></trkpt><trkpt lat="43.05849392162745" lon="12.145329678865327"><ele>319.33333333333337</ele><time>2026-05-03T08:25:54Z</time></trkpt><trkpt lat="43.05856302185498" lon="12.145340154530395"><ele>320.5</ele><time>2026-05-03T08:25:55Z</time></trkpt><trkpt lat="43.05867650175255" lon="12.145410144610752"><ele>321.6666666666667</ele><time>2026-05-03T08:25:57Z</time></trkpt><trkpt lat="43.0587397591092" lon="12.145431869977505"><ele>322.8333333333333</ele><time>2026-05-03T08:25:58Z</time></trkpt><trkpt lat="43.05880098381617" lon="12.145462593770576"><ele>324.0</ele><time>2026-05-03T08:25:59Z</time></trkpt><trkpt lat="43.05885416387546" lon="12.14551752473834"><ele>324.0</ele><time>2026-05-03T08:26:00Z</time></trkpt><trkpt lat="43.05890741303531" lon="12.145582052885128"><ele>324.0</ele><time>2026-05-03T08:26:01Z</time></trkpt><trkpt lat="43.0589556697868" lon="12.1456389382621"><ele>324.0</ele><time>2026-05-03T08:26:02Z</time></trkpt><trkpt lat="43.059009264257995" lon="12.145693014281797"><ele>324.0</ele><time>2026-05-03T08:26:03Z</time></trkpt><trkpt lat="43.05906670513126" lon="12.145733411951344"><ele>324.0</ele><time>2026-05-03T08:26:04Z</time></trkpt><trkpt lat="43.0591095281008" lon="12.145802899472002"><ele>324.0</ele><time>2026-05-03T08:26:05Z</time></trkpt><trkpt lat="43.059209388640326" lon="12.145883906845286"><ele>324.0</ele><time>2026-05-03T08:26:07Z</time></trkpt><trkpt lat="43.05929148522349" lon="12.145984369308685"><ele>327.0</ele><time>2026-05-03T08:26:09Z</time></trkpt><trkpt lat="43.05927409908248" lon="12.146151718674394"><ele>330.0</ele><time>2026-05-03T08:26:14Z</time></trkpt><trkpt lat="43.05921689410648" lon="12.146312827299"><ele>333.0</ele><time>2026-05-03T08:26:16Z</time></trkpt><trkpt lat="43.059203521385406" lon="12.146401992480481"><ele>336.0</ele><time>2026-05-03T08:26:17Z</time></trkpt><trkpt lat="43.05920510523316" lon="12.14653992999163"><ele>339.0</ele><time>2026-05-03T08:26:18Z</time></trkpt><trkpt lat="43.05920779224675" lon="12.146676530427282"><ele>339.0</ele><time>2026-05-03T08:26:19Z</time></trkpt><trkpt lat="43.05920922205291" lon="12.146810313534495"><ele>339.0</ele><time>2026-05-03T08:26:20Z</time></trkpt><trkpt lat="43.059214957029575" lon="12.146931519876896"><ele>339.0</ele><time>2026-05-03T08:26:21Z</time></trkpt><trkpt lat="43.05922200649609" lon="12.14704174225528"><ele>339.0</ele><time>2026-05-03T08:26:22Z</time></trkpt><trkpt lat="43.05923323322513" lon="12.14714250360992"><ele>339.0</ele><time>2026-05-03T08:26:23Z</time></trkpt><trkpt lat="43.05925365266091" lon="12.147245028444988"><ele>339.0</ele><time>2026-05-03T08:26:24Z</time></trkpt><trkpt lat="43.059288025499505" lon="12.147351043887374"><ele>338.79999999999995</ele><time>2026-05-03T08:26:25Z</time></trkpt><trkpt lat="43.05934088861039" lon="12.147460765541465"><ele>338.59999999999997</ele><time>2026-05-03T08:26:26Z</time></trkpt><trkpt lat="43.05938039353834" lon="12.147588531521745"><ele>338.4</ele><time>2026-05-03T08:26:27Z</time></trkpt><trkpt lat="43.05941915693558" lon="12.147713747868549"><ele>338.2</ele><time>2026-05-03T08:26:28Z</time></trkpt><trkpt lat="43.05945748666876" lon="12.147846496909423"><ele>338.0</ele><time>2026-05-03T08:26:29Z</time></trkpt><trkpt lat="43.059455969869795" lon="12.147985266318"><ele>338.0</ele><time>2026-05-03T08:26:30Z</time></trkpt><trkpt lat="43.059459472971824" lon="12.148112883893774"><ele>338.0</ele><time>2026-05-03T08:26:31Z</time></trkpt><trkpt lat="43.05948423442518" lon="12.148235737255833"><ele>338.0</ele><time>2026-05-03T08:26:32Z</time></trkpt><trkpt lat="43.05952542631627" lon="12.148354750863442"><ele>338.0</ele><time>2026-05-03T08:26:33Z</time></trkpt><trkpt lat="43.05957449622241" lon="12.148471883509393"><ele>338.0</ele><time>2026-05-03T08:26:34Z</time></trkpt><trkpt lat="43.059620602136484" lon="12.148588386975081"><ele>337.4</ele><time>2026-05-03T08:26:35Z</time></trkpt><trkpt lat="43.05967000643691" lon="12.148697566331121"><ele>336.79999999999995</ele><time>2026-05-03T08:26:36Z</time></trkpt><trkpt lat="43.05972816212508" lon="12.148802872194384"><ele>336.2</ele><time>2026-05-03T08:26:37Z</time></trkpt><trkpt lat="43.059797208454" lon="12.148899715350009"><ele>335.6</ele><time>2026-05-03T08:26:38Z</time></trkpt><trkpt lat="43.05987775077732" lon="12.148990410055099"><ele>335.0</ele><time>2026-05-03T08:26:39Z</time></trkpt><trkpt lat="43.05996739125731" lon="12.149063958739628"><ele>337.4</ele><time>2026-05-03T08:26:40Z</time></trkpt><trkpt lat="43.06006116792659" lon="12.149123931300805"><ele>339.8</ele><time>2026-05-03T08:26:41Z</time></trkpt><trkpt lat="43.06015671494945" lon="12.14918510824636"><ele>342.20000000000005</ele><time>2026-05-03T08:26:42Z</time></trkpt><trkpt lat="43.06025838161029" lon="12.149226519562424"><ele>344.6</ele><time>2026-05-03T08:26:43Z</time></trkpt><trkpt lat="43.060359903911916" lon="12.149259688708218"><ele>347.0</ele><time>2026-05-03T08:26:44Z</time></trkpt><trkpt lat="43.0604659574622" lon="12.149287102615874"><ele>347.0</ele><time>2026-05-03T08:26:45Z</time></trkpt><trkpt lat="43.0605783588741" lon="12.149315760354945"><ele>347.0</ele><time>2026-05-03T08:26:46Z</time></trkpt><trkpt lat="43.06069702136401" lon="12.149347750407951"><ele>347.0</ele><time>2026-05-03T08:26:47Z</time></trkpt><trkpt lat="43.060819828882394" lon="12.149373121912511"><ele>347.0</ele><time>2026-05-03T08:26:48Z</time></trkpt><trkpt lat="43.060946170899655" lon="12.149394408766014"><ele>350.0</ele><time>2026-05-03T08:26:49Z</time></trkpt><trkpt lat="43.06106397492388" lon="12.149403079242115"><ele>353.0</ele><time>2026-05-03T08:26:50Z</time></trkpt><trkpt lat="43.06118109393726" lon="12.149406040691384"><ele>356.0</ele><time>2026-05-03T08:26:51Z</time></trkpt><trkpt lat="43.06130591061025" lon="12.149411776000102"><ele>359.0</ele><time>2026-05-03T08:26:52Z</time></trkpt><trkpt lat="43.06143058224709" lon="12.149420641104749"><ele>359.0</ele><time>2026-05-03T08:26:53Z</time></trkpt><trkpt lat="43.0615512756606" lon="12.149426485368732"><ele>359.0</ele><time>2026-05-03T08:26:54Z</time></trkpt><trkpt lat="43.06167267625819" lon="12.14942851766466"><ele>359.0</ele><time>2026-05-03T08:26:55Z</time></trkpt><trkpt lat="43.06179223129616" lon="12.149433003110609"><ele>359.0</ele><time>2026-05-03T08:26:56Z</time></trkpt><trkpt lat="43.06191320555015" lon="12.149441922520024"><ele>360.25</ele><time>2026-05-03T08:26:57Z</time></trkpt><trkpt lat="43.062032872324686" lon="12.149458777281733"><ele>361.5</ele><time>2026-05-03T08:26:58Z</time></trkpt><trkpt lat="43.06215100737752" lon="12.149467165782584"><ele>362.75</ele><time>2026-05-03T08:26:59Z</time></trkpt><trkpt lat="43.06226570186059" lon="12.149469996093545"><ele>364.0</ele><time>2026-05-03T08:27:00Z</time></trkpt><trkpt lat="43.062379703913784" lon="12.149468977502831"><ele>364.5</ele><time>2026-05-03T08:27:01Z</time></trkpt><trkpt lat="43.06249402837929" lon="12.149471054893644"><ele>365.0</ele><time>2026-05-03T08:27:02Z</time></trkpt><trkpt lat="43.062609331490016" lon="12.149495160954347"><ele>365.5</ele><time>2026-05-03T08:27:03Z</time></trkpt><trkpt lat="43.06272143210336" lon="12.14953900427618"><ele>366.0</ele><time>2026-05-03T08:27:04Z</time></trkpt><trkpt lat="43.062828777969045" lon="12.149588812248277"><ele>366.0</ele><time>2026-05-03T08:27:05Z</time></trkpt><trkpt lat="43.06293950258149" lon="12.149638538821458"><ele>366.0</ele><time>2026-05-03T08:27:06Z</time></trkpt><trkpt lat="43.06304690541149" lon="12.149692618064714"><ele>366.0</ele><time>2026-05-03T08:27:07Z</time></trkpt><trkpt lat="43.06315401277568" lon="12.14975475193158"><ele>366.0</ele><time>2026-05-03T08:27:08Z</time></trkpt><trkpt lat="43.06325845022566" lon="12.149817105021356"><ele>368.5</ele><time>2026-05-03T08:27:09Z</time></trkpt><trkpt lat="43.063371534925835" lon="12.149853951390638"><ele>371.0</ele><time>2026-05-03T08:27:10Z</time></trkpt><trkpt lat="43.06348395111539" lon="12.149868731499778"><ele>373.5</ele><time>2026-05-03T08:27:11Z</time></trkpt><trkpt lat="43.063599103430995" lon="12.149867897747258"><ele>376.0</ele><time>2026-05-03T08:27:12Z</time></trkpt><trkpt lat="43.063716665778024" lon="12.149883930895367"><ele>373.25</ele><time>2026-05-03T08:27:13Z</time></trkpt><trkpt lat="43.06383331954263" lon="12.149932203207948"><ele>370.5</ele><time>2026-05-03T08:27:14Z</time></trkpt><trkpt lat="43.063942389157546" lon="12.149994031712689"><ele>367.75</ele><time>2026-05-03T08:27:15Z</time></trkpt><trkpt lat="43.064051589358144" lon="12.150044392463666"><ele>365.0</ele><time>2026-05-03T08:27:16Z</time></trkpt><trkpt lat="43.06416946680467" lon="12.150072250947769"><ele>365.0</ele><time>2026-05-03T08:27:17Z</time></trkpt><trkpt lat="43.06428477726443" lon="12.15008775563458"><ele>365.0</ele><time>2026-05-03T08:27:18Z</time></trkpt><trkpt lat="43.064392144088586" lon="12.150100284307076"><ele>365.0</ele><time>2026-05-03T08:27:19Z</time></trkpt><trkpt lat="43.06451829567606" lon="12.150126300047926"><ele>365.0</ele><time>2026-05-03T08:27:20Z</time></trkpt><trkpt lat="43.06465927225827" lon="12.150179211234226"><ele>365.0</ele><time>2026-05-03T08:27:21Z</time></trkpt><trkpt lat="43.06477941357972" lon="12.150247017619932"><ele>365.0</ele><time>2026-05-03T08:27:22Z</time></trkpt><trkpt lat="43.06490049871926" lon="12.150282533181334"><ele>365.0</ele><time>2026-05-03T08:27:23Z</time></trkpt><trkpt lat="43.065018179207605" lon="12.150296426786698"><ele>365.0</ele><time>2026-05-03T08:27:24Z</time></trkpt><trkpt lat="43.065132001070964" lon="12.150290180002296"><ele>366.75</ele><time>2026-05-03T08:27:25Z</time></trkpt><trkpt lat="43.06524785950519" lon="12.150257493639721"><ele>368.5</ele><time>2026-05-03T08:27:26Z</time></trkpt><trkpt lat="43.06535339406268" lon="12.150231002772083"><ele>370.25</ele><time>2026-05-03T08:27:27Z</time></trkpt><trkpt lat="43.06545915059238" lon="12.150187579300178"><ele>372.0</ele><time>2026-05-03T08:27:28Z</time></trkpt><trkpt lat="43.06556571350864" lon="12.150121814875781"><ele>372.0</ele><time>2026-05-03T08:27:29Z</time></trkpt><trkpt lat="43.065667832790346" lon="12.150067166889238"><ele>372.0</ele><time>2026-05-03T08:27:30Z</time></trkpt><trkpt lat="43.06577836687334" lon="12.150074687854476"><ele>372.0</ele><time>2026-05-03T08:27:31Z</time></trkpt><trkpt lat="43.06589591704356" lon="12.150136466663685"><ele>372.0</ele><time>2026-05-03T08:27:32Z</time></trkpt><trkpt lat="43.06600788978654" lon="12.150205893052988"><ele>372.0</ele><time>2026-05-03T08:27:33Z</time></trkpt><trkpt lat="43.066108612482246" lon="12.150258137659911"><ele>372.0</ele><time>2026-05-03T08:27:34Z</time></trkpt><trkpt lat="43.06620243030139" lon="12.15029311373733"><ele>372.0</ele><time>2026-05-03T08:27:35Z</time></trkpt><trkpt lat="43.06629919044161" lon="12.150312628015461"><ele>372.0</ele><time>2026-05-03T08:27:36Z</time></trkpt><trkpt lat="43.066387905069085" lon="12.150341009441668"><ele>372.0</ele><time>2026-05-03T08:27:37Z</time></trkpt><trkpt lat="43.06646061014945" lon="12.15041321435447"><ele>372.0</ele><time>2026-05-03T08:27:38Z</time></trkpt><trkpt lat="43.066493414544794" lon="12.150549487575613"><ele>372.0</ele><time>2026-05-03T08:27:39Z</time></trkpt><trkpt lat="43.066521174897645" lon="12.150703329975633"><ele>372.0</ele><time>2026-05-03T08:27:40Z</time></trkpt><trkpt lat="43.06656651139601" lon="12.150849802448347"><ele>372.0</ele><time>2026-05-03T08:27:41Z</time></trkpt><trkpt lat="43.06662535340652" lon="12.150974031305383"><ele>372.0</ele><time>2026-05-03T08:27:42Z</time></trkpt><trkpt lat="43.066696646360015" lon="12.151076295375155"><ele>371.8333333333333</ele><time>2026-05-03T08:27:43Z</time></trkpt><trkpt lat="43.066775666762986" lon="12.151161350712604"><ele>371.6666666666667</ele><time>2026-05-03T08:27:44Z</time></trkpt><trkpt lat="43.06686314565006" lon="12.151215662369038"><ele>371.5</ele><time>2026-05-03T08:27:45Z</time></trkpt><trkpt lat="43.06694578082609" lon="12.151249002670548"><ele>371.33333333333337</ele><time>2026-05-03T08:27:46Z</time></trkpt><trkpt lat="43.06702029654854" lon="12.151274603361308"><ele>371.1666666666667</ele><time>2026-05-03T08:27:47Z</time></trkpt><trkpt lat="43.06708380237567" lon="12.151297150328142"><ele>371.0</ele><time>2026-05-03T08:27:48Z</time></trkpt><trkpt lat="43.067191064897685" lon="12.151326929848041"><ele>371.0</ele><time>2026-05-03T08:27:50Z</time></trkpt><trkpt lat="43.06731472896695" lon="12.151325743285778"><ele>371.0</ele><time>2026-05-03T08:27:52Z</time></trkpt><trkpt lat="43.0673873054484" lon="12.151322136132062"><ele>371.0</ele><time>2026-05-03T08:27:53Z</time></trkpt><trkpt lat="43.067468624660115" lon="12.151323029729477"><ele>371.0</ele><time>2026-05-03T08:27:54Z</time></trkpt><trkpt lat="43.06755339137181" lon="12.151319344409611"><ele>371.0</ele><time>2026-05-03T08:27:55Z</time></trkpt><trkpt lat="43.067634536871374" lon="12.151308504389101"><ele>371.0</ele><time>2026-05-03T08:27:56Z</time></trkpt><trkpt lat="43.06771445606454" lon="12.151302384843012"><ele>372.1666666666667</ele><time>2026-05-03T08:27:57Z</time></trkpt><trkpt lat="43.06779845475372" lon="12.151287066449456"><ele>373.33333333333337</ele><time>2026-05-03T08:27:58Z</time></trkpt><trkpt lat="43.06788283787628" lon="12.151267225049754"><ele>374.5</ele><time>2026-05-03T08:27:59Z</time></trkpt><trkpt lat="43.06796958487567" lon="12.151249173912214"><ele>375.6666666666667</ele><time>2026-05-03T08:28:00Z</time></trkpt><trkpt lat="43.068058456032865" lon="12.151241529829425"><ele>376.8333333333333</ele><time>2026-05-03T08:28:01Z</time></trkpt><trkpt lat="43.06814819671341" lon="12.151227555931737"><ele>378.0</ele><time>2026-05-03T08:28:02Z</time></trkpt><trkpt lat="43.06823666259065" lon="12.151211858702723"><ele>375.79999999999995</ele><time>2026-05-03T08:28:03Z</time></trkpt><trkpt lat="43.06832981076569" lon="12.151193753814248"><ele>373.6</ele><time>2026-05-03T08:28:04Z</time></trkpt><trkpt lat="43.06842100611615" lon="12.151176734593635"><ele>371.4</ele><time>2026-05-03T08:28:05Z</time></trkpt><trkpt lat="43.06851226902569" lon="12.15115852435696"><ele>369.20000000000005</ele><time>2026-05-03T08:28:06Z</time></trkpt><trkpt lat="43.068603011482026" lon="12.15113471323478"><ele>367.0</ele><time>2026-05-03T08:28:07Z</time></trkpt><trkpt lat="43.06869381553586" lon="12.151112672741032"><ele>367.0</ele><time>2026-05-03T08:28:08Z</time></trkpt><trkpt lat="43.06878496514542" lon="12.151103368343428"><ele>367.0</ele><time>2026-05-03T08:28:09Z</time></trkpt><trkpt lat="43.06887486191833" lon="12.151086606793166"><ele>367.0</ele><time>2026-05-03T08:28:10Z</time></trkpt><trkpt lat="43.06896306046237" lon="12.151080594917529"><ele>367.0</ele><time>2026-05-03T08:28:11Z</time></trkpt><trkpt lat="43.069039290009165" lon="12.15107792928953"><ele>367.0</ele><time>2026-05-03T08:28:12Z</time></trkpt><trkpt lat="43.069124782342776" lon="12.151077932095694"><ele>367.0</ele><time>2026-05-03T08:28:13Z</time></trkpt><trkpt lat="43.06920887605232" lon="12.151095959616322"><ele>364.8333333333333</ele><time>2026-05-03T08:28:14Z</time></trkpt><trkpt lat="43.06928017120616" lon="12.151125648894455"><ele>362.66666666666663</ele><time>2026-05-03T08:28:15Z</time></trkpt><trkpt lat="43.06934876506133" lon="12.151171065000947"><ele>360.5</ele><time>2026-05-03T08:28:16Z</time></trkpt><trkpt lat="43.069413775261545" lon="12.151208095387691"><ele>358.3333333333333</ele><time>2026-05-03T08:28:17Z</time></trkpt><trkpt lat="43.06947956502288" lon="12.151236583168403"><ele>356.1666666666667</ele><time>2026-05-03T08:28:18Z</time></trkpt><trkpt lat="43.06959683716889" lon="12.15128282389759"><ele>354.0</ele><time>2026-05-03T08:28:20Z</time></trkpt><trkpt lat="43.069692321493896" lon="12.151331928217195"><ele>354.0</ele><time>2026-05-03T08:28:22Z</time></trkpt><trkpt lat="43.06974985713849" lon="12.151427189822444"><ele>354.0</ele><time>2026-05-03T08:28:24Z</time></trkpt><trkpt lat="43.06970553669321" lon="12.151530177906153"><ele>354.0</ele><time>2026-05-03T08:28:25Z</time></trkpt><trkpt lat="43.06959423348784" lon="12.151597706757604"><ele>354.0</ele><time>2026-05-03T08:28:27Z</time></trkpt><trkpt lat="43.06953171854668" lon="12.15155557142285"><ele>354.0</ele><time>2026-05-03T08:28:28Z</time></trkpt><trkpt lat="43.06946094930189" lon="12.151547119818975"><ele>354.0</ele><time>2026-05-03T08:28:29Z</time></trkpt><trkpt lat="43.06939103005982" lon="12.151509976372848"><ele>354.0</ele><time>2026-05-03T08:28:30Z</time></trkpt><trkpt lat="43.06932699243251" lon="12.151456864365102"><ele>354.0</ele><time>2026-05-03T08:28:31Z</time></trkpt><trkpt lat="43.06925965030163" lon="12.151426239361212"><ele>354.0</ele><time>2026-05-03T08:28:32Z</time></trkpt><trkpt lat="43.069140313964716" lon="12.151401478867239"><ele>354.0</ele><time>2026-05-03T08:28:34Z</time></trkpt><trkpt lat="43.06904639615333" lon="12.151455466174635"><ele>354.0</ele><time>2026-05-03T08:28:36Z</time></trkpt><trkpt lat="43.06900745873336" lon="12.151525557539452"><ele>354.0</ele><time>2026-05-03T08:28:37Z</time></trkpt><trkpt lat="43.06901779957501" lon="12.151645681062895"><ele>355.0</ele><time>2026-05-03T08:28:38Z</time></trkpt><trkpt lat="43.06908696094251" lon="12.151748336768415"><ele>356.0</ele><time>2026-05-03T08:28:39Z</time></trkpt><trkpt lat="43.069170935557764" lon="12.15181566446085"><ele>357.0</ele><time>2026-05-03T08:28:40Z</time></trkpt><trkpt lat="43.06925384295366" lon="12.151875544702744"><ele>358.0</ele><time>2026-05-03T08:28:41Z</time></trkpt><trkpt lat="43.06933541514308" lon="12.151929774649728"><ele>359.0</ele><time>2026-05-03T08:28:42Z</time></trkpt><trkpt lat="43.069404709056315" lon="12.151972379397439"><ele>356.83333333333337</ele><time>2026-05-03T08:28:43Z</time></trkpt><trkpt lat="43.0694852563807" lon="12.15201005573551"><ele>354.6666666666667</ele><time>2026-05-03T08:28:44Z</time></trkpt><trkpt lat="43.06956253726927" lon="12.152055406633213"><ele>352.5</ele><time>2026-05-03T08:28:45Z</time></trkpt><trkpt lat="43.0696438685024" lon="12.15208834316032"><ele>350.3333333333333</ele><time>2026-05-03T08:28:46Z</time></trkpt><trkpt lat="43.069729754696596" lon="12.152108631234064"><ele>348.16666666666663</ele><time>2026-05-03T08:28:47Z</time></trkpt><trkpt lat="43.069821559830636" lon="12.15211075805321"><ele>346.0</ele><time>2026-05-03T08:28:48Z</time></trkpt><trkpt lat="43.06992113010665" lon="12.152115111301272"><ele>345.0</ele><time>2026-05-03T08:28:49Z</time></trkpt><trkpt lat="43.07001346820425" lon="12.152108174287672"><ele>344.0</ele><time>2026-05-03T08:28:50Z</time></trkpt><trkpt lat="43.07010684543218" lon="12.152109958145147"><ele>343.0</ele><time>2026-05-03T08:28:51Z</time></trkpt><trkpt lat="43.07020634530533" lon="12.152112856181104"><ele>342.0</ele><time>2026-05-03T08:28:52Z</time></trkpt><trkpt lat="43.07029239077478" lon="12.152117379694847"><ele>341.0</ele><time>2026-05-03T08:28:53Z</time></trkpt><trkpt lat="43.070387679204025" lon="12.152124500985662"><ele>341.0</ele><time>2026-05-03T08:28:54Z</time></trkpt><trkpt lat="43.07048360140049" lon="12.152116376543669"><ele>341.0</ele><time>2026-05-03T08:28:55Z</time></trkpt><trkpt lat="43.070583362582475" lon="12.152101333625007"><ele>341.0</ele><time>2026-05-03T08:28:56Z</time></trkpt><trkpt lat="43.07067599573817" lon="12.152096863871893"><ele>341.0</ele><time>2026-05-03T08:28:57Z</time></trkpt><trkpt lat="43.07077381731164" lon="12.15210203088873"><ele>341.0</ele><time>2026-05-03T08:28:58Z</time></trkpt><trkpt lat="43.07086687243415" lon="12.152100359996153"><ele>338.6</ele><time>2026-05-03T08:28:59Z</time></trkpt><trkpt lat="43.07096517550662" lon="12.152079230481247"><ele>336.20000000000005</ele><time>2026-05-03T08:29:00Z</time></trkpt><trkpt lat="43.07104908576811" lon="12.152055140730893"><ele>333.79999999999995</ele><time>2026-05-03T08:29:01Z</time></trkpt><trkpt lat="43.07113815986985" lon="12.15202281747235"><ele>331.4</ele><time>2026-05-03T08:29:02Z</time></trkpt><trkpt lat="43.07123548492338" lon="12.151993601260319"><ele>329.0</ele><time>2026-05-03T08:29:03Z</time></trkpt><trkpt lat="43.071325526668936" lon="12.151956910684433"><ele>329.0</ele><time>2026-05-03T08:29:04Z</time></trkpt><trkpt lat="43.07141328781399" lon="12.151906908908899"><ele>329.0</ele><time>2026-05-03T08:29:05Z</time></trkpt><trkpt lat="43.07149544051672" lon="12.151850520777044"><ele>329.0</ele><time>2026-05-03T08:29:06Z</time></trkpt><trkpt lat="43.071575531273126" lon="12.151799629315017"><ele>329.0</ele><time>2026-05-03T08:29:07Z</time></trkpt><trkpt lat="43.071665257772345" lon="12.151771479703777"><ele>329.0</ele><time>2026-05-03T08:29:08Z</time></trkpt><trkpt lat="43.07174314363511" lon="12.151720865350233"><ele>326.6666666666667</ele><time>2026-05-03T08:29:09Z</time></trkpt><trkpt lat="43.071809264072755" lon="12.151651367943618"><ele>324.33333333333337</ele><time>2026-05-03T08:29:10Z</time></trkpt><trkpt lat="43.0718569478971" lon="12.151548624958536"><ele>322.0</ele><time>2026-05-03T08:29:11Z</time></trkpt><trkpt lat="43.071886185696385" lon="12.151445628917754"><ele>319.6666666666667</ele><time>2026-05-03T08:29:12Z</time></trkpt><trkpt lat="43.071917037146534" lon="12.151361387467581"><ele>317.3333333333333</ele><time>2026-05-03T08:29:13Z</time></trkpt><trkpt lat="43.0720318655856" lon="12.1513292571813"><ele>315.0</ele><time>2026-05-03T08:29:15Z</time></trkpt><trkpt lat="43.07209471669085" lon="12.151389779212625"><ele>315.0</ele><time>2026-05-03T08:29:16Z</time></trkpt><trkpt lat="43.07213143129885" lon="12.151478208462994"><ele>315.0</ele><time>2026-05-03T08:29:17Z</time></trkpt><trkpt lat="43.07212951236646" lon="12.151581289460038"><ele>315.0</ele><time>2026-05-03T08:29:18Z</time></trkpt><trkpt lat="43.0721160994083" lon="12.151668349904876"><ele>315.0</ele><time>2026-05-03T08:29:19Z</time></trkpt><trkpt lat="43.07217417035847" lon="12.151792197965566"><ele>315.0</ele><time>2026-05-03T08:29:21Z</time></trkpt><trkpt lat="43.0722633420254" lon="12.151796836434148"><ele>315.0</ele><time>2026-05-03T08:29:22Z</time></trkpt><trkpt lat="43.072337739485626" lon="12.151739291025557"><ele>315.0</ele><time>2026-05-03T08:29:23Z</time></trkpt><trkpt lat="43.07237712841287" lon="12.15164339519461"><ele>315.0</ele><time>2026-05-03T08:29:24Z</time></trkpt><trkpt lat="43.072361730911794" lon="12.151529696976917"><ele>315.0</ele><time>2026-05-03T08:29:25Z</time></trkpt><trkpt lat="43.07237469809756" lon="12.151438188267319"><ele>315.0</ele><time>2026-05-03T08:29:26Z</time></trkpt><trkpt lat="43.07242897186222" lon="12.151309333942136"><ele>315.0</ele><time>2026-05-03T08:29:28Z</time></trkpt><trkpt lat="43.07249811655195" lon="12.151299867171295"><ele>315.0</ele><time>2026-05-03T08:29:29Z</time></trkpt><trkpt lat="43.07256793407229" lon="12.151315493607068"><ele>313.1666666666667</ele><time>2026-05-03T08:29:30Z</time></trkpt><trkpt lat="43.07263444663886" lon="12.151362655186853"><ele>311.3333333333333</ele><time>2026-05-03T08:29:31Z</time></trkpt><trkpt lat="43.07268390885052" lon="12.151441495995956"><ele>309.5</ele><time>2026-05-03T08:29:32Z</time></trkpt><trkpt lat="43.072697038314246" lon="12.15154684417135"><ele>307.66666666666663</ele><time>2026-05-03T08:29:33Z</time></trkpt><trkpt lat="43.072693135548924" lon="12.151651714820021"><ele>305.8333333333333</ele><time>2026-05-03T08:29:34Z</time></trkpt><trkpt lat="43.072694799669634" lon="12.151752281361185"><ele>304.0</ele><time>2026-05-03T08:29:35Z</time></trkpt><trkpt lat="43.0727462972458" lon="12.15190039075053"><ele>303.66666666666663</ele><time>2026-05-03T08:29:37Z</time></trkpt><trkpt lat="43.072872220006786" lon="12.151942237505098"><ele>303.3333333333333</ele><time>2026-05-03T08:29:39Z</time></trkpt><trkpt lat="43.07294256358621" lon="12.151920324250447"><ele>303.0</ele><time>2026-05-03T08:29:40Z</time></trkpt><trkpt lat="43.07300506172186" lon="12.151873135102226"><ele>302.6666666666667</ele><time>2026-05-03T08:29:41Z</time></trkpt><trkpt lat="43.073061107088535" lon="12.151809781632053"><ele>302.33333333333337</ele><time>2026-05-03T08:29:42Z</time></trkpt><trkpt lat="43.07312832387672" lon="12.15175480537115"><ele>302.0</ele><time>2026-05-03T08:29:43Z</time></trkpt><trkpt lat="43.07317633861369" lon="12.151665965673722"><ele>302.00000000000006</ele><time>2026-05-03T08:29:44Z</time></trkpt><trkpt lat="43.07320581545394" lon="12.15157322021651"><ele>302.0</ele><time>2026-05-03T08:29:45Z</time></trkpt><trkpt lat="43.073226711457785" lon="12.151482465902543"><ele>302.0</ele><time>2026-05-03T08:29:46Z</time></trkpt><trkpt lat="43.07326098776058" lon="12.151399328614334"><ele>302.0</ele><time>2026-05-03T08:29:47Z</time></trkpt><trkpt lat="43.07328276378209" lon="12.151317403676902"><ele>302.0</ele><time>2026-05-03T08:29:48Z</time></trkpt><trkpt lat="43.07331135435278" lon="12.151236837745794"><ele>302.00000000000006</ele><time>2026-05-03T08:29:49Z</time></trkpt><trkpt lat="43.07335602205429" lon="12.151169408639488"><ele>302.0</ele><time>2026-05-03T08:29:50Z</time></trkpt><trkpt lat="43.073410252252025" lon="12.151111363490587"><ele>300.6</ele><time>2026-05-03T08:29:51Z</time></trkpt><trkpt lat="43.073474515930926" lon="12.151065100634398"><ele>299.2</ele><time>2026-05-03T08:29:52Z</time></trkpt><trkpt lat="43.07355400747292" lon="12.151022703300924"><ele>297.8</ele><time>2026-05-03T08:29:53Z</time></trkpt><trkpt lat="43.0736448928385" lon="12.150988018157209"><ele>296.4</ele><time>2026-05-03T08:29:54Z</time></trkpt><trkpt lat="43.0737422149313" lon="12.1509510545462"><ele>295.0</ele><time>2026-05-03T08:29:55Z</time></trkpt><trkpt lat="43.07383876191759" lon="12.150927313374217"><ele>295.0</ele><time>2026-05-03T08:29:56Z</time></trkpt><trkpt lat="43.07394387675387" lon="12.15089537356293"><ele>295.0</ele><time>2026-05-03T08:29:57Z</time></trkpt><trkpt lat="43.074046213759" lon="12.150847258008687"><ele>295.0</ele><time>2026-05-03T08:29:58Z</time></trkpt><trkpt lat="43.074132718272814" lon="12.150777406433106"><ele>295.0</ele><time>2026-05-03T08:29:59Z</time></trkpt><trkpt lat="43.07421301022748" lon="12.150702609364256"><ele>295.0</ele><time>2026-05-03T08:30:00Z</time></trkpt><trkpt lat="43.074282411502885" lon="12.15061901793535"><ele>294.4</ele><time>2026-05-03T08:30:01Z</time></trkpt><trkpt lat="43.07436555089165" lon="12.150548548006476"><ele>293.8</ele><time>2026-05-03T08:30:02Z</time></trkpt><trkpt lat="43.074431411271114" lon="12.150445146235223"><ele>293.2</ele><time>2026-05-03T08:30:03Z</time></trkpt><trkpt lat="43.07451311274247" lon="12.150374218662146"><ele>292.6</ele><time>2026-05-03T08:30:04Z</time></trkpt><trkpt lat="43.07459845371534" lon="12.15030448683256"><ele>292.0</ele><time>2026-05-03T08:30:05Z</time></trkpt><trkpt lat="43.07468655325486" lon="12.150235079250182"><ele>292.0</ele><time>2026-05-03T08:30:06Z</time></trkpt><trkpt lat="43.074774952492746" lon="12.150184230719406"><ele>292.0</ele><time>2026-05-03T08:30:07Z</time></trkpt><trkpt lat="43.07486957404948" lon="12.15014498930001"><ele>292.0</ele><time>2026-05-03T08:30:08Z</time></trkpt><trkpt lat="43.07497303925813" lon="12.150096735975584"><ele>292.0</ele><time>2026-05-03T08:30:09Z</time></trkpt><trkpt lat="43.07508930404468" lon="12.150039903198673"><ele>292.0</ele><time>2026-05-03T08:30:10Z</time></trkpt><trkpt lat="43.07520719747962" lon="12.149976407071927"><ele>289.75</ele><time>2026-05-03T08:30:11Z</time></trkpt><trkpt lat="43.07533492930054" lon="12.149905937067594"><ele>287.5</ele><time>2026-05-03T08:30:12Z</time></trkpt><trkpt lat="43.07545716500212" lon="12.149840374665327"><ele>285.25</ele><time>2026-05-03T08:30:13Z</time></trkpt><trkpt lat="43.07557610643487" lon="12.149778696222528"><ele>283.0</ele><time>2026-05-03T08:30:14Z</time></trkpt><trkpt lat="43.075696294555044" lon="12.149716928774197"><ele>282.0</ele><time>2026-05-03T08:30:15Z</time></trkpt><trkpt lat="43.07581520049227" lon="12.149661521553497"><ele>281.0</ele><time>2026-05-03T08:30:16Z</time></trkpt><trkpt lat="43.07592735087595" lon="12.149605888662087"><ele>280.0</ele><time>2026-05-03T08:30:17Z</time></trkpt><trkpt lat="43.07603525721317" lon="12.14954961605949"><ele>279.0</ele><time>2026-05-03T08:30:18Z</time></trkpt><trkpt lat="43.07614081197113" lon="12.149497474526148"><ele>279.0</ele><time>2026-05-03T08:30:19Z</time></trkpt><trkpt lat="43.07624737858817" lon="12.149448092603485"><ele>279.0</ele><time>2026-05-03T08:30:20Z</time></trkpt><trkpt lat="43.07635135573539" lon="12.149394616977556"><ele>279.0</ele><time>2026-05-03T08:30:21Z</time></trkpt><trkpt lat="43.0764573826351" lon="12.149338888984229"><ele>279.0</ele><time>2026-05-03T08:30:22Z</time></trkpt><trkpt lat="43.07656628497346" lon="12.149285438588443"><ele>278.5</ele><time>2026-05-03T08:30:23Z</time></trkpt><trkpt lat="43.07667297881121" lon="12.149244290429744"><ele>278.0</ele><time>2026-05-03T08:30:24Z</time></trkpt><trkpt lat="43.07678486787258" lon="12.149209301966462"><ele>277.5</ele><time>2026-05-03T08:30:25Z</time></trkpt><trkpt lat="43.076898293369844" lon="12.149185226043981"><ele>277.0</ele><time>2026-05-03T08:30:26Z</time></trkpt><trkpt lat="43.07701740507119" lon="12.14917281497897"><ele>277.0</ele><time>2026-05-03T08:30:27Z</time></trkpt><trkpt lat="43.07713483677691" lon="12.149152439027292"><ele>277.0</ele><time>2026-05-03T08:30:28Z</time></trkpt><trkpt lat="43.077254034001754" lon="12.149129941084471"><ele>277.0</ele><time>2026-05-03T08:30:29Z</time></trkpt><trkpt lat="43.07736787266105" lon="12.14910348010485"><ele>277.0</ele><time>2026-05-03T08:30:30Z</time></trkpt><trkpt lat="43.07747475226082" lon="12.149080250186538"><ele>277.2</ele><time>2026-05-03T08:30:31Z</time></trkpt><trkpt lat="43.07758262575649" lon="12.149063079662989"><ele>277.4</ele><time>2026-05-03T08:30:32Z</time></trkpt><trkpt lat="43.077681145444004" lon="12.149038633504498"><ele>277.6</ele><time>2026-05-03T08:30:33Z</time></trkpt><trkpt lat="43.07776244501455" lon="12.149013386892038"><ele>277.8</ele><time>2026-05-03T08:30:34Z</time></trkpt><trkpt lat="43.077864106645926" lon="12.148987587303246"><ele>278.0</ele><time>2026-05-03T08:30:35Z</time></trkpt><trkpt lat="43.077957927146386" lon="12.148954985614546"><ele>278.0</ele><time>2026-05-03T08:30:36Z</time></trkpt><trkpt lat="43.078054054074855" lon="12.148912708983755"><ele>278.0</ele><time>2026-05-03T08:30:37Z</time></trkpt><trkpt lat="43.07815814386675" lon="12.148895120067122"><ele>278.0</ele><time>2026-05-03T08:30:38Z</time></trkpt><trkpt lat="43.07825093161792" lon="12.148833276954333"><ele>278.0</ele><time>2026-05-03T08:30:39Z</time></trkpt><trkpt lat="43.07835522004093" lon="12.14879895960464"><ele>278.0</ele><time>2026-05-03T08:30:40Z</time></trkpt><trkpt lat="43.07845767338374" lon="12.14876931321131"><ele>277.4</ele><time>2026-05-03T08:30:41Z</time></trkpt><trkpt lat="43.07855931253173" lon="12.148741174216937"><ele>276.8</ele><time>2026-05-03T08:30:42Z</time></trkpt><trkpt lat="43.078656159898244" lon="12.148716816007958"><ele>276.2</ele><time>2026-05-03T08:30:43Z</time></trkpt><trkpt lat="43.07872062831936" lon="12.148699650657852"><ele>275.6</ele><time>2026-05-03T08:30:44Z</time></trkpt><trkpt lat="43.07882790438131" lon="12.14865993525426"><ele>275.0</ele><time>2026-05-03T08:30:46Z</time></trkpt><trkpt lat="43.078940031348" lon="12.148625746858709"><ele>275.0</ele><time>2026-05-03T08:30:48Z</time></trkpt><trkpt lat="43.07900599655927" lon="12.148628259282944"><ele>275.0</ele><time>2026-05-03T08:30:49Z</time></trkpt><trkpt lat="43.07907650053528" lon="12.148615249022136"><ele>275.0</ele><time>2026-05-03T08:30:50Z</time></trkpt><trkpt lat="43.079148711395504" lon="12.148593005284383"><ele>275.0</ele><time>2026-05-03T08:30:51Z</time></trkpt><trkpt lat="43.07921810400952" lon="12.148573471388454"><ele>275.0</ele><time>2026-05-03T08:30:52Z</time></trkpt><trkpt lat="43.07928171804095" lon="12.148556203966905"><ele>275.0</ele><time>2026-05-03T08:30:53Z</time></trkpt><trkpt lat="43.079352131404384" lon="12.148533210581816"><ele>275.0</ele><time>2026-05-03T08:30:54Z</time></trkpt><trkpt lat="43.07942911922655" lon="12.14851512549087"><ele>274.6666666666667</ele><time>2026-05-03T08:30:55Z</time></trkpt><trkpt lat="43.079501578379094" lon="12.148497823191262"><ele>274.33333333333337</ele><time>2026-05-03T08:30:56Z</time></trkpt><trkpt lat="43.079571032697565" lon="12.148490105431268"><ele>274.0</ele><time>2026-05-03T08:30:57Z</time></trkpt><trkpt lat="43.07963916757194" lon="12.148495950006494"><ele>273.6666666666667</ele><time>2026-05-03T08:30:58Z</time></trkpt><trkpt lat="43.07970630769506" lon="12.148503379495512"><ele>273.3333333333333</ele><time>2026-05-03T08:30:59Z</time></trkpt><trkpt lat="43.0797703421985" lon="12.148499257483499"><ele>273.0</ele><time>2026-05-03T08:31:00Z</time></trkpt><trkpt lat="43.079880129667806" lon="12.14850008499725"><ele>272.6666666666667</ele><time>2026-05-03T08:31:02Z</time></trkpt><trkpt lat="43.079944655360705" lon="12.148489860404045"><ele>272.3333333333333</ele><time>2026-05-03T08:31:03Z</time></trkpt><trkpt lat="43.080016354409494" lon="12.148489207163818"><ele>272.0</ele><time>2026-05-03T08:31:04Z</time></trkpt><trkpt lat="43.080090462415065" lon="12.148502751547616"><ele>271.66666666666663</ele><time>2026-05-03T08:31:05Z</time></trkpt><trkpt lat="43.08015714341257" lon="12.148496190739884"><ele>271.3333333333333</ele><time>2026-05-03T08:31:06Z</time></trkpt><trkpt lat="43.080254290610846" lon="12.14846991519046"><ele>271.0</ele><time>2026-05-03T08:31:08Z</time></trkpt><trkpt lat="43.08031739725733" lon="12.148281423558453"><ele>271.0</ele><time>2026-05-03T08:31:10Z</time></trkpt><trkpt lat="43.08033265382171" lon="12.148138533704683"><ele>271.0</ele><time>2026-05-03T08:31:12Z</time></trkpt><trkpt lat="43.08039599402354" lon="12.148087717502548"><ele>271.0</ele><time>2026-05-03T08:31:14Z</time></trkpt><trkpt lat="43.08049925471141" lon="12.14813041685478"><ele>271.0</ele><time>2026-05-03T08:31:16Z</time></trkpt><trkpt lat="43.08051556452755" lon="12.148263874843595"><ele>271.0</ele><time>2026-05-03T08:31:18Z</time></trkpt><trkpt lat="43.080477369005436" lon="12.148413599354988"><ele>271.0</ele><time>2026-05-03T08:31:20Z</time></trkpt><trkpt lat="43.08047167181709" lon="12.148548851366854"><ele>271.0</ele><time>2026-05-03T08:31:22Z</time></trkpt><trkpt lat="43.08058379919426" lon="12.148671680217483"><ele>271.0</ele><time>2026-05-03T08:31:24Z</time></trkpt><trkpt lat="43.080670026248484" lon="12.148727767603233"><ele>271.0</ele><time>2026-05-03T08:31:25Z</time></trkpt><trkpt lat="43.08074519283701" lon="12.148785371971057"><ele>271.0</ele><time>2026-05-03T08:31:26Z</time></trkpt><trkpt lat="43.080816744964935" lon="12.148843757713827"><ele>270.3333333333333</ele><time>2026-05-03T08:31:27Z</time></trkpt><trkpt lat="43.080880094478694" lon="12.148908657964427"><ele>269.66666666666663</ele><time>2026-05-03T08:31:28Z</time></trkpt><trkpt lat="43.08094149706313" lon="12.148964926525828"><ele>269.0</ele><time>2026-05-03T08:31:29Z</time></trkpt><trkpt lat="43.08100680611998" lon="12.149007069579865"><ele>268.3333333333333</ele><time>2026-05-03T08:31:30Z</time></trkpt><trkpt lat="43.0811287193283" lon="12.149037250641097"><ele>267.6666666666667</ele><time>2026-05-03T08:31:32Z</time></trkpt><trkpt lat="43.081209605655424" lon="12.14906840728445"><ele>267.0</ele><time>2026-05-03T08:31:33Z</time></trkpt><trkpt lat="43.08128191602788" lon="12.149088506126692"><ele>267.0</ele><time>2026-05-03T08:31:34Z</time></trkpt><trkpt lat="43.081345190168115" lon="12.149102215420907"><ele>267.0</ele><time>2026-05-03T08:31:35Z</time></trkpt><trkpt lat="43.081410810979634" lon="12.149092289074773"><ele>267.0</ele><time>2026-05-03T08:31:36Z</time></trkpt><trkpt lat="43.08147649970297" lon="12.149074325012538"><ele>267.0</ele><time>2026-05-03T08:31:37Z</time></trkpt><trkpt lat="43.081584599847375" lon="12.149006642908683"><ele>267.0</ele><time>2026-05-03T08:31:39Z</time></trkpt><trkpt lat="43.08168896101764" lon="12.148982149125594"><ele>267.0</ele><time>2026-05-03T08:31:41Z</time></trkpt><trkpt lat="43.08174680025625" lon="12.1489439867827"><ele>266.6666666666667</ele><time>2026-05-03T08:31:42Z</time></trkpt><trkpt lat="43.08183374158152" lon="12.148926043715203"><ele>266.3333333333333</ele><time>2026-05-03T08:31:44Z</time></trkpt><trkpt lat="43.08190843935229" lon="12.148895060604026"><ele>266.0</ele><time>2026-05-03T08:32:06Z</time></trkpt><trkpt lat="43.08199183477857" lon="12.148855470410997"><ele>265.66666666666663</ele><time>2026-05-03T08:32:09Z</time></trkpt><trkpt lat="43.08209190048936" lon="12.14879871191329"><ele>265.3333333333333</ele><time>2026-05-03T08:32:11Z</time></trkpt><trkpt lat="43.08216491236073" lon="12.148776815263899"><ele>265.0</ele><time>2026-05-03T08:32:12Z</time></trkpt><trkpt lat="43.082239982573206" lon="12.148746608609418"><ele>265.0</ele><time>2026-05-03T08:32:13Z</time></trkpt><trkpt lat="43.082312801352074" lon="12.148710982040761"><ele>265.0</ele><time>2026-05-03T08:32:14Z</time></trkpt><trkpt lat="43.08238097025109" lon="12.148673126397261"><ele>265.0</ele><time>2026-05-03T08:32:15Z</time></trkpt><trkpt lat="43.082448511329616" lon="12.14862278454011"><ele>265.0</ele><time>2026-05-03T08:32:16Z</time></trkpt><trkpt lat="43.082513947088074" lon="12.148564270448748"><ele>265.0</ele><time>2026-05-03T08:32:17Z</time></trkpt><trkpt lat="43.08258450336139" lon="12.14851183336399"><ele>265.0</ele><time>2026-05-03T08:32:18Z</time></trkpt><trkpt lat="43.0826574417378" lon="12.148455981966567"><ele>264.8333333333333</ele><time>2026-05-03T08:32:19Z</time></trkpt><trkpt lat="43.08272890303108" lon="12.148408182707431"><ele>264.66666666666663</ele><time>2026-05-03T08:32:20Z</time></trkpt><trkpt lat="43.08279739851737" lon="12.1483611238923"><ele>264.5</ele><time>2026-05-03T08:32:21Z</time></trkpt><trkpt lat="43.08286030233049" lon="12.148294951372936"><ele>264.3333333333333</ele><time>2026-05-03T08:32:22Z</time></trkpt><trkpt lat="43.08293267069987" lon="12.148225812541115"><ele>264.1666666666667</ele><time>2026-05-03T08:32:23Z</time></trkpt><trkpt lat="43.08300260703189" lon="12.148160445504068"><ele>264.0</ele><time>2026-05-03T08:32:24Z</time></trkpt><trkpt lat="43.0830800754425" lon="12.14809616192057"><ele>263.8333333333333</ele><time>2026-05-03T08:32:25Z</time></trkpt><trkpt lat="43.083152316902236" lon="12.148041877590542"><ele>263.6666666666667</ele><time>2026-05-03T08:32:26Z</time></trkpt><trkpt lat="43.08322181713734" lon="12.147984717040993"><ele>263.5</ele><time>2026-05-03T08:32:27Z</time></trkpt><trkpt lat="43.083294558298036" lon="12.147930560981775"><ele>263.33333333333337</ele><time>2026-05-03T08:32:28Z</time></trkpt><trkpt lat="43.083356769134184" lon="12.14786466661395"><ele>263.1666666666667</ele><time>2026-05-03T08:32:29Z</time></trkpt><trkpt lat="43.08341690199285" lon="12.147806252795405"><ele>263.0</ele><time>2026-05-03T08:32:30Z</time></trkpt><trkpt lat="43.083477283149094" lon="12.147746707445306"><ele>262.6666666666667</ele><time>2026-05-03T08:32:31Z</time></trkpt><trkpt lat="43.08353713946368" lon="12.147694088635314"><ele>262.33333333333337</ele><time>2026-05-03T08:32:32Z</time></trkpt><trkpt lat="43.08359658615096" lon="12.147631011300204"><ele>262.0</ele><time>2026-05-03T08:32:33Z</time></trkpt><trkpt lat="43.08366040387046" lon="12.147571553196824"><ele>261.6666666666667</ele><time>2026-05-03T08:32:34Z</time></trkpt><trkpt lat="43.083726086729605" lon="12.147510643260112"><ele>261.3333333333333</ele><time>2026-05-03T08:32:35Z</time></trkpt><trkpt lat="43.08378606853778" lon="12.147444305123477"><ele>261.0</ele><time>2026-05-03T08:32:36Z</time></trkpt><trkpt lat="43.08384379999011" lon="12.14738305034551"><ele>260.8333333333333</ele><time>2026-05-03T08:32:37Z</time></trkpt><trkpt lat="43.08391234445523" lon="12.147332707960057"><ele>260.6666666666667</ele><time>2026-05-03T08:32:38Z</time></trkpt><trkpt lat="43.0839642796509" lon="12.147280941378524"><ele>260.5</ele><time>2026-05-03T08:32:39Z</time></trkpt><trkpt lat="43.08404834312689" lon="12.147197150836561"><ele>260.33333333333337</ele><time>2026-05-03T08:32:41Z</time></trkpt><trkpt lat="43.084105595291" lon="12.147129336327422"><ele>260.1666666666667</ele><time>2026-05-03T08:32:43Z</time></trkpt><trkpt lat="43.08419167647955" lon="12.14722897272014"><ele>260.0</ele><time>2026-05-03T08:32:46Z</time></trkpt><trkpt lat="43.084287409991504" lon="12.147304855727583"><ele>260.0</ele><time>2026-05-03T08:32:48Z</time></trkpt><trkpt lat="43.08439283608235" lon="12.147395734595229"><ele>260.0</ele><time>2026-05-03T08:32:50Z</time></trkpt><trkpt lat="43.084449139342816" lon="12.147437635732205"><ele>260.0</ele><time>2026-05-03T08:32:51Z</time></trkpt><trkpt lat="43.084502577882034" lon="12.14748391574147"><ele>260.0</ele><time>2026-05-03T08:32:52Z</time></trkpt><trkpt lat="43.084556355899096" lon="12.14753122759357"><ele>260.0</ele><time>2026-05-03T08:32:53Z</time></trkpt><trkpt lat="43.084658892259284" lon="12.147623603850919"><ele>260.0</ele><time>2026-05-03T08:32:55Z</time></trkpt><trkpt lat="43.084717052575506" lon="12.147670825270271"><ele>260.00000000000006</ele><time>2026-05-03T08:32:56Z</time></trkpt><trkpt lat="43.084771727992745" lon="12.147730566754642"><ele>260.0</ele><time>2026-05-03T08:32:57Z</time></trkpt><trkpt lat="43.08481643760129" lon="12.147801472479033"><ele>260.0</ele><time>2026-05-03T08:32:58Z</time></trkpt><trkpt lat="43.08485371082618" lon="12.147890815566376"><ele>260.0</ele><time>2026-05-03T08:32:59Z</time></trkpt><trkpt lat="43.08488714396692" lon="12.14798667581887"><ele>260.0</ele><time>2026-05-03T08:33:00Z</time></trkpt><trkpt lat="43.08492045671584" lon="12.148082627183665"><ele>260.00000000000006</ele><time>2026-05-03T08:33:01Z</time></trkpt><trkpt lat="43.08495165189484" lon="12.14817978232048"><ele>260.0</ele><time>2026-05-03T08:33:02Z</time></trkpt><trkpt lat="43.08498181314216" lon="12.148271730174116"><ele>259.33333333333337</ele><time>2026-05-03T08:33:03Z</time></trkpt><trkpt lat="43.08501839271981" lon="12.148364696484178"><ele>258.6666666666667</ele><time>2026-05-03T08:33:04Z</time></trkpt><trkpt lat="43.08505714991656" lon="12.148468607472106"><ele>258.0</ele><time>2026-05-03T08:33:05Z</time></trkpt><trkpt lat="43.08509428714292" lon="12.148560738066404"><ele>257.3333333333333</ele><time>2026-05-03T08:33:06Z</time></trkpt><trkpt lat="43.085131573294" lon="12.14865084090397"><ele>256.66666666666663</ele><time>2026-05-03T08:33:07Z</time></trkpt><trkpt lat="43.08516727763603" lon="12.14874072431293"><ele>256.0</ele><time>2026-05-03T08:33:08Z</time></trkpt><trkpt lat="43.085202133692626" lon="12.148825620829333"><ele>255.99999999999997</ele><time>2026-05-03T08:33:09Z</time></trkpt><trkpt lat="43.085230557553686" lon="12.148906919888898"><ele>256.0</ele><time>2026-05-03T08:33:10Z</time></trkpt><trkpt lat="43.08524829786429" lon="12.149064087042651"><ele>256.0</ele><time>2026-05-03T08:33:12Z</time></trkpt><trkpt lat="43.08522778328097" lon="12.149146439291432"><ele>256.0</ele><time>2026-05-03T08:33:13Z</time></trkpt><trkpt lat="43.08517283560889" lon="12.149267660901794"><ele>255.99999999999997</ele><time>2026-05-03T08:33:15Z</time></trkpt><trkpt lat="43.08513470823509" lon="12.149384576416615"><ele>256.0</ele><time>2026-05-03T08:33:17Z</time></trkpt><trkpt lat="43.08511001971269" lon="12.149473028949114"><ele>256.5</ele><time>2026-05-03T08:33:19Z</time></trkpt><trkpt lat="43.085086666331236" lon="12.149564844402887"><ele>257.0</ele><time>2026-05-03T08:33:24Z</time></trkpt><trkpt lat="43.0850378709162" lon="12.149641888070358"><ele>257.5</ele><time>2026-05-03T08:33:26Z</time></trkpt><trkpt lat="43.084803280188794" lon="12.149577902492018"><ele>258.0</ele><time>2026-05-03T08:33:27Z</time></trkpt><trkpt lat="43.08467322465961" lon="12.14959850152187"><ele>258.3333333333333</ele><time>2026-05-03T08:33:28Z</time></trkpt><trkpt lat="43.0845059253127" lon="12.149625275646349"><ele>258.66666666666663</ele><time>2026-05-03T08:33:29Z</time></trkpt><trkpt lat="43.08431450101987" lon="12.14966222341868"><ele>259.0</ele><time>2026-05-03T08:33:30Z</time></trkpt><trkpt lat="43.0840897606508" lon="12.149706908029787"><ele>259.0</ele><time>2026-05-03T08:33:31Z</time></trkpt><trkpt lat="43.08384922764247" lon="12.14975026813977"><ele>259.0</ele><time>2026-05-03T08:33:32Z</time></trkpt><trkpt lat="43.083624982899714" lon="12.149790376532922"><ele>259.0</ele><time>2026-05-03T08:33:33Z</time></trkpt><trkpt lat="43.08345325506133" lon="12.149822436310338"><ele>259.0</ele><time>2026-05-03T08:33:34Z</time></trkpt><trkpt lat="43.08329929456333" lon="12.149848455573379"><ele>259.0</ele><time>2026-05-03T08:33:35Z</time></trkpt><trkpt lat="43.0831678357345" lon="12.14987185957852"><ele>259.59999999999997</ele><time>2026-05-03T08:33:36Z</time></trkpt><trkpt lat="43.08304819939942" lon="12.149897414200051"><ele>260.2</ele><time>2026-05-03T08:33:37Z</time></trkpt><trkpt lat="43.08294086577478" lon="12.149919354338943"><ele>260.79999999999995</ele><time>2026-05-03T08:33:38Z</time></trkpt><trkpt lat="43.08284015154475" lon="12.149941124459877"><ele>261.4</ele><time>2026-05-03T08:33:39Z</time></trkpt><trkpt lat="43.08274274207822" lon="12.149959587061518"><ele>262.0</ele><time>2026-05-03T08:33:40Z</time></trkpt><trkpt lat="43.082651509521085" lon="12.149977965921167"><ele>262.0</ele><time>2026-05-03T08:33:41Z</time></trkpt><trkpt lat="43.082565782997605" lon="12.149994614476164"><ele>262.0</ele><time>2026-05-03T08:33:42Z</time></trkpt><trkpt lat="43.08248288647522" lon="12.150006721537851"><ele>262.0</ele><time>2026-05-03T08:33:43Z</time></trkpt><trkpt lat="43.08241195466385" lon="12.150020068421401"><ele>262.0</ele><time>2026-05-03T08:33:44Z</time></trkpt><trkpt lat="43.0823457630946" lon="12.150025468801578"><ele>262.0</ele><time>2026-05-03T08:33:45Z</time></trkpt><trkpt lat="43.08224625830688" lon="12.150047892662947"><ele>262.0</ele><time>2026-05-03T08:33:47Z</time></trkpt><trkpt lat="43.08216215227578" lon="12.150066334190827"><ele>263.5</ele><time>2026-05-03T08:33:49Z</time></trkpt><trkpt lat="43.0819722971569" lon="12.149921558792682"><ele>265.0</ele><time>2026-05-03T08:33:52Z</time></trkpt><trkpt lat="43.08226381971152" lon="12.149916805767708"><ele>265.0</ele><time>2026-05-03T08:33:56Z</time></trkpt><trkpt lat="43.082338375959885" lon="12.149904784391682"><ele>265.0</ele><time>2026-05-03T08:33:58Z</time></trkpt><trkpt lat="43.08242583937131" lon="12.14990499860005"><ele>265.0</ele><time>2026-05-03T08:34:01Z</time></trkpt><trkpt lat="43.08250176767003" lon="12.149921019790934"><ele>265.0</ele><time>2026-05-03T08:34:04Z</time></trkpt><trkpt lat="43.08244113424105" lon="12.14994885113229"><ele>265.0</ele><time>2026-05-03T08:40:42.021Z</time></trkpt><trkpt lat="43.08249874621975" lon="12.149909050710768"><ele>265.0</ele><time>2026-05-03T08:40:44.016Z</time></trkpt><trkpt lat="43.08244581576615" lon="12.149801632503392"><ele>262.0</ele><time>2026-05-03T08:40:48Z</time></trkpt><trkpt lat="43.08241587962817" lon="12.14964075754362"><ele>265.0</ele><time>2026-05-03T08:40:50Z</time></trkpt></trkseg></trk></gpx>